
Distance (Route):
Temperature : 19.1°C
Humidity : 73.3%
Pressure : 0hPa| Receiver | Frames | First received | Last received |
|---|---|---|---|
| IW2NTF | 1379 | 2026-09-02 23:02:13 | 2026-09-03 02:14:53 |
| DO3MHA-11 | 415 | 2026-09-02 23:51:57 | 2026-09-03 01:27:11 |
| DB0UT-7 | 171 | 2026-09-02 23:51:49 | 2026-09-03 01:26:05 |
| NBG1-10 | 90 | 2026-09-03 00:09:19 | 2026-09-03 01:20:42 |
| OE5DRO-10 | 77 | 2026-09-03 00:34:45 | 2026-09-03 01:09:49 |
| PG1ADW-2 | 30 | 2026-09-03 00:47:05 | 2026-09-03 01:07:26 |
| DF1GD-15 | 27 | 2026-09-03 01:09:33 | 2026-09-03 01:19:53 |
| OE3JTB-15 | 18 | 2026-09-03 00:45:46 | 2026-09-03 01:08:39 |
| S52SK | 18 | 2026-09-03 00:47:15 | 2026-09-03 01:08:32 |
| DK5PH-5 | 5 | 2026-09-03 01:02:33 | 2026-09-03 01:06:30 |
| DH7VM-15 | 1 | 2026-09-03 01:16:42 | 2026-09-03 01:16:42 |
| Receiver | Date | Latitude | Longitude | Direction | Speed | Altitude | Climb | Temperature | Humidity | Pressure | Voltage | Killtimer | Uptime | BKT | XDATA |
|---|---|---|---|---|---|---|---|---|---|---|---|---|---|---|---|
| IW2NTF | 2026-09-03 02:14:53 | 44.65517 | 9.73860 | 220° | 7km/h | 1233m | -3m/s | 19.1°C | 73.3% | 0hPa | 2.8V | 07:22:12 | 03:41:07 | 00:00:00 | |
| IW2NTF | 2026-09-03 02:14:53 | 44.65520 | 9.73862 | 234° | 5km/h | 1239m | -2.8m/s | 19.1°C | 73.6% | 0hPa | 2.7V | 07:22:14 | 03:41:05 | 00:00:00 | |
| IW2NTF | 2026-09-03 02:14:53 | 44.65521 | 9.73866 | 237° | 7km/h | 1245m | -3.2m/s | 19.1°C | 74% | 0hPa | 2.8V | 07:22:16 | 03:41:03 | 00:00:00 | |
| IW2NTF | 2026-09-03 02:14:47 | 44.65524 | 9.73871 | 218° | 7km/h | 1252m | -3m/s | 19°C | 74.3% | 0hPa | 2.8V | 07:22:18 | 03:41:01 | 00:00:00 | |
| IW2NTF | 2026-09-03 02:14:47 | 44.65527 | 9.73875 | 233° | 9km/h | 1258m | -3m/s | 19°C | 74.6% | 0hPa | 2.8V | 07:22:20 | 03:40:59 | 00:00:00 | |
| IW2NTF | 2026-09-03 02:14:47 | 44.65530 | 9.73880 | 224° | 11km/h | 1264m | -3.4m/s | 19°C | 74.4% | 0hPa | 2.8V | 07:22:22 | 03:40:57 | 00:00:00 | |
| IW2NTF | 2026-09-03 02:14:41 | 44.65535 | 9.73885 | 202° | 11km/h | 1271m | -3.1m/s | 18.9°C | 74.5% | 0hPa | 2.8V | 07:22:24 | 03:40:55 | 00:00:00 | |
| IW2NTF | 2026-09-03 02:14:41 | 44.65539 | 9.73887 | 203° | 7km/h | 1277m | -2.9m/s | 18.8°C | 74.8% | 0hPa | 2.7V | 07:22:26 | 03:40:53 | 00:00:00 | |
| IW2NTF | 2026-09-03 02:14:41 | 44.65541 | 9.73890 | 236° | 5km/h | 1282m | -2.7m/s | 18.8°C | 75% | 0hPa | 2.8V | 07:22:28 | 03:40:51 | 00:00:00 | |
| IW2NTF | 2026-09-03 02:14:35 | 44.65543 | 9.73894 | 225° | 9km/h | 1288m | -3.1m/s | 18.7°C | 75.3% | 0hPa | 2.8V | 07:22:30 | 03:40:49 | 00:00:00 | |
| IW2NTF | 2026-09-03 02:14:35 | 44.65547 | 9.73898 | 203° | 7km/h | 1295m | -3.3m/s | 18.7°C | 75.5% | 0hPa | 2.8V | 07:22:32 | 03:40:47 | 00:00:00 | |
| IW2NTF | 2026-09-03 02:14:35 | 44.65551 | 9.73900 | 219° | 7km/h | 1301m | -3.1m/s | 18.6°C | 75.7% | 0hPa | 2.8V | 07:22:34 | 03:40:45 | 00:00:00 | |
| IW2NTF | 2026-09-03 02:14:29 | 44.65554 | 9.73904 | 208° | 9km/h | 1308m | -3.5m/s | 18.6°C | 75.9% | 0hPa | 2.8V | 07:22:36 | 03:40:43 | 00:00:00 | |
| IW2NTF | 2026-09-03 02:14:29 | 44.65557 | 9.73906 | 202° | 5km/h | 1314m | -3.1m/s | 18.5°C | 76.2% | 0hPa | 2.8V | 07:22:38 | 03:40:41 | 00:00:00 | |
| IW2NTF | 2026-09-03 02:14:29 | 44.65560 | 9.73908 | 224° | 5km/h | 1320m | -2.9m/s | 18.4°C | 76.5% | 0hPa | 2.8V | 07:22:40 | 03:40:39 | 00:00:00 | |
| IW2NTF | 2026-09-03 02:14:23 | 44.65562 | 9.73911 | 200° | 5km/h | 1326m | -3.4m/s | 18.4°C | 76.6% | 0hPa | 2.8V | 07:22:42 | 03:40:37 | 00:00:00 | |
| IW2NTF | 2026-09-03 02:14:23 | 44.65565 | 9.73911 | 194° | 4km/h | 1334m | -3.4m/s | 18.3°C | 76.6% | 0hPa | 2.8V | 07:22:44 | 03:40:35 | 00:00:00 | |
| IW2NTF | 2026-09-03 02:14:23 | 44.65567 | 9.73913 | 216° | 7km/h | 1340m | -2.9m/s | 18.3°C | 76.9% | 0hPa | 2.8V | 07:22:46 | 03:40:33 | 00:00:00 | |
| IW2NTF | 2026-09-03 02:14:17 | 44.65571 | 9.73917 | 205° | 11km/h | 1346m | -3.4m/s | 18.2°C | 77% | 0hPa | 2.7V | 07:22:48 | 03:40:31 | 00:00:00 | |
| IW2NTF | 2026-09-03 02:14:17 | 44.65576 | 9.73919 | 206° | 9km/h | 1353m | -3.3m/s | 18.2°C | 77.3% | 0hPa | 2.8V | 07:22:50 | 03:40:29 | 00:00:00 | |
| IW2NTF | 2026-09-03 02:14:17 | 44.65579 | 9.73923 | 226° | 11km/h | 1359m | -3.3m/s | 18.1°C | 77.5% | 0hPa | 2.8V | 07:22:52 | 03:40:27 | 00:00:00 | |
| IW2NTF | 2026-09-03 02:14:11 | 44.65584 | 9.73929 | 214° | 13km/h | 1366m | -3.2m/s | 18.1°C | 77.6% | 0hPa | 2.8V | 07:22:54 | 03:40:25 | 00:00:00 | |
| IW2NTF | 2026-09-03 02:14:11 | 44.65588 | 9.73933 | 223° | 9km/h | 1371m | -2.9m/s | 18°C | 77.6% | 0hPa | 2.8V | 07:22:56 | 03:40:23 | 00:00:00 | |
| IW2NTF | 2026-09-03 02:14:11 | 44.65591 | 9.73939 | 238° | 11km/h | 1378m | -3.7m/s | 17.9°C | 77.9% | 0hPa | 2.8V | 07:22:58 | 03:40:21 | 00:00:00 | |
| IW2NTF | 2026-09-03 02:14:05 | 44.65595 | 9.73946 | 224° | 11km/h | 1385m | -3.3m/s | 17.9°C | 78.1% | 0hPa | 2.8V | 07:23:00 | 03:40:19 | 00:00:00 | |
| IW2NTF | 2026-09-03 02:14:05 | 44.65598 | 9.73949 | 218° | 5km/h | 1390m | -2.9m/s | 17.8°C | 78.5% | 0hPa | 2.8V | 07:23:02 | 03:40:17 | 00:00:00 | |
| IW2NTF | 2026-09-03 02:14:05 | 44.65600 | 9.73953 | 251° | 7km/h | 1397m | -3.6m/s | 17.8°C | 78.3% | 0hPa | 2.8V | 07:23:04 | 03:40:15 | 00:00:00 | |
| IW2NTF | 2026-09-03 02:13:59 | 44.65601 | 9.73958 | 243° | 11km/h | 1404m | -3.1m/s | 17.7°C | 78.5% | 0hPa | 2.8V | 07:23:06 | 03:40:13 | 00:00:00 | |
| IW2NTF | 2026-09-03 02:13:59 | 44.65604 | 9.73965 | 226° | 11km/h | 1410m | -3m/s | 17.6°C | 78.7% | 0hPa | 2.8V | 07:23:08 | 03:40:11 | 00:00:00 | |
| IW2NTF | 2026-09-03 02:13:59 | 44.65608 | 9.73969 | 215° | 9km/h | 1416m | -2.8m/s | 17.6°C | 78.7% | 0hPa | 2.7V | 07:23:10 | 03:40:09 | 00:00:00 | |
| IW2NTF | 2026-09-03 02:13:53 | 44.65611 | 9.73973 | 231° | 7km/h | 1422m | -3.6m/s | 17.6°C | 78.9% | 0hPa | 2.8V | 07:23:12 | 03:40:07 | 00:00:00 | |
| IW2NTF | 2026-09-03 02:13:53 | 44.65615 | 9.73978 | 221° | 11km/h | 1429m | -3.1m/s | 17.5°C | 79.2% | 0hPa | 2.8V | 07:23:14 | 03:40:05 | 00:00:00 | |
| IW2NTF | 2026-09-03 02:13:53 | 44.65618 | 9.73981 | 205° | 7km/h | 1435m | -3.1m/s | 17.4°C | 79.5% | 0hPa | 2.8V | 07:23:16 | 03:40:03 | 00:00:00 | |
| IW2NTF | 2026-09-03 02:13:47 | 44.65621 | 9.73984 | 232° | 7km/h | 1442m | -3.2m/s | 17.4°C | 79.4% | 0hPa | 2.8V | 07:23:18 | 03:40:01 | 00:00:00 | |
| IW2NTF | 2026-09-03 02:13:47 | 44.65629 | 9.73995 | 216° | 11km/h | 1455m | -3.3m/s | 17.3°C | 79.9% | 0hPa | 2.8V | 07:23:22 | 03:39:57 | 00:00:00 | |
| IW2NTF | 2026-09-03 02:13:41 | 44.65634 | 9.74000 | 218° | 15km/h | 1461m | -3.4m/s | 17.2°C | 80.2% | 0hPa | 2.8V | 07:23:24 | 03:39:55 | 00:00:00 | |
| IW2NTF | 2026-09-03 02:13:41 | 44.65641 | 9.74006 | 198° | 16km/h | 1468m | -3.3m/s | 17.1°C | 80.4% | 0hPa | 2.8V | 07:23:26 | 03:39:53 | 00:00:00 | |
| IW2NTF | 2026-09-03 02:13:41 | 44.65648 | 9.74007 | 176° | 15km/h | 1475m | -3.1m/s | 17.1°C | 80.7% | 0hPa | 2.8V | 07:23:28 | 03:39:51 | 00:00:00 | |
| IW2NTF | 2026-09-03 02:13:36 | 44.65654 | 9.74005 | 161° | 11km/h | 1481m | -3.4m/s | 17°C | 80.6% | 0hPa | 2.7V | 07:23:30 | 03:39:49 | 00:00:00 | |
| IW2NTF | 2026-09-03 02:13:36 | 44.65659 | 9.74003 | 156° | 7km/h | 1488m | -3m/s | 17°C | 80.8% | 0hPa | 2.8V | 07:23:32 | 03:39:47 | 00:00:00 | |
| IW2NTF | 2026-09-03 02:13:36 | 44.65662 | 9.74002 | 201° | 4km/h | 1494m | -2.6m/s | 16.9°C | 80.2% | 0hPa | 2.8V | 07:23:34 | 03:39:45 | 00:00:00 | |
| IW2NTF | 2026-09-03 02:13:29 | 44.65664 | 9.74006 | 243° | 11km/h | 1499m | -2.8m/s | 16.9°C | 80.6% | 0hPa | 2.8V | 07:23:36 | 03:39:43 | 00:00:00 | |
| IW2NTF | 2026-09-03 02:13:29 | 44.65667 | 9.74014 | 230° | 16km/h | 1505m | -3.3m/s | 16.8°C | 80.5% | 0hPa | 2.8V | 07:23:38 | 03:39:41 | 00:00:00 | |
| IW2NTF | 2026-09-03 02:13:29 | 44.65674 | 9.74023 | 214° | 18km/h | 1512m | -3.4m/s | 16.8°C | 81% | 0hPa | 2.7V | 07:23:40 | 03:39:39 | 00:00:00 | |
| IW2NTF | 2026-09-03 02:13:23 | 44.65683 | 9.74029 | 202° | 18km/h | 1519m | -3.3m/s | 16.7°C | 80.9% | 0hPa | 2.8V | 07:23:42 | 03:39:37 | 00:00:00 | |
| IW2NTF | 2026-09-03 02:13:23 | 44.65692 | 9.74033 | 187° | 18km/h | 1525m | -3.2m/s | 16.6°C | 81.1% | 0hPa | 2.8V | 07:23:44 | 03:39:35 | 00:00:00 | |
| IW2NTF | 2026-09-03 02:13:23 | 44.65701 | 9.74034 | 177° | 16km/h | 1531m | -3.2m/s | 16.6°C | 80.9% | 0hPa | 2.8V | 07:23:46 | 03:39:33 | 00:00:00 | |
| IW2NTF | 2026-09-03 02:13:15 | 44.65717 | 9.74031 | 172° | 15km/h | 1544m | -3m/s | 16.5°C | 80.8% | 0hPa | 2.8V | 07:23:50 | 03:39:29 | 00:00:00 | |
| IW2NTF | 2026-09-03 02:13:15 | 44.65723 | 9.74031 | 181° | 13km/h | 1549m | -2.8m/s | 16.5°C | 80.7% | 0hPa | 2.8V | 07:23:52 | 03:39:27 | 00:00:00 | |
| IW2NTF | 2026-09-03 02:13:15 | 44.65730 | 9.74032 | 193° | 13km/h | 1555m | -2.8m/s | 16.4°C | 80.9% | 0hPa | 2.8V | 07:23:54 | 03:39:25 | 00:00:00 | |
| IW2NTF | 2026-09-03 02:13:09 | 44.65737 | 9.74034 | 184° | 15km/h | 1561m | -3.3m/s | 16.4°C | 80.4% | 0hPa | 2.8V | 07:23:56 | 03:39:23 | 00:00:00 | |
| IW2NTF | 2026-09-03 02:13:09 | 44.65745 | 9.74034 | 177° | 13km/h | 1569m | -3.3m/s | 16.4°C | 80.8% | 0hPa | 2.8V | 07:23:58 | 03:39:21 | 00:00:00 | |
| IW2NTF | 2026-09-03 02:13:09 | 44.65752 | 9.74035 | 189° | 15km/h | 1574m | -2.6m/s | 16.4°C | 80% | 0hPa | 2.8V | 07:24:00 | 03:39:19 | 00:00:00 | |
| IW2NTF | 2026-09-03 02:13:03 | 44.65760 | 9.74037 | 194° | 16km/h | 1581m | -3.7m/s | 16.3°C | 80.1% | 0hPa | 2.8V | 07:24:02 | 03:39:17 | 00:00:00 | |
| IW2NTF | 2026-09-03 02:13:03 | 44.65767 | 9.74041 | 206° | 16km/h | 1588m | -3m/s | 16.3°C | 80.4% | 0hPa | 2.8V | 07:24:04 | 03:39:15 | 00:00:00 | |
| IW2NTF | 2026-09-03 02:13:03 | 44.65775 | 9.74048 | 215° | 20km/h | 1594m | -3.6m/s | 16.2°C | 80.5% | 0hPa | 2.8V | 07:24:06 | 03:39:13 | 00:00:00 | |
| IW2NTF | 2026-09-03 02:12:57 | 44.65784 | 9.74056 | 211° | 22km/h | 1602m | -3.7m/s | 16.1°C | 80.8% | 0hPa | 2.7V | 07:24:08 | 03:39:11 | 00:00:00 | |
| IW2NTF | 2026-09-03 02:12:57 | 44.65793 | 9.74064 | 210° | 22km/h | 1608m | -3.1m/s | 16.1°C | 80.5% | 0hPa | 2.8V | 07:24:10 | 03:39:09 | 00:00:00 | |
| IW2NTF | 2026-09-03 02:12:57 | 44.65802 | 9.74072 | 210° | 22km/h | 1615m | -3m/s | 16.1°C | 80.6% | 0hPa | 2.8V | 07:24:12 | 03:39:07 | 00:00:00 | |
| IW2NTF | 2026-09-03 02:12:52 | 44.65816 | 9.74083 | 210° | 22km/h | 1624m | -3.1m/s | 16°C | 79.5% | 0hPa | 2.8V | 07:24:15 | 03:39:04 | 00:00:00 | |
| IW2NTF | 2026-09-03 02:12:52 | 44.65825 | 9.74091 | 212° | 20km/h | 1630m | -2.9m/s | 16°C | 78.6% | 0hPa | 2.7V | 07:24:17 | 03:39:02 | 00:00:00 | |
| IW2NTF | 2026-09-03 02:12:46 | 44.65833 | 9.74098 | 215° | 18km/h | 1636m | -3.3m/s | 16°C | 77.2% | 0hPa | 2.8V | 07:24:19 | 03:39:00 | 00:00:00 | |
| IW2NTF | 2026-09-03 02:12:46 | 44.65841 | 9.74106 | 217° | 16km/h | 1642m | -3.2m/s | 16°C | 73.4% | 0hPa | 2.8V | 07:24:21 | 03:38:58 | 00:00:00 | |
| IW2NTF | 2026-09-03 02:12:46 | 44.65847 | 9.74113 | 219° | 15km/h | 1649m | -3.2m/s | 16.1°C | 70.9% | 0hPa | 2.8V | 07:24:23 | 03:38:56 | 00:00:00 | |
| IW2NTF | 2026-09-03 02:12:40 | 44.65852 | 9.74119 | 212° | 13km/h | 1655m | -3.2m/s | 16.1°C | 68.8% | 0hPa | 2.8V | 07:24:25 | 03:38:54 | 00:00:00 | |
| IW2NTF | 2026-09-03 02:12:40 | 44.65858 | 9.74122 | 190° | 11km/h | 1661m | -3m/s | 16.1°C | 66.9% | 0hPa | 2.8V | 07:24:27 | 03:38:52 | 00:00:00 | |
| IW2NTF | 2026-09-03 02:12:40 | 44.65865 | 9.74122 | 166° | 15km/h | 1667m | -2.9m/s | 16.1°C | 65.5% | 0hPa | 2.8V | 07:24:29 | 03:38:50 | 00:00:00 | |
| IW2NTF | 2026-09-03 02:12:34 | 44.65873 | 9.74118 | 161° | 20km/h | 1673m | -3.3m/s | 16.1°C | 65.7% | 0hPa | 2.8V | 07:24:31 | 03:38:48 | 00:00:00 | |
| IW2NTF | 2026-09-03 02:12:34 | 44.65884 | 9.74113 | 162° | 22km/h | 1680m | -3.6m/s | 16°C | 69.5% | 0hPa | 2.8V | 07:24:33 | 03:38:46 | 00:00:00 | |
| IW2NTF | 2026-09-03 02:12:34 | 44.65895 | 9.74108 | 162° | 24km/h | 1687m | -3.3m/s | 15.9°C | 71.4% | 0hPa | 2.7V | 07:24:35 | 03:38:44 | 00:00:00 | |
| IW2NTF | 2026-09-03 02:12:28 | 44.65907 | 9.74103 | 163° | 24km/h | 1693m | -3.3m/s | 15.8°C | 72.3% | 0hPa | 2.8V | 07:24:37 | 03:38:42 | 00:00:00 | |
| IW2NTF | 2026-09-03 02:12:28 | 44.65919 | 9.74099 | 165° | 26km/h | 1700m | -3.2m/s | 15.7°C | 73.9% | 0hPa | 2.8V | 07:24:39 | 03:38:40 | 00:00:00 | |
| IW2NTF | 2026-09-03 02:12:28 | 44.65931 | 9.74094 | 169° | 27km/h | 1706m | -3.3m/s | 15.7°C | 75.9% | 0hPa | 2.8V | 07:24:41 | 03:38:38 | 00:00:00 | |
| IW2NTF | 2026-09-03 02:12:22 | 44.65945 | 9.74092 | 178° | 27km/h | 1712m | -2.9m/s | 15.6°C | 77.6% | 0hPa | 2.8V | 07:24:43 | 03:38:36 | 00:00:00 | |
| IW2NTF | 2026-09-03 02:12:22 | 44.65960 | 9.74095 | 194° | 27km/h | 1718m | -3m/s | 15.5°C | 78% | 0hPa | 2.8V | 07:24:45 | 03:38:34 | 00:00:00 | |
| IW2NTF | 2026-09-03 02:12:22 | 44.65972 | 9.74101 | 204° | 24km/h | 1725m | -3.4m/s | 15.4°C | 79.5% | 0hPa | 2.8V | 07:24:47 | 03:38:32 | 00:00:00 | |
| IW2NTF | 2026-09-03 02:12:16 | 44.65981 | 9.74107 | 202° | 16km/h | 1731m | -3.2m/s | 15.4°C | 79.8% | 0hPa | 2.8V | 07:24:49 | 03:38:30 | 00:00:00 | |
| IW2NTF | 2026-09-03 02:12:16 | 44.65989 | 9.74109 | 178° | 15km/h | 1737m | -3.1m/s | 15.3°C | 80.3% | 0hPa | 2.8V | 07:24:51 | 03:38:28 | 00:00:00 | |
| IW2NTF | 2026-09-03 02:12:16 | 44.65998 | 9.74106 | 164° | 22km/h | 1744m | -3.4m/s | 15.3°C | 80.3% | 0hPa | 2.8V | 07:24:53 | 03:38:26 | 00:00:00 | |
| IW2NTF | 2026-09-03 02:12:10 | 44.66010 | 9.74103 | 172° | 27km/h | 1751m | -3.3m/s | 15.3°C | 79.5% | 0hPa | 2.8V | 07:24:55 | 03:38:24 | 00:00:00 | |
| IW2NTF | 2026-09-03 02:12:10 | 44.66024 | 9.74102 | 186° | 29km/h | 1757m | -3.1m/s | 15.3°C | 78.3% | 0hPa | 2.8V | 07:24:57 | 03:38:22 | 00:00:00 | |
| IW2NTF | 2026-09-03 02:12:10 | 44.66038 | 9.74107 | 198° | 26km/h | 1763m | -3.2m/s | 15.3°C | 77.2% | 0hPa | 2.8V | 07:24:59 | 03:38:20 | 00:00:00 | |
| IW2NTF | 2026-09-03 02:12:04 | 44.66049 | 9.74112 | 204° | 20km/h | 1770m | -3.3m/s | 15.2°C | 76.5% | 0hPa | 2.7V | 07:25:01 | 03:38:18 | 00:00:00 | |
| IW2NTF | 2026-09-03 02:12:04 | 44.66057 | 9.74117 | 194° | 15km/h | 1776m | -3.3m/s | 15.3°C | 72.9% | 0hPa | 2.8V | 07:25:03 | 03:38:16 | 00:00:00 | |
| IW2NTF | 2026-09-03 02:12:04 | 44.66064 | 9.74117 | 170° | 15km/h | 1783m | -3.3m/s | 15.3°C | 69.9% | 0hPa | 2.8V | 07:25:05 | 03:38:14 | 00:00:00 | |
| IW2NTF | 2026-09-03 02:11:58 | 44.66072 | 9.74114 | 162° | 18km/h | 1789m | -3.5m/s | 15.3°C | 70% | 0hPa | 2.8V | 07:25:07 | 03:38:12 | 00:00:00 | |
| IW2NTF | 2026-09-03 02:11:58 | 44.66096 | 9.74113 | 193° | 26km/h | 1802m | -3.2m/s | 15.4°C | 62.6% | 0hPa | 2.8V | 07:25:11 | 03:38:08 | 00:00:00 | |
| IW2NTF | 2026-09-03 02:11:52 | 44.66108 | 9.74119 | 202° | 24km/h | 1808m | -3.5m/s | 15.4°C | 58.7% | 0hPa | 2.8V | 07:25:13 | 03:38:06 | 00:00:00 | |
| IW2NTF | 2026-09-03 02:11:52 | 44.66118 | 9.74125 | 205° | 22km/h | 1815m | -3.5m/s | 15.4°C | 57% | 0hPa | 2.8V | 07:25:15 | 03:38:04 | 00:00:00 | |
| IW2NTF | 2026-09-03 02:11:52 | 44.66127 | 9.74131 | 206° | 16km/h | 1822m | -3.4m/s | 15.5°C | 53.8% | 0hPa | 2.7V | 07:25:17 | 03:38:02 | 00:00:00 | |
| IW2NTF | 2026-09-03 02:11:46 | 44.66134 | 9.74135 | 189° | 13km/h | 1828m | -3m/s | 15.5°C | 52% | 0hPa | 2.8V | 07:25:19 | 03:38:00 | 00:00:00 | |
| IW2NTF | 2026-09-03 02:11:46 | 44.66141 | 9.74134 | 161° | 15km/h | 1834m | -3.4m/s | 15.7°C | 46.6% | 0hPa | 2.8V | 07:25:21 | 03:37:58 | 00:00:00 | |
| IW2NTF | 2026-09-03 02:11:46 | 44.66149 | 9.74130 | 158° | 20km/h | 1841m | -3.4m/s | 15.7°C | 40.1% | 0hPa | 2.8V | 07:25:23 | 03:37:56 | 00:00:00 | |
| IW2NTF | 2026-09-03 02:11:41 | 44.66171 | 9.74126 | 189° | 20km/h | 1854m | -3.3m/s | 15.7°C | 37% | 0hPa | 2.8V | 07:25:27 | 03:37:52 | 00:00:00 | |
| IW2NTF | 2026-09-03 02:11:41 | 44.66179 | 9.74129 | 196° | 13km/h | 1860m | -3.3m/s | 15.7°C | 35.2% | 0hPa | 2.8V | 07:25:29 | 03:37:50 | 00:00:00 | |
| IW2NTF | 2026-09-03 02:11:34 | 44.66185 | 9.74129 | 166° | 11km/h | 1867m | -3.3m/s | 15.7°C | 34.9% | 0hPa | 2.8V | 07:25:31 | 03:37:48 | 00:00:00 | |
| IW2NTF | 2026-09-03 02:11:34 | 44.66191 | 9.74126 | 154° | 16km/h | 1874m | -3.5m/s | 15.7°C | 35.3% | 0hPa | 2.7V | 07:25:33 | 03:37:46 | 00:00:00 | |
| IW2NTF | 2026-09-03 02:11:34 | 44.66201 | 9.74121 | 167° | 22km/h | 1881m | -3.2m/s | 15.7°C | 35% | 0hPa | 2.8V | 07:25:35 | 03:37:44 | 00:00:00 | |
| IW2NTF | 2026-09-03 02:11:28 | 44.66212 | 9.74120 | 185° | 24km/h | 1887m | -3.8m/s | 15.7°C | 33.9% | 0hPa | 2.8V | 07:25:37 | 03:37:42 | 00:00:00 | |
| IW2NTF | 2026-09-03 02:11:28 | 44.66224 | 9.74124 | 198° | 22km/h | 1894m | -3.5m/s | 15.7°C | 33.2% | 0hPa | 2.8V | 07:25:39 | 03:37:40 | 00:00:00 | |
| IW2NTF | 2026-09-03 02:11:28 | 44.66233 | 9.74129 | 208° | 16km/h | 1901m | -3.4m/s | 15.8°C | 32.8% | 0hPa | 2.7V | 07:25:41 | 03:37:38 | 00:00:00 | |
| IW2NTF | 2026-09-03 02:11:22 | 44.66240 | 9.74134 | 207° | 13km/h | 1908m | -3.4m/s | 15.8°C | 32.4% | 0hPa | 2.8V | 07:25:43 | 03:37:36 | 00:00:00 | |
| IW2NTF | 2026-09-03 02:11:22 | 44.66245 | 9.74137 | 191° | 7km/h | 1915m | -3.4m/s | 15.9°C | 27.4% | 0hPa | 2.8V | 07:25:45 | 03:37:34 | 00:00:00 | |
| IW2NTF | 2026-09-03 02:11:22 | 44.66249 | 9.74136 | 157° | 9km/h | 1922m | -3.5m/s | 15.9°C | 27.1% | 0hPa | 2.8V | 07:25:47 | 03:37:32 | 00:00:00 | |
| IW2NTF | 2026-09-03 02:11:16 | 44.66254 | 9.74132 | 153° | 15km/h | 1928m | -3.1m/s | 15.9°C | 26.1% | 0hPa | 2.7V | 07:25:49 | 03:37:30 | 00:00:00 | |
| IW2NTF | 2026-09-03 02:11:16 | 44.66263 | 9.74128 | 167° | 20km/h | 1935m | -3.3m/s | 15.9°C | 26.2% | 0hPa | 2.8V | 07:25:51 | 03:37:28 | 00:00:00 | |
| IW2NTF | 2026-09-03 02:11:16 | 44.66274 | 9.74127 | 184° | 22km/h | 1942m | -3.5m/s | 15.8°C | 26.5% | 0hPa | 2.8V | 07:25:53 | 03:37:26 | 00:00:00 | |
| IW2NTF | 2026-09-03 02:11:10 | 44.66284 | 9.74130 | 199° | 18km/h | 1949m | -3m/s | 15.8°C | 26.6% | 0hPa | 2.8V | 07:25:55 | 03:37:24 | 00:00:00 | |
| IW2NTF | 2026-09-03 02:11:10 | 44.66291 | 9.74134 | 204° | 13km/h | 1955m | -3.1m/s | 15.7°C | 26.8% | 0hPa | 2.8V | 07:25:57 | 03:37:22 | 00:00:00 | |
| IW2NTF | 2026-09-03 02:11:10 | 44.66296 | 9.74135 | 170° | 9km/h | 1961m | -3.5m/s | 15.6°C | 27.2% | 0hPa | 2.8V | 07:25:59 | 03:37:20 | 00:00:00 | |
| IW2NTF | 2026-09-03 02:11:04 | 44.66302 | 9.74132 | 153° | 16km/h | 1968m | -3.2m/s | 15.6°C | 27.6% | 0hPa | 2.8V | 07:26:01 | 03:37:18 | 00:00:00 | |
| IW2NTF | 2026-09-03 02:11:04 | 44.66311 | 9.74127 | 164° | 22km/h | 1975m | -3.7m/s | 15.5°C | 27.8% | 0hPa | 2.8V | 07:26:03 | 03:37:16 | 00:00:00 | |
| IW2NTF | 2026-09-03 02:11:04 | 44.66323 | 9.74124 | 179° | 24km/h | 1982m | -3.1m/s | 15.4°C | 28% | 0hPa | 2.8V | 07:26:05 | 03:37:14 | 00:00:00 | |
| IW2NTF | 2026-09-03 02:10:58 | 44.66335 | 9.74126 | 195° | 24km/h | 1988m | -3.2m/s | 15.4°C | 28.3% | 0hPa | 2.7V | 07:26:07 | 03:37:12 | 00:00:00 | |
| IW2NTF | 2026-09-03 02:10:58 | 44.66345 | 9.74132 | 207° | 18km/h | 1995m | -3.2m/s | 15.3°C | 28.6% | 0hPa | 2.7V | 07:26:09 | 03:37:10 | 00:00:00 | |
| IW2NTF | 2026-09-03 02:10:58 | 44.66351 | 9.74137 | 209° | 11km/h | 2001m | -3.3m/s | 15.2°C | 29.1% | 0hPa | 2.8V | 07:26:11 | 03:37:08 | 00:00:00 | |
| IW2NTF | 2026-09-03 02:10:52 | 44.66368 | 9.74133 | 160° | 18km/h | 2022m | -3.5m/s | 15.1°C | 31.1% | 0hPa | 2.7V | 07:26:17 | 03:37:02 | 00:00:00 | |
| IW2NTF | 2026-09-03 02:10:47 | 44.66394 | 9.74132 | 199° | 16km/h | 2038m | -3.1m/s | 15°C | 30.2% | 0hPa | 2.8V | 07:26:22 | 03:36:57 | 00:00:00 | |
| IW2NTF | 2026-09-03 02:10:39 | 44.66425 | 9.74130 | 181° | 22km/h | 2064m | -3.8m/s | 14.7°C | 31.2% | 0hPa | 2.7V | 07:26:30 | 03:36:49 | 00:00:00 | |
| IW2NTF | 2026-09-03 02:10:33 | 44.66452 | 9.74143 | 211° | 15km/h | 2086m | -3m/s | 14.6°C | 32.7% | 0hPa | 2.7V | 07:26:36 | 03:36:43 | 00:00:00 | |
| IW2NTF | 2026-09-03 02:10:27 | 44.66467 | 9.74142 | 150° | 15km/h | 2106m | -3.4m/s | 14.4°C | 33.4% | 0hPa | 2.8V | 07:26:42 | 03:36:37 | 00:00:00 | |
| IW2NTF | 2026-09-03 02:10:21 | 44.66497 | 9.74127 | 169° | 24km/h | 2127m | -3.4m/s | 14.1°C | 37.7% | 0hPa | 2.7V | 07:26:48 | 03:36:31 | 00:00:00 | |
| IW2NTF | 2026-09-03 02:10:15 | 44.66534 | 9.74124 | 193° | 22km/h | 2146m | -3.2m/s | 13.9°C | 41% | 0hPa | 2.7V | 07:26:54 | 03:36:25 | 00:00:00 | |
| IW2NTF | 2026-09-03 02:10:09 | 44.66556 | 9.74130 | 161° | 15km/h | 2167m | -3.4m/s | 13.7°C | 41.7% | 0hPa | 2.7V | 07:27:00 | 03:36:19 | 00:00:00 | |
| IW2NTF | 2026-09-03 02:10:03 | 44.66589 | 9.74131 | 204° | 24km/h | 2188m | -3.1m/s | 13.4°C | 44.9% | 0hPa | 2.7V | 07:27:06 | 03:36:13 | 00:00:00 | |
| IW2NTF | 2026-09-03 02:09:55 | 44.66619 | 9.74142 | 169° | 20km/h | 2215m | -3.5m/s | 13.2°C | 47.7% | 0hPa | 2.7V | 07:27:14 | 03:36:05 | 00:00:00 | |
| IW2NTF | 2026-09-03 02:09:49 | 44.66657 | 9.74143 | 190° | 26km/h | 2236m | -3.5m/s | 13°C | 50% | 0hPa | 2.7V | 07:27:20 | 03:35:59 | 00:00:00 | |
| IW2NTF | 2026-09-03 02:09:41 | 44.66702 | 9.74168 | 218° | 15km/h | 2264m | -3.1m/s | 12.8°C | 50.3% | 0hPa | 2.7V | 07:27:28 | 03:35:51 | 00:00:00 | |
| IW2NTF | 2026-09-03 02:09:35 | 44.66717 | 9.74171 | 168° | 15km/h | 2285m | -3.1m/s | 12.6°C | 50.3% | 0hPa | 2.7V | 07:27:34 | 03:35:45 | 00:00:00 | |
| IW2NTF | 2026-09-03 02:09:29 | 44.66748 | 9.74177 | 207° | 24km/h | 2306m | -3.5m/s | 12.5°C | 48.6% | 0hPa | 2.7V | 07:27:40 | 03:35:39 | 00:00:00 | |
| IW2NTF | 2026-09-03 02:09:23 | 44.66770 | 9.74191 | 178° | 15km/h | 2327m | -3.5m/s | 12.5°C | 46.7% | 0hPa | 2.7V | 07:27:46 | 03:35:33 | 00:00:00 | |
| IW2NTF | 2026-09-03 02:09:17 | 44.66800 | 9.74204 | 216° | 18km/h | 2348m | -3.6m/s | 12.4°C | 47.1% | 0hPa | 2.7V | 07:27:52 | 03:35:27 | 00:00:00 | |
| IW2NTF | 2026-09-03 02:09:11 | 44.66821 | 9.74213 | 179° | 20km/h | 2369m | -3.3m/s | 12.3°C | 47% | 0hPa | 2.7V | 07:27:58 | 03:35:21 | 00:00:00 | |
| IW2NTF | 2026-09-03 02:09:03 | 44.66860 | 9.74235 | 204° | 11km/h | 2397m | -3.3m/s | 12.3°C | 41.6% | 0hPa | 2.7V | 07:28:06 | 03:35:13 | 00:00:00 | |
| IW2NTF | 2026-09-03 02:08:57 | 44.66887 | 9.74237 | 195° | 24km/h | 2418m | -3.5m/s | 12.2°C | 39.9% | 0hPa | 2.7V | 07:28:12 | 03:35:07 | 00:00:00 | |
| IW2NTF | 2026-09-03 02:08:51 | 44.66911 | 9.74258 | 209° | 11km/h | 2439m | -3.5m/s | 12.1°C | 36.4% | 0hPa | 2.7V | 07:28:18 | 03:35:01 | 00:00:00 | |
| IW2NTF | 2026-09-03 02:08:45 | 44.66935 | 9.74258 | 184° | 24km/h | 2460m | -3.5m/s | 12°C | 35.4% | 0hPa | 2.7V | 07:28:24 | 03:34:55 | 00:00:00 | |
| IW2NTF | 2026-09-03 02:08:39 | 44.66960 | 9.74275 | 204° | 11km/h | 2481m | -3.6m/s | 11.8°C | 36.1% | 0hPa | 2.7V | 07:28:30 | 03:34:49 | 00:00:00 | |
| IW2NTF | 2026-09-03 02:08:33 | 44.66982 | 9.74270 | 170° | 20km/h | 2503m | -3.8m/s | 11.6°C | 37% | 0hPa | 2.6V | 07:28:36 | 03:34:43 | 00:00:00 | |
| IW2NTF | 2026-09-03 02:08:27 | 44.67016 | 9.74265 | 176° | 24km/h | 2524m | -3.2m/s | 11.4°C | 37.5% | 0hPa | 2.7V | 07:28:42 | 03:34:37 | 00:00:00 | |
| IW2NTF | 2026-09-03 02:08:16 | 44.67053 | 9.74265 | 185° | 26km/h | 2544m | -3.4m/s | 11.3°C | 38% | 0hPa | 2.6V | 07:28:48 | 03:34:31 | 00:00:00 | |
| IW2NTF | 2026-09-03 02:08:16 | 44.67085 | 9.74273 | 194° | 26km/h | 2562m | -3.5m/s | 11.1°C | 38.3% | 0hPa | 2.7V | 07:28:53 | 03:34:26 | 00:00:00 | |
| IW2NTF | 2026-09-03 02:08:10 | 44.67116 | 9.74291 | 201° | 15km/h | 2582m | -3.1m/s | 10.9°C | 38.7% | 0hPa | 2.7V | 07:28:59 | 03:34:20 | 00:00:00 | |
| IW2NTF | 2026-09-03 02:08:04 | 44.67139 | 9.74287 | 176° | 22km/h | 2603m | -3.3m/s | 10.8°C | 38.9% | 0hPa | 2.7V | 07:29:05 | 03:34:14 | 00:00:00 | |
| IW2NTF | 2026-09-03 02:07:58 | 44.67168 | 9.74297 | 192° | 13km/h | 2623m | -3.4m/s | 10.6°C | 39.4% | 0hPa | 2.7V | 07:29:11 | 03:34:08 | 00:00:00 | |
| IW2NTF | 2026-09-03 02:07:52 | 44.67193 | 9.74290 | 173° | 24km/h | 2644m | -3.6m/s | 10.4°C | 39.5% | 0hPa | 2.7V | 07:29:17 | 03:34:02 | 00:00:00 | |
| IW2NTF | 2026-09-03 02:07:46 | 44.67233 | 9.74297 | 194° | 27km/h | 2666m | -3.4m/s | 10.2°C | 39.3% | 0hPa | 2.7V | 07:29:23 | 03:33:56 | 00:00:00 | |
| IW2NTF | 2026-09-03 02:07:40 | 44.67270 | 9.74313 | 197° | 22km/h | 2687m | -3.3m/s | 10.1°C | 38.9% | 0hPa | 2.6V | 07:29:29 | 03:33:50 | 00:00:00 | |
| IW2NTF | 2026-09-03 02:07:34 | 44.67297 | 9.74308 | 156° | 24km/h | 2707m | -3.9m/s | 10°C | 37.9% | 0hPa | 2.7V | 07:29:35 | 03:33:44 | 00:00:00 | |
| IW2NTF | 2026-09-03 02:07:28 | 44.67336 | 9.74301 | 189° | 24km/h | 2728m | -3.3m/s | 9.9°C | 36.8% | 0hPa | 2.7V | 07:29:41 | 03:33:38 | 00:00:00 | |
| IW2NTF | 2026-09-03 02:07:22 | 44.67365 | 9.74309 | 187° | 16km/h | 2750m | -3.4m/s | 9.8°C | 37.5% | 0hPa | 2.7V | 07:29:47 | 03:33:32 | 00:00:00 | |
| IW2NTF | 2026-09-03 02:07:16 | 44.67387 | 9.74308 | 173° | 15km/h | 2770m | -3.4m/s | 9.7°C | 42.1% | 0hPa | 2.7V | 07:29:53 | 03:33:26 | 00:00:00 | |
| IW2NTF | 2026-09-03 02:07:10 | 44.67408 | 9.74300 | 152° | 16km/h | 2792m | -3.3m/s | 9.6°C | 44.7% | 0hPa | 2.7V | 07:29:59 | 03:33:20 | 00:00:00 | |
| IW2NTF | 2026-09-03 02:07:04 | 44.67440 | 9.74274 | 151° | 29km/h | 2812m | -3.6m/s | 9.6°C | 40.2% | 0hPa | 2.6V | 07:30:05 | 03:33:14 | 00:00:00 | |
| IW2NTF | 2026-09-03 02:06:58 | 44.67482 | 9.74247 | 158° | 31km/h | 2835m | -3.8m/s | 9.5°C | 37.9% | 0hPa | 2.7V | 07:30:11 | 03:33:08 | 00:00:00 | |
| IW2NTF | 2026-09-03 02:06:52 | 44.67529 | 9.74227 | 174° | 31km/h | 2856m | -3.3m/s | 9.4°C | 38.7% | 0hPa | 2.7V | 07:30:17 | 03:33:02 | 00:00:00 | |
| IW2NTF | 2026-09-03 02:06:46 | 44.67564 | 9.74226 | 160° | 20km/h | 2877m | -3.6m/s | 9.3°C | 38.4% | 0hPa | 2.6V | 07:30:23 | 03:32:56 | 00:00:00 | |
| IW2NTF | 2026-09-03 02:06:40 | 44.67605 | 9.74214 | 183° | 29km/h | 2899m | -3.6m/s | 9.1°C | 39.1% | 0hPa | 2.7V | 07:30:29 | 03:32:50 | 00:00:00 | |
| IW2NTF | 2026-09-03 02:06:34 | 44.67638 | 9.74209 | 156° | 26km/h | 2922m | -3.7m/s | 8.9°C | 40.3% | 0hPa | 2.7V | 07:30:35 | 03:32:44 | 00:00:00 | |
| IW2NTF | 2026-09-03 02:06:28 | 44.67680 | 9.74201 | 188° | 24km/h | 2944m | -3.6m/s | 8.7°C | 40.9% | 0hPa | 2.7V | 07:30:41 | 03:32:38 | 00:00:00 | |
| IW2NTF | 2026-09-03 02:06:22 | 44.67707 | 9.74195 | 150° | 22km/h | 2967m | -3.8m/s | 8.4°C | 41.5% | 0hPa | 2.6V | 07:30:47 | 03:32:32 | 00:00:00 | |
| IW2NTF | 2026-09-03 02:06:16 | 44.67751 | 9.74174 | 175° | 33km/h | 2988m | -3.6m/s | 8.2°C | 42.1% | 0hPa | 2.7V | 07:30:53 | 03:32:26 | 00:00:00 | |
| IW2NTF | 2026-09-03 02:06:10 | 44.67789 | 9.74178 | 175° | 16km/h | 3011m | -3.7m/s | 8°C | 42.5% | 0hPa | 2.7V | 07:30:59 | 03:32:20 | 00:00:00 | |
| IW2NTF | 2026-09-03 02:06:04 | 44.67819 | 9.74157 | 155° | 31km/h | 3032m | -3.8m/s | 7.8°C | 42.4% | 0hPa | 2.6V | 07:31:05 | 03:32:14 | 00:00:00 | |
| IW2NTF | 2026-09-03 02:05:58 | 44.67861 | 9.74148 | 178° | 20km/h | 3055m | -3.6m/s | 7.7°C | 42.9% | 0hPa | 2.7V | 07:31:11 | 03:32:08 | 00:00:00 | |
| IW2NTF | 2026-09-03 02:05:47 | 44.67891 | 9.74129 | 156° | 29km/h | 3077m | -3.5m/s | 7.4°C | 43.6% | 0hPa | 2.7V | 07:31:17 | 03:32:02 | 00:00:00 | |
| IW2NTF | 2026-09-03 02:05:47 | 44.67926 | 9.74121 | 177° | 22km/h | 3095m | -3.6m/s | 7.3°C | 44.1% | 0hPa | 2.7V | 07:31:22 | 03:31:57 | 00:00:00 | |
| IW2NTF | 2026-09-03 02:05:41 | 44.67958 | 9.74103 | 157° | 31km/h | 3117m | -3.6m/s | 7°C | 44.7% | 0hPa | 2.7V | 07:31:28 | 03:31:51 | 00:00:00 | |
| IW2NTF | 2026-09-03 02:05:35 | 44.68000 | 9.74094 | 177° | 18km/h | 3139m | -3.5m/s | 6.8°C | 45.3% | 0hPa | 2.7V | 07:31:34 | 03:31:45 | 00:00:00 | |
| IW2NTF | 2026-09-03 02:05:29 | 44.68023 | 9.74083 | 148° | 16km/h | 3163m | -3.7m/s | 6.6°C | 46.2% | 0hPa | 2.7V | 07:31:40 | 03:31:39 | 00:00:00 | |
| IW2NTF | 2026-09-03 02:05:23 | 44.68046 | 9.74059 | 141° | 22km/h | 3184m | -3.5m/s | 6.4°C | 46.7% | 0hPa | 2.7V | 07:31:46 | 03:31:33 | 00:00:00 | |
| IW2NTF | 2026-09-03 02:05:17 | 44.68077 | 9.74026 | 144° | 27km/h | 3205m | -3.4m/s | 6.2°C | 47.3% | 0hPa | 2.7V | 07:31:52 | 03:31:27 | 00:00:00 | |
| IW2NTF | 2026-09-03 02:05:11 | 44.68117 | 9.73993 | 154° | 33km/h | 3226m | -3.7m/s | 6°C | 48.8% | 0hPa | 2.7V | 07:31:58 | 03:31:21 | 00:00:00 | |
| IW2NTF | 2026-09-03 02:05:05 | 44.68164 | 9.73968 | 162° | 33km/h | 3248m | -3.5m/s | 5.8°C | 49.1% | 0hPa | 2.6V | 07:32:04 | 03:31:15 | 00:00:00 | |
| IW2NTF | 2026-09-03 02:04:59 | 44.68211 | 9.73951 | 170° | 31km/h | 3269m | -3.6m/s | 5.6°C | 48.7% | 0hPa | 2.7V | 07:32:10 | 03:31:09 | 00:00:00 | |
| IW2NTF | 2026-09-03 02:04:53 | 44.68256 | 9.73945 | 177° | 27km/h | 3290m | -3.4m/s | 5.4°C | 49.1% | 0hPa | 2.7V | 07:32:16 | 03:31:03 | 00:00:00 | |
| IW2NTF | 2026-09-03 02:04:47 | 44.68293 | 9.73945 | 182° | 20km/h | 3310m | -3.5m/s | 5.2°C | 48.5% | 0hPa | 2.7V | 07:32:22 | 03:30:57 | 00:00:00 | |
| IW2NTF | 2026-09-03 02:04:41 | 44.68319 | 9.73945 | 173° | 15km/h | 3332m | -3.6m/s | 5°C | 48% | 0hPa | 2.7V | 07:32:28 | 03:30:51 | 00:00:00 | |
| IW2NTF | 2026-09-03 02:04:35 | 44.68338 | 9.73936 | 150° | 13km/h | 3353m | -3.5m/s | 4.8°C | 48.4% | 0hPa | 2.7V | 07:32:34 | 03:30:45 | 00:00:00 | |
| IW2NTF | 2026-09-03 02:04:29 | 44.68356 | 9.73915 | 134° | 18km/h | 3374m | -3.5m/s | 4.6°C | 48.5% | 0hPa | 2.7V | 07:32:40 | 03:30:39 | 00:00:00 | |
| IW2NTF | 2026-09-03 02:04:23 | 44.68379 | 9.73881 | 134° | 26km/h | 3395m | -3.5m/s | 4.5°C | 48.8% | 0hPa | 2.6V | 07:32:46 | 03:30:33 | 00:00:00 | |
| IW2NTF | 2026-09-03 02:04:18 | 44.68411 | 9.73841 | 141° | 29km/h | 3416m | -3.3m/s | 4.3°C | 48.8% | 0hPa | 2.7V | 07:32:52 | 03:30:27 | 00:00:00 | |
| IW2NTF | 2026-09-03 02:04:11 | 44.68449 | 9.73803 | 148° | 31km/h | 3436m | -3.5m/s | 4.1°C | 49.4% | 0hPa | 2.7V | 07:32:58 | 03:30:21 | 00:00:00 | |
| IW2NTF | 2026-09-03 02:04:05 | 44.68491 | 9.73772 | 154° | 31km/h | 3458m | -3.6m/s | 3.9°C | 49.9% | 0hPa | 2.7V | 07:33:04 | 03:30:15 | 00:00:00 | |
| IW2NTF | 2026-09-03 02:03:59 | 44.68536 | 9.73747 | 163° | 29km/h | 3479m | -3.4m/s | 3.7°C | 50.8% | 0hPa | 2.6V | 07:33:10 | 03:30:09 | 00:00:00 | |
| IW2NTF | 2026-09-03 02:03:51 | 44.68574 | 9.73716 | 131° | 26km/h | 3506m | -3.9m/s | 3.4°C | 51.5% | 0hPa | 2.6V | 07:33:18 | 03:30:01 | 00:00:00 | |
| IW2NTF | 2026-09-03 02:03:43 | 44.68622 | 9.73677 | 158° | 18km/h | 3534m | -3.4m/s | 3.2°C | 53.8% | 0hPa | 2.6V | 07:33:26 | 03:29:53 | 00:00:00 | |
| IW2NTF | 2026-09-03 02:03:37 | 44.68640 | 9.73647 | 119° | 22km/h | 3556m | -3.8m/s | 3.1°C | 53.4% | 0hPa | 2.7V | 07:33:32 | 03:29:47 | 00:00:00 | |
| IW2NTF | 2026-09-03 02:03:31 | 44.68658 | 9.73603 | 119° | 26km/h | 3577m | -3.3m/s | 3°C | 54.3% | 0hPa | 2.7V | 07:33:38 | 03:29:41 | 00:00:00 | |
| IW2NTF | 2026-09-03 02:03:23 | 44.68690 | 9.73532 | 124° | 33km/h | 3605m | -3.6m/s | 2.8°C | 56.1% | 0hPa | 2.7V | 07:33:46 | 03:29:33 | 00:00:00 | |
| IW2NTF | 2026-09-03 02:03:17 | 44.68722 | 9.73474 | 129° | 37km/h | 3627m | -3.6m/s | 2.8°C | 55.3% | 0hPa | 2.7V | 07:33:52 | 03:29:27 | 00:00:00 | |
| IW2NTF | 2026-09-03 02:03:11 | 44.68762 | 9.73415 | 136° | 40km/h | 3648m | -3.4m/s | 3°C | 35% | 0hPa | 2.7V | 07:33:58 | 03:29:21 | 00:00:00 | |
| IW2NTF | 2026-09-03 02:03:03 | 44.68825 | 9.73343 | 145° | 40km/h | 3674m | -3.1m/s | 2.9°C | 33.1% | 0hPa | 2.7V | 07:34:06 | 03:29:13 | 00:00:00 | |
| IW2NTF | 2026-09-03 02:02:57 | 44.68876 | 9.73304 | 154° | 37km/h | 3694m | -3.7m/s | 2.9°C | 27% | 0hPa | 2.7V | 07:34:12 | 03:29:07 | 00:00:00 | |
| IW2NTF | 2026-09-03 02:02:51 | 44.68924 | 9.73273 | 156° | 33km/h | 3715m | -3.4m/s | 2.8°C | 23.7% | 0hPa | 2.6V | 07:34:18 | 03:29:01 | 00:00:00 | |
| IW2NTF | 2026-09-03 02:02:45 | 44.68964 | 9.73239 | 131° | 33km/h | 3734m | -3.2m/s | 2.7°C | 22.3% | 0hPa | 2.7V | 07:34:24 | 03:28:55 | 00:00:00 | |
| IW2NTF | 2026-09-03 02:02:39 | 44.69009 | 9.73184 | 150° | 38km/h | 3755m | -3.3m/s | 2.6°C | 20.8% | 0hPa | 2.7V | 07:34:30 | 03:28:49 | 00:00:00 | |
| IW2NTF | 2026-09-03 02:02:33 | 44.69045 | 9.73138 | 124° | 37km/h | 3776m | -3.2m/s | 2.4°C | 19.5% | 0hPa | 2.7V | 07:34:36 | 03:28:43 | 00:00:00 | |
| IW2NTF | 2026-09-03 02:02:27 | 44.69087 | 9.73069 | 138° | 46km/h | 3797m | -3.4m/s | 2.3°C | 18.4% | 0hPa | 2.7V | 07:34:42 | 03:28:37 | 00:00:00 | |
| IW2NTF | 2026-09-03 02:02:21 | 44.69139 | 9.73021 | 144° | 33km/h | 3818m | -3.4m/s | 2.2°C | 16.3% | 0hPa | 2.6V | 07:34:48 | 03:28:31 | 00:00:00 | |
| IW2NTF | 2026-09-03 02:02:15 | 44.69181 | 9.72963 | 141° | 46km/h | 3838m | -3.5m/s | 2.1°C | 13.9% | 0hPa | 2.7V | 07:34:54 | 03:28:25 | 00:00:00 | |
| IW2NTF | 2026-09-03 02:02:09 | 44.69231 | 9.72921 | 143° | 29km/h | 3861m | -3.6m/s | 2°C | 13.8% | 0hPa | 2.7V | 07:35:00 | 03:28:19 | 00:00:00 | |
| IW2NTF | 2026-09-03 02:02:03 | 44.69269 | 9.72864 | 132° | 46km/h | 3881m | -3.5m/s | 1.8°C | 13.5% | 0hPa | 2.7V | 07:35:06 | 03:28:13 | 00:00:00 | |
| IW2NTF | 2026-09-03 02:01:57 | 44.69320 | 9.72795 | 142° | 46km/h | 3904m | -3.5m/s | 1.6°C | 11.9% | 0hPa | 2.7V | 07:35:12 | 03:28:07 | 00:00:00 | |
| IW2NTF | 2026-09-03 02:01:51 | 44.69371 | 9.72753 | 142° | 33km/h | 3926m | -3.6m/s | 1.5°C | 11.4% | 0hPa | 2.6V | 07:35:18 | 03:28:01 | 00:00:00 | |
| IW2NTF | 2026-09-03 02:01:45 | 44.69414 | 9.72698 | 146° | 42km/h | 3948m | -3.5m/s | 1.3°C | 11.3% | 0hPa | 2.6V | 07:35:24 | 03:27:55 | 00:00:00 | |
| IW2NTF | 2026-09-03 02:01:39 | 44.69455 | 9.72657 | 129° | 33km/h | 3969m | -3.6m/s | 1.4°C | 9.5% | 0hPa | 2.7V | 07:35:30 | 03:27:49 | 00:00:00 | |
| IW2NTF | 2026-09-03 02:01:33 | 44.69501 | 9.72598 | 151° | 42km/h | 3992m | -3.7m/s | 1.2°C | 9.6% | 0hPa | 2.7V | 07:35:36 | 03:27:43 | 00:00:00 | |
| IW2NTF | 2026-09-03 02:01:27 | 44.69542 | 9.72564 | 134° | 26km/h | 4015m | -4.2m/s | 1.1°C | 11% | 0hPa | 2.7V | 07:35:42 | 03:27:37 | 00:00:00 | |
| IW2NTF | 2026-09-03 02:01:21 | 44.69571 | 9.72509 | 132° | 40km/h | 4038m | -3.5m/s | 0.9°C | 11.7% | 0hPa | 2.7V | 07:35:48 | 03:27:31 | 00:00:00 | |
| IW2NTF | 2026-09-03 02:01:15 | 44.69617 | 9.72465 | 150° | 29km/h | 4060m | -3.7m/s | 0.8°C | 12.1% | 0hPa | 2.6V | 07:35:54 | 03:27:25 | 00:00:00 | |
| IW2NTF | 2026-09-03 02:01:04 | 44.69645 | 9.72421 | 123° | 35km/h | 4083m | -3.9m/s | 0.8°C | 14.8% | 0hPa | 2.6V | 07:36:00 | 03:27:19 | 00:00:00 | |
| IW2NTF | 2026-09-03 02:01:04 | 44.69677 | 9.72378 | 146° | 29km/h | 4102m | -4m/s | 0.7°C | 19.7% | 0hPa | 2.7V | 07:36:05 | 03:27:14 | 00:00:00 | |
| IW2NTF | 2026-09-03 02:00:58 | 44.69703 | 9.72336 | 116° | 33km/h | 4125m | -3.8m/s | 0.6°C | 23% | 0hPa | 2.7V | 07:36:11 | 03:27:08 | 00:00:00 | |
| IW2NTF | 2026-09-03 02:00:52 | 44.69736 | 9.72277 | 142° | 31km/h | 4147m | -3.4m/s | 0.5°C | 26% | 0hPa | 2.7V | 07:36:17 | 03:27:02 | 00:00:00 | |
| IW2NTF | 2026-09-03 02:00:46 | 44.69759 | 9.72235 | 110° | 29km/h | 4169m | -3.8m/s | 0.3°C | 28.1% | 0hPa | 2.7V | 07:36:23 | 03:26:56 | 00:00:00 | |
| IW2NTF | 2026-09-03 02:00:40 | 44.69786 | 9.72166 | 130° | 42km/h | 4191m | -3.9m/s | 0.2°C | 36.7% | 0hPa | 2.6V | 07:36:29 | 03:26:50 | 00:00:00 | |
| IW2NTF | 2026-09-03 02:00:34 | 44.69828 | 9.72116 | 142° | 29km/h | 4214m | -3.7m/s | 0.1°C | 44.9% | 0hPa | 2.6V | 07:36:35 | 03:26:44 | 00:00:00 | |
| IW2NTF | 2026-09-03 02:00:28 | 44.69855 | 9.72062 | 121° | 40km/h | 4236m | -3.9m/s | -0°C | 50.2% | 0hPa | 2.7V | 07:36:41 | 03:26:38 | 00:00:00 | |
| IW2NTF | 2026-09-03 02:00:17 | 44.69895 | 9.72007 | 143° | 31km/h | 4260m | -4.2m/s | -0.2°C | 52.2% | 0hPa | 2.7V | 07:36:47 | 03:26:32 | 00:00:00 | |
| IW2NTF | 2026-09-03 02:00:17 | 44.69919 | 9.71974 | 126° | 26km/h | 4280m | -3.9m/s | -0.3°C | 50.7% | 0hPa | 2.7V | 07:36:52 | 03:26:27 | 00:00:00 | |
| IW2NTF | 2026-09-03 02:00:11 | 44.69941 | 9.71921 | 120° | 33km/h | 4303m | -3.7m/s | -0.5°C | 49.8% | 0hPa | 2.7V | 07:36:58 | 03:26:21 | 00:00:00 | |
| IW2NTF | 2026-09-03 02:00:05 | 44.69981 | 9.71863 | 147° | 38km/h | 4326m | -4.2m/s | -0.7°C | 49.1% | 0hPa | 2.7V | 07:37:04 | 03:26:15 | 00:00:00 | |
| IW2NTF | 2026-09-03 01:59:59 | 44.70018 | 9.71818 | 125° | 38km/h | 4349m | -3.8m/s | -0.8°C | 48.1% | 0hPa | 2.6V | 07:37:10 | 03:26:09 | 00:00:00 | |
| IW2NTF | 2026-09-03 01:59:53 | 44.70066 | 9.71752 | 146° | 46km/h | 4374m | -4.5m/s | -1°C | 44.6% | 0hPa | 2.6V | 07:37:16 | 03:26:03 | 00:00:00 | |
| IW2NTF | 2026-09-03 01:59:47 | 44.70114 | 9.71714 | 140° | 29km/h | 4399m | -3.9m/s | -1.2°C | 42.5% | 0hPa | 2.6V | 07:37:22 | 03:25:57 | 00:00:00 | |
| IW2NTF | 2026-09-03 01:59:41 | 44.70158 | 9.71655 | 143° | 47km/h | 4423m | -4.3m/s | -1.1°C | 37.5% | 0hPa | 2.7V | 07:37:28 | 03:25:51 | 00:00:00 | |
| IW2NTF | 2026-09-03 01:59:35 | 44.70216 | 9.71611 | 147° | 35km/h | 4448m | -3.8m/s | -1.3°C | 39.2% | 0hPa | 2.7V | 07:37:34 | 03:25:45 | 00:00:00 | |
| IW2NTF | 2026-09-03 01:59:29 | 44.70261 | 9.71553 | 141° | 49km/h | 4472m | -4.2m/s | -1.4°C | 38.6% | 0hPa | 2.7V | 07:37:40 | 03:25:39 | 00:00:00 | |
| IW2NTF | 2026-09-03 01:59:23 | 44.70318 | 9.71508 | 146° | 35km/h | 4496m | -4m/s | -1.5°C | 31.5% | 0hPa | 2.7V | 07:37:46 | 03:25:33 | 00:00:00 | |
| IW2NTF | 2026-09-03 01:59:17 | 44.70365 | 9.71448 | 142° | 49km/h | 4521m | -4.1m/s | -1.6°C | 34.4% | 0hPa | 2.7V | 07:37:52 | 03:25:27 | 00:00:00 | |
| IW2NTF | 2026-09-03 01:59:11 | 44.70419 | 9.71402 | 141° | 33km/h | 4546m | -4.1m/s | -1.7°C | 34.6% | 0hPa | 2.7V | 07:37:58 | 03:25:21 | 00:00:00 | |
| IW2NTF | 2026-09-03 01:59:06 | 44.70456 | 9.71342 | 127° | 42km/h | 4571m | -3.9m/s | -1.9°C | 33.4% | 0hPa | 2.7V | 07:38:04 | 03:25:15 | 00:00:00 | |
| IW2NTF | 2026-09-03 01:58:59 | 44.70499 | 9.71267 | 129° | 47km/h | 4595m | -3.9m/s | -2.2°C | 50.4% | 0hPa | 2.7V | 07:38:10 | 03:25:09 | 00:00:00 | |
| IW2NTF | 2026-09-03 01:58:53 | 44.70551 | 9.71186 | 134° | 53km/h | 4619m | -4m/s | -2.1°C | 60.6% | 0hPa | 2.7V | 07:38:16 | 03:25:03 | 00:00:00 | |
| IW2NTF | 2026-09-03 01:58:47 | 44.70613 | 9.71108 | 142° | 55km/h | 4643m | -4.2m/s | -2.2°C | 60.1% | 0hPa | 2.7V | 07:38:22 | 03:24:57 | 00:00:00 | |
| IW2NTF | 2026-09-03 01:58:41 | 44.70680 | 9.71044 | 149° | 51km/h | 4667m | -4.2m/s | -2.3°C | 61.8% | 0hPa | 2.6V | 07:38:28 | 03:24:51 | 00:00:00 | |
| IW2NTF | 2026-09-03 01:58:35 | 44.70743 | 9.70994 | 150° | 44km/h | 4692m | -3.9m/s | -2.4°C | 59.6% | 0hPa | 2.6V | 07:38:34 | 03:24:45 | 00:00:00 | |
| IW2NTF | 2026-09-03 01:58:29 | 44.70794 | 9.70948 | 139° | 38km/h | 4716m | -4.1m/s | -2.5°C | 60.1% | 0hPa | 2.6V | 07:38:40 | 03:24:39 | 00:00:00 | |
| IW2NTF | 2026-09-03 01:58:23 | 44.70834 | 9.70886 | 127° | 42km/h | 4740m | -4.2m/s | -2.6°C | 67.6% | 0hPa | 2.6V | 07:38:46 | 03:24:33 | 00:00:00 | |
| IW2NTF | 2026-09-03 01:58:17 | 44.70875 | 9.70807 | 127° | 53km/h | 4765m | -3.9m/s | -2.8°C | 67.8% | 0hPa | 2.6V | 07:38:52 | 03:24:27 | 00:00:00 | |
| IW2NTF | 2026-09-03 01:58:11 | 44.70931 | 9.70715 | 131° | 58km/h | 4789m | -4.1m/s | -2.8°C | 70.2% | 0hPa | 2.6V | 07:38:58 | 03:24:21 | 00:00:00 | |
| IW2NTF | 2026-09-03 01:58:05 | 44.70993 | 9.70622 | 135° | 60km/h | 4813m | -3.7m/s | -2.9°C | 70.4% | 0hPa | 2.6V | 07:39:04 | 03:24:15 | 00:00:00 | |
| IW2NTF | 2026-09-03 01:57:57 | 44.71083 | 9.70515 | 141° | 55km/h | 4844m | -4m/s | -3°C | 69.6% | 0hPa | 2.7V | 07:39:12 | 03:24:07 | 00:00:00 | |
| IW2NTF | 2026-09-03 01:57:49 | 44.71161 | 9.70431 | 139° | 42km/h | 4876m | -4.2m/s | -3.1°C | 70.5% | 0hPa | 2.7V | 07:39:20 | 03:23:59 | 00:00:00 | |
| IW2NTF | 2026-09-03 01:57:43 | 44.71208 | 9.70360 | 129° | 55km/h | 4899m | -3.6m/s | -3.2°C | 71% | 0hPa | 2.7V | 07:39:26 | 03:23:53 | 00:00:00 | |
| IW2NTF | 2026-09-03 01:57:37 | 44.71268 | 9.70280 | 141° | 47km/h | 4923m | -4.1m/s | -3.3°C | 70.2% | 0hPa | 2.7V | 07:39:32 | 03:23:47 | 00:00:00 | |
| IW2NTF | 2026-09-03 01:57:31 | 44.71318 | 9.70204 | 132° | 57km/h | 4947m | -4.1m/s | -3.3°C | 68.9% | 0hPa | 2.7V | 07:39:38 | 03:23:41 | 00:00:00 | |
| IW2NTF | 2026-09-03 01:57:25 | 44.71376 | 9.70135 | 136° | 42km/h | 4971m | -4.5m/s | -3.4°C | 63.7% | 0hPa | 2.7V | 07:39:44 | 03:23:35 | 00:00:00 | |
| IW2NTF | 2026-09-03 01:57:20 | 44.71424 | 9.70057 | 136° | 57km/h | 4995m | -4m/s | -3.6°C | 64.4% | 0hPa | 2.7V | 07:39:50 | 03:23:29 | 00:00:00 | |
| IW2NTF | 2026-09-03 01:57:09 | 44.71514 | 9.69945 | 127° | 53km/h | 5036m | -4m/s | -3.8°C | 62.3% | 0hPa | 2.7V | 07:40:00 | 03:23:19 | 00:00:00 | |
| IW2NTF | 2026-09-03 01:56:59 | 44.71613 | 9.69827 | 135° | 40km/h | 5076m | -4.1m/s | -4.2°C | 62.6% | 0hPa | 2.6V | 07:40:10 | 03:23:09 | 00:00:00 | |
| IW2NTF | 2026-09-03 01:56:49 | 44.71709 | 9.69694 | 145° | 57km/h | 5117m | -4m/s | -4.5°C | 62.4% | 0hPa | 2.7V | 07:40:20 | 03:22:59 | 00:00:00 | |
| IW2NTF | 2026-09-03 01:56:39 | 44.71819 | 9.69598 | 146° | 44km/h | 5156m | -3.8m/s | -4.9°C | 63.6% | 0hPa | 2.7V | 07:40:30 | 03:22:49 | 00:00:00 | |
| IW2NTF | 2026-09-03 01:56:27 | 44.71899 | 9.69503 | 131° | 42km/h | 5195m | -4m/s | -5.3°C | 65.7% | 0hPa | 2.6V | 07:40:40 | 03:22:39 | 00:00:00 | |
| IW2NTF | 2026-09-03 01:56:19 | 44.71971 | 9.69368 | 128° | 57km/h | 5235m | -3.8m/s | -5.6°C | 66.8% | 0hPa | 2.5V | 07:40:50 | 03:22:29 | 00:00:00 | |
| IW2NTF | 2026-09-03 01:56:09 | 44.72084 | 9.69225 | 142° | 60km/h | 5274m | -3.9m/s | -5.9°C | 67.1% | 0hPa | 2.6V | 07:41:00 | 03:22:19 | 00:00:00 | |
| IW2NTF | 2026-09-03 01:55:59 | 44.72190 | 9.69111 | 132° | 51km/h | 5311m | -4.2m/s | -6.1°C | 62% | 0hPa | 2.6V | 07:41:10 | 03:22:09 | 00:00:00 | |
| IW2NTF | 2026-09-03 01:55:49 | 44.72287 | 9.68988 | 129° | 55km/h | 5352m | -3.8m/s | -6.4°C | 61.8% | 0hPa | 2.6V | 07:41:20 | 03:21:59 | 00:00:00 | |
| IW2NTF | 2026-09-03 01:55:37 | 44.72406 | 9.68845 | 132° | 44km/h | 5399m | -4.3m/s | -6.7°C | 61.6% | 0hPa | 2.6V | 07:41:32 | 03:21:47 | 00:00:00 | |
| IW2NTF | 2026-09-03 01:55:27 | 44.72480 | 9.68709 | 125° | 51km/h | 5439m | -4.1m/s | -7°C | 63.5% | 0hPa | 2.6V | 07:41:42 | 03:21:37 | 00:00:00 | |
| IW2NTF | 2026-09-03 01:55:12 | 44.72569 | 9.68548 | 132° | 64km/h | 5479m | -4.2m/s | -7.4°C | 65.2% | 0hPa | 2.5V | 07:41:52 | 03:21:27 | 00:00:00 | |
| IW2NTF | 2026-09-03 01:55:06 | 44.72689 | 9.68413 | 145° | 55km/h | 5518m | -4.1m/s | -7.7°C | 65.5% | 0hPa | 2.5V | 07:42:02 | 03:21:17 | 00:00:00 | |
| IW2NTF | 2026-09-03 01:54:55 | 44.72797 | 9.68282 | 142° | 55km/h | 5558m | -4.2m/s | -8°C | 66.5% | 0hPa | 2.6V | 07:42:12 | 03:21:07 | 00:00:00 | |
| IW2NTF | 2026-09-03 01:54:43 | 44.72897 | 9.68135 | 139° | 62km/h | 5599m | -3.8m/s | -8.2°C | 68.3% | 0hPa | 2.6V | 07:42:22 | 03:20:57 | 00:00:00 | |
| IW2NTF | 2026-09-03 01:54:37 | 44.73007 | 9.67992 | 141° | 62km/h | 5640m | -4.4m/s | -8.5°C | 72.5% | 0hPa | 2.6V | 07:42:32 | 03:20:47 | 00:00:00 | |
| IW2NTF | 2026-09-03 01:54:27 | 44.73121 | 9.67847 | 141° | 58km/h | 5682m | -4.2m/s | -8.8°C | 78.8% | 0hPa | 2.6V | 07:42:42 | 03:20:37 | 00:00:00 | |
| IW2NTF | 2026-09-03 01:54:17 | 44.73229 | 9.67694 | 142° | 66km/h | 5723m | -4m/s | -9°C | 80.8% | 0hPa | 2.5V | 07:42:52 | 03:20:27 | 00:00:00 | |
| IW2NTF | 2026-09-03 01:54:07 | 44.73337 | 9.67551 | 135° | 71km/h | 5764m | -4m/s | -9.3°C | 82% | 0hPa | 2.6V | 07:43:02 | 03:20:17 | 00:00:00 | |
| IW2NTF | 2026-09-03 01:53:57 | 44.73456 | 9.67413 | 128° | 57km/h | 5806m | -4.4m/s | -9.5°C | 79.3% | 0hPa | 2.6V | 07:43:12 | 03:20:07 | 00:00:00 | |
| IW2NTF | 2026-09-03 01:53:45 | 44.73571 | 9.67252 | 136° | 58km/h | 5847m | -4.1m/s | -9.8°C | 77.9% | 0hPa | 2.5V | 07:43:22 | 03:19:57 | 00:00:00 | |
| IW2NTF | 2026-09-03 01:53:33 | 44.73688 | 9.67094 | 131° | 60km/h | 5891m | -4.4m/s | -10°C | 77.9% | 0hPa | 2.5V | 07:43:32 | 03:19:47 | 00:00:00 | |
| IW2NTF | 2026-09-03 01:53:27 | 44.73804 | 9.66926 | 132° | 64km/h | 5934m | -4.6m/s | -10.3°C | 76.5% | 0hPa | 2.5V | 07:43:42 | 03:19:37 | 00:00:00 | |
| IW2NTF | 2026-09-03 01:53:15 | 44.73920 | 9.66762 | 127° | 66km/h | 5979m | -4.2m/s | -10.4°C | 80.2% | 0hPa | 2.5V | 07:43:52 | 03:19:27 | 00:00:00 | |
| IW2NTF | 2026-09-03 01:53:03 | 44.74040 | 9.66594 | 131° | 66km/h | 6022m | -4.2m/s | -10.7°C | 82.1% | 0hPa | 2.5V | 07:44:02 | 03:19:17 | 00:00:00 | |
| IW2NTF | 2026-09-03 01:52:57 | 44.74174 | 9.66425 | 139° | 60km/h | 6065m | -4.1m/s | -11°C | 83.2% | 0hPa | 2.5V | 07:44:12 | 03:19:07 | 00:00:00 | |
| IW2NTF | 2026-09-03 01:52:45 | 44.74300 | 9.66253 | 145° | 75km/h | 6106m | -4.6m/s | -11.2°C | 80.5% | 0hPa | 2.5V | 07:44:22 | 03:18:57 | 00:00:00 | |
| IW2NTF | 2026-09-03 01:52:33 | 44.74442 | 9.66092 | 143° | 77km/h | 6149m | -4.8m/s | -11.6°C | 81.6% | 0hPa | 2.5V | 07:44:32 | 03:18:47 | 00:00:00 | |
| IW2NTF | 2026-09-03 01:52:27 | 44.74575 | 9.65936 | 136° | 78km/h | 6192m | -4.7m/s | -11.9°C | 80.9% | 0hPa | 2.6V | 07:44:42 | 03:18:37 | 00:00:00 | |
| IW2NTF | 2026-09-03 01:52:15 | 44.74716 | 9.65789 | 135° | 60km/h | 6233m | -4.5m/s | -12.2°C | 80.6% | 0hPa | 2.6V | 07:44:52 | 03:18:27 | 00:00:00 | |
| IW2NTF | 2026-09-03 01:52:03 | 44.74851 | 9.65618 | 147° | 68km/h | 6275m | -4.5m/s | -12.5°C | 77.6% | 0hPa | 2.5V | 07:45:02 | 03:18:17 | 00:00:00 | |
| IW2NTF | 2026-09-03 01:51:51 | 44.75011 | 9.65422 | 145° | 71km/h | 6327m | -4.4m/s | -12.8°C | 79.3% | 0hPa | 2.6V | 07:45:14 | 03:18:05 | 00:00:00 | |
| IW2NTF | 2026-09-03 01:51:45 | 44.75137 | 9.65253 | 138° | 78km/h | 6369m | -3.8m/s | -13.2°C | 76% | 0hPa | 2.5V | 07:45:24 | 03:17:55 | 00:00:00 | |
| IW2NTF | 2026-09-03 01:51:33 | 44.75275 | 9.65095 | 140° | 73km/h | 6411m | -4.3m/s | -13.5°C | 76.8% | 0hPa | 2.6V | 07:45:34 | 03:17:45 | 00:00:00 | |
| IW2NTF | 2026-09-03 01:51:22 | 44.75415 | 9.64924 | 141° | 82km/h | 6456m | -4.5m/s | -13.9°C | 78.3% | 0hPa | 2.5V | 07:45:44 | 03:17:35 | 00:00:00 | |
| IW2NTF | 2026-09-03 01:51:15 | 44.75565 | 9.64770 | 135° | 77km/h | 6497m | -4.5m/s | -13.9°C | 66.9% | 0hPa | 2.6V | 07:45:54 | 03:17:25 | 00:00:00 | |
| IW2NTF | 2026-09-03 01:51:03 | 44.75732 | 9.64605 | 146° | 71km/h | 6541m | -4.1m/s | -14°C | 62.2% | 0hPa | 2.6V | 07:46:04 | 03:17:15 | 00:00:00 | |
| IW2NTF | 2026-09-03 01:50:51 | 44.75897 | 9.64451 | 151° | 73km/h | 6585m | -4.4m/s | -14.3°C | 61.4% | 0hPa | 2.6V | 07:46:14 | 03:17:05 | 00:00:00 | |
| IW2NTF | 2026-09-03 01:50:45 | 44.76064 | 9.64289 | 152° | 84km/h | 6628m | -4.6m/s | -14.6°C | 61% | 0hPa | 2.5V | 07:46:24 | 03:16:55 | 00:00:00 | |
| IW2NTF | 2026-09-03 01:50:03 | 44.76717 | 9.63648 | 136° | 84km/h | 6794m | -4.5m/s | -15.5°C | 53.4% | 0hPa | 2.5V | 07:47:03 | 03:16:16 | 00:00:00 | |
| IW2NTF | 2026-09-03 01:49:56 | 44.76879 | 9.63464 | 134° | 78km/h | 6837m | -4.8m/s | -15.5°C | 51.9% | 0hPa | 2.5V | 07:47:13 | 03:16:06 | 00:00:00 | |
| IW2NTF | 2026-09-03 01:49:46 | 44.77049 | 9.63268 | 147° | 80km/h | 6881m | -4.8m/s | -15.9°C | 52.8% | 0hPa | 2.6V | 07:47:23 | 03:15:56 | 00:00:00 | |
| IW2NTF | 2026-09-03 01:49:33 | 44.77202 | 9.63083 | 142° | 89km/h | 6924m | -4.7m/s | -16.4°C | 54.1% | 0hPa | 2.6V | 07:47:33 | 03:15:46 | 00:00:00 | |
| IW2NTF | 2026-09-03 01:49:21 | 44.77357 | 9.62900 | 135° | 89km/h | 6967m | -4.4m/s | -16.8°C | 55.9% | 0hPa | 2.6V | 07:47:43 | 03:15:36 | 00:00:00 | |
| IW2NTF | 2026-09-03 01:49:15 | 44.77522 | 9.62719 | 136° | 71km/h | 7013m | -4.7m/s | -17.2°C | 57.3% | 0hPa | 2.6V | 07:47:53 | 03:15:26 | 00:00:00 | |
| IW2NTF | 2026-09-03 01:49:03 | 44.77679 | 9.62513 | 146° | 86km/h | 7060m | -5.1m/s | -17.6°C | 58.9% | 0hPa | 2.6V | 07:48:03 | 03:15:16 | 00:00:00 | |
| IW2NTF | 2026-09-03 01:48:51 | 44.77827 | 9.62325 | 134° | 89km/h | 7106m | -4.2m/s | -18.1°C | 60.8% | 0hPa | 2.6V | 07:48:13 | 03:15:06 | 00:00:00 | |
| IW2NTF | 2026-09-03 01:48:45 | 44.77990 | 9.62135 | 133° | 80km/h | 7150m | -4.6m/s | -18.5°C | 62.4% | 0hPa | 2.6V | 07:48:23 | 03:14:56 | 00:00:00 | |
| IW2NTF | 2026-09-03 01:47:53 | 44.78767 | 9.61150 | 133° | 88km/h | 7379m | -4.7m/s | -20.3°C | 45.6% | 0hPa | 2.6V | 07:49:13 | 03:14:06 | 00:00:00 | |
| IW2NTF | 2026-09-03 01:47:43 | 44.78932 | 9.60953 | 133° | 78km/h | 7424m | -5m/s | -20.6°C | 39.3% | 0hPa | 2.5V | 07:49:23 | 03:13:56 | 00:00:00 | |
| IW2NTF | 2026-09-03 01:47:33 | 44.79102 | 9.60742 | 145° | 84km/h | 7472m | -4.5m/s | -20.9°C | 38.2% | 0hPa | 2.6V | 07:49:33 | 03:13:46 | 00:00:00 | |
| IW2NTF | 2026-09-03 01:47:23 | 44.79256 | 9.60544 | 137° | 97km/h | 7519m | -4.2m/s | -21.3°C | 35.9% | 0hPa | 2.6V | 07:49:43 | 03:13:36 | 00:00:00 | |
| IW2NTF | 2026-09-03 01:46:10 | 44.80560 | 9.59060 | 140° | 100km/h | 7885m | -4.9m/s | -23.8°C | 26.8% | 0hPa | 2.5V | 07:50:59 | 03:12:20 | 00:00:00 | |
| IW2NTF | 2026-09-03 01:46:00 | 44.80754 | 9.58878 | 141° | 80km/h | 7932m | -4.6m/s | -24.1°C | 25.1% | 0hPa | 2.6V | 07:51:09 | 03:12:10 | 00:00:00 | |
| IW2NTF | 2026-09-03 01:45:48 | 44.80982 | 9.58633 | 149° | 89km/h | 7990m | -4.9m/s | -24.4°C | 20.2% | 0hPa | 2.5V | 07:51:21 | 03:11:58 | 00:00:00 | |
| IW2NTF | 2026-09-03 01:45:38 | 44.81154 | 9.58425 | 138° | 102km/h | 8039m | -5.1m/s | -24.8°C | 20.3% | 0hPa | 2.6V | 07:51:31 | 03:11:48 | 00:00:00 | |
| IW2NTF | 2026-09-03 01:45:28 | 44.81352 | 9.58231 | 143° | 82km/h | 8087m | -5m/s | -25.1°C | 19.9% | 0hPa | 2.5V | 07:51:41 | 03:11:38 | 00:00:00 | |
| IW2NTF | 2026-09-03 01:45:19 | 44.81532 | 9.58011 | 146° | 100km/h | 8135m | -5m/s | -25.6°C | 20.2% | 0hPa | 2.5V | 07:51:51 | 03:11:28 | 00:00:00 | |
| IW2NTF | 2026-09-03 01:45:08 | 44.81711 | 9.57817 | 135° | 97km/h | 8182m | -5m/s | -26°C | 20.6% | 0hPa | 2.4V | 07:52:01 | 03:11:18 | 00:00:00 | |
| IW2NTF | 2026-09-03 01:44:57 | 44.81896 | 9.57624 | 139° | 78km/h | 8232m | -5m/s | -26.4°C | 19.9% | 0hPa | 2.5V | 07:52:11 | 03:11:08 | 00:00:00 | |
| IW2NTF | 2026-09-03 01:44:48 | 44.82071 | 9.57406 | 146° | 99km/h | 8281m | -4.9m/s | -26.7°C | 23% | 0hPa | 2.5V | 07:52:21 | 03:10:58 | 00:00:00 | |
| IW2NTF | 2026-09-03 01:44:38 | 44.82242 | 9.57231 | 135° | 84km/h | 8329m | -4.9m/s | -27.1°C | 27.3% | 0hPa | 2.4V | 07:52:31 | 03:10:48 | 00:00:00 | |
| IW2NTF | 2026-09-03 01:44:28 | 44.82426 | 9.57008 | 146° | 99km/h | 8379m | -4.8m/s | -27.6°C | 32.9% | 0hPa | 2.6V | 07:52:41 | 03:10:38 | 00:00:00 | |
| IW2NTF | 2026-09-03 01:44:18 | 44.82607 | 9.56831 | 134° | 88km/h | 8427m | -4.9m/s | -28.1°C | 38.4% | 0hPa | 2.6V | 07:52:51 | 03:10:28 | 00:00:00 | |
| IW2NTF | 2026-09-03 01:44:08 | 44.82796 | 9.56625 | 149° | 84km/h | 8477m | -5m/s | -28.5°C | 43.7% | 0hPa | 2.4V | 07:53:01 | 03:10:18 | 00:00:00 | |
| IW2NTF | 2026-09-03 01:43:58 | 44.82960 | 9.56439 | 138° | 99km/h | 8527m | -4.9m/s | -28.8°C | 50.6% | 0hPa | 2.4V | 07:53:11 | 03:10:08 | 00:00:00 | |
| IW2NTF | 2026-09-03 01:43:48 | 44.83143 | 9.56254 | 136° | 80km/h | 8577m | -5.3m/s | -29.1°C | 44.5% | 0hPa | 2.6V | 07:53:21 | 03:09:58 | 00:00:00 | |
| IW2NTF | 2026-09-03 01:43:38 | 44.83323 | 9.56032 | 147° | 95km/h | 8628m | -4.9m/s | -29.5°C | 56.6% | 0hPa | 2.4V | 07:53:31 | 03:09:48 | 00:00:00 | |
| IW2NTF | 2026-09-03 01:43:29 | 44.83488 | 9.55847 | 133° | 91km/h | 8677m | -5.2m/s | -29.9°C | 60.7% | 0hPa | 2.5V | 07:53:41 | 03:09:38 | 00:00:00 | |
| IW2NTF | 2026-09-03 01:43:18 | 44.83676 | 9.55642 | 146° | 82km/h | 8727m | -4.9m/s | -30.4°C | 62.5% | 0hPa | 2.6V | 07:53:51 | 03:09:28 | 00:00:00 | |
| IW2NTF | 2026-09-03 01:43:08 | 44.83833 | 9.55441 | 137° | 99km/h | 8777m | -4.9m/s | -30.8°C | 61.1% | 0hPa | 2.4V | 07:54:01 | 03:09:18 | 00:00:00 | |
| IW2NTF | 2026-09-03 01:42:58 | 44.84026 | 9.55248 | 144° | 78km/h | 8827m | -5.2m/s | -31.1°C | 61.8% | 0hPa | 2.6V | 07:54:11 | 03:09:08 | 00:00:00 | |
| IW2NTF | 2026-09-03 01:42:47 | 44.84186 | 9.55041 | 137° | 100km/h | 8879m | -5.2m/s | -31.5°C | 59.3% | 0hPa | 2.4V | 07:54:21 | 03:08:58 | 00:00:00 | |
| IW2NTF | 2026-09-03 01:42:35 | 44.84420 | 9.54817 | 144° | 78km/h | 8942m | -5.3m/s | -32°C | 61.2% | 0hPa | 2.5V | 07:54:33 | 03:08:46 | 00:00:00 | |
| IW2NTF | 2026-09-03 01:42:25 | 44.84590 | 9.54607 | 143° | 102km/h | 8993m | -5.2m/s | -32.5°C | 62.8% | 0hPa | 2.4V | 07:54:43 | 03:08:36 | 00:00:00 | |
| IW2NTF | 2026-09-03 01:42:15 | 44.84777 | 9.54432 | 138° | 80km/h | 9045m | -5.1m/s | -32.8°C | 60% | 0hPa | 2.5V | 07:54:53 | 03:08:26 | 00:00:00 | |
| IW2NTF | 2026-09-03 01:42:05 | 44.84951 | 9.54203 | 142° | 104km/h | 9098m | -4.9m/s | -33.3°C | 60.4% | 0hPa | 2.6V | 07:55:03 | 03:08:16 | 00:00:00 | |
| IW2NTF | 2026-09-03 01:41:54 | 44.85141 | 9.54024 | 138° | 84km/h | 9148m | -5.1m/s | -33.7°C | 62% | 0hPa | 2.4V | 07:55:13 | 03:08:06 | 00:00:00 | |
| IW2NTF | 2026-09-03 01:41:43 | 44.85334 | 9.53799 | 148° | 100km/h | 9200m | -4.9m/s | -34°C | 60.7% | 0hPa | 2.4V | 07:55:23 | 03:07:56 | 00:00:00 | |
| IW2NTF | 2026-09-03 01:41:33 | 44.85514 | 9.53625 | 136° | 86km/h | 9253m | -5.4m/s | -34.4°C | 58.9% | 0hPa | 2.4V | 07:55:33 | 03:07:46 | 00:00:00 | |
| IW2NTF | 2026-09-03 01:41:23 | 44.85708 | 9.53414 | 150° | 89km/h | 9306m | -5.6m/s | -34.9°C | 61.4% | 0hPa | 2.4V | 07:55:43 | 03:07:36 | 00:00:00 | |
| IW2NTF | 2026-09-03 01:41:13 | 44.85873 | 9.53234 | 135° | 93km/h | 9362m | -5.3m/s | -35.4°C | 63.5% | 0hPa | 2.4V | 07:55:53 | 03:07:26 | 00:00:00 | |
| IW2NTF | 2026-09-03 01:41:03 | 44.86073 | 9.53034 | 150° | 84km/h | 9416m | -5.3m/s | -36°C | 65% | 0hPa | 2.4V | 07:56:03 | 03:07:16 | 00:00:00 | |
| IW2NTF | 2026-09-03 01:40:53 | 44.86241 | 9.52841 | 138° | 99km/h | 9471m | -5.4m/s | -36.4°C | 64.9% | 0hPa | 2.4V | 07:56:13 | 03:07:06 | 00:00:00 | |
| IW2NTF | 2026-09-03 01:40:43 | 44.86440 | 9.52664 | 148° | 78km/h | 9523m | -5.5m/s | -36.9°C | 67.8% | 0hPa | 2.4V | 07:56:23 | 03:06:56 | 00:00:00 | |
| IW2NTF | 2026-09-03 01:40:33 | 44.86615 | 9.52473 | 149° | 99km/h | 9576m | -5.2m/s | -37.4°C | 68.9% | 0hPa | 2.4V | 07:56:33 | 03:06:46 | 00:00:00 | |
| IW2NTF | 2026-09-03 01:40:23 | 44.86807 | 9.52301 | 137° | 86km/h | 9634m | -5.3m/s | -37.9°C | 68.3% | 0hPa | 2.4V | 07:56:44 | 03:06:35 | 00:00:00 | |
| IW2NTF | 2026-09-03 01:40:13 | 44.87006 | 9.52112 | 154° | 91km/h | 9688m | -5.8m/s | -38.4°C | 69.5% | 0hPa | 2.5V | 07:56:54 | 03:06:25 | 00:00:00 | |
| IW2NTF | 2026-09-03 01:40:03 | 44.87183 | 9.51977 | 142° | 75km/h | 9741m | -5.4m/s | -38.9°C | 71.6% | 0hPa | 2.5V | 07:57:04 | 03:06:15 | 00:00:00 | |
| IW2NTF | 2026-09-03 01:39:53 | 44.87365 | 9.51789 | 152° | 95km/h | 9795m | -5.1m/s | -39.2°C | 66.5% | 0hPa | 2.4V | 07:57:14 | 03:06:05 | 00:00:00 | |
| IW2NTF | 2026-09-03 01:39:43 | 44.87544 | 9.51662 | 143° | 71km/h | 9849m | -5.5m/s | -39.5°C | 51.1% | 0hPa | 2.4V | 07:57:24 | 03:05:55 | 00:00:00 | |
| IW2NTF | 2026-09-03 01:39:34 | 44.87716 | 9.51475 | 150° | 93km/h | 9904m | -5.5m/s | -39.9°C | 51% | 0hPa | 2.4V | 07:57:34 | 03:05:45 | 00:00:00 | |
| IW2NTF | 2026-09-03 01:39:24 | 44.87880 | 9.51332 | 136° | 77km/h | 9956m | -5.5m/s | -40.3°C | 54.3% | 0hPa | 2.5V | 07:57:44 | 03:05:35 | 00:00:00 | |
| IW2NTF | 2026-09-03 01:39:13 | 44.88055 | 9.51131 | 150° | 91km/h | 10011m | -5.3m/s | -40.7°C | 51.8% | 0hPa | 2.5V | 07:57:54 | 03:05:25 | 00:00:00 | |
| IW2NTF | 2026-09-03 01:39:04 | 44.88218 | 9.50986 | 137° | 77km/h | 10065m | -5.7m/s | -41.1°C | 50.8% | 0hPa | 2.5V | 07:58:04 | 03:05:15 | 00:00:00 | |
| IW2NTF | 2026-09-03 01:38:53 | 44.88431 | 9.50740 | 150° | 93km/h | 10130m | -5.6m/s | -41.7°C | 49.6% | 0hPa | 2.5V | 07:58:16 | 03:05:03 | 00:00:00 | |
| IW2NTF | 2026-09-03 01:38:43 | 44.88596 | 9.50583 | 134° | 82km/h | 10185m | -5.9m/s | -42.1°C | 50.3% | 0hPa | 2.5V | 07:58:26 | 03:04:53 | 00:00:00 | |
| IW2NTF | 2026-09-03 01:38:33 | 44.88781 | 9.50383 | 151° | 88km/h | 10239m | -5.3m/s | -42.5°C | 49.1% | 0hPa | 2.5V | 07:58:36 | 03:04:43 | 00:00:00 | |
| IW2NTF | 2026-09-03 01:38:23 | 44.88940 | 9.50243 | 137° | 71km/h | 10295m | -5.6m/s | -43°C | 50.6% | 0hPa | 2.4V | 07:58:46 | 03:04:33 | 00:00:00 | |
| IW2NTF | 2026-09-03 01:38:13 | 44.89110 | 9.50054 | 152° | 86km/h | 10350m | -5.5m/s | -43.4°C | 51.3% | 0hPa | 2.4V | 07:58:56 | 03:04:23 | 00:00:00 | |
| IW2NTF | 2026-09-03 01:38:03 | 44.89264 | 9.49922 | 136° | 69km/h | 10405m | -5.8m/s | -43.9°C | 53.1% | 0hPa | 2.4V | 07:59:06 | 03:04:13 | 00:00:00 | |
| IW2NTF | 2026-09-03 01:37:53 | 44.89420 | 9.49725 | 145° | 91km/h | 10461m | -5.7m/s | -44.5°C | 54.5% | 0hPa | 2.5V | 07:59:16 | 03:04:03 | 00:00:00 | |
| IW2NTF | 2026-09-03 01:37:44 | 44.89578 | 9.49582 | 135° | 71km/h | 10515m | -5.4m/s | -45°C | 56.6% | 0hPa | 2.5V | 07:59:26 | 03:03:53 | 00:00:00 | |
| IW2NTF | 2026-09-03 01:37:33 | 44.89746 | 9.49385 | 147° | 91km/h | 10572m | -5.9m/s | -45.4°C | 56.7% | 0hPa | 2.4V | 07:59:36 | 03:03:43 | 00:00:00 | |
| IW2NTF | 2026-09-03 01:37:23 | 44.89912 | 9.49249 | 137° | 68km/h | 10627m | -5.3m/s | -45.8°C | 55.8% | 0hPa | 2.4V | 07:59:46 | 03:03:33 | 00:00:00 | |
| IW2NTF | 2026-09-03 01:37:13 | 44.90076 | 9.49060 | 151° | 84km/h | 10683m | -5.3m/s | -46.1°C | 53.5% | 0hPa | 2.4V | 07:59:56 | 03:03:23 | 00:00:00 | |
| IW2NTF | 2026-09-03 01:37:03 | 44.90218 | 9.48903 | 132° | 80km/h | 10739m | -5.5m/s | -46.6°C | 52.4% | 0hPa | 2.5V | 08:00:06 | 03:03:13 | 00:00:00 | |
| IW2NTF | 2026-09-03 01:36:53 | 44.90395 | 9.48714 | 150° | 78km/h | 10795m | -5.4m/s | -46.9°C | 48.8% | 0hPa | 2.4V | 08:00:16 | 03:03:03 | 00:00:00 | |
| IW2NTF | 2026-09-03 01:36:39 | 44.90602 | 9.48474 | 138° | 91km/h | 10873m | -5.8m/s | -47.5°C | 47.4% | 0hPa | 2.4V | 08:00:30 | 03:02:49 | 00:00:00 | |
| IW2NTF | 2026-09-03 01:36:29 | 44.90794 | 9.48292 | 154° | 82km/h | 10931m | -5.8m/s | -47.9°C | 47.5% | 0hPa | 2.5V | 08:00:40 | 03:02:39 | 00:00:00 | |
| IW2NTF | 2026-09-03 01:36:20 | 44.90939 | 9.48143 | 133° | 75km/h | 10989m | -5.8m/s | -48.4°C | 48.4% | 0hPa | 2.4V | 08:00:50 | 03:02:29 | 00:00:00 | |
| IW2NTF | 2026-09-03 01:36:09 | 44.91104 | 9.47943 | 151° | 84km/h | 11045m | -5.6m/s | -48.9°C | 47.4% | 0hPa | 2.4V | 08:01:00 | 03:02:19 | 00:00:00 | |
| IW2NTF | 2026-09-03 01:35:59 | 44.91249 | 9.47793 | 131° | 80km/h | 11100m | -5.6m/s | -49.4°C | 45.6% | 0hPa | 2.4V | 08:01:10 | 03:02:09 | 00:00:00 | |
| IW2NTF | 2026-09-03 01:35:49 | 44.91418 | 9.47609 | 151° | 73km/h | 11156m | -5.8m/s | -49.5°C | 38.5% | 0hPa | 2.5V | 08:01:20 | 03:01:59 | 00:00:00 | |
| IW2NTF | 2026-09-03 01:35:39 | 44.91548 | 9.47473 | 129° | 69km/h | 11213m | -5.5m/s | -49.8°C | 37.9% | 0hPa | 2.4V | 08:01:30 | 03:01:49 | 00:00:00 | |
| IW2NTF | 2026-09-03 01:35:29 | 44.91698 | 9.47284 | 149° | 78km/h | 11267m | -5.6m/s | -50.2°C | 35.1% | 0hPa | 2.4V | 08:01:40 | 03:01:39 | 00:00:00 | |
| IW2NTF | 2026-09-03 01:35:19 | 44.91849 | 9.47170 | 142° | 57km/h | 11325m | -5.7m/s | -50.7°C | 34.6% | 0hPa | 2.5V | 08:01:50 | 03:01:29 | 00:00:00 | |
| IW2NTF | 2026-09-03 01:35:09 | 44.91977 | 9.46991 | 143° | 84km/h | 11383m | -5.7m/s | -51.2°C | 35.5% | 0hPa | 2.4V | 08:02:00 | 03:01:19 | 00:00:00 | |
| IW2NTF | 2026-09-03 01:34:59 | 44.92140 | 9.46868 | 149° | 58km/h | 11441m | -6m/s | -51.7°C | 37.3% | 0hPa | 2.4V | 08:02:10 | 03:01:09 | 00:00:00 | |
| IW2NTF | 2026-09-03 01:34:49 | 44.92264 | 9.46698 | 137° | 84km/h | 11500m | -5.8m/s | -52.2°C | 40.2% | 0hPa | 2.4V | 08:02:20 | 03:00:59 | 00:00:00 | |
| IW2NTF | 2026-09-03 01:34:39 | 44.92434 | 9.46557 | 152° | 64km/h | 11557m | -6m/s | -52.7°C | 40.5% | 0hPa | 2.5V | 08:02:30 | 03:00:49 | 00:00:00 | |
| IW2NTF | 2026-09-03 01:34:30 | 44.92562 | 9.46399 | 135° | 84km/h | 11617m | -6m/s | -53.1°C | 39.8% | 0hPa | 2.4V | 08:02:40 | 03:00:39 | 00:00:00 | |
| IW2NTF | 2026-09-03 01:34:19 | 44.92739 | 9.46233 | 152° | 69km/h | 11674m | -5.5m/s | -53.6°C | 39.8% | 0hPa | 2.4V | 08:02:50 | 03:00:29 | 00:00:00 | |
| IW2NTF | 2026-09-03 01:34:09 | 44.92868 | 9.46071 | 133° | 82km/h | 11732m | -5.9m/s | -54°C | 40.5% | 0hPa | 2.5V | 08:03:00 | 03:00:19 | 00:00:00 | |
| IW2NTF | 2026-09-03 01:33:59 | 44.93044 | 9.45893 | 155° | 78km/h | 11791m | -6m/s | -54.5°C | 39.8% | 0hPa | 2.4V | 08:03:10 | 03:00:09 | 00:00:00 | |
| IW2NTF | 2026-09-03 01:33:49 | 44.93186 | 9.45758 | 132° | 77km/h | 11851m | -5.9m/s | -55°C | 40.7% | 0hPa | 2.4V | 08:03:20 | 02:59:59 | 00:00:00 | |
| IW2NTF | 2026-09-03 01:33:39 | 44.93356 | 9.45570 | 151° | 84km/h | 11909m | -5.7m/s | -55.4°C | 42.9% | 0hPa | 2.5V | 08:03:30 | 02:59:49 | 00:00:00 | |
| IW2NTF | 2026-09-03 01:33:29 | 44.93506 | 9.45448 | 138° | 64km/h | 11970m | -6.1m/s | -55.9°C | 43.2% | 0hPa | 2.4V | 08:03:40 | 02:59:39 | 00:00:00 | |
| IW2NTF | 2026-09-03 01:33:19 | 44.93663 | 9.45249 | 145° | 95km/h | 12030m | -6.4m/s | -56.3°C | 45.6% | 0hPa | 2.4V | 08:03:50 | 02:59:29 | 00:00:00 | |
| IW2NTF | 2026-09-03 01:33:09 | 44.93840 | 9.45118 | 147° | 66km/h | 12091m | -6m/s | -56.8°C | 49.9% | 0hPa | 2.5V | 08:04:00 | 02:59:19 | 00:00:00 | |
| IW2NTF | 2026-09-03 01:33:00 | 44.93988 | 9.44943 | 144° | 91km/h | 12152m | -5.9m/s | -57.2°C | 48.2% | 0hPa | 2.4V | 08:04:10 | 02:59:09 | 00:00:00 | |
| IW2NTF | 2026-09-03 01:32:49 | 44.94176 | 9.44825 | 158° | 64km/h | 12214m | -6.4m/s | -57.6°C | 45.7% | 0hPa | 2.4V | 08:04:20 | 02:58:59 | 00:00:00 | |
| IW2NTF | 2026-09-03 01:32:39 | 44.94310 | 9.44686 | 140° | 82km/h | 12274m | -6.1m/s | -57.9°C | 46.1% | 0hPa | 2.5V | 08:04:30 | 02:58:49 | 00:00:00 | |
| IW2NTF | 2026-09-03 01:32:29 | 44.94483 | 9.44561 | 155° | 58km/h | 12335m | -6m/s | -58.3°C | 43.2% | 0hPa | 2.4V | 08:04:40 | 02:58:39 | 00:00:00 | |
| IW2NTF | 2026-09-03 01:32:19 | 44.94596 | 9.44406 | 132° | 78km/h | 12397m | -6m/s | -58.4°C | 43.1% | 0hPa | 2.4V | 08:04:50 | 02:58:29 | 00:00:00 | |
| IW2NTF | 2026-09-03 01:32:10 | 44.94756 | 9.44248 | 151° | 62km/h | 12458m | -6.1m/s | -58.9°C | 41.9% | 0hPa | 2.5V | 08:05:00 | 02:58:19 | 00:00:00 | |
| IW2NTF | 2026-09-03 01:31:59 | 44.94866 | 9.44082 | 127° | 80km/h | 12520m | -6.3m/s | -59.3°C | 42.3% | 0hPa | 2.4V | 08:05:10 | 02:58:09 | 00:00:00 | |
| IW2NTF | 2026-09-03 01:31:49 | 44.95026 | 9.43887 | 148° | 69km/h | 12582m | -6.2m/s | -59.9°C | 42.6% | 0hPa | 2.4V | 08:05:20 | 02:57:59 | 00:00:00 | |
| IW2NTF | 2026-09-03 01:31:39 | 44.95143 | 9.43716 | 127° | 86km/h | 12646m | -6.2m/s | -60.3°C | 42.7% | 0hPa | 2.5V | 08:05:30 | 02:57:49 | 00:00:00 | |
| IW2NTF | 2026-09-03 01:31:29 | 44.95319 | 9.43504 | 148° | 80km/h | 12710m | -6.2m/s | -60.2°C | 41.9% | 0hPa | 2.4V | 08:05:40 | 02:57:39 | 00:00:00 | |
| IW2NTF | 2026-09-03 01:31:19 | 44.95459 | 9.43323 | 131° | 89km/h | 12773m | -6.4m/s | -60°C | 36.2% | 0hPa | 2.4V | 08:05:50 | 02:57:29 | 00:00:00 | |
| IW2NTF | 2026-09-03 01:31:07 | 44.95697 | 9.43070 | 152° | 82km/h | 12851m | -6.1m/s | -60.3°C | 32.8% | 0hPa | 2.4V | 08:06:02 | 02:57:17 | 00:00:00 | |
| IW2NTF | 2026-09-03 01:30:57 | 44.95848 | 9.42900 | 131° | 86km/h | 12918m | -6.7m/s | -60.1°C | 28% | 0hPa | 2.5V | 08:06:12 | 02:57:07 | 00:00:00 | |
| IW2NTF | 2026-09-03 01:30:47 | 44.96038 | 9.42681 | 152° | 93km/h | 12985m | -6.3m/s | -60.2°C | 25.3% | 0hPa | 2.4V | 08:06:22 | 02:56:57 | 00:00:00 | |
| IW2NTF | 2026-09-03 01:30:37 | 44.96200 | 9.42522 | 133° | 86km/h | 13053m | -7m/s | -60.3°C | 23.1% | 0hPa | 2.4V | 08:06:32 | 02:56:47 | 00:00:00 | |
| IW2NTF | 2026-09-03 01:30:27 | 44.96398 | 9.42297 | 152° | 102km/h | 13121m | -6.8m/s | -60.3°C | 20.1% | 0hPa | 2.5V | 08:06:42 | 02:56:37 | 00:00:00 | |
| IW2NTF | 2026-09-03 01:30:17 | 44.96580 | 9.42139 | 134° | 84km/h | 13189m | -6.9m/s | -59.2°C | 16.9% | 0hPa | 2.4V | 08:06:52 | 02:56:27 | 00:00:00 | |
| IW2NTF | 2026-09-03 01:30:07 | 44.96775 | 9.41923 | 153° | 95km/h | 13255m | -6.6m/s | -59°C | 14.9% | 0hPa | 2.4V | 08:07:02 | 02:56:17 | 00:00:00 | |
| IW2NTF | 2026-09-03 01:29:57 | 44.96934 | 9.41773 | 132° | 80km/h | 13323m | -6.4m/s | -59.2°C | 14.7% | 0hPa | 2.5V | 08:07:12 | 02:56:07 | 00:00:00 | |
| IW2NTF | 2026-09-03 01:29:47 | 44.97118 | 9.41541 | 149° | 102km/h | 13392m | -7m/s | -59.1°C | 14.1% | 0hPa | 2.4V | 08:07:22 | 02:55:57 | 00:00:00 | |
| IW2NTF | 2026-09-03 01:29:37 | 44.97291 | 9.41376 | 132° | 78km/h | 13461m | -7.3m/s | -59.1°C | 14.4% | 0hPa | 2.4V | 08:07:32 | 02:55:47 | 00:00:00 | |
| IW2NTF | 2026-09-03 01:29:27 | 44.97458 | 9.41132 | 144° | 99km/h | 13530m | -6.5m/s | -58.8°C | 14.2% | 0hPa | 2.4V | 08:07:42 | 02:55:37 | 00:00:00 | |
| IW2NTF | 2026-09-03 01:29:17 | 44.97620 | 9.40981 | 133° | 62km/h | 13600m | -6.9m/s | -58.3°C | 13.9% | 0hPa | 2.6V | 08:07:52 | 02:55:27 | 00:00:00 | |
| IW2NTF | 2026-09-03 01:29:07 | 44.97747 | 9.40759 | 135° | 93km/h | 13670m | -7m/s | -58.7°C | 14.5% | 0hPa | 2.4V | 08:08:02 | 02:55:17 | 00:00:00 | |
| IW2NTF | 2026-09-03 01:28:57 | 44.97908 | 9.40580 | 134° | 62km/h | 13739m | -6.8m/s | -58.9°C | 14.3% | 0hPa | 2.4V | 08:08:12 | 02:55:07 | 00:00:00 | |
| IW2NTF | 2026-09-03 01:28:47 | 44.98005 | 9.40368 | 119° | 88km/h | 13810m | -7.1m/s | -59.4°C | 14% | 0hPa | 2.5V | 08:08:22 | 02:54:57 | 00:00:00 | |
| IW2NTF | 2026-09-03 01:28:37 | 44.98154 | 9.40100 | 139° | 91km/h | 13882m | -6.5m/s | -60°C | 14.4% | 0hPa | 2.4V | 08:08:32 | 02:54:47 | 00:00:00 | |
| IW2NTF | 2026-09-03 01:28:27 | 44.98278 | 9.39883 | 118° | 91km/h | 13951m | -7.1m/s | -60.5°C | 13.3% | 0hPa | 2.4V | 08:08:42 | 02:54:37 | 00:00:00 | |
| IW2NTF | 2026-09-03 01:28:17 | 44.98436 | 9.39580 | 137° | 106km/h | 14024m | -6.6m/s | -60.4°C | 12.3% | 0hPa | 2.4V | 08:08:52 | 02:54:27 | 00:00:00 | |
| IW2NTF | 2026-09-03 01:28:07 | 44.98613 | 9.39378 | 134° | 77km/h | 14099m | -7.3m/s | -60.6°C | 11.5% | 0hPa | 2.6V | 08:09:02 | 02:54:17 | 00:00:00 | |
| IW2NTF | 2026-09-03 01:27:57 | 44.98763 | 9.39114 | 137° | 110km/h | 14170m | -7.1m/s | -60.2°C | 10.1% | 0hPa | 2.4V | 08:09:12 | 02:54:07 | 00:00:00 | |
| IW2NTF | 2026-09-03 01:27:47 | 44.98968 | 9.38916 | 149° | 86km/h | 14244m | -7.8m/s | -60.4°C | 9.4% | 0hPa | 2.4V | 08:09:22 | 02:53:57 | 00:00:00 | |
| IW2NTF | 2026-09-03 01:27:37 | 44.99112 | 9.38769 | 127° | 68km/h | 14319m | -7.4m/s | -59.5°C | 8.2% | 0hPa | 2.6V | 08:09:32 | 02:53:47 | 00:00:00 | |
| IW2NTF | 2026-09-03 01:27:27 | 44.99261 | 9.38567 | 152° | 75km/h | 14391m | -7.5m/s | -59.6°C | 7.7% | 0hPa | 2.6V | 08:09:42 | 02:53:37 | 00:00:00 | |
| IW2NTF | 2026-09-03 01:27:17 | 44.99374 | 9.38463 | 123° | 53km/h | 14468m | -7.6m/s | -59.4°C | 7.6% | 0hPa | 2.4V | 08:09:52 | 02:53:27 | 00:00:00 | |
| DO3MHA-11 | 2026-09-03 01:27:11 | 44.99381 | 9.38446 | 123° | 73km/h | 14476m | -7.6m/s | -59.4°C | 7.6% | 0hPa | 2.4V | 00:00:00 | 02:53:26 | 00:00:00 | |
| IW2NTF | 2026-09-03 01:27:07 | 44.99508 | 9.38298 | 156° | 69km/h | 14542m | -7.8m/s | -59.6°C | 7.5% | 0hPa | 2.4V | 08:10:02 | 02:53:17 | 00:00:00 | |
| DO3MHA-11 | 2026-09-03 01:27:01 | 44.99524 | 9.38289 | 158° | 51km/h | 14550m | -7.4m/s | -59.6°C | 7.5% | 0hPa | 2.6V | 00:00:00 | 02:53:16 | 00:00:00 | |
| IW2NTF | 2026-09-03 01:26:57 | 44.99600 | 9.38193 | 115° | 55km/h | 14617m | -7.9m/s | -59.9°C | 7.5% | 0hPa | 2.6V | 08:10:12 | 02:53:07 | 00:00:00 | |
| DO3MHA-11 | 2026-09-03 01:26:49 | 44.99623 | 9.38133 | 123° | 69km/h | 14640m | -7.0m/s | -60.0°C | 7.5% | 0hPa | 2.5V | 00:00:00 | 02:53:04 | 00:00:00 | |
| IW2NTF | 2026-09-03 01:26:47 | 44.99717 | 9.38012 | 150° | 62km/h | 14691m | -7.7m/s | -60.1°C | 7.5% | 0hPa | 2.5V | 08:10:22 | 02:52:57 | 00:00:00 | |
| DO3MHA-11 | 2026-09-03 01:26:39 | 44.99752 | 9.37984 | 149° | 51km/h | 14714m | -7.6m/s | -59.9°C | 7.4% | 0hPa | 2.4V | 00:00:00 | 02:52:54 | 00:00:00 | |
| IW2NTF | 2026-09-03 01:26:37 | 44.99794 | 9.37889 | 114° | 64km/h | 14765m | -7.5m/s | -60.1°C | 7.3% | 0hPa | 2.4V | 08:10:32 | 02:52:47 | 00:00:00 | |
| DO3MHA-11 | 2026-09-03 01:26:29 | 44.99823 | 9.37825 | 129° | 64km/h | 14788m | -7.4m/s | -59.8°C | 7.2% | 0hPa | 2.4V | 00:00:00 | 02:52:44 | 00:00:00 | |
| IW2NTF | 2026-09-03 01:26:27 | 44.99920 | 9.37728 | 155° | 55km/h | 14841m | -7.9m/s | -59.4°C | 6.8% | 0hPa | 2.4V | 08:10:42 | 02:52:37 | 00:00:00 | |
| DO3MHA-11 | 2026-09-03 01:26:19 | 44.99953 | 9.37708 | 154° | 51km/h | 14864m | -7.4m/s | -59.1°C | 6.7% | 0hPa | 2.6V | 00:00:00 | 02:52:34 | 00:00:00 | |
| IW2NTF | 2026-09-03 01:26:17 | 44.99987 | 9.37638 | 108° | 46km/h | 14917m | -7.7m/s | -59°C | 6.5% | 0hPa | 2.6V | 08:10:52 | 02:52:27 | 00:00:00 | |
| DO3MHA-11 | 2026-09-03 01:26:06 | 45.00021 | 9.37527 | 123° | 58km/h | 14964m | -7.3m/s | -58.9°C | 6.3% | 0hPa | 2.6V | 08:10:00 | 02:52:21 | 00:00:00 | |
| DB0UT-7 | 2026-09-03 01:26:05 | 45.00030 | 9.37508 | 128° | 60km/h | 14972m | -7.2m/s | -58.9°C | 6.3% | 0hPa | 2.4V | 00:00:00 | 02:52:20 | 00:00:00 | |
| IW2NTF | 2026-09-03 01:26:04 | 45.00102 | 9.37423 | 148° | 49km/h | 15018m | -7.7m/s | -58.9°C | 6.3% | 0hPa | 2.4V | 08:11:05 | 02:52:14 | 00:00:00 | |
| DO3MHA-11 | 2026-09-03 01:25:56 | 45.00125 | 9.37398 | 127° | 55km/h | 15041m | -7.5m/s | -59.1°C | 6.2% | 0hPa | 2.6V | 00:00:00 | 02:52:11 | 00:00:00 | |
| IW2NTF | 2026-09-03 01:25:54 | 45.00155 | 9.37282 | 115° | 69km/h | 15096m | -7.8m/s | -59.4°C | 6.4% | 0hPa | 2.6V | 08:11:15 | 02:52:04 | 00:00:00 | |
| DO3MHA-11 | 2026-09-03 01:25:46 | 45.00184 | 9.37214 | 127° | 68km/h | 15121m | -8.4m/s | -59.5°C | 6.4% | 0hPa | 2.6V | 00:00:00 | 02:52:01 | 00:00:00 | |
| IW2NTF | 2026-09-03 01:25:44 | 45.00279 | 9.37096 | 146° | 57km/h | 15175m | -7.9m/s | -60°C | 6.8% | 0hPa | 2.6V | 08:11:25 | 02:51:54 | 00:00:00 | |
| DO3MHA-11 | 2026-09-03 01:25:36 | 45.00308 | 9.37061 | 127° | 66km/h | 15198m | -7.2m/s | -60.2°C | 6.8% | 0hPa | 2.4V | 00:00:00 | 02:51:51 | 00:00:00 | |
| IW2NTF | 2026-09-03 01:25:34 | 45.00353 | 9.36916 | 117° | 82km/h | 15255m | -7.6m/s | -60.1°C | 6.8% | 0hPa | 2.4V | 08:11:35 | 02:51:44 | 00:00:00 | |
| DB0UT-7 | 2026-09-03 01:25:31 | 45.00337 | 9.36966 | 113° | 55km/h | 15239m | -8.3m/s | -60.2°C | 6.9% | 0hPa | 2.4V | 00:00:00 | 00:00:00 | 00:00:00 | |
| DO3MHA-11 | 2026-09-03 01:25:26 | 45.00390 | 9.36842 | 133° | 75km/h | 15278m | -8.0m/s | -59.7°C | 6.5% | 0hPa | 2.5V | 00:00:00 | 02:51:41 | 00:00:00 | |
| IW2NTF | 2026-09-03 01:25:22 | 45.00518 | 9.36719 | 152° | 49km/h | 15352m | -8.1m/s | -59.1°C | 6.1% | 0hPa | 2.5V | 08:11:47 | 02:51:32 | 00:00:00 | |
| DO3MHA-11 | 2026-09-03 01:25:16 | 45.00528 | 9.36711 | 150° | 53km/h | 15361m | -7.8m/s | -59.0°C | 6.1% | 0hPa | 2.4V | 00:00:00 | 02:51:31 | 00:00:00 | |
| IW2NTF | 2026-09-03 01:25:12 | 45.00591 | 9.36577 | 129° | 73km/h | 15431m | -8.2m/s | -59.5°C | 6.3% | 0hPa | 2.4V | 08:11:57 | 02:51:22 | 00:00:00 | |
| DO3MHA-11 | 2026-09-03 01:25:06 | 45.00603 | 9.36558 | 136° | 51km/h | 15440m | -8.1m/s | -59.5°C | 6.3% | 0hPa | 2.5V | 00:00:00 | 02:51:21 | 00:00:00 | |
| IW2NTF | 2026-09-03 01:25:02 | 45.00704 | 9.36481 | 137° | 26km/h | 15511m | -7.8m/s | -59.4°C | 6.3% | 0hPa | 2.4V | 08:12:07 | 02:51:12 | 00:00:00 | |
| DO3MHA-11 | 2026-09-03 01:24:56 | 45.00708 | 9.36474 | 120° | 49km/h | 15519m | -7.5m/s | -59.4°C | 6.3% | 0hPa | 2.6V | 00:00:00 | 02:51:11 | 00:00:00 | |
| DB0UT-7 | 2026-09-03 01:24:55 | 45.00711 | 9.36465 | 107° | 46km/h | 15527m | -8.1m/s | -59.4°C | 6.2% | 0hPa | 2.6V | 00:00:00 | 02:51:10 | 00:00:00 | |
| IW2NTF | 2026-09-03 01:24:52 | 45.00740 | 9.36325 | 122° | 64km/h | 15593m | -7.2m/s | -59.3°C | 6.1% | 0hPa | 2.6V | 08:12:17 | 02:51:02 | 00:00:00 | |
| DO3MHA-11 | 2026-09-03 01:24:46 | 45.00749 | 9.36308 | 131° | 35km/h | 15601m | -7.6m/s | -59.4°C | 6.1% | 0hPa | 2.6V | 00:00:00 | 02:51:01 | 00:00:00 | |
| IW2NTF | 2026-09-03 01:24:42 | 45.00791 | 9.36233 | 77° | 35km/h | 15674m | -8.3m/s | -59.7°C | 6.3% | 0hPa | 2.6V | 08:12:27 | 02:50:52 | 00:00:00 | |
| DO3MHA-11 | 2026-09-03 01:24:36 | 45.00789 | 9.36219 | 80° | 55km/h | 15682m | -8.0m/s | -59.7°C | 6.3% | 0hPa | 2.6V | 08:12:00 | 02:50:51 | 00:00:00 | |
| IW2NTF | 2026-09-03 01:24:32 | 45.00826 | 9.36055 | 131° | 46km/h | 15754m | -8.4m/s | -60.1°C | 6.5% | 0hPa | 2.5V | 08:12:37 | 02:50:42 | 00:00:00 | |
| DO3MHA-11 | 2026-09-03 01:24:26 | 45.00833 | 9.36044 | 134° | 33km/h | 15762m | -7.7m/s | -60.0°C | 6.5% | 0hPa | 2.5V | 00:00:00 | 02:50:41 | 00:00:00 | |
| DB0UT-7 | 2026-09-03 01:24:25 | 45.00840 | 9.36034 | 135° | 49km/h | 15770m | -8.0m/s | -59.9°C | 6.4% | 0hPa | 2.5V | 00:00:00 | 00:00:00 | 00:00:00 | |
| DO3MHA-11 | 2026-09-03 01:24:16 | 45.00852 | 9.35945 | 80° | 66km/h | 15845m | -8.5m/s | -59.3°C | 5.9% | 0hPa | 2.5V | 00:00:00 | 02:50:31 | 00:00:00 | |
| IW2NTF | 2026-09-03 01:24:10 | 45.00893 | 9.35702 | 124° | 53km/h | 15936m | -8.3m/s | -59.6°C | 5.8% | 0hPa | 2.5V | 08:12:59 | 02:50:20 | 00:00:00 | |
| DO3MHA-11 | 2026-09-03 01:24:06 | 45.00885 | 9.35718 | 123° | 44km/h | 15928m | -7.9m/s | -59.5°C | 5.7% | 0hPa | 2.5V | 00:00:00 | 02:50:21 | 00:00:00 | |
| IW2NTF | 2026-09-03 01:24:00 | 45.00907 | 9.35538 | 90° | 77km/h | 16017m | -8.1m/s | -60.2°C | 6% | 0hPa | 2.5V | 08:13:09 | 02:50:10 | 00:00:00 | |
| DO3MHA-11 | 2026-09-03 01:23:56 | 45.00907 | 9.35565 | 86° | 69km/h | 16009m | -7.4m/s | -60.1°C | 6.0% | 0hPa | 2.5V | 00:00:00 | 02:50:11 | 00:00:00 | |
| DB0UT-7 | 2026-09-03 01:23:55 | 45.00907 | 9.35538 | 91° | 66km/h | 16017m | -8.0m/s | -60.2°C | 6.0% | 0hPa | 2.5V | 00:00:00 | 02:50:10 | 00:00:00 | |
| IW2NTF | 2026-09-03 01:23:50 | 45.00966 | 9.35323 | 117° | 42km/h | 16100m | -8m/s | -60.4°C | 6.1% | 0hPa | 2.4V | 08:13:19 | 02:50:00 | 00:00:00 | |
| DO3MHA-11 | 2026-09-03 01:23:46 | 45.00960 | 9.35337 | 121° | 49km/h | 16092m | -8.3m/s | -60.4°C | 6.1% | 0hPa | 2.6V | 00:00:00 | 02:50:01 | 00:00:00 | |
| IW2NTF | 2026-09-03 01:23:40 | 45.00984 | 9.35133 | 106° | 80km/h | 16183m | -8.5m/s | -60.2°C | 5.9% | 0hPa | 2.6V | 08:13:29 | 02:49:50 | 00:00:00 | |
| DO3MHA-11 | 2026-09-03 01:23:36 | 45.00979 | 9.35160 | 101° | 77km/h | 16175m | -8.1m/s | -60.1°C | 5.9% | 0hPa | 2.6V | 00:00:00 | 02:49:51 | 00:00:00 | |
| IW2NTF | 2026-09-03 01:23:30 | 45.01096 | 9.34931 | 146° | 49km/h | 16269m | -8.8m/s | -60.1°C | 5.8% | 0hPa | 2.6V | 08:13:39 | 02:49:40 | 00:00:00 | |
| DO3MHA-11 | 2026-09-03 01:23:26 | 45.01085 | 9.34942 | 146° | 47km/h | 16261m | -8.8m/s | -60.1°C | 5.9% | 0hPa | 2.5V | 00:00:00 | 02:49:41 | 00:00:00 | |
| DB0UT-7 | 2026-09-03 01:23:25 | 45.01096 | 9.34931 | 147° | 53km/h | 16270m | -8.8m/s | -60.0°C | 5.8% | 0hPa | 2.5V | 00:00:00 | 00:00:00 | 00:00:00 | |
| IW2NTF | 2026-09-03 01:23:20 | 45.01148 | 9.34777 | 115° | 77km/h | 16354m | -8.6m/s | -60.1°C | 6.1% | 0hPa | 2.5V | 08:13:49 | 02:49:30 | 00:00:00 | |
| DO3MHA-11 | 2026-09-03 01:23:16 | 45.01140 | 9.34801 | 111° | 71km/h | 16345m | -8.8m/s | -60.2°C | 6.2% | 0hPa | 2.5V | 00:00:00 | 02:49:31 | 00:00:00 | |
| IW2NTF | 2026-09-03 01:23:09 | 45.01273 | 9.34615 | 138° | 33km/h | 16446m | -9.3m/s | -59.2°C | 5.6% | 0hPa | 2.5V | 08:14:00 | 02:49:19 | 00:00:00 | |
| DO3MHA-11 | 2026-09-03 01:23:06 | 45.01258 | 9.34630 | 151° | 42km/h | 16428m | -8.7m/s | -59.4°C | 5.7% | 0hPa | 2.5V | 08:13:00 | 02:49:21 | 00:00:00 | |
| IW2NTF | 2026-09-03 01:22:59 | 45.01316 | 9.34462 | 123° | 69km/h | 16531m | -7.4m/s | -58.3°C | 5.2% | 0hPa | 2.5V | 08:14:10 | 02:49:09 | 00:00:00 | |
| DO3MHA-11 | 2026-09-03 01:22:55 | 45.01307 | 9.34483 | 117° | 51km/h | 16524m | -7.7m/s | -58.2°C | 5.2% | 0hPa | 2.5V | 00:00:00 | 02:49:10 | 00:00:00 | |
| IW2NTF | 2026-09-03 01:22:49 | 45.01395 | 9.34350 | 94° | 38km/h | 16618m | -8.2m/s | -58.7°C | 5.3% | 0hPa | 2.5V | 08:14:20 | 02:48:59 | 00:00:00 | |
| DO3MHA-11 | 2026-09-03 01:22:45 | 45.01394 | 9.34362 | 103° | 62km/h | 16609m | -9.0m/s | -58.6°C | 5.3% | 0hPa | 2.5V | 00:00:00 | 02:49:00 | 00:00:00 | |
| IW2NTF | 2026-09-03 01:22:37 | 45.01482 | 9.34104 | 144° | 53km/h | 16724m | -9.3m/s | -58.6°C | 5.4% | 0hPa | 2.5V | 08:14:32 | 02:48:47 | 00:00:00 | |
| DO3MHA-11 | 2026-09-03 01:22:35 | 45.01446 | 9.34149 | 132° | 46km/h | 16697m | -7.9m/s | -58.7°C | 5.5% | 0hPa | 2.6V | 00:00:00 | 02:48:50 | 00:00:00 | |
| DB0UT-7 | 2026-09-03 01:22:25 | 45.01514 | 9.34033 | 90° | 66km/h | 16786m | -8.7m/s | -58.4°C | 5.3% | 0hPa | 2.5V | 08:14:00 | 00:00:00 | 00:00:00 | |
| IW2NTF | 2026-09-03 01:22:22 | 45.01553 | 9.33857 | 129° | 75km/h | 16857m | -8.3m/s | -58.1°C | 5.2% | 0hPa | 2.5V | 08:14:47 | 02:48:32 | 00:00:00 | |
| DO3MHA-11 | 2026-09-03 01:22:15 | 45.01578 | 9.33823 | 142° | 40km/h | 16874m | -9.0m/s | -57.9°C | 5.2% | 0hPa | 2.6V | 00:00:00 | 02:48:30 | 00:00:00 | |
| IW2NTF | 2026-09-03 01:22:12 | 45.01618 | 9.33713 | 92° | 66km/h | 16944m | -8.7m/s | -57.9°C | 5% | 0hPa | 2.6V | 08:14:57 | 02:48:22 | 00:00:00 | |
| IW2NTF | 2026-09-03 01:22:02 | 45.01706 | 9.33459 | 136° | 60km/h | 17036m | -8.7m/s | -58.2°C | 5.3% | 0hPa | 2.6V | 08:15:07 | 02:48:12 | 00:00:00 | |
| DB0UT-7 | 2026-09-03 01:21:55 | 45.01723 | 9.33431 | 123° | 64km/h | 17054m | -9.7m/s | -58.2°C | 5.3% | 0hPa | 2.5V | 00:00:00 | 02:48:10 | 00:00:00 | |
| IW2NTF | 2026-09-03 01:21:50 | 45.01778 | 9.33201 | 127° | 86km/h | 17144m | -10.2m/s | -57.7°C | 5.1% | 0hPa | 2.5V | 08:15:19 | 02:48:00 | 00:00:00 | |
| IW2NTF | 2026-09-03 01:21:39 | 45.01867 | 9.33053 | 94° | 51km/h | 17248m | -9.1m/s | -57.3°C | 5.1% | 0hPa | 2.6V | 08:15:30 | 02:47:49 | 00:00:00 | |
| IW2NTF | 2026-09-03 01:21:29 | 45.01958 | 9.32833 | 149° | 68km/h | 17344m | -9.9m/s | -56.9°C | 4.9% | 0hPa | 2.5V | 08:15:40 | 02:47:39 | 00:00:00 | |
| DB0UT-7 | 2026-09-03 01:21:25 | 45.01943 | 9.32847 | 143° | 40km/h | 17334m | -9.8m/s | -56.9°C | 5.0% | 0hPa | 2.5V | 00:00:00 | 00:00:00 | 00:00:00 | |
| DO3MHA-11 | 2026-09-03 01:21:17 | 45.02023 | 9.32790 | 126° | 51km/h | 17412m | -9.3m/s | -56.5°C | 4.7% | 0hPa | 2.5V | 00:00:00 | 02:47:32 | 00:00:00 | |
| IW2NTF | 2026-09-03 01:21:16 | 45.02047 | 9.32706 | 124° | 62km/h | 17467m | -9.9m/s | -56.3°C | 4.7% | 0hPa | 2.5V | 08:15:53 | 02:47:26 | 00:00:00 | |
| DO3MHA-11 | 2026-09-03 01:21:06 | 45.02107 | 9.32650 | 172° | 20km/h | 17514m | -9.9m/s | -56.4°C | 4.6% | 0hPa | 2.5V | 00:00:00 | 02:47:21 | 00:00:00 | |
| IW2NTF | 2026-09-03 01:21:01 | 45.02147 | 9.32651 | 72° | 26km/h | 17617m | -10.3m/s | -56.5°C | 4.6% | 0hPa | 2.5V | 08:16:08 | 02:47:11 | 00:00:00 | |
| DB0UT-7 | 2026-09-03 01:20:55 | 45.02146 | 9.32640 | 84° | 29km/h | 17628m | -9.9m/s | -56.5°C | 4.7% | 0hPa | 2.5V | 00:00:00 | 02:47:10 | 00:00:00 | |
| DO3MHA-11 | 2026-09-03 01:20:54 | 45.02145 | 9.32627 | 95° | 38km/h | 17638m | -9.6m/s | -56.7°C | 4.7% | 0hPa | 2.6V | 00:00:00 | 02:47:09 | 00:00:00 | |
| IW2NTF | 2026-09-03 01:20:51 | 45.02201 | 9.32555 | 190° | 26km/h | 17715m | -9.3m/s | -56.8°C | 4.8% | 0hPa | 2.6V | 08:16:18 | 02:47:01 | 00:00:00 | |
| DO3MHA-11 | 2026-09-03 01:20:44 | 45.02209 | 9.32560 | 232° | 24km/h | 17734m | -9.8m/s | -56.8°C | 4.8% | 0hPa | 2.5V | 08:16:00 | 02:46:59 | 00:00:00 | |
| NBG1-10 | 2026-09-03 01:20:42 | 45.02208 | 9.32564 | 352° | 31km/h | 17754m | -9.6m/s | -56.9°C | 4.8% | 0hPa | 2.5V | 00:00:00 | 02:46:57 | 00:00:00 | |
| IW2NTF | 2026-09-03 01:20:39 | 45.02192 | 9.32491 | 115° | 44km/h | 17831m | -8.5m/s | -56.5°C | 4.7% | 0hPa | 2.5V | 08:16:30 | 02:46:49 | 00:00:00 | |
| DO3MHA-11 | 2026-09-03 01:20:34 | 45.02192 | 9.32490 | 116° | 27km/h | 17831m | -8.5m/s | -56.5°C | 4.7% | 0hPa | 2.6V | 00:00:00 | 02:46:49 | 00:00:00 | |
| IW2NTF | 2026-09-03 01:20:29 | 45.02240 | 9.32474 | 342° | 18km/h | 17927m | -9.8m/s | -56.5°C | 4.5% | 0hPa | 2.6V | 08:16:40 | 02:46:39 | 00:00:00 | |
| DO3MHA-11 | 2026-09-03 01:20:24 | 45.02240 | 9.32474 | 343° | 37km/h | 17927m | -9.8m/s | -56.5°C | 4.5% | 0hPa | 2.5V | 00:00:00 | 02:46:39 | 00:00:00 | |
| IW2NTF | 2026-09-03 01:20:19 | 45.02222 | 9.32374 | 129° | 37km/h | 18025m | -9.6m/s | -57.3°C | 4.7% | 0hPa | 2.5V | 08:16:50 | 02:46:29 | 00:00:00 | |
| DB0UT-7 | 2026-09-03 01:20:16 | 45.02212 | 9.32399 | 108° | 27km/h | 18005m | -10.1m/s | -57.1°C | 4.7% | 0hPa | 2.5V | 00:00:00 | 00:00:00 | 00:00:00 | |
| DO3MHA-11 | 2026-09-03 01:20:14 | 45.02221 | 9.32374 | 130° | 26km/h | 18025m | -9.6m/s | -57.2°C | 4.7% | 0hPa | 2.5V | 00:00:00 | 02:46:29 | 00:00:00 | |
| IW2NTF | 2026-09-03 01:20:09 | 45.02215 | 9.32353 | 35° | 44km/h | 18123m | -9.3m/s | -57.6°C | 4.8% | 0hPa | 2.5V | 08:17:00 | 02:46:19 | 00:00:00 | |
| NBG1-10 | 2026-09-03 01:20:09 | 45.02243 | 9.32362 | 284° | 40km/h | 18074m | -10.0m/s | -57.5°C | 4.9% | 0hPa | 2.6V | 00:00:00 | 02:46:24 | 00:00:00 | |
| DO3MHA-11 | 2026-09-03 01:20:04 | 45.02215 | 9.32353 | 36° | 51km/h | 18123m | -9.3m/s | -57.6°C | 4.8% | 0hPa | 2.5V | 00:00:00 | 02:46:19 | 00:00:00 | |
| IW2NTF | 2026-09-03 01:19:59 | 45.02208 | 9.32197 | 138° | 31km/h | 18222m | -9.7m/s | -58.3°C | 5.1% | 0hPa | 2.5V | 08:17:10 | 02:46:09 | 00:00:00 | |
| DO3MHA-11 | 2026-09-03 01:19:54 | 45.02208 | 9.32197 | 139° | 35km/h | 18222m | -9.6m/s | -58.2°C | 5.1% | 0hPa | 2.6V | 00:00:00 | 02:46:09 | 00:00:00 | |
| DF1GD-15 | 2026-09-03 01:19:53 | 45.02208 | 9.32197 | 139° | 31km/h | 18222m | -9.7m/s | -58.3°C | 2.0% | 0hPa | 2.6V | 08:17:00 | 00:00:00 | 00:00:00 | |
| IW2NTF | 2026-09-03 01:19:47 | 45.02187 | 9.32077 | 99° | 62km/h | 18339m | -10.1m/s | -58.8°C | 5.4% | 0hPa | 2.6V | 08:17:22 | 02:45:57 | 00:00:00 | |
| DB0UT-7 | 2026-09-03 01:19:46 | 45.02196 | 9.32156 | 60° | 46km/h | 18300m | -9.5m/s | -58.7°C | 5.3% | 0hPa | 2.6V | 00:00:00 | 02:46:01 | 00:00:00 | |
| DO3MHA-11 | 2026-09-03 01:19:44 | 45.02187 | 9.32120 | 81° | 49km/h | 18319m | -9.8m/s | -58.8°C | 5.3% | 0hPa | 2.6V | 00:00:00 | 02:45:59 | 00:00:00 | |
| IW2NTF | 2026-09-03 01:19:37 | 45.02233 | 9.31979 | 40° | 20km/h | 18439m | -10.5m/s | -58.2°C | 5% | 0hPa | 2.5V | 08:17:32 | 02:45:47 | 00:00:00 | |
| NBG1-10 | 2026-09-03 01:19:36 | 45.02228 | 9.31989 | 155° | 47km/h | 18400m | -8.7m/s | -58.1°C | 5.1% | 0hPa | 2.5V | 00:00:00 | 02:45:51 | 00:00:00 | |
| DO3MHA-11 | 2026-09-03 01:19:34 | 45.02236 | 9.31984 | 142° | 53km/h | 18419m | -9.6m/s | -58.1°C | 5.0% | 0hPa | 2.5V | 00:00:00 | 02:45:49 | 00:00:00 | |
| IW2NTF | 2026-09-03 01:19:27 | 45.02218 | 9.31795 | 118° | 62km/h | 18540m | -10.3m/s | -58.1°C | 5% | 0hPa | 2.5V | 08:17:42 | 02:45:37 | 00:00:00 | |
| DO3MHA-11 | 2026-09-03 01:19:22 | 45.02218 | 9.31795 | 119° | 42km/h | 18540m | -10.3m/s | -58.1°C | 5.0% | 0hPa | 2.6V | 00:00:00 | 02:45:37 | 00:00:00 | |
| IW2NTF | 2026-09-03 01:19:18 | 45.02235 | 9.31691 | 70° | 53km/h | 18640m | -10.4m/s | -58.7°C | 5.5% | 0hPa | 2.6V | 08:17:52 | 02:45:27 | 00:00:00 | |
| DB0UT-7 | 2026-09-03 01:19:16 | 45.02249 | 9.31733 | 83° | 53km/h | 18601m | -10.1m/s | -58.4°C | 5.3% | 0hPa | 2.5V | 00:00:00 | 00:00:00 | 00:00:00 | |
| DO3MHA-11 | 2026-09-03 01:19:12 | 45.02235 | 9.31691 | 71° | 68km/h | 18641m | -10.3m/s | -58.6°C | 5.5% | 0hPa | 2.6V | 08:17:00 | 02:45:27 | 00:00:00 | |
| DF1GD-15 | 2026-09-03 01:19:11 | 45.02234 | 9.31691 | 71° | 53km/h | 18641m | -10.4m/s | -58.7°C | 2.1% | 0hPa | 2.5V | 08:18:00 | 00:00:00 | 00:00:00 | |
| IW2NTF | 2026-09-03 01:19:07 | 45.02297 | 9.31486 | 149° | 57km/h | 18746m | -10.1m/s | -57.5°C | 5% | 0hPa | 2.5V | 08:18:02 | 02:45:17 | 00:00:00 | |
| NBG1-10 | 2026-09-03 01:19:03 | 45.02285 | 9.31499 | 143° | 49km/h | 18736m | -10.8m/s | -57.5°C | 5.0% | 0hPa | 2.5V | 00:00:00 | 02:45:18 | 00:00:00 | |
| DO3MHA-11 | 2026-09-03 01:19:02 | 45.02297 | 9.31486 | 150° | 37km/h | 18746m | -10.0m/s | -57.5°C | 5.0% | 0hPa | 2.5V | 00:00:00 | 02:45:17 | 00:00:00 | |
| IW2NTF | 2026-09-03 01:18:57 | 45.02330 | 9.31382 | 101° | 66km/h | 18849m | -10.1m/s | -57.2°C | 4.9% | 0hPa | 2.5V | 08:18:12 | 02:45:07 | 00:00:00 | |
| DO3MHA-11 | 2026-09-03 01:18:52 | 45.02330 | 9.31382 | 102° | 60km/h | 18849m | -10.0m/s | -57.1°C | 4.9% | 0hPa | 2.6V | 00:00:00 | 02:45:07 | 00:00:00 | |
| DF1GD-15 | 2026-09-03 01:18:50 | 45.02334 | 9.31358 | 111° | 71km/h | 18860m | -10.4m/s | -57.2°C | 1.8% | 0hPa | 2.6V | 08:18:00 | 00:00:00 | 00:00:00 | |
| IW2NTF | 2026-09-03 01:18:47 | 45.02426 | 9.31242 | 160° | 15km/h | 18956m | -10.7m/s | -56.4°C | 4.6% | 0hPa | 2.6V | 08:18:22 | 02:44:57 | 00:00:00 | |
| DB0UT-7 | 2026-09-03 01:18:46 | 45.02390 | 9.31262 | 150° | 40km/h | 18914m | -10.8m/s | -56.8°C | 4.8% | 0hPa | 2.6V | 00:00:00 | 02:45:01 | 00:00:00 | |
| DO3MHA-11 | 2026-09-03 01:18:42 | 45.02426 | 9.31242 | 161° | 37km/h | 18956m | -10.7m/s | -56.3°C | 4.6% | 0hPa | 2.6V | 00:00:00 | 02:44:57 | 00:00:00 | |
| IW2NTF | 2026-09-03 01:18:37 | 45.02418 | 9.31108 | 109° | 69km/h | 19066m | -9.6m/s | -56.8°C | 4.8% | 0hPa | 2.6V | 08:18:32 | 02:44:47 | 00:00:00 | |
| DO3MHA-11 | 2026-09-03 01:18:32 | 45.02418 | 9.31108 | 110° | 49km/h | 19067m | -9.5m/s | -56.7°C | 4.8% | 0hPa | 2.5V | 00:00:00 | 02:44:47 | 00:00:00 | |
| DF1GD-15 | 2026-09-03 01:18:29 | 45.02434 | 9.31064 | 130° | 69km/h | 19087m | -11.5m/s | -56.9°C | 1.8% | 0hPa | 2.5V | 08:19:00 | 00:00:00 | 00:00:00 | |
| IW2NTF | 2026-09-03 01:18:27 | 45.02499 | 9.31001 | 73° | 5km/h | 19179m | -10.8m/s | -56.1°C | 4.7% | 0hPa | 2.5V | 08:18:42 | 02:44:37 | 00:00:00 | |
| NBG1-10 | 2026-09-03 01:18:27 | 45.02469 | 9.31020 | 147° | 37km/h | 19123m | -11.4m/s | -56.9°C | 5.0% | 0hPa | 2.5V | 00:00:00 | 02:44:42 | 00:00:00 | |
| DO3MHA-11 | 2026-09-03 01:18:22 | 45.02499 | 9.31001 | 74° | 42km/h | 19179m | -10.8m/s | -56.1°C | 4.7% | 0hPa | 2.5V | 00:00:00 | 02:44:37 | 00:00:00 | |
| IW2NTF | 2026-09-03 01:18:18 | 45.02500 | 9.30852 | 127° | 64km/h | 19291m | -12.3m/s | -55.8°C | 4.5% | 0hPa | 2.5V | 08:18:52 | 02:44:27 | 00:00:00 | |
| DB0UT-7 | 2026-09-03 01:18:16 | 45.02479 | 9.30937 | 87° | 55km/h | 19248m | -9.7m/s | -55.8°C | 4.5% | 0hPa | 2.5V | 00:00:00 | 00:00:00 | 00:00:00 | |
| DO3MHA-11 | 2026-09-03 01:18:12 | 45.02500 | 9.30852 | 128° | 40km/h | 19292m | -12.3m/s | -55.8°C | 4.5% | 0hPa | 2.5V | 00:00:00 | 02:44:27 | 00:00:00 | |
| DF1GD-15 | 2026-09-03 01:18:10 | 45.02522 | 9.30821 | 144° | 58km/h | 19316m | -12.1m/s | -55.8°C | 1.6% | 0hPa | 2.6V | 08:19:00 | 00:00:00 | 00:00:00 | |
| IW2NTF | 2026-09-03 01:18:07 | 45.02567 | 9.30791 | 66° | 22km/h | 19408m | -11.3m/s | -55.6°C | 4.5% | 0hPa | 2.6V | 08:19:02 | 02:44:17 | 00:00:00 | |
| DO3MHA-11 | 2026-09-03 01:18:02 | 45.02567 | 9.30791 | 67° | 55km/h | 19408m | -11.3m/s | -55.6°C | 4.5% | 0hPa | 2.6V | 00:00:00 | 02:44:17 | 00:00:00 | |
| IW2NTF | 2026-09-03 01:17:57 | 45.02634 | 9.30635 | 161° | 62km/h | 19522m | -12.4m/s | -55.8°C | 4.6% | 0hPa | 2.6V | 08:19:12 | 02:44:07 | 00:00:00 | |
| DO3MHA-11 | 2026-09-03 01:17:52 | 45.02634 | 9.30635 | 162° | 29km/h | 19523m | -12.3m/s | -55.8°C | 4.6% | 0hPa | 2.5V | 00:00:00 | 02:44:07 | 00:00:00 | |
| DF1GD-15 | 2026-09-03 01:17:48 | 45.02672 | 9.30629 | 191° | 38km/h | 19558m | -11.1m/s | -55.6°C | 1.7% | 0hPa | 2.5V | 08:19:00 | 00:00:00 | 00:00:00 | |
| IW2NTF | 2026-09-03 01:17:47 | 45.02679 | 9.30632 | 57° | 27km/h | 19641m | -12.6m/s | -55.6°C | 4.4% | 0hPa | 2.5V | 08:19:22 | 02:43:57 | 00:00:00 | |
| DB0UT-7 | 2026-09-03 01:17:46 | 45.02688 | 9.30640 | 243° | 35km/h | 19593m | -12.3m/s | -55.3°C | 4.3% | 0hPa | 2.6V | 08:19:00 | 02:44:01 | 00:00:00 | |
| DO3MHA-11 | 2026-09-03 01:17:42 | 45.02679 | 9.30632 | 58° | 49km/h | 19641m | -12.5m/s | -55.6°C | 4.4% | 0hPa | 2.5V | 08:19:00 | 02:43:57 | 00:00:00 | |
| IW2NTF | 2026-09-03 01:17:37 | 45.02724 | 9.30489 | 163° | 47km/h | 19760m | -11.2m/s | -56.3°C | 4.9% | 0hPa | 2.5V | 08:19:32 | 02:43:47 | 00:00:00 | |
| DO3MHA-11 | 2026-09-03 01:17:32 | 45.02723 | 9.30489 | 164° | 38km/h | 19761m | -11.2m/s | -56.2°C | 4.9% | 0hPa | 2.5V | 00:00:00 | 02:43:47 | 00:00:00 | |
| IW2NTF | 2026-09-03 01:17:27 | 45.02752 | 9.30496 | 62° | 29km/h | 19881m | -11.3m/s | -55.4°C | 4.5% | 0hPa | 2.5V | 08:19:42 | 02:43:37 | 00:00:00 | |
| DF1GD-15 | 2026-09-03 01:17:27 | 45.02757 | 9.30494 | 218° | 22km/h | 19807m | -12.4m/s | -55.9°C | 1.7% | 0hPa | 2.5V | 08:20:00 | 00:00:00 | 00:00:00 | |
| IW2NTF | 2026-09-03 01:17:17 | 45.02821 | 9.30382 | 185° | 40km/h | 19999m | -11.2m/s | -55°C | 4.3% | 0hPa | 2.5V | 08:19:52 | 02:43:27 | 00:00:00 | |
| DB0UT-7 | 2026-09-03 01:17:16 | 45.02774 | 9.30405 | 141° | 42km/h | 19952m | -12.2m/s | -54.9°C | 4.3% | 0hPa | 2.5V | 00:00:00 | 00:00:00 | 00:00:00 | |
| IW2NTF | 2026-09-03 01:17:07 | 45.02813 | 9.30392 | 60° | 38km/h | 20120m | -11.2m/s | -54.8°C | 4.3% | 0hPa | 2.5V | 08:20:02 | 02:43:17 | 00:00:00 | |
| DF1GD-15 | 2026-09-03 01:17:06 | 45.02839 | 9.30407 | 313° | 16km/h | 20059m | -13.3m/s | -54.8°C | 1.6% | 0hPa | 2.5V | 08:20:00 | 00:00:00 | 00:00:00 | |
| NBG1-10 | 2026-09-03 01:16:59 | 45.02809 | 9.30345 | 103° | 44km/h | 20155m | -11.9m/s | -54.8°C | 4.3% | 0hPa | 2.5V | 00:00:00 | 02:43:14 | 00:00:00 | |
| IW2NTF | 2026-09-03 01:16:57 | 45.02870 | 9.30277 | 188° | 38km/h | 20240m | -12.1m/s | -55.1°C | 4.2% | 0hPa | 2.5V | 08:20:12 | 02:43:07 | 00:00:00 | |
| DO3MHA-11 | 2026-09-03 01:16:53 | 45.02860 | 9.30277 | 175° | 35km/h | 20228m | -11.7m/s | -55.1°C | 4.3% | 0hPa | 2.5V | 00:00:00 | 02:43:08 | 00:00:00 | |
| IW2NTF | 2026-09-03 01:16:48 | 45.02868 | 9.30276 | 81° | 40km/h | 20358m | -11.4m/s | -55.3°C | 4.4% | 0hPa | 2.5V | 08:20:22 | 02:42:57 | 00:00:00 | |
| DB0UT-7 | 2026-09-03 01:16:46 | 45.02885 | 9.30305 | 359° | 38km/h | 20310m | -12.5m/s | -55.2°C | 4.3% | 0hPa | 2.6V | 00:00:00 | 02:43:01 | 00:00:00 | |
| DF1GD-15 | 2026-09-03 01:16:45 | 45.02885 | 9.30305 | 360° | 18km/h | 20310m | -12.5m/s | -55.3°C | 1.6% | 0hPa | 2.6V | 08:20:00 | 00:00:00 | 00:00:00 | |
| DH7VM-15 | 2026-09-03 01:16:42 | 45.02871 | 9.30289 | 65° | 35km/h | 20347m | -11.6m/s | 0°C | 0% | 0hPa | 2.6V | 00:00:00 | 00:00:00 | 00:00:00 | |
| DO3MHA-11 | 2026-09-03 01:16:38 | 45.02886 | 9.30214 | 140° | 44km/h | 20405m | -11.3m/s | -55.4°C | 4.5% | 0hPa | 2.6V | 00:00:00 | 02:42:53 | 00:00:00 | |
| IW2NTF | 2026-09-03 01:16:31 | 45.02949 | 9.30258 | 354° | 24km/h | 20550m | -12.2m/s | -55.6°C | 4.4% | 0hPa | 2.5V | 08:20:38 | 02:42:41 | 00:00:00 | |
| DO3MHA-11 | 2026-09-03 01:16:28 | 45.02958 | 9.30250 | 302° | 33km/h | 20526m | -11.9m/s | -55.4°C | 4.4% | 0hPa | 2.5V | 00:00:00 | 02:42:43 | 00:00:00 | |
| DF1GD-15 | 2026-09-03 01:16:25 | 45.02949 | 9.30258 | 356° | 24km/h | 20550m | -12.2m/s | -55.6°C | 1.6% | 0hPa | 2.5V | 08:20:00 | 00:00:00 | 00:00:00 | |
| IW2NTF | 2026-09-03 01:16:21 | 45.02944 | 9.30150 | 147° | 47km/h | 20675m | -12.2m/s | -55.8°C | 4.4% | 0hPa | 2.5V | 08:20:48 | 02:42:31 | 00:00:00 | |
| DO3MHA-11 | 2026-09-03 01:16:18 | 45.02927 | 9.30174 | 120° | 29km/h | 20651m | -12.5m/s | -55.6°C | 4.4% | 0hPa | 2.5V | 00:00:00 | 02:42:33 | 00:00:00 | |
| DB0UT-7 | 2026-09-03 01:16:16 | 45.02944 | 9.30150 | 148° | 38km/h | 20676m | -12.2m/s | -55.7°C | 4.4% | 0hPa | 2.5V | 00:00:00 | 00:00:00 | 00:00:00 | |
| IW2NTF | 2026-09-03 01:16:11 | 45.02968 | 9.30159 | 51° | 37km/h | 20796m | -12.6m/s | -56°C | 4.6% | 0hPa | 2.5V | 08:20:58 | 02:42:21 | 00:00:00 | |
| DO3MHA-11 | 2026-09-03 01:16:06 | 45.02968 | 9.30159 | 52° | 49km/h | 20797m | -12.6m/s | -55.9°C | 4.6% | 0hPa | 2.5V | 00:00:00 | 02:42:21 | 00:00:00 | |
| DF1GD-15 | 2026-09-03 01:16:04 | 45.02964 | 9.30147 | 70° | 40km/h | 20809m | -12.4m/s | -55.8°C | 1.6% | 0hPa | 2.5V | 08:21:00 | 00:00:00 | 00:00:00 | |
| IW2NTF | 2026-09-03 01:16:02 | 45.03033 | 9.30045 | 188° | 51km/h | 20926m | -13.8m/s | -56°C | 4.6% | 0hPa | 2.5V | 08:21:08 | 02:42:11 | 00:00:00 | |
| NBG1-10 | 2026-09-03 01:15:58 | 45.03006 | 9.30049 | 162° | 44km/h | 20900m | -12.8m/s | -56.0°C | 4.6% | 0hPa | 2.5V | 00:00:00 | 02:42:13 | 00:00:00 | |
| DO3MHA-11 | 2026-09-03 01:15:56 | 45.03033 | 9.30045 | 189° | 31km/h | 20926m | -13.7m/s | -55.9°C | 4.6% | 0hPa | 2.5V | 00:00:00 | 02:42:11 | 00:00:00 | |
| IW2NTF | 2026-09-03 01:15:51 | 45.03046 | 9.30072 | 79° | 33km/h | 21053m | -12.5m/s | -55.7°C | 4.6% | 0hPa | 2.5V | 08:21:18 | 02:42:01 | 00:00:00 | |
| DO3MHA-11 | 2026-09-03 01:15:46 | 45.03047 | 9.30071 | 80° | 49km/h | 21054m | -12.5m/s | -55.6°C | 4.6% | 0hPa | 2.5V | 00:00:00 | 02:42:01 | 00:00:00 | |
| DF1GD-15 | 2026-09-03 01:15:43 | 45.03049 | 9.30044 | 116° | 46km/h | 21079m | -12.7m/s | -55.7°C | 1.6% | 0hPa | 2.5V | 08:21:00 | 00:00:00 | 00:00:00 | |
| IW2NTF | 2026-09-03 01:15:41 | 45.03138 | 9.30021 | 224° | 44km/h | 21181m | -12.9m/s | -55.6°C | 4.6% | 0hPa | 2.5V | 08:21:28 | 02:41:51 | 00:00:00 | |
| DO3MHA-11 | 2026-09-03 01:15:36 | 45.03138 | 9.30021 | 225° | 31km/h | 21181m | -12.9m/s | -55.6°C | 4.6% | 0hPa | 2.5V | 08:21:00 | 02:41:51 | 00:00:00 | |
| IW2NTF | 2026-09-03 01:15:31 | 45.03133 | 9.30026 | 114° | 46km/h | 21308m | -12.7m/s | -55.3°C | 4.5% | 0hPa | 2.5V | 08:21:38 | 02:41:41 | 00:00:00 | |
| DO3MHA-11 | 2026-09-03 01:15:26 | 45.03133 | 9.30026 | 115° | 44km/h | 21308m | -12.7m/s | -55.2°C | 4.5% | 0hPa | 2.6V | 00:00:00 | 02:41:41 | 00:00:00 | |
| NBG1-10 | 2026-09-03 01:15:23 | 45.03160 | 9.29990 | 157° | 33km/h | 21348m | -13.6m/s | -55.0°C | 4.4% | 0hPa | 2.6V | 08:21:00 | 02:41:38 | 00:00:00 | |
| DF1GD-15 | 2026-09-03 01:15:22 | 45.03160 | 9.29990 | 157° | 53km/h | 21348m | -13.7m/s | -55.0°C | 1.5% | 0hPa | 2.5V | 08:21:00 | 00:00:00 | 00:00:00 | |
| IW2NTF | 2026-09-03 01:15:20 | 45.03205 | 9.30029 | 336° | 26km/h | 21451m | -13.8m/s | -55°C | 4.4% | 0hPa | 2.5V | 08:21:49 | 02:41:30 | 00:00:00 | |
| DO3MHA-11 | 2026-09-03 01:15:16 | 45.03210 | 9.30024 | 303° | 38km/h | 21438m | -13.1m/s | -54.9°C | 4.3% | 0hPa | 2.5V | 00:00:00 | 02:41:31 | 00:00:00 | |
| IW2NTF | 2026-09-03 01:15:10 | 45.03204 | 9.29923 | 147° | 46km/h | 21576m | -11.9m/s | -54.8°C | 4.3% | 0hPa | 2.5V | 08:21:59 | 02:41:20 | 00:00:00 | |
| DO3MHA-11 | 2026-09-03 01:15:06 | 45.03194 | 9.29934 | 137° | 33km/h | 21565m | -12.4m/s | -54.8°C | 4.3% | 0hPa | 2.6V | 00:00:00 | 02:41:21 | 00:00:00 | |
| IW2NTF | 2026-09-03 01:15:00 | 45.03271 | 9.29887 | 155° | 22km/h | 21704m | -15.3m/s | -55.2°C | 4.5% | 0hPa | 2.5V | 08:22:09 | 02:41:10 | 00:00:00 | |
| DO3MHA-11 | 2026-09-03 01:14:56 | 45.03266 | 9.29891 | 154° | 15km/h | 21690m | -14.5m/s | -55.1°C | 4.5% | 0hPa | 2.6V | 00:00:00 | 02:41:11 | 00:00:00 | |
| IW2NTF | 2026-09-03 01:14:50 | 45.03302 | 9.29875 | 187° | 13km/h | 21860m | -16m/s | -55°C | 4.4% | 0hPa | 2.6V | 08:22:19 | 02:41:00 | 00:00:00 | |
| NBG1-10 | 2026-09-03 01:14:49 | 45.03292 | 9.29873 | 176° | 13km/h | 21797m | -16.0m/s | -55.3°C | 4.6% | 0hPa | 2.6V | 00:00:00 | 02:41:04 | 00:00:00 | |
| DB0UT-7 | 2026-09-03 01:14:46 | 45.03299 | 9.29874 | 190° | 13km/h | 21844m | -15.6m/s | -55.0°C | 4.5% | 0hPa | 2.6V | 00:00:00 | 02:41:01 | 00:00:00 | |
| DF1GD-15 | 2026-09-03 01:14:42 | 45.03314 | 9.29877 | 186° | 18km/h | 21907m | -16.3m/s | -54.6°C | 1.5% | 0hPa | 2.6V | 08:22:00 | 00:00:00 | 00:00:00 | |
| IW2NTF | 2026-09-03 01:14:40 | 45.03341 | 9.29883 | 215° | 11km/h | 22017m | -15.5m/s | -54.6°C | 4.4% | 0hPa | 2.6V | 08:22:29 | 02:40:50 | 00:00:00 | |
| DO3MHA-11 | 2026-09-03 01:14:35 | 45.03341 | 9.29883 | 216° | 11km/h | 22018m | -15.5m/s | -54.5°C | 4.4% | 0hPa | 2.6V | 00:00:00 | 02:40:50 | 00:00:00 | |
| IW2NTF | 2026-09-03 01:14:31 | 45.03346 | 9.29917 | 298° | 11km/h | 22178m | -16.4m/s | -54.4°C | 4.3% | 0hPa | 2.5V | 08:22:39 | 02:40:40 | 00:00:00 | |
| DO3MHA-11 | 2026-09-03 01:14:25 | 45.03346 | 9.29917 | 299° | 11km/h | 22178m | -16.3m/s | -54.4°C | 4.3% | 0hPa | 2.6V | 00:00:00 | 02:40:40 | 00:00:00 | |
| DF1GD-15 | 2026-09-03 01:14:21 | 45.03342 | 9.29926 | 306° | 11km/h | 22225m | -16.3m/s | -54.7°C | 1.5% | 0hPa | 2.6V | 08:23:00 | 00:00:00 | 00:00:00 | |
| IW2NTF | 2026-09-03 01:14:20 | 45.03328 | 9.29944 | 341° | 7km/h | 22341m | -16.6m/s | -54.3°C | 4.3% | 0hPa | 2.6V | 08:22:49 | 02:40:30 | 00:00:00 | |
| DB0UT-7 | 2026-09-03 01:14:16 | 45.03330 | 9.29943 | 331° | 7km/h | 22325m | -17.1m/s | -54.2°C | 4.4% | 0hPa | 2.6V | 00:00:00 | 00:00:00 | 00:00:00 | |
| DO3MHA-11 | 2026-09-03 01:14:15 | 45.03327 | 9.29944 | 342° | 5km/h | 22342m | -16.6m/s | -54.2°C | 4.3% | 0hPa | 2.6V | 00:00:00 | 02:40:30 | 00:00:00 | |
| IW2NTF | 2026-09-03 01:14:10 | 45.03320 | 9.29933 | 153° | 5km/h | 22504m | -17.3m/s | -54.4°C | 4.6% | 0hPa | 2.6V | 08:22:59 | 02:40:20 | 00:00:00 | |
| DO3MHA-11 | 2026-09-03 01:14:05 | 45.03320 | 9.29933 | 154° | 7km/h | 22504m | -17.2m/s | -54.3°C | 4.6% | 0hPa | 2.6V | 08:22:00 | 02:40:20 | 00:00:00 | |
| DF1GD-15 | 2026-09-03 01:14:00 | 45.03327 | 9.29932 | 187° | 9km/h | 22572m | -17.1m/s | -53.7°C | 1.5% | 0hPa | 2.5V | 08:23:00 | 00:00:00 | 00:00:00 | |
| IW2NTF | 2026-09-03 01:14:00 | 45.03342 | 9.29933 | 182° | 11km/h | 22672m | -17.3m/s | -53.1°C | 4.1% | 0hPa | 2.5V | 08:23:09 | 02:40:10 | 00:00:00 | |
| DO3MHA-11 | 2026-09-03 01:13:55 | 45.03342 | 9.29932 | 183° | 7km/h | 22673m | -17.3m/s | -53.1°C | 4.1% | 0hPa | 2.5V | 00:00:00 | 02:40:10 | 00:00:00 | |
| IW2NTF | 2026-09-03 01:13:50 | 45.03359 | 9.29938 | 202° | 7km/h | 22843m | -17m/s | -52.3°C | 3.8% | 0hPa | 2.5V | 08:23:19 | 02:40:00 | 00:00:00 | |
| DB0UT-7 | 2026-09-03 01:13:46 | 45.03357 | 9.29936 | 211° | 11km/h | 22826m | -16.6m/s | -52.3°C | 3.9% | 0hPa | 2.5V | 00:00:00 | 02:40:01 | 00:00:00 | |
| DO3MHA-11 | 2026-09-03 01:13:45 | 45.03359 | 9.29938 | 203° | 7km/h | 22843m | -17.0m/s | -52.3°C | 3.8% | 0hPa | 2.5V | 00:00:00 | 02:40:00 | 00:00:00 | |
| IW2NTF | 2026-09-03 01:13:40 | 45.03376 | 9.29948 | 244° | 5km/h | 23018m | -17.2m/s | -52.3°C | 3.8% | 0hPa | 2.5V | 08:23:29 | 02:39:50 | 00:00:00 | |
| DO3MHA-11 | 2026-09-03 01:13:35 | 45.03376 | 9.29948 | 245° | 7km/h | 23018m | -17.2m/s | -52.3°C | 3.8% | 0hPa | 2.5V | 00:00:00 | 02:39:50 | 00:00:00 | |
| IW2NTF | 2026-09-03 01:13:30 | 45.03391 | 9.29972 | 231° | 11km/h | 23191m | -18.1m/s | -52.5°C | 3.8% | 0hPa | 2.5V | 08:23:39 | 02:39:40 | 00:00:00 | |
| DO3MHA-11 | 2026-09-03 01:13:25 | 45.03391 | 9.29972 | 232° | 20km/h | 23191m | -18.1m/s | -52.5°C | 3.8% | 0hPa | 2.6V | 00:00:00 | 02:39:40 | 00:00:00 | |
| IW2NTF | 2026-09-03 01:13:21 | 45.03407 | 9.30044 | 259° | 31km/h | 23371m | -18m/s | -53°C | 3.9% | 0hPa | 2.6V | 08:23:49 | 02:39:30 | 00:00:00 | |
| DF1GD-15 | 2026-09-03 01:13:19 | 45.03399 | 9.29997 | 257° | 20km/h | 23282m | -18.4m/s | -52.8°C | 1.3% | 0hPa | 2.5V | 08:24:00 | 00:00:00 | 00:00:00 | |
| DB0UT-7 | 2026-09-03 01:13:16 | 45.03405 | 9.30033 | 259° | 16km/h | 23353m | -17.9m/s | -52.9°C | 3.9% | 0hPa | 2.5V | 08:23:00 | 00:00:00 | 00:00:00 | |
| DO3MHA-11 | 2026-09-03 01:13:15 | 45.03406 | 9.30044 | 260° | 26km/h | 23371m | -18.0m/s | -53.0°C | 3.9% | 0hPa | 2.5V | 00:00:00 | 02:39:30 | 00:00:00 | |
| IW2NTF | 2026-09-03 01:13:11 | 45.03415 | 9.30127 | 294° | 18km/h | 23550m | -18.9m/s | -53.7°C | 4.2% | 0hPa | 2.5V | 08:23:59 | 02:39:20 | 00:00:00 | |
| DO3MHA-11 | 2026-09-03 01:13:05 | 45.03415 | 9.30127 | 295° | 13km/h | 23551m | -18.8m/s | -53.7°C | 4.2% | 0hPa | 2.5V | 00:00:00 | 02:39:20 | 00:00:00 | |
| IW2NTF | 2026-09-03 01:12:59 | 45.03393 | 9.30166 | 314° | 11km/h | 23734m | -19.3m/s | -53.4°C | 4.1% | 0hPa | 2.5V | 08:24:09 | 02:39:10 | 00:00:00 | |
| DF1GD-15 | 2026-09-03 01:12:58 | 45.03403 | 9.30150 | 320° | 16km/h | 23661m | -18.7m/s | -53.9°C | 1.5% | 0hPa | 2.6V | 08:24:00 | 00:00:00 | 00:00:00 | |
| DO3MHA-11 | 2026-09-03 01:12:53 | 45.03388 | 9.30170 | 354° | 7km/h | 23772m | -18.7m/s | -53.3°C | 4.2% | 0hPa | 2.6V | 00:00:00 | 02:39:08 | 00:00:00 | |
| IW2NTF | 2026-09-03 01:12:48 | 45.03381 | 9.30159 | 178° | 7km/h | 23923m | -19.1m/s | -53.2°C | 4.1% | 0hPa | 2.6V | 08:24:19 | 02:39:00 | 00:00:00 | |
| DB0UT-7 | 2026-09-03 01:12:46 | 45.03380 | 9.30160 | 158° | 7km/h | 23905m | -18.9m/s | -53.2°C | 4.1% | 0hPa | 2.5V | 00:00:00 | 02:39:01 | 00:00:00 | |
| DO3MHA-11 | 2026-09-03 01:12:43 | 45.03384 | 9.30159 | 183° | 5km/h | 23962m | -19.7m/s | -53.1°C | 4.1% | 0hPa | 2.5V | 00:00:00 | 02:38:58 | 00:00:00 | |
| DF1GD-15 | 2026-09-03 01:12:38 | 45.03386 | 9.30163 | 317° | 7km/h | 24039m | -19.0m/s | -53.1°C | 1.4% | 0hPa | 2.5V | 08:25:00 | 00:00:00 | 00:00:00 | |
| IW2NTF | 2026-09-03 01:12:37 | 45.03378 | 9.30168 | 317° | 7km/h | 24116m | -19.5m/s | -53.3°C | 4.2% | 0hPa | 2.5V | 08:24:29 | 02:38:50 | 00:00:00 | |
| DO3MHA-11 | 2026-09-03 01:12:33 | 45.03376 | 9.30172 | 263° | 7km/h | 24154m | -19.3m/s | -53.3°C | 4.2% | 0hPa | 2.6V | 08:24:00 | 02:38:48 | 00:00:00 | |
| IW2NTF | 2026-09-03 01:12:27 | 45.03382 | 9.30185 | 74° | 9km/h | 24304m | -18.7m/s | -52.9°C | 4.2% | 0hPa | 2.6V | 08:24:39 | 02:38:40 | 00:00:00 | |
| DO3MHA-11 | 2026-09-03 01:12:23 | 45.03380 | 9.30180 | 22° | 13km/h | 24342m | -17.5m/s | -52.8°C | 4.2% | 0hPa | 2.5V | 00:00:00 | 02:38:38 | 00:00:00 | |
| IW2NTF | 2026-09-03 01:12:20 | 45.03381 | 9.30191 | 202° | 16km/h | 24489m | -16.6m/s | -52.3°C | 4% | 0hPa | 2.5V | 08:24:49 | 02:38:30 | 00:00:00 | |
| DF1GD-15 | 2026-09-03 01:12:19 | 45.03371 | 9.30184 | 275° | 7km/h | 24413m | -19.4m/s | -52.5°C | 1.3% | 0hPa | 2.6V | 08:25:00 | 00:00:00 | 00:00:00 | |
| DB0UT-7 | 2026-09-03 01:12:16 | 45.03377 | 9.30189 | 196° | 44km/h | 24471m | -19.4m/s | -52.2°C | 4.0% | 0hPa | 2.6V | 00:00:00 | 00:00:00 | 00:00:00 | |
| DO3MHA-11 | 2026-09-03 01:12:13 | 45.03390 | 9.30197 | 216° | 26km/h | 24521m | -16.0m/s | -52.1°C | 4.0% | 0hPa | 2.6V | 00:00:00 | 02:38:28 | 00:00:00 | |
| IW2NTF | 2026-09-03 01:12:11 | 45.03440 | 9.30233 | 180° | 20km/h | 24656m | -17.1m/s | -51.7°C | 4% | 0hPa | 2.6V | 08:24:59 | 02:38:20 | 00:00:00 | |
| DO3MHA-11 | 2026-09-03 01:12:03 | 45.03446 | 9.30228 | 104° | 40km/h | 24688m | -15.0m/s | -51.6°C | 3.9% | 0hPa | 2.6V | 00:00:00 | 02:38:18 | 00:00:00 | |
| DF1GD-15 | 2026-09-03 01:11:58 | 45.03434 | 9.30188 | 56° | 42km/h | 24749m | -17.3m/s | -51.5°C | 1.3% | 0hPa | 2.5V | 08:25:00 | 00:00:00 | 00:00:00 | |
| DO3MHA-11 | 2026-09-03 01:11:53 | 45.03391 | 9.30100 | 60° | 37km/h | 24847m | -18.3m/s | -51.4°C | 4.0% | 0hPa | 2.5V | 00:00:00 | 02:38:08 | 00:00:00 | |
| DO3MHA-11 | 2026-09-03 01:11:43 | 45.03369 | 9.29990 | 248° | 31km/h | 25027m | -21.4m/s | -50.1°C | 3.5% | 0hPa | 2.5V | 00:00:00 | 02:37:58 | 00:00:00 | |
| IW2NTF | 2026-09-03 01:11:38 | 45.03399 | 9.30065 | 225° | 37km/h | 25178m | -16.6m/s | -50.1°C | 3.6% | 0hPa | 2.5V | 08:25:28 | 02:37:51 | 00:00:00 | |
| DF1GD-15 | 2026-09-03 01:11:37 | 45.03387 | 9.30043 | 234° | 40km/h | 25137m | -24.2m/s | -49.9°C | 1.1% | 0hPa | 2.6V | 08:26:00 | 00:00:00 | 00:00:00 | |
| DO3MHA-11 | 2026-09-03 01:11:33 | 45.03413 | 9.30074 | 151° | 13km/h | 25227m | -20.0m/s | -50.3°C | 3.7% | 0hPa | 2.6V | 00:00:00 | 02:37:48 | 00:00:00 | |
| NBG1-10 | 2026-09-03 01:11:31 | 45.03417 | 9.30065 | 112° | 40km/h | 25268m | -21.3m/s | -50.2°C | 3.6% | 0hPa | 2.5V | 00:00:00 | 02:37:46 | 00:00:00 | |
| IW2NTF | 2026-09-03 01:11:28 | 45.03424 | 9.30061 | 276° | 18km/h | 25411m | -23.5m/s | -50.3°C | 3.7% | 0hPa | 2.5V | 08:25:40 | 02:37:39 | 00:00:00 | |
| DO3MHA-11 | 2026-09-03 01:11:23 | 45.03421 | 9.30068 | 307° | 53km/h | 25434m | -23.2m/s | -50.3°C | 3.7% | 0hPa | 2.5V | 00:00:00 | 02:37:38 | 00:00:00 | |
| IW2NTF | 2026-09-03 01:11:16 | 45.03315 | 9.29973 | 120° | 55km/h | 25700m | -19.9m/s | -49.6°C | 3.4% | 0hPa | 2.5V | 08:25:54 | 02:37:25 | 00:00:00 | |
| DO3MHA-11 | 2026-09-03 01:11:13 | 45.03312 | 9.30032 | 69° | 55km/h | 25645m | -19.2m/s | -49.8°C | 3.5% | 0hPa | 2.5V | 00:00:00 | 02:37:28 | 00:00:00 | |
| DO3MHA-11 | 2026-09-03 01:11:03 | 45.03377 | 9.29979 | 259° | 57km/h | 25831m | -18.9m/s | -49.7°C | 3.5% | 0hPa | 2.5V | 08:26:00 | 02:37:18 | 00:00:00 | |
| IW2NTF | 2026-09-03 01:10:59 | 45.03305 | 9.30063 | 12° | 58km/h | 25985m | -19.8m/s | -50.4°C | 3.7% | 0hPa | 2.5V | 08:26:09 | 02:37:10 | 00:00:00 | |
| NBG1-10 | 2026-09-03 01:10:57 | 45.03336 | 9.30064 | 346° | 55km/h | 25947m | -19.6m/s | -50.0°C | 3.6% | 0hPa | 2.6V | 00:00:00 | 02:37:12 | 00:00:00 | |
| DF1GD-15 | 2026-09-03 01:10:56 | 45.03336 | 9.30064 | 346° | 58km/h | 25947m | -19.7m/s | -50.1°C | 1.2% | 0hPa | 2.6V | 08:26:00 | 00:00:00 | 00:00:00 | |
| DB0UT-7 | 2026-09-03 01:10:53 | 45.03280 | 9.30043 | 43° | 51km/h | 26023m | -19.5m/s | -50.6°C | 3.8% | 0hPa | 2.6V | 00:00:00 | 02:37:08 | 00:00:00 | |
| DO3MHA-11 | 2026-09-03 01:10:52 | 45.03271 | 9.30028 | 64° | 49km/h | 26042m | -18.8m/s | -50.7°C | 3.9% | 0hPa | 2.5V | 00:00:00 | 02:37:07 | 00:00:00 | |
| IW2NTF | 2026-09-03 01:10:48 | 45.03312 | 9.29936 | 184° | 53km/h | 26175m | -19.7m/s | -50°C | 3.7% | 0hPa | 2.5V | 08:26:19 | 02:37:00 | 00:00:00 | |
| IW2NTF | 2026-09-03 01:10:38 | 45.03288 | 9.30026 | 28° | 47km/h | 26389m | -19.2m/s | -49.2°C | 3.6% | 0hPa | 2.5V | 08:26:30 | 02:36:49 | 00:00:00 | |
| DF1GD-15 | 2026-09-03 01:10:35 | 45.03311 | 9.30033 | 355° | 49km/h | 26351m | -20.4m/s | -49.4°C | 1.2% | 0hPa | 2.6V | 08:26:00 | 00:00:00 | 00:00:00 | |
| IW2NTF | 2026-09-03 01:10:29 | 45.03328 | 9.29901 | 181° | 49km/h | 26583m | -19.1m/s | -48.4°C | 3.4% | 0hPa | 2.6V | 08:26:40 | 02:36:39 | 00:00:00 | |
| NBG1-10 | 2026-09-03 01:10:24 | 45.03328 | 9.29901 | 182° | 26km/h | 26583m | -19.0m/s | -48.3°C | 3.4% | 0hPa | 2.6V | 00:00:00 | 02:36:39 | 00:00:00 | |
| DB0UT-7 | 2026-09-03 01:10:23 | 45.03340 | 9.29904 | 199° | 27km/h | 26601m | -17.7m/s | -48.3°C | 3.4% | 0hPa | 2.6V | 00:00:00 | 00:00:00 | 00:00:00 | |
| IW2NTF | 2026-09-03 01:10:19 | 45.03342 | 9.30021 | 320° | 40km/h | 26774m | -20.6m/s | -48.1°C | 3.3% | 0hPa | 2.6V | 08:26:50 | 02:36:29 | 00:00:00 | |
| DF1GD-15 | 2026-09-03 01:10:14 | 45.03349 | 9.30011 | 309° | 42km/h | 26753m | -21.1m/s | 0°C | 0% | 0hPa | 2.5V | 08:26:00 | 00:00:00 | 00:00:00 | |
| DO3MHA-11 | 2026-09-03 01:10:09 | 45.03310 | 9.30008 | 65° | 29km/h | 26886m | -25.0m/s | -48.2°C | 3.4% | 0hPa | 2.5V | 00:00:00 | 02:36:24 | 00:00:00 | |
| IW2NTF | 2026-09-03 01:10:08 | 45.03313 | 9.29960 | 131° | 18km/h | 27007m | -24.5m/s | -48°C | 3.4% | 0hPa | 2.5V | 08:27:00 | 02:36:19 | 00:00:00 | |
| IW2NTF | 2026-09-03 01:09:55 | 45.03332 | 9.29940 | 189° | 2km/h | 27393m | -27.4m/s | -46.8°C | 3.1% | 0hPa | 2.5V | 08:27:15 | 02:36:04 | 00:00:00 | |
| DF1GD-15 | 2026-09-03 01:09:54 | 45.03323 | 9.29947 | 132° | 13km/h | 27231m | -27.3m/s | 0°C | 0% | 0hPa | 2.5V | 00:00:00 | 00:00:00 | 00:00:00 | |
| DB0UT-7 | 2026-09-03 01:09:53 | 45.03327 | 9.29943 | 168° | 5km/h | 27285m | -27.5m/s | -46.9°C | 3.2% | 0hPa | 2.5V | 00:00:00 | 02:36:08 | 00:00:00 | |
| NBG1-10 | 2026-09-03 01:09:51 | 45.03330 | 9.29940 | 142° | 5km/h | 27340m | -27.9m/s | -46.8°C | 3.1% | 0hPa | 2.5V | 00:00:00 | 02:36:06 | 00:00:00 | |
| OE5DRO-10 | 2026-09-03 01:09:49 | 45.03332 | 9.29940 | 190° | 5km/h | 27393m | -27.4m/s | -46.8°C | 3.1% | 0hPa | 2.5V | 00:00:00 | 00:00:00 | 00:00:00 | |
| IW2NTF | 2026-09-03 01:09:45 | 45.03350 | 9.29924 | 162° | 13km/h | 27665m | -28.1m/s | -47.2°C | 3.2% | 0hPa | 2.5V | 08:27:25 | 02:35:54 | 00:00:00 | |
| IW2NTF | 2026-09-03 01:09:35 | 45.03354 | 9.29925 | 347° | 7km/h | 27944m | -28.8m/s | -47°C | 3.2% | 0hPa | 2.5V | 08:27:35 | 02:35:44 | 00:00:00 | |
| DF1GD-15 | 2026-09-03 01:09:33 | 45.03358 | 9.29922 | 0° | 0km/h | 27804m | -28.7m/s | 0°C | 0% | 0hPa | 2.5V | 00:00:00 | 00:00:00 | 00:00:00 | |
| IW2NTF | 2026-09-03 01:09:24 | 45.03335 | 9.29930 | 332° | 2km/h | 28231m | -30.1m/s | -46.7°C | 3.2% | 0hPa | 2.5V | 08:27:45 | 02:35:34 | 00:00:00 | |
| DB0UT-7 | 2026-09-03 01:09:23 | 45.03342 | 9.29926 | 330° | 11km/h | 28116m | -29.2m/s | -46.9°C | 3.2% | 0hPa | 2.5V | 00:00:00 | 00:00:00 | 00:00:00 | |
| NBG1-10 | 2026-09-03 01:09:18 | 45.03335 | 9.29930 | 25° | 16km/h | 28261m | -29.5m/s | -46.5°C | 3.2% | 0hPa | 2.6V | 00:00:00 | 02:35:33 | 00:00:00 | |
| IW2NTF | 2026-09-03 01:09:15 | 45.03333 | 9.29920 | 32° | 11km/h | 28523m | -30.9m/s | -46.4°C | 3.2% | 0hPa | 2.6V | 08:27:55 | 02:35:24 | 00:00:00 | |
| OE5DRO-10 | 2026-09-03 01:09:14 | 45.03337 | 9.29928 | 127° | 13km/h | 28377m | -29.4m/s | -46.5°C | 3.2% | 0hPa | 2.5V | 00:00:00 | 00:00:00 | 00:00:00 | |
| IW2NTF | 2026-09-03 01:09:05 | 45.03312 | 9.29894 | 79° | 16km/h | 28823m | -30.9m/s | -45.9°C | 3.2% | 0hPa | 2.5V | 08:28:05 | 02:35:14 | 00:00:00 | |
| IW2NTF | 2026-09-03 01:08:54 | 45.03343 | 9.29825 | 157° | 27km/h | 29129m | -31.8m/s | -45.6°C | 3.2% | 0hPa | 2.5V | 08:28:15 | 02:35:04 | 00:00:00 | |
| DB0UT-7 | 2026-09-03 01:08:53 | 45.03320 | 9.29848 | 133° | 9km/h | 29006m | -30.9m/s | -45.6°C | 3.1% | 0hPa | 2.5V | 00:00:00 | 02:35:08 | 00:00:00 | |
| IW2NTF | 2026-09-03 01:08:45 | 45.03360 | 9.29811 | 175° | 4km/h | 29442m | -32.7m/s | -44.2°C | 2.9% | 0hPa | 2.5V | 08:28:25 | 02:34:54 | 00:00:00 | |
| NBG1-10 | 2026-09-03 01:08:43 | 45.03360 | 9.29816 | 74° | 7km/h | 29317m | -31.6m/s | -44.8°C | 3.1% | 0hPa | 2.6V | 08:28:00 | 02:34:58 | 00:00:00 | |
| OE3JTB-15 | 2026-09-03 01:08:39 | 45.03360 | 9.29811 | 176° | 13km/h | 29443m | -32.6m/s | -44.1°C | 2.9% | 0hPa | 2.5V | 00:00:00 | 00:00:00 | 08:30:00 | |
| IW2NTF | 2026-09-03 01:08:34 | 45.03375 | 9.29814 | 296° | 4km/h | 29768m | -33.2m/s | -42.7°C | 2.6% | 0hPa | 2.5V | 08:28:35 | 02:34:44 | 00:00:00 | |
| S52SK | 2026-09-03 01:08:32 | 45.03373 | 9.29811 | 219° | 7km/h | 29638m | -32.7m/s | -43.2°C | 0% | 0hPa | 2.6V | 08:28:00 | 00:00:00 | 00:00:00 | |
| S52SK | 2026-09-03 01:08:26 | 45.03374 | 9.29814 | 22° | 4km/h | 29834m | -33.2m/s | -42.8°C | 0% | 0hPa | 2.6V | 08:28:00 | 00:00:00 | 00:00:00 | |
| IW2NTF | 2026-09-03 01:08:25 | 45.03392 | 9.29793 | 146° | 22km/h | 30096m | -33.9m/s | -43.3°C | 2.8% | 0hPa | 2.6V | 08:30:00 | 02:34:34 | 00:00:00 | |
| DB0UT-7 | 2026-09-03 01:08:23 | 45.03378 | 9.29809 | 142° | 18km/h | 29965m | -33.0m/s | -43.3°C | 2.8% | 0hPa | 2.5V | 00:00:00 | 00:00:00 | 00:00:00 | |
| S52SK | 2026-09-03 01:08:21 | 45.03381 | 9.29806 | 149° | 15km/h | 29998m | -33.6m/s | -43.5°C | 0% | 0hPa | 2.5V | 00:00:00 | 00:00:00 | 00:00:00 | |
| IW2NTF | 2026-09-03 01:08:14 | 45.03433 | 9.29770 | 195° | 18km/h | 30433m | -35.3m/s | -42.6°C | 2.7% | 0hPa | 2.5V | 08:30:00 | 02:34:24 | 00:00:00 | |
| NBG1-10 | 2026-09-03 01:08:10 | 45.03429 | 9.29768 | 200° | 13km/h | 30400m | -34.2m/s | -42.8°C | 2.8% | 0hPa | 2.5V | 00:00:00 | 02:34:25 | 00:00:00 | |
| OE5DRO-10 | 2026-09-03 01:08:05 | 45.03450 | 9.29779 | 197° | 9km/h | 30573m | -36.0m/s | -41.9°C | 2.6% | 0hPa | 2.5V | 00:00:00 | 00:00:00 | 00:00:00 | |
| IW2NTF | 2026-09-03 01:08:04 | 45.03479 | 9.29800 | 216° | 24km/h | 30784m | -36.1m/s | -42°C | 2.6% | 0hPa | 2.5V | 08:30:00 | 02:34:14 | 00:00:00 | |
| DO3MHA-11 | 2026-09-03 01:07:59 | 45.03479 | 9.29800 | 217° | 13km/h | 30784m | -36.0m/s | -41.9°C | 2.6% | 0hPa | 2.5V | 00:00:00 | 02:34:14 | 00:00:00 | |
| IW2NTF | 2026-09-03 01:07:54 | 45.03477 | 9.29829 | 33° | 5km/h | 31137m | -37m/s | -42°C | 2.8% | 0hPa | 2.5V | 08:30:00 | 02:34:04 | 00:00:00 | |
| DB0UT-7 | 2026-09-03 01:07:53 | 45.03486 | 9.29827 | 306° | 11km/h | 30995m | -36.3m/s | -41.9°C | 2.7% | 0hPa | 2.6V | 08:29:00 | 02:34:08 | 00:00:00 | |
| OE3JTB-15 | 2026-09-03 01:07:48 | 45.03476 | 9.29827 | 57° | 16km/h | 31174m | -36.7m/s | -42.1°C | 2.8% | 0hPa | 2.5V | 00:00:00 | 00:00:00 | 00:00:00 | |
| DO3MHA-11 | 2026-09-03 01:07:47 | 45.03475 | 9.29825 | 79° | 9km/h | 31210m | -36.7m/s | -42.2°C | 2.9% | 0hPa | 2.5V | 00:00:00 | 02:34:02 | 00:00:00 | |
| IW2NTF | 2026-09-03 01:07:45 | 45.03492 | 9.29813 | 176° | 13km/h | 31551m | -61m/s | -39.7°C | 2.3% | 0hPa | 2.5V | 08:30:00 | 02:33:54 | 00:00:00 | |
| OE5DRO-10 | 2026-09-03 01:07:41 | 45.03486 | 9.29817 | 130° | 11km/h | 31441m | -47.3m/s | -41.2°C | 2.7% | 0hPa | 2.6V | 00:00:00 | 00:00:00 | 00:00:00 | |
| DO3MHA-11 | 2026-09-03 01:07:37 | 45.03498 | 9.29815 | 218° | 13km/h | 31675m | -63.2m/s | -39.6°C | 2.3% | 0hPa | 2.6V | 00:00:00 | 02:33:52 | 00:00:00 | |
| IW2NTF | 2026-09-03 01:07:34 | 45.03506 | 9.29849 | 265° | 11km/h | 32179m | -60.1m/s | -39.9°C | 2.4% | 0hPa | 2.6V | 08:30:00 | 02:33:44 | 00:00:00 | |
| DO3MHA-11 | 2026-09-03 01:07:27 | 45.03509 | 9.29858 | 240° | 18km/h | 32298m | -59.8m/s | -40.5°C | 2.6% | 0hPa | 2.5V | 00:00:00 | 02:33:42 | 00:00:00 | |
| PG1ADW-2 | 2026-09-03 01:07:26 | 45.03511 | 9.29862 | 235° | 16km/h | 32356m | -59.2m/s | -40.5°C | 2.6% | 0hPa | 2.5V | 00:00:00 | 02:33:41 | 00:00:00 | |
| DB0UT-7 | 2026-09-03 01:07:23 | 45.03518 | 9.29876 | 240° | 20km/h | 32532m | -58.5m/s | -39.9°C | 2.5% | 0hPa | 2.5V | 00:00:00 | 00:00:00 | 00:00:00 | |
| DO3MHA-11 | 2026-09-03 01:07:17 | 45.03537 | 9.29914 | 239° | 15km/h | 32885m | -62.5m/s | -39.8°C | 2.6% | 0hPa | 2.5V | 00:00:00 | 02:33:32 | 00:00:00 | |
| IW2NTF | 2026-09-03 01:07:11 | 45.03563 | 9.29965 | 219° | 29km/h | 33557m | -60.9m/s | -37.9°C | 2.4% | 0hPa | 2.5V | 08:30:00 | 02:33:21 | 00:00:00 | |
| OE5DRO-10 | 2026-09-03 01:07:09 | 45.03551 | 9.29949 | 230° | 22km/h | 33379m | -59.9m/s | -38.4°C | 2.4% | 0hPa | 2.5V | 00:00:00 | 00:00:00 | 00:00:00 | |
| DO3MHA-11 | 2026-09-03 01:07:07 | 45.03557 | 9.29958 | 229° | 26km/h | 33498m | -60.1m/s | -38.1°C | 2.4% | 0hPa | 2.5V | 00:00:00 | 02:33:22 | 08:30:00 | |
| PG1ADW-2 | 2026-09-03 01:07:06 | 45.03562 | 9.29965 | 220° | 33km/h | 33558m | -60.8m/s | -37.9°C | 2.4% | 0hPa | 2.6V | 00:00:00 | 00:00:00 | 00:00:00 | |
| NBG1-10 | 2026-09-03 01:07:04 | 45.03574 | 9.29981 | 226° | 42km/h | 33681m | -63.1m/s | -37.8°C | 2.4% | 0hPa | 2.6V | 00:00:00 | 02:33:19 | 00:00:00 | |
| DO3MHA-11 | 2026-09-03 01:06:57 | 45.03595 | 9.30024 | 290° | 24km/h | 34112m | -59.0m/s | -36.9°C | 2.3% | 0hPa | 2.6V | 00:00:00 | 02:33:12 | 00:00:00 | |
| DB0UT-7 | 2026-09-03 01:06:53 | 45.03584 | 9.30037 | 288° | 42km/h | 34358m | -69.1m/s | -34.8°C | 1.9% | 0hPa | 2.6V | 00:00:00 | 02:33:08 | 00:00:00 | |
| IW2NTF | 2026-09-03 01:06:52 | 45.03580 | 9.30054 | 287° | 26km/h | 34494m | -66.1m/s | -33.6°C | 1.7% | 0hPa | 2.6V | 08:30:00 | 02:33:06 | 00:00:00 | |
| OE5DRO-10 | 2026-09-03 01:06:50 | 45.03579 | 9.30063 | 271° | 42km/h | 34559m | -62.7m/s | -33.7°C | 1.8% | 0hPa | 2.5V | 00:00:00 | 00:00:00 | 00:00:00 | |
| DO3MHA-11 | 2026-09-03 01:06:47 | 45.03583 | 9.30098 | 251° | 49km/h | 34732m | -52.0m/s | -33.3°C | 1.6% | 0hPa | 2.6V | 00:00:00 | 02:33:02 | 00:00:00 | |
| IW2NTF | 2026-09-03 01:06:43 | 45.03621 | 9.30195 | 240° | 55km/h | 35004m | -40m/s | -34.3°C | 1.7% | 0hPa | 2.6V | 08:30:00 | 02:32:56 | 00:00:00 | |
| DO3MHA-11 | 2026-09-03 01:06:37 | 45.03634 | 9.30251 | 268° | 31km/h | 35132m | -19.0m/s | -34.7°C | 1.9% | 0hPa | 2.5V | 00:00:00 | 02:32:52 | 00:00:00 | |
| IW2NTF | 2026-09-03 01:06:32 | 45.03598 | 9.30248 | 119° | 11km/h | 35157m | 3.3m/s | -35°C | 1.9% | 0hPa | 2.5V | 08:30:00 | 02:32:46 | 00:00:00 | |
| OE5DRO-10 | 2026-09-03 01:06:31 | 45.03598 | 9.30248 | 120° | 46km/h | 35157m | 3.2m/s | -35.0°C | 1.9% | 0hPa | 2.6V | 00:00:00 | 00:00:00 | 00:00:00 | |
| DK5PH-5 | 2026-09-03 01:06:30 | 45.03601 | 9.30246 | 181° | 46km/h | 35153m | 4.3m/s | 0°C | 0% | 0hPa | 2.6V | 00:00:00 | 02:32:45 | 00:00:00 | |
| DO3MHA-11 | 2026-09-03 01:06:27 | 45.03628 | 9.30275 | 236° | 51km/h | 35138m | 4.9m/s | -34.9°C | 1.9% | 0hPa | 2.6V | 00:00:00 | 02:32:42 | 00:00:00 | |
| IW2NTF | 2026-09-03 01:06:23 | 45.03604 | 9.30390 | 163° | 20km/h | 35095m | 4.1m/s | -34.8°C | 1.9% | 0hPa | 2.6V | 08:30:00 | 02:32:32 | 00:00:00 | |
| DO3MHA-11 | 2026-09-03 01:06:17 | 45.03603 | 9.30390 | 164° | 58km/h | 35096m | 4.1m/s | -34.8°C | 1.9% | 0hPa | 2.6V | 00:00:00 | 02:32:32 | 00:00:00 | |
| OE5DRO-10 | 2026-09-03 01:06:12 | 45.03645 | 9.30454 | 259° | 53km/h | 35071m | 4.3m/s | -34.7°C | 1.9% | 0hPa | 2.6V | 00:00:00 | 00:00:00 | 00:00:00 | |
| IW2NTF | 2026-09-03 01:06:11 | 45.03605 | 9.30546 | 52° | 15km/h | 35038m | 4.2m/s | -34.8°C | 1.9% | 0hPa | 2.6V | 08:30:00 | 02:32:20 | 00:00:00 | |
| DO3MHA-11 | 2026-09-03 01:06:07 | 45.03617 | 9.30547 | 343° | 44km/h | 35048m | 5.1m/s | -34.8°C | 1.9% | 0hPa | 2.5V | 00:00:00 | 02:32:22 | 00:00:00 | |
| DO3MHA-11 | 2026-09-03 01:05:57 | 45.03645 | 9.30648 | 281° | 38km/h | 35001m | 4.1m/s | -34.8°C | 1.9% | 0hPa | 2.6V | 00:00:00 | 02:32:12 | 00:00:00 | |
| DB0UT-7 | 2026-09-03 01:05:53 | 45.03614 | 9.30711 | 344° | 46km/h | 34983m | 5.5m/s | -34.8°C | 1.9% | 0hPa | 2.6V | 00:00:00 | 02:32:08 | 00:00:00 | |
| IW2NTF | 2026-09-03 01:05:52 | 45.03618 | 9.30710 | 199° | 37km/h | 34964m | 4m/s | -34.8°C | 1.9% | 0hPa | 2.6V | 08:30:00 | 02:32:04 | 00:00:00 | |
| DO3MHA-11 | 2026-09-03 01:05:47 | 45.03637 | 9.30732 | 233° | 49km/h | 34955m | 5.3m/s | -34.7°C | 1.9% | 0hPa | 2.6V | 00:00:00 | 02:32:02 | 00:00:00 | |
| PG1ADW-2 | 2026-09-03 01:05:46 | 45.03645 | 9.30753 | 247° | 66km/h | 34949m | 5.8m/s | -34.7°C | 1.9% | 0hPa | 2.6V | 00:00:00 | 00:00:00 | 00:00:00 | |
| IW2NTF | 2026-09-03 01:05:40 | 45.03653 | 9.30900 | 218° | 60km/h | 34891m | 4.1m/s | -34.4°C | 1.9% | 0hPa | 2.6V | 08:30:00 | 02:31:49 | 00:00:00 | |
| DO3MHA-11 | 2026-09-03 01:05:36 | 45.03630 | 9.30886 | 186° | 60km/h | 34900m | 4.2m/s | -34.5°C | 1.9% | 0hPa | 2.5V | 00:00:00 | 02:31:51 | 08:30:00 | |
| OE5DRO-10 | 2026-09-03 01:05:34 | 45.03653 | 9.30900 | 219° | 58km/h | 34892m | 4.1m/s | -34.4°C | 1.9% | 0hPa | 2.6V | 00:00:00 | 00:00:00 | 00:00:00 | |
| DO3MHA-11 | 2026-09-03 01:05:26 | 45.03651 | 9.31051 | 336° | 47km/h | 34854m | 4.6m/s | -34.1°C | 1.9% | 0hPa | 2.6V | 00:00:00 | 02:31:41 | 00:00:00 | |
| DB0UT-7 | 2026-09-03 01:05:23 | 45.03656 | 9.31050 | 180° | 49km/h | 34839m | 4.9m/s | -34.0°C | 1.8% | 0hPa | 2.6V | 00:00:00 | 00:00:00 | 00:00:00 | |
| IW2NTF | 2026-09-03 01:05:22 | 45.03679 | 9.31060 | 210° | 60km/h | 34829m | 4.2m/s | -34°C | 1.8% | 0hPa | 2.6V | 08:30:00 | 02:31:36 | 00:00:00 | |
| PG1ADW-2 | 2026-09-03 01:05:21 | 45.03679 | 9.31060 | 211° | 47km/h | 34830m | 4.1m/s | -34.0°C | 1.8% | 0hPa | 2.6V | 00:00:00 | 00:00:00 | 00:00:00 | |
| DO3MHA-11 | 2026-09-03 01:05:16 | 45.03709 | 9.31169 | 285° | 40km/h | 34806m | 5.1m/s | -33.9°C | 1.8% | 0hPa | 2.5V | 00:00:00 | 02:31:31 | 00:00:00 | |
| OE5DRO-10 | 2026-09-03 01:05:15 | 45.03703 | 9.31190 | 299° | 42km/h | 34801m | 4.4m/s | -33.9°C | 1.8% | 0hPa | 2.5V | 00:00:00 | 00:00:00 | 00:00:00 | |
| IW2NTF | 2026-09-03 01:05:12 | 45.03690 | 9.31219 | 180° | 27km/h | 34777m | 5.5m/s | -34°C | 1.8% | 0hPa | 2.5V | 08:30:00 | 02:31:25 | 00:00:00 | |
| DO3MHA-11 | 2026-09-03 01:05:06 | 45.03736 | 9.31256 | 233° | 44km/h | 34759m | 4.0m/s | -34.1°C | 1.8% | 0hPa | 2.6V | 00:00:00 | 02:31:21 | 00:00:00 | |
| IW2NTF | 2026-09-03 01:05:03 | 45.03733 | 9.31376 | 320° | 35km/h | 34730m | 4m/s | -34.1°C | 1.8% | 0hPa | 2.6V | 08:30:00 | 02:31:15 | 00:00:00 | |
| OE5DRO-10 | 2026-09-03 01:04:56 | 45.03735 | 9.31382 | 188° | 53km/h | 34713m | 4.9m/s | -34.2°C | 1.8% | 0hPa | 2.5V | 00:00:00 | 00:00:00 | 00:00:00 | |
| IW2NTF | 2026-09-03 01:04:55 | 45.03787 | 9.31481 | 275° | 68km/h | 34685m | 5.4m/s | -34.4°C | 1.8% | 0hPa | 2.5V | 08:30:00 | 02:31:05 | 00:00:00 | |
| DO3MHA-11 | 2026-09-03 01:04:55 | 45.03746 | 9.31386 | 201° | 53km/h | 34708m | 4.7m/s | -34.2°C | 1.8% | 0hPa | 2.6V | 00:00:00 | 02:31:10 | 00:00:00 | |
| DB0UT-7 | 2026-09-03 01:04:53 | 45.03771 | 9.31412 | 230° | 46km/h | 34699m | 3.9m/s | -34.3°C | 1.8% | 0hPa | 2.6V | 00:00:00 | 02:31:08 | 00:00:00 | |
| IW2NTF | 2026-09-03 01:04:46 | 45.03792 | 9.31558 | 222° | 62km/h | 34634m | 4.5m/s | -34.8°C | 1.8% | 0hPa | 2.5V | 08:30:00 | 02:30:55 | 00:00:00 | |
| DO3MHA-11 | 2026-09-03 01:04:45 | 45.03756 | 9.31540 | 11° | 51km/h | 34662m | 4.7m/s | -34.5°C | 1.8% | 0hPa | 2.6V | 00:00:00 | 02:31:00 | 00:00:00 | |
| PG1ADW-2 | 2026-09-03 01:04:39 | 45.03802 | 9.31575 | 238° | 42km/h | 34630m | 3.9m/s | -34.8°C | 1.8% | 0hPa | 2.6V | 00:00:00 | 02:30:54 | 00:00:00 | |
| OE5DRO-10 | 2026-09-03 01:04:37 | 45.03812 | 9.31618 | 270° | 42km/h | 34622m | 4.7m/s | -34.9°C | 1.9% | 0hPa | 2.6V | 00:00:00 | 00:00:00 | 00:00:00 | |
| IW2NTF | 2026-09-03 01:04:35 | 45.03774 | 9.31672 | 138° | 11km/h | 34586m | 4.4m/s | -35.2°C | 1.9% | 0hPa | 2.6V | 08:30:00 | 02:30:45 | 00:00:00 | |
| NBG1-10 | 2026-09-03 01:04:34 | 45.03795 | 9.31670 | 325° | 35km/h | 34605m | 5.6m/s | -35.2°C | 1.9% | 0hPa | 2.5V | 00:00:00 | 02:30:49 | 00:00:00 | |
| DO3MHA-11 | 2026-09-03 01:04:33 | 45.03786 | 9.31676 | 345° | 46km/h | 34600m | 4.9m/s | -35.2°C | 1.9% | 0hPa | 2.5V | 00:00:00 | 02:30:48 | 00:00:00 | |
| DB0UT-7 | 2026-09-03 01:04:23 | 45.03813 | 9.31754 | 282° | 38km/h | 34552m | 4.9m/s | -35.1°C | 1.9% | 0hPa | 2.5V | 00:00:00 | 00:00:00 | 00:00:00 | |
| DO3MHA-11 | 2026-09-03 01:04:21 | 45.03801 | 9.31786 | 316° | 35km/h | 34541m | 5.3m/s | -35.0°C | 1.9% | 0hPa | 2.5V | 00:00:00 | 02:30:36 | 00:00:00 | |
| OE5DRO-10 | 2026-09-03 01:04:18 | 45.03778 | 9.31800 | 12° | 35km/h | 34528m | 3.9m/s | -35.0°C | 1.8% | 0hPa | 2.5V | 00:00:00 | 00:00:00 | 00:00:00 | |
| IW2NTF | 2026-09-03 01:04:17 | 45.03812 | 9.31831 | 235° | 58km/h | 34498m | 4.5m/s | -35.1°C | 1.8% | 0hPa | 2.5V | 08:30:00 | 02:30:27 | 00:00:00 | |
| PG1ADW-2 | 2026-09-03 01:04:12 | 45.03812 | 9.31831 | 236° | 38km/h | 34498m | 4.5m/s | -35.1°C | 1.8% | 0hPa | 2.5V | 00:00:00 | 00:00:00 | 00:00:00 | |
| DO3MHA-11 | 2026-09-03 01:04:11 | 45.03819 | 9.31849 | 249° | 33km/h | 34494m | 4.0m/s | -35.2°C | 1.8% | 0hPa | 2.5V | 00:00:00 | 02:30:26 | 00:00:00 | |
| DK5PH-5 | 2026-09-03 01:04:09 | 45.03822 | 9.31887 | 278° | 35km/h | 34485m | 5.2m/s | 0°C | 0% | 0hPa | 2.5V | 00:00:00 | 02:30:24 | 00:00:00 | |
| IW2NTF | 2026-09-03 01:04:06 | 45.03819 | 9.31924 | 202° | 42km/h | 34446m | 5.8m/s | -36.1°C | 1.9% | 0hPa | 2.5V | 08:30:00 | 02:30:16 | 00:00:00 | |
| DO3MHA-11 | 2026-09-03 01:04:01 | 45.03819 | 9.31924 | 203° | 40km/h | 34447m | 5.8m/s | -36.1°C | 1.9% | 0hPa | 2.5V | 00:00:00 | 02:30:16 | 08:30:00 | |
| OE5DRO-10 | 2026-09-03 01:03:59 | 45.03840 | 9.31945 | 225° | 38km/h | 34435m | 5.3m/s | -36.3°C | 1.9% | 0hPa | 2.5V | 00:00:00 | 00:00:00 | 00:00:00 | |
| IW2NTF | 2026-09-03 01:03:57 | 45.03860 | 9.32034 | 140° | 7km/h | 34395m | 4.8m/s | -37.3°C | 2% | 0hPa | 2.5V | 08:30:00 | 02:30:06 | 00:00:00 | |
| DB0UT-7 | 2026-09-03 01:03:53 | 45.03861 | 9.32031 | 295° | 26km/h | 34406m | 5.4m/s | -37.1°C | 2.0% | 0hPa | 2.5V | 00:00:00 | 02:30:08 | 00:00:00 | |
| PG1ADW-2 | 2026-09-03 01:03:52 | 45.03860 | 9.32034 | 318° | 27km/h | 34401m | 5.1m/s | -37.1°C | 2.0% | 0hPa | 2.5V | 00:00:00 | 00:00:00 | 08:30:00 | |
| DO3MHA-11 | 2026-09-03 01:03:51 | 45.03860 | 9.32034 | 141° | 37km/h | 34396m | 4.7m/s | -37.2°C | 2.0% | 0hPa | 2.6V | 00:00:00 | 02:30:06 | 00:00:00 | |
| IW2NTF | 2026-09-03 01:03:47 | 45.03927 | 9.32105 | 265° | 31km/h | 34347m | 4.5m/s | -37.9°C | 2.1% | 0hPa | 2.6V | 08:30:00 | 02:29:56 | 00:00:00 | |
| DO3MHA-11 | 2026-09-03 01:03:41 | 45.03927 | 9.32105 | 266° | 22km/h | 34347m | 4.5m/s | -37.8°C | 2.1% | 0hPa | 2.5V | 00:00:00 | 02:29:56 | 00:00:00 | |
| OE5DRO-10 | 2026-09-03 01:03:40 | 45.03927 | 9.32114 | 272° | 22km/h | 34343m | 4.5m/s | -37.9°C | 2.1% | 0hPa | 2.5V | 00:00:00 | 00:00:00 | 00:00:00 | |
| IW2NTF | 2026-09-03 01:03:36 | 45.03970 | 9.32126 | 216° | 31km/h | 34298m | 4.8m/s | -38.2°C | 2.2% | 0hPa | 2.5V | 08:30:00 | 02:29:46 | 00:00:00 | |
| DK5PH-5 | 2026-09-03 01:03:36 | 45.03934 | 9.32119 | 160° | 22km/h | 34323m | 5.1m/s | 0°C | 0% | 0hPa | 2.5V | 00:00:00 | 02:29:51 | 00:00:00 | |
| S52SK | 2026-09-03 01:03:34 | 45.03940 | 9.32117 | 170° | 27km/h | 34317m | 5.0m/s | -38.1°C | 0% | 0hPa | 2.5V | 00:00:00 | 00:00:00 | 00:00:00 | |
| PG1ADW-2 | 2026-09-03 01:03:32 | 45.03963 | 9.32120 | 204° | 20km/h | 34303m | 4.7m/s | -38.1°C | 2.2% | 0hPa | 2.5V | 00:00:00 | 00:00:00 | 00:00:00 | |
| DO3MHA-11 | 2026-09-03 01:03:31 | 45.03970 | 9.32126 | 217° | 20km/h | 34298m | 4.8m/s | -38.1°C | 2.2% | 0hPa | 2.5V | 00:00:00 | 02:29:46 | 00:00:00 | |
| IW2NTF | 2026-09-03 01:03:27 | 45.03997 | 9.32183 | 219° | 16km/h | 34247m | 5.3m/s | -38.2°C | 2.1% | 0hPa | 2.6V | 08:30:00 | 02:29:36 | 00:00:00 | |
| DB0UT-7 | 2026-09-03 01:03:23 | 45.03991 | 9.32176 | 222° | 20km/h | 34258m | 5.2m/s | -38.2°C | 2.2% | 0hPa | 2.5V | 00:00:00 | 00:00:00 | 08:30:00 | |
| DO3MHA-11 | 2026-09-03 01:03:21 | 45.03997 | 9.32183 | 220° | 18km/h | 34248m | 5.3m/s | -38.2°C | 2.1% | 0hPa | 2.6V | 00:00:00 | 02:29:36 | 00:00:00 | |
| PG1ADW-2 | 2026-09-03 01:03:12 | 45.04027 | 9.32218 | 213° | 22km/h | 34205m | 4.1m/s | -38.4°C | 2.2% | 0hPa | 2.6V | 00:00:00 | 02:29:27 | 00:00:00 | |
| DO3MHA-11 | 2026-09-03 01:03:11 | 45.04031 | 9.32223 | 224° | 20km/h | 34201m | 4.0m/s | -38.4°C | 2.2% | 0hPa | 2.6V | 00:00:00 | 02:29:26 | 00:00:00 | |
| IW2NTF | 2026-09-03 01:03:10 | 45.04037 | 9.32246 | 263° | 29km/h | 34186m | 5.9m/s | -38.6°C | 2.2% | 0hPa | 2.6V | 08:30:00 | 02:29:23 | 00:00:00 | |
| DK5PH-5 | 2026-09-03 01:03:06 | 45.04037 | 9.32267 | 277° | 22km/h | 34176m | 4.1m/s | 0°C | 0% | 0hPa | 2.5V | 00:00:00 | 02:29:21 | 00:00:00 | |
| OE5DRO-10 | 2026-09-03 01:03:02 | 45.04035 | 9.32288 | 139° | 18km/h | 34157m | 5.8m/s | -38.7°C | 2.2% | 0hPa | 2.5V | 00:00:00 | 00:00:00 | 08:30:00 | |
| DO3MHA-11 | 2026-09-03 01:03:01 | 45.04037 | 9.32286 | 135° | 26km/h | 34152m | 4.8m/s | -38.7°C | 2.2% | 0hPa | 2.6V | 00:00:00 | 02:29:16 | 00:00:00 | |
| IW2NTF | 2026-09-03 01:03:00 | 45.04046 | 9.32281 | 202° | 15km/h | 34140m | 4.1m/s | -38.8°C | 2.2% | 0hPa | 2.5V | 08:30:00 | 02:29:13 | 00:00:00 | |
| DB0UT-7 | 2026-09-03 01:02:53 | 45.04050 | 9.32331 | 287° | 18km/h | 34116m | 3.3m/s | -38.9°C | 2.2% | 0hPa | 2.6V | 00:00:00 | 02:29:08 | 00:00:00 | |
| PG1ADW-2 | 2026-09-03 01:02:52 | 45.04047 | 9.32342 | 296° | 22km/h | 34112m | 4.0m/s | -38.9°C | 2.2% | 0hPa | 2.6V | 00:00:00 | 00:00:00 | 00:00:00 | |
| DO3MHA-11 | 2026-09-03 01:02:51 | 45.04043 | 9.32350 | 309° | 16km/h | 34108m | 5.0m/s | -39.0°C | 2.2% | 0hPa | 2.6V | 00:00:00 | 02:29:06 | 00:00:00 | |
| IW2NTF | 2026-09-03 01:02:50 | 45.04035 | 9.32348 | 161° | 5km/h | 34084m | 4.2m/s | -39.1°C | 2.3% | 0hPa | 2.6V | 08:30:00 | 02:29:01 | 00:00:00 | |
| OE5DRO-10 | 2026-09-03 01:02:43 | 45.04042 | 9.32362 | 250° | 18km/h | 34069m | 5.3m/s | -39.1°C | 2.2% | 0hPa | 2.6V | 00:00:00 | 00:00:00 | 00:00:00 | |
| DO3MHA-11 | 2026-09-03 01:02:41 | 45.04047 | 9.32386 | 260° | 15km/h | 34060m | 3.8m/s | -39.2°C | 2.3% | 0hPa | 2.6V | 00:00:00 | 02:28:56 | 00:00:00 | |
| DK5PH-5 | 2026-09-03 01:02:33 | 45.04045 | 9.32414 | 135° | 15km/h | 34021m | 4.8m/s | 0°C | 0% | 0hPa | 2.6V | 00:00:00 | 02:28:48 | 08:30:00 | |
| DO3MHA-11 | 2026-09-03 01:02:31 | 45.04048 | 9.32417 | 229° | 16km/h | 34011m | 4.7m/s | -39.2°C | 2.3% | 0hPa | 2.6V | 00:00:00 | 02:28:46 | 08:30:00 | |
| PG1ADW-2 | 2026-09-03 01:02:28 | 45.04056 | 9.32434 | 240° | 18km/h | 33996m | 5.4m/s | -39.2°C | 2.3% | 0hPa | 2.6V | 00:00:00 | 00:00:00 | 00:00:00 | |
| OE5DRO-10 | 2026-09-03 01:02:24 | 45.04066 | 9.32460 | 252° | 16km/h | 33976m | 4.5m/s | -39.2°C | 2.3% | 0hPa | 2.6V | 00:00:00 | 00:00:00 | 00:00:00 | |
| DB0UT-7 | 2026-09-03 01:02:23 | 45.04066 | 9.32465 | 260° | 18km/h | 33971m | 4.4m/s | -39.2°C | 2.2% | 0hPa | 2.6V | 00:00:00 | 00:00:00 | 00:00:00 | |
| DO3MHA-11 | 2026-09-03 01:02:20 | 45.04067 | 9.32479 | 271° | 13km/h | 33956m | 5.2m/s | -39.2°C | 2.2% | 0hPa | 2.6V | 00:00:00 | 02:28:35 | 00:00:00 | |
| DO3MHA-11 | 2026-09-03 01:02:10 | 45.04092 | 9.32498 | 226° | 20km/h | 33909m | 4.9m/s | -39.3°C | 2.2% | 0hPa | 2.6V | 00:00:00 | 02:28:25 | 00:00:00 | |
| NBG1-10 | 2026-09-03 01:02:05 | 45.04100 | 9.32545 | 271° | 20km/h | 33884m | 3.0m/s | -39.4°C | 2.3% | 0hPa | 2.6V | 00:00:00 | 02:28:20 | 00:00:00 | |
| PG1ADW-2 | 2026-09-03 01:02:04 | 45.04099 | 9.32551 | 277° | 22km/h | 33880m | 4.4m/s | -39.4°C | 2.3% | 0hPa | 2.6V | 00:00:00 | 00:00:00 | 00:00:00 | |
| DO3MHA-11 | 2026-09-03 01:02:00 | 45.04100 | 9.32539 | 103° | 24km/h | 33857m | 4.1m/s | -39.5°C | 2.3% | 0hPa | 2.6V | 00:00:00 | 02:28:15 | 00:00:00 | |
| IW2NTF | 2026-09-03 01:01:59 | 45.04112 | 9.32541 | 255° | 31km/h | 33832m | 5.6m/s | -39.7°C | 2.3% | 0hPa | 2.5V | 08:30:00 | 02:28:10 | 00:00:00 | |
| DB0UT-7 | 2026-09-03 01:01:53 | 45.04113 | 9.32565 | 274° | 20km/h | 33824m | 3.5m/s | -39.7°C | 2.3% | 0hPa | 2.6V | 00:00:00 | 02:28:08 | 00:00:00 | |
| IW2NTF | 2026-09-03 01:01:50 | 45.04101 | 9.32553 | 120° | 15km/h | 33784m | 4.1m/s | -39.8°C | 2.3% | 0hPa | 2.6V | 08:30:00 | 02:28:00 | 00:00:00 | |
| OE5DRO-10 | 2026-09-03 01:01:46 | 45.04100 | 9.32559 | 98° | 18km/h | 33788m | 3.2m/s | -39.8°C | 2.4% | 0hPa | 2.6V | 00:00:00 | 00:00:00 | 00:00:00 | |
| PG1ADW-2 | 2026-09-03 01:01:44 | 45.04103 | 9.32551 | 185° | 20km/h | 33780m | 4.9m/s | -39.8°C | 2.3% | 0hPa | 2.6V | 00:00:00 | 02:27:59 | 00:00:00 | |
| DO3MHA-11 | 2026-09-03 01:01:40 | 45.04108 | 9.32585 | 281° | 20km/h | 33758m | 4.7m/s | -39.7°C | 2.3% | 0hPa | 2.5V | 00:00:00 | 02:27:55 | 00:00:00 | |
| IW2NTF | 2026-09-03 01:01:40 | 45.04091 | 9.32605 | 92° | 15km/h | 33728m | 5.8m/s | -39.7°C | 2.3% | 0hPa | 2.6V | 08:30:00 | 02:27:49 | 00:00:00 | |
| S52SK | 2026-09-03 01:01:35 | 45.04094 | 9.32612 | 10° | 13km/h | 33740m | 5.5m/s | -39.7°C | 0% | 0hPa | 2.5V | 00:00:00 | 00:00:00 | 00:00:00 | |
| NBG1-10 | 2026-09-03 01:01:31 | 45.04097 | 9.32592 | 158° | 22km/h | 33713m | 4.3m/s | -39.6°C | 2.3% | 0hPa | 2.5V | 00:00:00 | 02:27:46 | 00:00:00 | |
| IW2NTF | 2026-09-03 01:01:30 | 45.04090 | 9.32623 | 307° | 22km/h | 33676m | 3.8m/s | -39.6°C | 2.3% | 0hPa | 2.5V | 08:30:00 | 02:27:39 | 00:00:00 | |
| OE5DRO-10 | 2026-09-03 01:01:27 | 45.04101 | 9.32603 | 295° | 18km/h | 33692m | 6.0m/s | -39.6°C | 2.3% | 0hPa | 2.5V | 00:00:00 | 00:00:00 | 00:00:00 | |
| DB0UT-7 | 2026-09-03 01:01:23 | 45.04088 | 9.32629 | 300° | 24km/h | 33673m | 3.8m/s | -39.6°C | 2.3% | 0hPa | 2.5V | 00:00:00 | 00:00:00 | 00:00:00 | |
| IW2NTF | 2026-09-03 01:01:20 | 45.04111 | 9.32623 | 39° | 9km/h | 33627m | 6.1m/s | -39.8°C | 2.3% | 0hPa | 2.5V | 08:30:00 | 02:27:29 | 00:00:00 | |
| DO3MHA-11 | 2026-09-03 01:01:10 | 45.04097 | 9.32636 | 288° | 27km/h | 33608m | 4.2m/s | -39.9°C | 2.4% | 0hPa | 2.5V | 00:00:00 | 02:27:25 | 00:00:00 | |
| IW2NTF | 2026-09-03 01:01:09 | 45.04128 | 9.32678 | 175° | 27km/h | 33578m | 4m/s | -40.1°C | 2.4% | 0hPa | 2.5V | 08:30:00 | 02:27:19 | 00:00:00 | |
| OE5DRO-10 | 2026-09-03 01:01:08 | 45.04099 | 9.32656 | 243° | 29km/h | 33597m | 6.1m/s | -40.0°C | 2.3% | 0hPa | 2.5V | 00:00:00 | 00:00:00 | 00:00:00 | |
| PG1ADW-2 | 2026-09-03 01:01:03 | 45.04134 | 9.32676 | 153° | 27km/h | 33573m | 5.1m/s | -40.1°C | 2.4% | 0hPa | 2.6V | 00:00:00 | 00:00:00 | 00:00:00 | |
| IW2NTF | 2026-09-03 01:01:00 | 45.04126 | 9.32716 | 221° | 42km/h | 33526m | 5.6m/s | -40.1°C | 2.3% | 0hPa | 2.6V | 08:30:00 | 02:27:09 | 00:00:00 | |
| NBG1-10 | 2026-09-03 01:00:57 | 45.04117 | 9.32683 | 286° | 27km/h | 33544m | 4.7m/s | -40.1°C | 2.4% | 0hPa | 2.5V | 00:00:00 | 02:27:12 | 08:30:00 | |
| DB0UT-7 | 2026-09-03 01:00:53 | 45.04135 | 9.32725 | 209° | 26km/h | 33521m | 4.9m/s | -40.0°C | 2.4% | 0hPa | 2.6V | 00:00:00 | 02:27:08 | 00:00:00 | |
| DO3MHA-11 | 2026-09-03 01:00:49 | 45.04160 | 9.32732 | 106° | 26km/h | 33503m | 5.9m/s | -40.0°C | 2.3% | 0hPa | 2.6V | 00:00:00 | 02:27:04 | 00:00:00 | |
| IW2NTF | 2026-09-03 01:00:48 | 45.04129 | 9.32764 | 259° | 26km/h | 33466m | 5.6m/s | -40.1°C | 2.3% | 0hPa | 2.6V | 08:30:00 | 02:26:57 | 00:00:00 | |
| PG1ADW-2 | 2026-09-03 01:00:43 | 45.04129 | 9.32755 | 289° | 26km/h | 33472m | 4.3m/s | -40.0°C | 2.3% | 0hPa | 2.5V | 00:00:00 | 00:00:00 | 08:30:00 | |
| DO3MHA-11 | 2026-09-03 01:00:39 | 45.04144 | 9.32785 | 206° | 26km/h | 33448m | 5.5m/s | -40.1°C | 2.3% | 0hPa | 2.5V | 00:00:00 | 02:26:54 | 00:00:00 | |
| IW2NTF | 2026-09-03 01:00:35 | 45.04149 | 9.32836 | 324° | 24km/h | 33400m | 4.8m/s | -40.2°C | 2.4% | 0hPa | 2.5V | 08:30:00 | 02:26:45 | 00:00:00 | |
| OE5DRO-10 | 2026-09-03 01:00:30 | 45.04149 | 9.32836 | 325° | 22km/h | 33400m | 4.8m/s | -40.2°C | 2.4% | 0hPa | 2.5V | 00:00:00 | 00:00:00 | 00:00:00 | |
| DO3MHA-11 | 2026-09-03 01:00:29 | 45.04145 | 9.32840 | 316° | 26km/h | 33395m | 4.5m/s | -40.2°C | 2.4% | 0hPa | 2.5V | 00:00:00 | 02:26:44 | 00:00:00 | |
| IW2NTF | 2026-09-03 01:00:26 | 45.04163 | 9.32917 | 272° | 27km/h | 33349m | 4.8m/s | -40.3°C | 2.4% | 0hPa | 2.5V | 08:30:00 | 02:26:35 | 00:00:00 | |
| DB0UT-7 | 2026-09-03 01:00:23 | 45.04158 | 9.32883 | 246° | 22km/h | 33364m | 5.5m/s | -40.2°C | 2.4% | 0hPa | 2.5V | 00:00:00 | 00:00:00 | 00:00:00 | |
| DO3MHA-11 | 2026-09-03 01:00:19 | 45.04162 | 9.32926 | 283° | 20km/h | 33345m | 5.4m/s | -40.2°C | 2.4% | 0hPa | 2.5V | 00:00:00 | 02:26:34 | 00:00:00 | |
| NBG1-10 | 2026-09-03 01:00:18 | 45.04160 | 9.32937 | 304° | 20km/h | 33333m | 5.8m/s | -40.2°C | 2.4% | 0hPa | 2.5V | 00:00:00 | 02:26:32 | 00:00:00 | |
| IW2NTF | 2026-09-03 01:00:17 | 45.04155 | 9.32985 | 264° | 37km/h | 33296m | 4.8m/s | -40.4°C | 2.3% | 0hPa | 2.5V | 08:30:00 | 02:26:25 | 00:00:00 | |
| OE5DRO-10 | 2026-09-03 01:00:11 | 45.04155 | 9.32972 | 269° | 22km/h | 33302m | 5.3m/s | -40.3°C | 2.3% | 0hPa | 2.5V | 00:00:00 | 00:00:00 | 08:30:00 | |
| DO3MHA-11 | 2026-09-03 01:00:09 | 45.04157 | 9.32997 | 259° | 20km/h | 33292m | 4.4m/s | -40.3°C | 2.3% | 0hPa | 2.5V | 00:00:00 | 02:26:24 | 00:00:00 | |
| IW2NTF | 2026-09-03 00:59:59 | 45.04172 | 9.33067 | 264° | 26km/h | 33235m | 4.4m/s | -40.8°C | 2.4% | 0hPa | 2.5V | 08:30:00 | 02:26:13 | 00:00:00 | |
| DO3MHA-11 | 2026-09-03 00:59:59 | 45.04172 | 9.33058 | 273° | 22km/h | 33240m | 4.6m/s | -40.7°C | 2.4% | 0hPa | 2.5V | 00:00:00 | 02:26:14 | 00:00:00 | |
| DB0UT-7 | 2026-09-03 00:59:53 | 45.04189 | 9.33096 | 197° | 15km/h | 33209m | 4.4m/s | -41.0°C | 2.4% | 0hPa | 2.5V | 00:00:00 | 02:26:08 | 00:00:00 | |
| OE5DRO-10 | 2026-09-03 00:59:52 | 45.04194 | 9.33098 | 201° | 18km/h | 33205m | 4.0m/s | -41.0°C | 2.4% | 0hPa | 2.5V | 00:00:00 | 00:00:00 | 00:00:00 | |
| IW2NTF | 2026-09-03 00:59:50 | 45.04200 | 9.33128 | 283° | 26km/h | 33179m | 4.3m/s | -41.1°C | 2.4% | 0hPa | 2.5V | 08:30:00 | 02:26:02 | 00:00:00 | |
| DO3MHA-11 | 2026-09-03 00:59:49 | 45.04201 | 9.33112 | 266° | 15km/h | 33189m | 5.5m/s | -41.1°C | 2.4% | 0hPa | 2.6V | 00:00:00 | 02:26:04 | 00:00:00 | |
| NBG1-10 | 2026-09-03 00:59:44 | 45.04197 | 9.33147 | 270° | 15km/h | 33165m | 5.8m/s | -41.1°C | 2.4% | 0hPa | 2.6V | 00:00:00 | 02:25:59 | 00:00:00 | |
| PG1ADW-2 | 2026-09-03 00:59:43 | 45.04198 | 9.33150 | 219° | 15km/h | 33159m | 5.9m/s | -41.1°C | 2.4% | 0hPa | 2.6V | 00:00:00 | 00:00:00 | 00:00:00 | |
| IW2NTF | 2026-09-03 00:59:40 | 45.04209 | 9.33162 | 266° | 24km/h | 33128m | 6.2m/s | -41.2°C | 2.4% | 0hPa | 2.6V | 08:30:00 | 02:25:52 | 00:00:00 | |
| DO3MHA-11 | 2026-09-03 00:59:39 | 45.04206 | 9.33151 | 224° | 20km/h | 33140m | 4.3m/s | -41.1°C | 2.4% | 0hPa | 2.5V | 00:00:00 | 02:25:54 | 00:00:00 | |
| IW2NTF | 2026-09-03 00:59:34 | 45.04214 | 9.33209 | 110° | 2km/h | 33077m | 4.9m/s | -41.5°C | 2.5% | 0hPa | 2.5V | 08:30:00 | 02:25:42 | 00:00:00 | |
| OE5DRO-10 | 2026-09-03 00:59:33 | 45.04208 | 9.33203 | 270° | 13km/h | 33109m | 5.0m/s | -41.4°C | 2.5% | 0hPa | 2.6V | 00:00:00 | 00:00:00 | 00:00:00 | |
| S52SK | 2026-09-03 00:59:31 | 45.04208 | 9.33209 | 258° | 15km/h | 33104m | 5.6m/s | -41.4°C | 0% | 0hPa | 2.6V | 00:00:00 | 00:00:00 | 00:00:00 | |
| DO3MHA-11 | 2026-09-03 00:59:29 | 45.04212 | 9.33212 | 139° | 11km/h | 33088m | 5.0m/s | -41.4°C | 2.5% | 0hPa | 2.6V | 00:00:00 | 02:25:44 | 08:30:00 | |
| S52SK | 2026-09-03 00:59:26 | 45.04214 | 9.33208 | 111° | 2km/h | 33078m | 4.9m/s | -41.5°C | 0% | 0hPa | 2.6V | 00:00:00 | 00:00:00 | 00:00:00 | |
| DB0UT-7 | 2026-09-03 00:59:23 | 45.04211 | 9.33221 | 284° | 16km/h | 33058m | 4.5m/s | -41.5°C | 2.5% | 0hPa | 2.6V | 00:00:00 | 00:00:00 | 00:00:00 | |
| IW2NTF | 2026-09-03 00:59:20 | 45.04219 | 9.33250 | 227° | 18km/h | 33028m | 4.4m/s | -41.8°C | 2.5% | 0hPa | 2.6V | 08:30:00 | 02:25:32 | 00:00:00 | |
| DO3MHA-11 | 2026-09-03 00:59:18 | 45.04216 | 9.33246 | 223° | 16km/h | 33033m | 4.6m/s | -41.7°C | 2.6% | 0hPa | 2.5V | 00:00:00 | 02:25:33 | 00:00:00 | |
| OE5DRO-10 | 2026-09-03 00:59:14 | 45.04226 | 9.33269 | 260° | 18km/h | 33013m | 4.9m/s | -41.7°C | 2.5% | 0hPa | 2.5V | 00:00:00 | 00:00:00 | 00:00:00 | |
| IW2NTF | 2026-09-03 00:59:09 | 45.04221 | 9.33296 | 286° | 7km/h | 32978m | 3.6m/s | -41.8°C | 2.6% | 0hPa | 2.6V | 08:30:00 | 02:25:22 | 00:00:00 | |
| DO3MHA-11 | 2026-09-03 00:59:08 | 45.04222 | 9.33295 | 318° | 22km/h | 32982m | 4.1m/s | -41.7°C | 2.5% | 0hPa | 2.5V | 00:00:00 | 02:25:23 | 00:00:00 | |
| PG1ADW-2 | 2026-09-03 00:59:03 | 45.04222 | 9.33328 | 263° | 20km/h | 32958m | 4.8m/s | -41.8°C | 2.6% | 0hPa | 2.5V | 00:00:00 | 02:25:18 | 00:00:00 | |
| IW2NTF | 2026-09-03 00:58:59 | 45.04235 | 9.33371 | 160° | 9km/h | 32928m | 5.1m/s | -41.8°C | 2.5% | 0hPa | 2.5V | 08:30:00 | 02:25:12 | 00:00:00 | |
| DO3MHA-11 | 2026-09-03 00:58:58 | 45.04232 | 9.33371 | 199° | 16km/h | 32934m | 5.7m/s | -41.7°C | 2.5% | 0hPa | 2.6V | 00:00:00 | 02:25:13 | 00:00:00 | |
| OE5DRO-10 | 2026-09-03 00:58:55 | 45.04238 | 9.33369 | 169° | 18km/h | 32920m | 4.3m/s | -41.7°C | 2.6% | 0hPa | 2.6V | 00:00:00 | 00:00:00 | 00:00:00 | |
| DB0UT-7 | 2026-09-03 00:58:53 | 45.04240 | 9.33373 | 262° | 22km/h | 32910m | 5.1m/s | -41.7°C | 2.5% | 0hPa | 2.6V | 00:00:00 | 02:25:08 | 08:30:00 | |
| IW2NTF | 2026-09-03 00:58:50 | 45.04245 | 9.33427 | 257° | 24km/h | 32879m | 4.6m/s | -41.6°C | 2.5% | 0hPa | 2.6V | 08:30:00 | 02:25:02 | 00:00:00 | |
| DO3MHA-11 | 2026-09-03 00:58:48 | 45.04243 | 9.33418 | 261° | 16km/h | 32884m | 4.8m/s | -41.6°C | 2.5% | 0hPa | 2.5V | 00:00:00 | 02:25:03 | 00:00:00 | |
| PG1ADW-2 | 2026-09-03 00:58:43 | 45.04249 | 9.33453 | 254° | 22km/h | 32859m | 4.9m/s | -41.6°C | 2.5% | 0hPa | 2.5V | 00:00:00 | 00:00:00 | 00:00:00 | |
| IW2NTF | 2026-09-03 00:58:40 | 45.04263 | 9.33475 | 233° | 20km/h | 32830m | 4m/s | -41.5°C | 2.5% | 0hPa | 2.5V | 08:30:00 | 02:24:52 | 00:00:00 | |
| NBG1-10 | 2026-09-03 00:58:38 | 45.04260 | 9.33470 | 218° | 24km/h | 32835m | 4.0m/s | -41.5°C | 2.5% | 0hPa | 2.6V | 00:00:00 | 02:24:53 | 00:00:00 | |
| OE5DRO-10 | 2026-09-03 00:58:36 | 45.04266 | 9.33482 | 248° | 27km/h | 32826m | 4.9m/s | -41.5°C | 2.5% | 0hPa | 2.6V | 00:00:00 | 00:00:00 | 00:00:00 | |
| IW2NTF | 2026-09-03 00:58:28 | 45.04285 | 9.33560 | 167° | 18km/h | 32781m | 4.3m/s | -41.6°C | 2.5% | 0hPa | 2.6V | 08:30:00 | 02:24:42 | 00:00:00 | |
| DO3MHA-11 | 2026-09-03 00:58:28 | 45.04281 | 9.33560 | 184° | 26km/h | 32786m | 5.7m/s | -41.6°C | 2.5% | 0hPa | 2.6V | 00:00:00 | 02:24:43 | 00:00:00 | |
| DB0UT-7 | 2026-09-03 00:58:23 | 45.04301 | 9.33569 | 245° | 22km/h | 32763m | 5.1m/s | -41.7°C | 2.6% | 0hPa | 2.6V | 00:00:00 | 00:00:00 | 00:00:00 | |
| IW2NTF | 2026-09-03 00:58:22 | 45.04315 | 9.33632 | 244° | 18km/h | 32733m | 4.9m/s | -41.7°C | 2.5% | 0hPa | 2.6V | 08:30:00 | 02:24:32 | 00:00:00 | |
| OE3JTB-15 | 2026-09-03 00:58:21 | 45.04306 | 9.33591 | 256° | 22km/h | 32753m | 4.7m/s | -41.7°C | 2.6% | 0hPa | 2.6V | 00:00:00 | 02:24:36 | 00:00:00 | |
| DO3MHA-11 | 2026-09-03 00:58:18 | 45.04313 | 9.33625 | 251° | 18km/h | 32739m | 4.6m/s | -41.6°C | 2.6% | 0hPa | 2.6V | 00:00:00 | 02:24:33 | 00:00:00 | |
| OE5DRO-10 | 2026-09-03 00:58:17 | 45.04315 | 9.33632 | 245° | 20km/h | 32734m | 4.8m/s | -41.6°C | 2.5% | 0hPa | 2.6V | 00:00:00 | 00:00:00 | 00:00:00 | |
| IW2NTF | 2026-09-03 00:58:13 | 45.04340 | 9.33689 | 230° | 33km/h | 32684m | 4.5m/s | -41.5°C | 2.5% | 0hPa | 2.5V | 08:30:00 | 02:24:22 | 00:00:00 | |
| DO3MHA-11 | 2026-09-03 00:58:08 | 45.04335 | 9.33680 | 233° | 24km/h | 32690m | 5.6m/s | -41.5°C | 2.5% | 0hPa | 2.5V | 00:00:00 | 02:24:23 | 00:00:00 | |
| NBG1-10 | 2026-09-03 00:58:03 | 45.04348 | 9.33719 | 299° | 15km/h | 32666m | 6.4m/s | -41.5°C | 2.5% | 0hPa | 2.5V | 00:00:00 | 02:24:18 | 00:00:00 | |
| IW2NTF | 2026-09-03 00:58:02 | 45.04329 | 9.33733 | 173° | 7km/h | 32636m | 5.4m/s | -41.7°C | 2.5% | 0hPa | 2.5V | 08:30:00 | 02:24:12 | 00:00:00 | |
| OE5DRO-10 | 2026-09-03 00:57:58 | 45.04329 | 9.33733 | 10° | 13km/h | 32643m | 5.4m/s | -41.6°C | 2.5% | 0hPa | 2.6V | 00:00:00 | 00:00:00 | 00:00:00 | |
| DB0UT-7 | 2026-09-03 00:57:53 | 45.04347 | 9.33745 | 230° | 16km/h | 32618m | 5.0m/s | -41.9°C | 2.5% | 0hPa | 2.6V | 00:00:00 | 02:24:08 | 00:00:00 | |
| IW2NTF | 2026-09-03 00:57:52 | 45.04342 | 9.33780 | 346° | 9km/h | 32588m | 5.4m/s | -42.1°C | 2.6% | 0hPa | 2.6V | 08:30:00 | 02:24:02 | 00:00:00 | |
| OE3JTB-15 | 2026-09-03 00:57:52 | 45.04351 | 9.33752 | 250° | 16km/h | 32613m | 5.1m/s | -41.9°C | 2.6% | 0hPa | 2.6V | 00:00:00 | 00:00:00 | 00:00:00 | |
| DO3MHA-11 | 2026-09-03 00:57:48 | 45.04345 | 9.33778 | 327° | 9km/h | 32594m | 4.9m/s | -42.0°C | 2.6% | 0hPa | 2.5V | 00:00:00 | 02:24:03 | 00:00:00 | |
| IW2NTF | 2026-09-03 00:57:43 | 45.04334 | 9.33795 | 311° | 24km/h | 32538m | 4.1m/s | -42°C | 2.6% | 0hPa | 2.5V | 08:30:00 | 02:23:52 | 00:00:00 | |
| PG1ADW-2 | 2026-09-03 00:57:43 | 45.04343 | 9.33776 | 158° | 15km/h | 32568m | 4.3m/s | -42.0°C | 2.5% | 0hPa | 2.5V | 00:00:00 | 02:23:58 | 08:30:00 | |
| OE5DRO-10 | 2026-09-03 00:57:39 | 45.04342 | 9.33784 | 311° | 20km/h | 32548m | 5.5m/s | -41.9°C | 2.5% | 0hPa | 2.6V | 00:00:00 | 00:00:00 | 00:00:00 | |
| DO3MHA-11 | 2026-09-03 00:57:38 | 45.04338 | 9.33789 | 314° | 15km/h | 32543m | 4.7m/s | -41.9°C | 2.5% | 0hPa | 2.6V | 00:00:00 | 02:23:53 | 00:00:00 | |
| S52SK | 2026-09-03 00:57:35 | 45.04330 | 9.33802 | 308° | 22km/h | 32534m | 4.1m/s | -42.0°C | 0% | 0hPa | 2.6V | 00:00:00 | 00:00:00 | 00:00:00 | |
| IW2NTF | 2026-09-03 00:57:32 | 45.04316 | 9.33831 | 335° | 29km/h | 32487m | 5.4m/s | -42.2°C | 2.6% | 0hPa | 2.6V | 08:30:00 | 02:23:42 | 00:00:00 | |
| NBG1-10 | 2026-09-03 00:57:30 | 45.04328 | 9.33823 | 311° | 22km/h | 32505m | 4.6m/s | -42.1°C | 2.6% | 0hPa | 2.5V | 00:00:00 | 02:23:45 | 00:00:00 | |
| DO3MHA-11 | 2026-09-03 00:57:28 | 45.04322 | 9.33827 | 336° | 20km/h | 32494m | 6.0m/s | -42.1°C | 2.6% | 0hPa | 2.6V | 00:00:00 | 02:23:43 | 00:00:00 | |
| DB0UT-7 | 2026-09-03 00:57:23 | 45.04292 | 9.33851 | 311° | 26km/h | 32468m | 5.8m/s | -42.2°C | 2.6% | 0hPa | 2.6V | 00:00:00 | 00:00:00 | 00:00:00 | |
| IW2NTF | 2026-09-03 00:57:22 | 45.04283 | 9.33883 | 314° | 24km/h | 32437m | 5m/s | -42.2°C | 2.7% | 0hPa | 2.6V | 08:30:00 | 02:23:32 | 00:00:00 | |
| OE5DRO-10 | 2026-09-03 00:57:20 | 45.04289 | 9.33867 | 273° | 24km/h | 32453m | 4.4m/s | -42.2°C | 2.6% | 0hPa | 2.5V | 00:00:00 | 00:00:00 | 08:30:00 | |
| S52SK | 2026-09-03 00:57:19 | 45.04289 | 9.33867 | 274° | 15km/h | 32453m | 4.5m/s | -42.2°C | 0% | 0hPa | 2.5V | 00:00:00 | 00:00:00 | 00:00:00 | |
| DO3MHA-11 | 2026-09-03 00:57:18 | 45.04286 | 9.33877 | 302° | 26km/h | 32443m | 5.3m/s | -42.2°C | 2.6% | 0hPa | 2.5V | 00:00:00 | 02:23:33 | 00:00:00 | |
| S52SK | 2026-09-03 00:57:14 | 45.04273 | 9.33895 | 327° | 29km/h | 32428m | 4.9m/s | -42.2°C | 0% | 0hPa | 2.5V | 00:00:00 | 00:00:00 | 00:00:00 | |
| IW2NTF | 2026-09-03 00:57:12 | 45.04229 | 9.33940 | 315° | 27km/h | 32387m | 4m/s | -42.1°C | 2.7% | 0hPa | 2.5V | 08:30:00 | 02:23:22 | 00:00:00 | |
| DO3MHA-11 | 2026-09-03 00:57:08 | 45.04234 | 9.33934 | 320° | 24km/h | 32391m | 4.9m/s | -42.1°C | 2.7% | 0hPa | 2.5V | 00:00:00 | 02:23:23 | 00:00:00 | |
| IW2NTF | 2026-09-03 00:57:03 | 45.04186 | 9.33992 | 338° | 46km/h | 32337m | 4.8m/s | -41.8°C | 2.7% | 0hPa | 2.5V | 08:30:00 | 02:23:12 | 00:00:00 | |
| DO3MHA-11 | 2026-09-03 00:56:58 | 45.04196 | 9.33986 | 337° | 31km/h | 32343m | 6.2m/s | -41.8°C | 2.6% | 0hPa | 2.6V | 00:00:00 | 02:23:13 | 00:00:00 | |
| NBG1-10 | 2026-09-03 00:56:57 | 45.04186 | 9.33992 | 339° | 31km/h | 32337m | 4.7m/s | -41.8°C | 2.7% | 0hPa | 2.6V | 00:00:00 | 02:23:12 | 00:00:00 | |
| OE3JTB-15 | 2026-09-03 00:56:55 | 45.04158 | 9.34009 | 327° | 27km/h | 32326m | 4.8m/s | -41.7°C | 2.7% | 0hPa | 2.6V | 00:00:00 | 02:23:09 | 00:00:00 | |
| DB0UT-7 | 2026-09-03 00:56:53 | 45.04154 | 9.34015 | 308° | 29km/h | 32321m | 6.7m/s | -41.6°C | 2.6% | 0hPa | 2.6V | 00:00:00 | 02:23:08 | 00:00:00 | |
| IW2NTF | 2026-09-03 00:56:49 | 45.04163 | 9.34054 | 293° | 26km/h | 32289m | 5.2m/s | -41.4°C | 2.6% | 0hPa | 2.6V | 08:30:00 | 02:23:02 | 00:00:00 | |
| DO3MHA-11 | 2026-09-03 00:56:48 | 45.04164 | 9.34046 | 264° | 31km/h | 32294m | 4.1m/s | -41.4°C | 2.6% | 0hPa | 2.5V | 00:00:00 | 02:23:03 | 00:00:00 | |
| IW2NTF | 2026-09-03 00:56:43 | 45.04113 | 9.34123 | 244° | 42km/h | 32233m | 6.7m/s | -41°C | 2.5% | 0hPa | 2.5V | 08:30:00 | 02:22:52 | 00:00:00 | |
| DO3MHA-11 | 2026-09-03 00:56:38 | 45.04110 | 9.34110 | 252° | 31km/h | 32241m | 7.5m/s | -41.0°C | 2.5% | 0hPa | 2.6V | 00:00:00 | 02:22:53 | 00:00:00 | |
| IW2NTF | 2026-09-03 00:56:32 | 45.04100 | 9.34192 | 323° | 31km/h | 32182m | 4.1m/s | -40.7°C | 2.5% | 0hPa | 2.6V | 08:30:00 | 02:22:42 | 00:00:00 | |
| DO3MHA-11 | 2026-09-03 00:56:28 | 45.04106 | 9.34187 | 341° | 35km/h | 32187m | 3.8m/s | -40.7°C | 2.5% | 0hPa | 2.6V | 00:00:00 | 02:22:43 | 08:30:00 | |
| OE3JTB-15 | 2026-09-03 00:56:25 | 45.04089 | 9.34213 | 294° | 31km/h | 32173m | 5.6m/s | -40.6°C | 2.5% | 0hPa | 2.5V | 00:00:00 | 00:00:00 | 00:00:00 | |
| NBG1-10 | 2026-09-03 00:56:24 | 45.04086 | 9.34228 | 281° | 29km/h | 32167m | 4.8m/s | -40.6°C | 2.5% | 0hPa | 2.6V | 00:00:00 | 02:22:39 | 00:00:00 | |
| DB0UT-7 | 2026-09-03 00:56:23 | 45.04085 | 9.34244 | 270° | 29km/h | 32163m | 4.1m/s | -40.6°C | 2.5% | 0hPa | 2.6V | 00:00:00 | 00:00:00 | 00:00:00 | |
| IW2NTF | 2026-09-03 00:56:22 | 45.04100 | 9.34288 | 65° | 2km/h | 32132m | 3.5m/s | -40.5°C | 2.4% | 0hPa | 2.6V | 08:30:00 | 02:22:32 | 00:00:00 | |
| DO3MHA-11 | 2026-09-03 00:56:18 | 45.04099 | 9.34289 | 180° | 33km/h | 32136m | 4.3m/s | -40.5°C | 2.4% | 0hPa | 2.5V | 00:00:00 | 02:22:33 | 00:00:00 | |
| IW2NTF | 2026-09-03 00:56:13 | 45.04087 | 9.34398 | 209° | 24km/h | 32083m | 7.2m/s | -40.6°C | 2.5% | 0hPa | 2.5V | 08:30:00 | 02:22:22 | 00:00:00 | |
| DO3MHA-11 | 2026-09-03 00:56:05 | 45.04097 | 9.34397 | 154° | 26km/h | 32070m | 5.3m/s | -40.5°C | 2.5% | 0hPa | 2.5V | 00:00:00 | 02:22:20 | 00:00:00 | |
| PG1ADW-2 | 2026-09-03 00:56:03 | 45.04105 | 9.34392 | 168° | 24km/h | 32062m | 4.0m/s | -40.4°C | 2.5% | 0hPa | 2.5V | 00:00:00 | 00:00:00 | 00:00:00 | |
| IW2NTF | 2026-09-03 00:55:59 | 45.04106 | 9.34447 | 276° | 37km/h | 32029m | 5m/s | -40.3°C | 2.4% | 0hPa | 2.5V | 08:30:00 | 02:22:12 | 00:00:00 | |
| OE3JTB-15 | 2026-09-03 00:55:56 | 45.04105 | 9.34459 | 273° | 18km/h | 32024m | 4.9m/s | -40.2°C | 2.4% | 0hPa | 2.5V | 00:00:00 | 00:00:00 | 00:00:00 | |
| DO3MHA-11 | 2026-09-03 00:55:55 | 45.04105 | 9.34468 | 263° | 20km/h | 32019m | 5.4m/s | -40.2°C | 2.4% | 0hPa | 2.5V | 00:00:00 | 02:22:10 | 00:00:00 | |
| DB0UT-7 | 2026-09-03 00:55:53 | 45.04109 | 9.34479 | 220° | 20km/h | 32007m | 5.6m/s | -40.1°C | 2.4% | 0hPa | 2.6V | 00:00:00 | 02:22:08 | 00:00:00 | |
| IW2NTF | 2026-09-03 00:55:52 | 45.04126 | 9.34512 | 258° | 27km/h | 31975m | 5m/s | -40.1°C | 2.4% | 0hPa | 2.6V | 08:30:00 | 02:22:02 | 00:00:00 | |
| NBG1-10 | 2026-09-03 00:55:51 | 45.04115 | 9.34485 | 212° | 22km/h | 31997m | 5.0m/s | -40.1°C | 2.4% | 0hPa | 2.5V | 00:00:00 | 02:22:06 | 08:30:00 | |
| DO3MHA-11 | 2026-09-03 00:55:44 | 45.04127 | 9.34537 | 277° | 18km/h | 31958m | 6.2m/s | -40.0°C | 2.4% | 0hPa | 2.6V | 00:00:00 | 02:21:59 | 00:00:00 | |
| IW2NTF | 2026-09-03 00:55:43 | 45.04126 | 9.34573 | 262° | 27km/h | 31918m | 5.6m/s | -40°C | 2.4% | 0hPa | 2.6V | 08:30:00 | 02:21:52 | 00:00:00 | |
| DO3MHA-11 | 2026-09-03 00:55:34 | 45.04127 | 9.34603 | 275° | 18km/h | 31903m | 5.7m/s | -39.9°C | 2.4% | 0hPa | 2.5V | 00:00:00 | 02:21:49 | 00:00:00 | |
| IW2NTF | 2026-09-03 00:55:33 | 45.04131 | 9.34630 | 210° | 22km/h | 31862m | 6.4m/s | -39.8°C | 2.4% | 0hPa | 2.5V | 08:30:00 | 02:21:42 | 00:00:00 | |
| OE3JTB-15 | 2026-09-03 00:55:27 | 45.04131 | 9.34630 | 211° | 22km/h | 31863m | 6.3m/s | -39.8°C | 2.4% | 0hPa | 2.6V | 00:00:00 | 02:21:42 | 00:00:00 | |
| DO3MHA-11 | 2026-09-03 00:55:24 | 45.04147 | 9.34647 | 223° | 16km/h | 31847m | 5.8m/s | -39.8°C | 2.3% | 0hPa | 2.6V | 00:00:00 | 02:21:39 | 00:00:00 | |
| DB0UT-7 | 2026-09-03 00:55:23 | 45.04151 | 9.34653 | 230° | 20km/h | 31841m | 6.5m/s | -39.8°C | 2.3% | 0hPa | 2.6V | 00:00:00 | 00:00:00 | 00:00:00 | |
| IW2NTF | 2026-09-03 00:55:22 | 45.04160 | 9.34679 | 226° | 16km/h | 31805m | 5.7m/s | -40°C | 2.3% | 0hPa | 2.6V | 08:30:00 | 02:21:32 | 00:00:00 | |
| PG1ADW-2 | 2026-09-03 00:55:22 | 45.04154 | 9.34658 | 241° | 20km/h | 31834m | 6.4m/s | -39.8°C | 2.3% | 0hPa | 2.6V | 00:00:00 | 00:00:00 | 00:00:00 | |
| NBG1-10 | 2026-09-03 00:55:17 | 45.04159 | 9.34679 | 227° | 22km/h | 31805m | 5.7m/s | -40.0°C | 2.3% | 0hPa | 2.6V | 00:00:00 | 02:21:32 | 00:00:00 | |
| DO3MHA-11 | 2026-09-03 00:55:14 | 45.04173 | 9.34690 | 203° | 24km/h | 31789m | 5.6m/s | -40.1°C | 2.4% | 0hPa | 2.6V | 00:00:00 | 02:21:29 | 00:00:00 | |
| IW2NTF | 2026-09-03 00:55:12 | 45.04211 | 9.34704 | 196° | 27km/h | 31746m | 5.4m/s | -40.2°C | 2.4% | 0hPa | 2.6V | 08:30:00 | 02:21:22 | 00:00:00 | |
| DO3MHA-11 | 2026-09-03 00:55:04 | 45.04230 | 9.34708 | 178° | 22km/h | 31730m | 6.7m/s | -40.2°C | 2.4% | 0hPa | 2.5V | 00:00:00 | 02:21:19 | 00:00:00 | |
| IW2NTF | 2026-09-03 00:55:03 | 45.04269 | 9.34702 | 193° | 27km/h | 31690m | 5.3m/s | -40.3°C | 2.4% | 0hPa | 2.5V | 08:30:00 | 02:21:12 | 00:00:00 | |
| PG1ADW-2 | 2026-09-03 00:55:02 | 45.04240 | 9.34705 | 159° | 26km/h | 31718m | 5.0m/s | -40.2°C | 2.4% | 0hPa | 2.5V | 00:00:00 | 02:21:17 | 00:00:00 | |
| OE3JTB-15 | 2026-09-03 00:54:58 | 45.04262 | 9.34700 | 188° | 22km/h | 31696m | 5.7m/s | -40.3°C | 2.4% | 0hPa | 2.5V | 00:00:00 | 00:00:00 | 08:30:00 | |
| DO3MHA-11 | 2026-09-03 00:54:54 | 45.04284 | 9.34707 | 179° | 26km/h | 31674m | 6.4m/s | -40.3°C | 2.4% | 0hPa | 2.5V | 00:00:00 | 02:21:09 | 08:30:00 | |
| DB0UT-7 | 2026-09-03 00:54:53 | 45.04288 | 9.34706 | 152° | 18km/h | 31667m | 5.9m/s | -40.3°C | 2.4% | 0hPa | 2.5V | 00:00:00 | 02:21:08 | 00:00:00 | |
| IW2NTF | 2026-09-03 00:54:53 | 45.04321 | 9.34669 | 148° | 37km/h | 31632m | 4.6m/s | -40.3°C | 2.4% | 0hPa | 2.5V | 08:30:00 | 02:21:02 | 00:00:00 | |
| OE5DRO-10 | 2026-09-03 00:54:52 | 45.04291 | 9.34702 | 136° | 22km/h | 31661m | 5.6m/s | -40.3°C | 2.4% | 0hPa | 2.5V | 00:00:00 | 00:00:00 | 00:00:00 | |
| DO3MHA-11 | 2026-09-03 00:54:44 | 45.04338 | 9.34653 | 141° | 15km/h | 31615m | 6.3m/s | -40.2°C | 2.4% | 0hPa | 2.5V | 00:00:00 | 02:20:59 | 00:00:00 | |
| IW2NTF | 2026-09-03 00:54:42 | 45.04358 | 9.34643 | 158° | 22km/h | 31575m | 5.2m/s | -40°C | 2.4% | 0hPa | 2.5V | 08:30:00 | 02:20:52 | 00:00:00 | |
| PG1ADW-2 | 2026-09-03 00:54:42 | 45.04342 | 9.34648 | 140° | 15km/h | 31604m | 5.0m/s | -40.1°C | 2.4% | 0hPa | 2.5V | 00:00:00 | 00:00:00 | 08:30:00 | |
| DO3MHA-11 | 2026-09-03 00:54:34 | 45.04370 | 9.34627 | 114° | 15km/h | 31557m | 6.2m/s | -39.9°C | 2.4% | 0hPa | 2.5V | 00:00:00 | 02:20:49 | 00:00:00 | |
| IW2NTF | 2026-09-03 00:54:33 | 45.04383 | 9.34591 | 170° | 9km/h | 31518m | 4.9m/s | -40°C | 2.4% | 0hPa | 2.5V | 08:30:00 | 02:20:42 | 00:00:00 | |
| OE3JTB-15 | 2026-09-03 00:54:29 | 45.04378 | 9.34595 | 140° | 15km/h | 31529m | 5.7m/s | -40.0°C | 2.4% | 0hPa | 2.6V | 00:00:00 | 00:00:00 | 00:00:00 | |
| DO3MHA-11 | 2026-09-03 00:54:24 | 45.04386 | 9.34588 | 72° | 16km/h | 31500m | 6.2m/s | -40.0°C | 2.3% | 0hPa | 2.6V | 00:00:00 | 02:20:39 | 00:00:00 | |
| IW2NTF | 2026-09-03 00:54:23 | 45.04393 | 9.34553 | 117° | 18km/h | 31461m | 4.6m/s | -40.2°C | 2.3% | 0hPa | 2.6V | 08:30:00 | 02:20:32 | 00:00:00 | |
| PG1ADW-2 | 2026-09-03 00:54:22 | 45.04388 | 9.34565 | 123° | 16km/h | 31472m | 5.6m/s | 0°C | 0% | 0hPa | 2.6V | 00:00:00 | 00:00:00 | 00:00:00 | |
| DO3MHA-11 | 2026-09-03 00:54:14 | 45.04393 | 9.34536 | 60° | 15km/h | 31444m | 5.9m/s | -40.3°C | 2.3% | 0hPa | 2.6V | 00:00:00 | 02:20:29 | 00:00:00 | |
| IW2NTF | 2026-09-03 00:54:13 | 45.04384 | 9.34506 | 89° | 15km/h | 31405m | 4.9m/s | -41°C | 2.4% | 0hPa | 2.6V | 08:30:00 | 02:20:22 | 00:00:00 | |
| DO3MHA-11 | 2026-09-03 00:54:04 | 45.04379 | 9.34490 | 47° | 15km/h | 31387m | 5.7m/s | -41.0°C | 2.5% | 0hPa | 2.6V | 00:00:00 | 02:20:19 | 00:00:00 | |
| IW2NTF | 2026-09-03 00:54:02 | 45.04357 | 9.34472 | 1° | 11km/h | 31347m | 6.4m/s | -41.4°C | 2.5% | 0hPa | 2.6V | 08:30:00 | 02:20:12 | 00:00:00 | |
| PG1ADW-2 | 2026-09-03 00:54:02 | 45.04371 | 9.34480 | 37° | 18km/h | 31377m | 5.6m/s | 0°C | 0% | 0hPa | 2.6V | 00:00:00 | 00:00:00 | 00:00:00 | |
| NBG1-10 | 2026-09-03 00:54:01 | 45.04367 | 9.34477 | 35° | 18km/h | 31371m | 6.2m/s | -41.0°C | 2.5% | 0hPa | 2.6V | 00:00:00 | 02:20:16 | 00:00:00 | |
| OE3JTB-15 | 2026-09-03 00:53:57 | 45.04357 | 9.34472 | 2° | 11km/h | 31348m | 6.3m/s | -41.4°C | 2.5% | 0hPa | 2.5V | 00:00:00 | 02:20:12 | 00:00:00 | |
| OE5DRO-10 | 2026-09-03 00:53:55 | 45.04350 | 9.34471 | 15° | 20km/h | 31336m | 5.2m/s | -41.5°C | 2.6% | 0hPa | 2.5V | 00:00:00 | 00:00:00 | 00:00:00 | |
| DO3MHA-11 | 2026-09-03 00:53:54 | 45.04347 | 9.34469 | 27° | 22km/h | 31331m | 5.2m/s | -41.6°C | 2.6% | 0hPa | 2.5V | 00:00:00 | 02:20:09 | 00:00:00 | |
| DB0UT-7 | 2026-09-03 00:53:53 | 45.04344 | 9.34466 | 43° | 18km/h | 31325m | 6.2m/s | -41.7°C | 2.6% | 0hPa | 2.5V | 00:00:00 | 02:20:08 | 00:00:00 | |
| IW2NTF | 2026-09-03 00:53:52 | 45.04321 | 9.34444 | 3° | 29km/h | 31291m | 6.6m/s | -41.6°C | 2.6% | 0hPa | 2.5V | 08:30:00 | 02:20:02 | 00:00:00 | |
| DO3MHA-11 | 2026-09-03 00:53:44 | 45.04297 | 9.34449 | 344° | 20km/h | 31275m | 4.8m/s | -41.4°C | 2.5% | 0hPa | 2.6V | 00:00:00 | 02:19:59 | 00:00:00 | |
| PG1ADW-2 | 2026-09-03 00:53:42 | 45.04286 | 9.34452 | 352° | 16km/h | 31263m | 6.0m/s | 0°C | 0% | 0hPa | 2.6V | 00:00:00 | 02:19:57 | 00:00:00 | |
| OE5DRO-10 | 2026-09-03 00:53:36 | 45.04265 | 9.34434 | 25° | 16km/h | 31230m | 5.8m/s | -41.4°C | 2.5% | 0hPa | 2.6V | 00:00:00 | 00:00:00 | 00:00:00 | |
| DO3MHA-11 | 2026-09-03 00:53:34 | 45.04251 | 9.34427 | 13° | 15km/h | 31220m | 4.2m/s | -41.4°C | 2.5% | 0hPa | 2.6V | 00:00:00 | 02:19:49 | 00:00:00 | |
| IW2NTF | 2026-09-03 00:53:30 | 45.04235 | 9.34427 | 280° | 7km/h | 31197m | 5.4m/s | -41.4°C | 2.6% | 0hPa | 2.6V | 08:30:00 | 02:19:45 | 00:00:00 | |
| NBG1-10 | 2026-09-03 00:53:29 | 45.04235 | 9.34433 | 280° | 11km/h | 31187m | 5.0m/s | -41.5°C | 2.6% | 0hPa | 2.6V | 00:00:00 | 02:19:43 | 00:00:00 | |
| DB0UT-7 | 2026-09-03 00:53:23 | 45.04218 | 9.34438 | 14° | 11km/h | 31160m | 4.9m/s | -41.4°C | 2.6% | 0hPa | 2.6V | 00:00:00 | 00:00:00 | 00:00:00 | |
| PG1ADW-2 | 2026-09-03 00:53:22 | 45.04213 | 9.34436 | 26° | 9km/h | 31154m | 5.9m/s | 0°C | 0% | 0hPa | 2.6V | 00:00:00 | 00:00:00 | 00:00:00 | |
| IW2NTF | 2026-09-03 00:53:20 | 45.04208 | 9.34427 | 94° | 9km/h | 31137m | 5m/s | -41.4°C | 2.6% | 0hPa | 2.6V | 08:30:00 | 02:19:34 | 00:00:00 | |
| OE5DRO-10 | 2026-09-03 00:53:17 | 45.04209 | 9.34422 | 93° | 9km/h | 31126m | 6.1m/s | -41.3°C | 2.6% | 0hPa | 2.6V | 00:00:00 | 00:00:00 | 00:00:00 | |
| IW2NTF | 2026-09-03 00:53:14 | 45.04200 | 9.34427 | 344° | 11km/h | 31081m | 5.9m/s | -41.1°C | 2.5% | 0hPa | 2.5V | 08:30:00 | 02:19:24 | 00:00:00 | |
| DO3MHA-11 | 2026-09-03 00:53:13 | 45.04206 | 9.34423 | 323° | 9km/h | 31103m | 5.9m/s | -41.2°C | 2.6% | 0hPa | 2.6V | 00:00:00 | 02:19:28 | 00:00:00 | |
| IW2NTF | 2026-09-03 00:53:03 | 45.04191 | 9.34458 | 317° | 18km/h | 31015m | 5m/s | -41°C | 2.5% | 0hPa | 2.6V | 08:30:00 | 02:19:12 | 00:00:00 | |
| DO3MHA-11 | 2026-09-03 00:53:03 | 45.04187 | 9.34436 | 224° | 13km/h | 31048m | 5.9m/s | -41.0°C | 2.5% | 0hPa | 2.6V | 00:00:00 | 02:19:18 | 00:00:00 | |
| PG1ADW-2 | 2026-09-03 00:53:02 | 45.04194 | 9.34449 | 271° | 11km/h | 31027m | 6.3m/s | 0°C | 0% | 0hPa | 2.6V | 00:00:00 | 00:00:00 | 00:00:00 | |
| OE5DRO-10 | 2026-09-03 00:52:58 | 45.04193 | 9.34453 | 301° | 13km/h | 31021m | 5.8m/s | -40.9°C | 2.5% | 0hPa | 2.6V | 00:00:00 | 00:00:00 | 00:00:00 | |
| OE3JTB-15 | 2026-09-03 00:52:57 | 45.04191 | 9.34458 | 318° | 13km/h | 31016m | 4.9m/s | -40.9°C | 2.5% | 0hPa | 2.6V | 00:00:00 | 00:00:00 | 00:00:00 | |
| NBG1-10 | 2026-09-03 00:52:55 | 45.04183 | 9.34466 | 329° | 13km/h | 31005m | 5.1m/s | -40.9°C | 2.5% | 0hPa | 2.6V | 00:00:00 | 02:19:10 | 00:00:00 | |
| DB0UT-7 | 2026-09-03 00:52:53 | 45.04179 | 9.34470 | 311° | 13km/h | 30994m | 5.8m/s | -41.0°C | 2.5% | 0hPa | 2.6V | 00:00:00 | 02:19:08 | 00:00:00 | |
| IW2NTF | 2026-09-03 00:52:52 | 45.04181 | 9.34488 | 291° | 16km/h | 30950m | 4.9m/s | -41.1°C | 2.5% | 0hPa | 2.5V | 08:30:00 | 02:19:00 | 00:00:00 | |
| DO3MHA-11 | 2026-09-03 00:52:43 | 45.04180 | 9.34499 | 267° | 15km/h | 30940m | 6.0m/s | -41.1°C | 2.5% | 0hPa | 2.6V | 00:00:00 | 02:18:58 | 00:00:00 | |
| OE5DRO-10 | 2026-09-03 00:52:39 | 45.04186 | 9.34518 | 242° | 15km/h | 30917m | 6.0m/s | 0°C | 0% | 0hPa | 2.6V | 00:00:00 | 00:00:00 | 00:00:00 | |
| IW2NTF | 2026-09-03 00:52:34 | 45.04200 | 9.34541 | 222° | 15km/h | 30884m | 4.5m/s | -41.4°C | 2.6% | 0hPa | 2.6V | 08:30:00 | 02:18:48 | 00:00:00 | |
| DO3MHA-11 | 2026-09-03 00:52:33 | 45.04200 | 9.34541 | 223° | 15km/h | 30885m | 4.4m/s | -41.3°C | 2.6% | 0hPa | 2.6V | 00:00:00 | 02:18:48 | 00:00:00 | |
| OE3JTB-15 | 2026-09-03 00:52:28 | 45.04202 | 9.34565 | 271° | 16km/h | 30859m | 4.2m/s | -41.3°C | 2.5% | 0hPa | 2.6V | 00:00:00 | 00:00:00 | 00:00:00 | |
| IW2NTF | 2026-09-03 00:52:24 | 45.04217 | 9.34578 | 182° | 18km/h | 30831m | 5.2m/s | -41.3°C | 2.5% | 0hPa | 2.6V | 08:30:00 | 02:18:38 | 00:00:00 | |
| DB0UT-7 | 2026-09-03 00:52:23 | 45.04217 | 9.34578 | 183° | 20km/h | 30831m | 5.1m/s | -41.2°C | 2.5% | 0hPa | 2.6V | 00:00:00 | 00:00:00 | 00:00:00 | |
| DO3MHA-11 | 2026-09-03 00:52:22 | 45.04221 | 9.34578 | 183° | 11km/h | 30826m | 6.0m/s | -41.2°C | 2.5% | 0hPa | 2.6V | 00:00:00 | 02:18:37 | 00:00:00 | |
| OE5DRO-10 | 2026-09-03 00:52:20 | 45.04226 | 9.34579 | 201° | 16km/h | 30814m | 5.0m/s | -41.2°C | 2.5% | 0hPa | 2.5V | 00:00:00 | 00:00:00 | 08:30:00 | |
| IW2NTF | 2026-09-03 00:52:15 | 45.04264 | 9.34617 | 200° | 24km/h | 30749m | 5.7m/s | -41.3°C | 2.5% | 0hPa | 2.6V | 08:30:00 | 02:18:23 | 00:00:00 | |
| DO3MHA-11 | 2026-09-03 00:52:12 | 45.04247 | 9.34598 | 229° | 16km/h | 30771m | 5.6m/s | -41.2°C | 2.5% | 0hPa | 2.6V | 00:00:00 | 02:18:27 | 00:00:00 | |
| IW2NTF | 2026-09-03 00:52:02 | 45.04317 | 9.34654 | 188° | 31km/h | 30690m | 4.9m/s | -41.2°C | 2.5% | 0hPa | 2.6V | 08:30:00 | 02:18:12 | 00:00:00 | |
| OE5DRO-10 | 2026-09-03 00:52:01 | 45.04294 | 9.34641 | 227° | 24km/h | 30713m | 4.3m/s | -41.3°C | 2.5% | 0hPa | 2.6V | 00:00:00 | 00:00:00 | 00:00:00 | |
| OE3JTB-15 | 2026-09-03 00:51:59 | 45.04303 | 9.34649 | 203° | 24km/h | 30702m | 6.2m/s | 0°C | 0% | 0hPa | 2.6V | 00:00:00 | 02:18:14 | 00:00:00 | |
| DB0UT-7 | 2026-09-03 00:51:53 | 45.04345 | 9.34662 | 196° | 22km/h | 30668m | 5.1m/s | -41.1°C | 2.5% | 0hPa | 2.6V | 00:00:00 | 02:18:08 | 00:00:00 | |
| IW2NTF | 2026-09-03 00:51:49 | 45.04392 | 9.34704 | 214° | 22km/h | 30614m | 5.3m/s | -41.4°C | 2.5% | 0hPa | 2.6V | 08:30:00 | 02:17:58 | 00:00:00 | |
| S52SK | 2026-09-03 00:51:44 | 45.04385 | 9.34693 | 236° | 20km/h | 30623m | 4.6m/s | -41.4°C | 0% | 0hPa | 2.6V | 00:00:00 | 00:00:00 | 00:00:00 | |
| OE5DRO-10 | 2026-09-03 00:51:42 | 45.04397 | 9.34707 | 200° | 20km/h | 30608m | 6.5m/s | -41.3°C | 2.5% | 0hPa | 2.6V | 00:00:00 | 00:00:00 | 00:00:00 | |
| IW2NTF | 2026-09-03 00:51:39 | 45.04443 | 9.34719 | 218° | 18km/h | 30557m | 6.1m/s | -41.6°C | 2.6% | 0hPa | 2.6V | 08:30:00 | 02:17:48 | 00:00:00 | |
| S52SK | 2026-09-03 00:51:32 | 45.04442 | 9.34719 | 219° | 18km/h | 30558m | 6.1m/s | -41.6°C | 0% | 0hPa | 2.6V | 00:00:00 | 00:00:00 | 00:00:00 | |
| IW2NTF | 2026-09-03 00:51:29 | 45.04490 | 9.34723 | 164° | 27km/h | 30501m | 4.3m/s | -41.8°C | 2.5% | 0hPa | 2.6V | 08:30:00 | 02:17:38 | 00:00:00 | |
| S52SK | 2026-09-03 00:51:26 | 45.04467 | 9.34732 | 175° | 16km/h | 30525m | 5.1m/s | -41.7°C | 0% | 0hPa | 2.6V | 00:00:00 | 00:00:00 | 00:00:00 | |
| DB0UT-7 | 2026-09-03 00:51:23 | 45.04490 | 9.34723 | 165° | 18km/h | 30502m | 4.2m/s | -41.7°C | 2.5% | 0hPa | 2.6V | 00:00:00 | 00:00:00 | 00:00:00 | |
| NBG1-10 | 2026-09-03 00:51:15 | 45.04522 | 9.34738 | 195° | 18km/h | 30458m | 5.7m/s | -41.9°C | 2.6% | 0hPa | 2.5V | 00:00:00 | 02:17:30 | 00:00:00 | |
| IW2NTF | 2026-09-03 00:51:14 | 45.04551 | 9.34733 | 151° | 26km/h | 30437m | 5.5m/s | -41.9°C | 2.5% | 0hPa | 2.5V | 08:30:00 | 02:17:26 | 00:00:00 | |
| OE5DRO-10 | 2026-09-03 00:51:04 | 45.04569 | 9.34721 | 178° | 16km/h | 30400m | 5.4m/s | -42.0°C | 2.6% | 0hPa | 2.5V | 00:00:00 | 00:00:00 | 00:00:00 | |
| IW2NTF | 2026-09-03 00:51:03 | 45.04586 | 9.34715 | 157° | 26km/h | 30382m | 5.7m/s | -42.2°C | 2.6% | 0hPa | 2.5V | 08:30:00 | 02:17:16 | 00:00:00 | |
| IW2NTF | 2026-09-03 00:50:57 | 45.04617 | 9.34685 | 94° | 16km/h | 30327m | 5.3m/s | -42.4°C | 2.6% | 0hPa | 2.5V | 08:30:00 | 02:17:06 | 00:00:00 | |
| DB0UT-7 | 2026-09-03 00:50:53 | 45.04615 | 9.34695 | 123° | 24km/h | 30339m | 5.9m/s | -42.3°C | 2.7% | 0hPa | 2.5V | 00:00:00 | 02:17:08 | 00:00:00 | |
| OE5DRO-10 | 2026-09-03 00:50:45 | 45.04625 | 9.34675 | 192° | 29km/h | 30297m | 5.4m/s | -42.3°C | 2.6% | 0hPa | 2.5V | 00:00:00 | 00:00:00 | 00:00:00 | |
| IW2NTF | 2026-09-03 00:50:42 | 45.04654 | 9.34662 | 132° | 35km/h | 30275m | 5.3m/s | -42.3°C | 2.6% | 0hPa | 2.5V | 08:30:00 | 02:16:56 | 00:00:00 | |
| NBG1-10 | 2026-09-03 00:50:42 | 45.04647 | 9.34670 | 150° | 27km/h | 30280m | 5.4m/s | -42.3°C | 2.6% | 0hPa | 2.6V | 00:00:00 | 02:16:57 | 08:30:00 | |
| IW2NTF | 2026-09-03 00:50:32 | 45.04691 | 9.34615 | 156° | 44km/h | 30214m | 5m/s | -42.6°C | 2.7% | 0hPa | 2.5V | 08:30:00 | 02:16:45 | 00:00:00 | |
| OE5DRO-10 | 2026-09-03 00:50:26 | 45.04717 | 9.34579 | 110° | 24km/h | 30193m | 5.7m/s | -42.6°C | 2.7% | 0hPa | 2.5V | 00:00:00 | 00:00:00 | 00:00:00 | |
| IW2NTF | 2026-09-03 00:50:21 | 45.04724 | 9.34539 | 119° | 20km/h | 30159m | 5.9m/s | -42.6°C | 2.6% | 0hPa | 2.5V | 08:30:00 | 02:16:35 | 00:00:00 | |
| DB0UT-7 | 2026-09-03 00:50:20 | 45.04724 | 9.34539 | 120° | 22km/h | 30159m | 5.9m/s | -42.6°C | 2.6% | 0hPa | 2.5V | 00:00:00 | 00:00:00 | 00:00:00 | |
| IW2NTF | 2026-09-03 00:50:12 | 45.04774 | 9.34496 | 114° | 26km/h | 30102m | 6m/s | -42.8°C | 2.7% | 0hPa | 2.5V | 08:30:00 | 02:16:25 | 00:00:00 | |
| NBG1-10 | 2026-09-03 00:50:07 | 45.04781 | 9.34471 | 117° | 18km/h | 30086m | 5.8m/s | -42.9°C | 2.7% | 0hPa | 2.5V | 00:00:00 | 02:16:22 | 00:00:00 | |
| IW2NTF | 2026-09-03 00:50:02 | 45.04819 | 9.34445 | 156° | 26km/h | 30047m | 4.5m/s | -43°C | 2.7% | 0hPa | 2.5V | 08:30:00 | 02:16:15 | 00:00:00 | |
| IW2NTF | 2026-09-03 00:49:52 | 45.04824 | 9.34408 | 100° | 13km/h | 29994m | 4.8m/s | -43.2°C | 2.7% | 0hPa | 2.5V | 08:30:00 | 02:16:05 | 00:00:00 | |
| DB0UT-7 | 2026-09-03 00:49:50 | 45.04824 | 9.34408 | 101° | 13km/h | 29994m | 4.8m/s | -43.2°C | 2.7% | 0hPa | 2.5V | 00:00:00 | 02:16:05 | 08:30:00 | |
| IW2NTF | 2026-09-03 00:49:44 | 45.04853 | 9.34388 | 35° | 20km/h | 29939m | 6.4m/s | -43.2°C | 2.8% | 0hPa | 2.5V | 08:30:00 | 02:15:55 | 00:00:00 | |
| NBG1-10 | 2026-09-03 00:49:34 | 45.04829 | 9.34374 | 102° | 11km/h | 29908m | 5.8m/s | -43.0°C | 2.8% | 0hPa | 2.5V | 00:00:00 | 02:15:49 | 00:00:00 | |
| IW2NTF | 2026-09-03 00:49:33 | 45.04838 | 9.34372 | 199° | 11km/h | 29884m | 5.4m/s | -42.9°C | 2.7% | 0hPa | 2.5V | 08:30:00 | 02:15:45 | 00:00:00 | |
| OE5DRO-10 | 2026-09-03 00:49:23 | 45.04840 | 9.34362 | 35° | 13km/h | 29847m | 6.0m/s | -42.7°C | 2.6% | 0hPa | 2.5V | 00:00:00 | 00:00:00 | 00:00:00 | |
| IW2NTF | 2026-09-03 00:49:22 | 45.04837 | 9.34364 | 240° | 7km/h | 29831m | 4.4m/s | -42.8°C | 2.6% | 0hPa | 2.5V | 08:30:00 | 02:15:35 | 00:00:00 | |
| S52SK | 2026-09-03 00:49:22 | 45.04838 | 9.34361 | 359° | 7km/h | 29841m | 5.7m/s | -42.8°C | 0% | 0hPa | 2.5V | 00:00:00 | 00:00:00 | 00:00:00 | |
| DB0UT-7 | 2026-09-03 00:49:20 | 45.04837 | 9.34364 | 241° | 13km/h | 29832m | 4.3m/s | -42.7°C | 2.6% | 0hPa | 2.5V | 00:00:00 | 00:00:00 | 00:00:00 | |
| S52SK | 2026-09-03 00:49:16 | 45.04846 | 9.34365 | 169° | 20km/h | 29815m | 5.7m/s | -42.8°C | 0% | 0hPa | 2.5V | 00:00:00 | 00:00:00 | 00:00:00 | |
| IW2NTF | 2026-09-03 00:49:11 | 45.04858 | 9.34359 | 352° | 9km/h | 29779m | 4.8m/s | -43°C | 2.6% | 0hPa | 2.5V | 08:30:00 | 02:15:25 | 00:00:00 | |
| IW2NTF | 2026-09-03 00:49:02 | 45.04884 | 9.34363 | 193° | 18km/h | 29728m | 4.6m/s | -43.3°C | 2.7% | 0hPa | 2.5V | 08:30:00 | 02:15:15 | 00:00:00 | |
| OE5DRO-10 | 2026-09-03 00:49:01 | 45.04879 | 9.34361 | 202° | 7km/h | 29733m | 4.0m/s | -43.2°C | 2.6% | 0hPa | 2.5V | 00:00:00 | 00:00:00 | 08:30:00 | |
| IW2NTF | 2026-09-03 00:48:52 | 45.04905 | 9.34374 | 229° | 16km/h | 29678m | 4.5m/s | -43.6°C | 2.7% | 0hPa | 2.5V | 08:30:00 | 02:15:05 | 00:00:00 | |
| DB0UT-7 | 2026-09-03 00:48:50 | 45.04905 | 9.34374 | 230° | 7km/h | 29678m | 4.5m/s | -43.6°C | 2.7% | 0hPa | 2.6V | 00:00:00 | 02:15:05 | 00:00:00 | |
| IW2NTF | 2026-09-03 00:48:41 | 45.04923 | 9.34357 | 171° | 2km/h | 29628m | 4.7m/s | -44.2°C | 2.8% | 0hPa | 2.6V | 08:30:00 | 02:14:55 | 00:00:00 | |
| IW2NTF | 2026-09-03 00:48:31 | 45.04926 | 9.34350 | 56° | 5km/h | 29577m | 5.4m/s | -44.7°C | 2.8% | 0hPa | 2.6V | 08:30:00 | 02:14:45 | 00:00:00 | |
| NBG1-10 | 2026-09-03 00:48:28 | 45.04925 | 9.34342 | 86° | 9km/h | 29567m | 4.8m/s | -44.7°C | 2.8% | 0hPa | 2.6V | 00:00:00 | 02:14:43 | 00:00:00 | |
| IW2NTF | 2026-09-03 00:48:25 | 45.04929 | 9.34324 | 114° | 2km/h | 29525m | 5.4m/s | -45°C | 2.9% | 0hPa | 2.6V | 08:30:00 | 02:14:35 | 00:00:00 | |
| DB0UT-7 | 2026-09-03 00:48:20 | 45.04929 | 9.34324 | 115° | 11km/h | 29526m | 5.3m/s | -45.0°C | 2.9% | 0hPa | 2.6V | 00:00:00 | 00:00:00 | 00:00:00 | |
| IW2NTF | 2026-09-03 00:48:12 | 45.04932 | 9.34325 | 145° | 13km/h | 29474m | 4.7m/s | -45.4°C | 2.9% | 0hPa | 2.6V | 08:30:00 | 02:14:25 | 00:00:00 | |
| OE5DRO-10 | 2026-09-03 00:48:11 | 45.04929 | 9.34327 | 138° | 15km/h | 29479m | 5.1m/s | -45.3°C | 2.9% | 0hPa | 2.6V | 00:00:00 | 00:00:00 | 00:00:00 | |
| IW2NTF | 2026-09-03 00:48:04 | 45.04954 | 9.34320 | 110° | 11km/h | 29424m | 4.7m/s | -45.8°C | 3% | 0hPa | 2.6V | 08:30:00 | 02:14:15 | 00:00:00 | |
| NBG1-10 | 2026-09-03 00:47:55 | 45.04970 | 9.34309 | 165° | 24km/h | 29400m | 4.9m/s | -45.9°C | 3.1% | 0hPa | 2.5V | 00:00:00 | 02:14:10 | 00:00:00 | |
| OE5DRO-10 | 2026-09-03 00:47:52 | 45.04987 | 9.34298 | 149° | 24km/h | 29384m | 4.8m/s | -46.0°C | 3.0% | 0hPa | 2.5V | 00:00:00 | 00:00:00 | 00:00:00 | |
| IW2NTF | 2026-09-03 00:47:50 | 45.05016 | 9.34281 | 147° | 22km/h | 29348m | 4.7m/s | -46.1°C | 3% | 0hPa | 2.6V | 08:30:00 | 02:14:00 | 00:00:00 | |
| DB0UT-7 | 2026-09-03 00:47:50 | 45.04997 | 9.34291 | 158° | 24km/h | 29374m | 5.9m/s | -46.0°C | 3.0% | 0hPa | 2.6V | 00:00:00 | 02:14:05 | 00:00:00 | |
| IW2NTF | 2026-09-03 00:47:37 | 45.05080 | 9.34224 | 132° | 24km/h | 29299m | 4.2m/s | -46.4°C | 3.1% | 0hPa | 2.6V | 08:30:00 | 02:13:50 | 00:00:00 | |
| OE5DRO-10 | 2026-09-03 00:47:33 | 45.05088 | 9.34215 | 153° | 24km/h | 29289m | 5.4m/s | -46.3°C | 3.1% | 0hPa | 2.5V | 00:00:00 | 00:00:00 | 00:00:00 | |
| PG1ADW-2 | 2026-09-03 00:47:32 | 45.05092 | 9.34213 | 162° | 26km/h | 29284m | 4.3m/s | 0°C | 0% | 0hPa | 2.5V | 00:00:00 | 00:00:00 | 00:00:00 | |
| S52SK | 2026-09-03 00:47:26 | 45.05111 | 9.34194 | 138° | 26km/h | 29258m | 5.2m/s | -46.6°C | 0% | 0hPa | 2.5V | 00:00:00 | 00:00:00 | 00:00:00 | |
| NBG1-10 | 2026-09-03 00:47:22 | 45.05137 | 9.34159 | 122° | 27km/h | 29233m | 5.6m/s | -46.7°C | 3.1% | 0hPa | 2.5V | 00:00:00 | 02:13:37 | 00:00:00 | |
| S52SK | 2026-09-03 00:47:21 | 45.05137 | 9.34159 | 123° | 29km/h | 29233m | 5.7m/s | -46.8°C | 0% | 0hPa | 2.5V | 00:00:00 | 00:00:00 | 00:00:00 | |
| DB0UT-7 | 2026-09-03 00:47:20 | 45.05142 | 9.34140 | 103° | 27km/h | 29221m | 5.2m/s | -46.7°C | 3.2% | 0hPa | 2.5V | 00:00:00 | 00:00:00 | 00:00:00 | |
| OE3JTB-15 | 2026-09-03 00:47:16 | 45.05149 | 9.34112 | 137° | 26km/h | 29201m | 4.4m/s | 0°C | 0% | 0hPa | 2.5V | 00:00:00 | 00:00:00 | 00:00:00 | |
| S52SK | 2026-09-03 00:47:15 | 45.05150 | 9.34112 | 137° | 20km/h | 29201m | 4.4m/s | 0°C | 0% | 0hPa | 2.5V | 00:00:00 | 00:00:00 | 00:00:00 | |
| OE5DRO-10 | 2026-09-03 00:47:14 | 45.05158 | 9.34101 | 139° | 29km/h | 29191m | 6.0m/s | -47.0°C | 3.3% | 0hPa | 2.5V | 00:00:00 | 00:00:00 | 00:00:00 | |
| PG1ADW-2 | 2026-09-03 00:47:05 | 45.05194 | 9.34014 | 85° | 26km/h | 29143m | 5.4m/s | 0°C | 0% | 0hPa | 2.5V | 00:00:00 | 00:00:00 | 00:00:00 | |
| IW2NTF | 2026-09-03 00:47:00 | 45.05227 | 9.33918 | 116° | 22km/h | 29082m | 5.7m/s | -46.5°C | 3.1% | 0hPa | 2.5V | 08:30:00 | 02:13:08 | 00:00:00 | |
| OE5DRO-10 | 2026-09-03 00:46:55 | 45.05221 | 9.33934 | 122° | 22km/h | 29093m | 4.6m/s | -46.5°C | 3.1% | 0hPa | 2.5V | 00:00:00 | 00:00:00 | 00:00:00 | |
| DB0UT-7 | 2026-09-03 00:46:50 | 45.05230 | 9.33898 | 81° | 18km/h | 29066m | 6.2m/s | -46.4°C | 3.1% | 0hPa | 2.5V | 00:00:00 | 02:13:05 | 00:00:00 | |
| NBG1-10 | 2026-09-03 00:46:49 | 45.05229 | 9.33891 | 75° | 16km/h | 29060m | 5.7m/s | -46.4°C | 3.1% | 0hPa | 2.6V | 00:00:00 | 02:13:04 | 00:00:00 | |
| IW2NTF | 2026-09-03 00:46:47 | 45.05247 | 9.33838 | 127° | 26km/h | 29018m | 5.1m/s | -46.6°C | 3.2% | 0hPa | 2.6V | 08:30:00 | 02:12:56 | 00:00:00 | |
| OE3JTB-15 | 2026-09-03 00:46:44 | 45.05232 | 9.33857 | 141° | 16km/h | 29034m | 4.9m/s | 0°C | 0% | 0hPa | 2.5V | 00:00:00 | 00:00:00 | 00:00:00 | |
| OE5DRO-10 | 2026-09-03 00:46:36 | 45.05249 | 9.33812 | 27° | 16km/h | 28993m | 5.6m/s | -46.7°C | 3.2% | 0hPa | 2.5V | 00:00:00 | 00:00:00 | 00:00:00 | |
| IW2NTF | 2026-09-03 00:46:31 | 45.05260 | 9.33774 | 118° | 13km/h | 28942m | 4.4m/s | -46.6°C | 3.2% | 0hPa | 2.5V | 08:30:00 | 02:12:41 | 00:00:00 | |
| DB0UT-7 | 2026-09-03 00:46:20 | 45.05244 | 9.33745 | 18° | 15km/h | 28910m | 6.0m/s | -46.4°C | 3.1% | 0hPa | 2.5V | 00:00:00 | 00:00:00 | 00:00:00 | |
| OE5DRO-10 | 2026-09-03 00:46:17 | 45.05234 | 9.33745 | 345° | 13km/h | 28895m | 4.5m/s | -46.3°C | 3.1% | 0hPa | 2.5V | 00:00:00 | 00:00:00 | 00:00:00 | |
| IW2NTF | 2026-09-03 00:46:16 | 45.05233 | 9.33727 | 98° | 13km/h | 28863m | 5.5m/s | -46.2°C | 3.1% | 0hPa | 2.5V | 08:30:00 | 02:12:26 | 00:00:00 | |
| OE3JTB-15 | 2026-09-03 00:46:15 | 45.05232 | 9.33744 | 81° | 11km/h | 28884m | 5.7m/s | 0°C | 0% | 0hPa | 2.5V | 00:00:00 | 02:12:30 | 00:00:00 | |
| NBG1-10 | 2026-09-03 00:46:12 | 45.05232 | 9.33731 | 97° | 15km/h | 28869m | 5.0m/s | -46.2°C | 3.1% | 0hPa | 2.5V | 00:00:00 | 02:12:27 | 00:00:00 | |
| IW2NTF | 2026-09-03 00:46:07 | 45.05204 | 9.33687 | 7° | 15km/h | 28812m | 5.6m/s | -46.2°C | 3.1% | 0hPa | 2.5V | 08:30:00 | 02:12:16 | 00:00:00 | |
| OE5DRO-10 | 2026-09-03 00:45:58 | 45.05201 | 9.33693 | 231° | 13km/h | 28796m | 4.6m/s | -46.2°C | 3.1% | 0hPa | 2.6V | 00:00:00 | 00:00:00 | 08:30:00 | |
| IW2NTF | 2026-09-03 00:45:56 | 45.05191 | 9.33675 | 14° | 29km/h | 28759m | 5.7m/s | -46.7°C | 3.1% | 0hPa | 2.6V | 08:30:00 | 02:12:06 | 00:00:00 | |
| DB0UT-7 | 2026-09-03 00:45:51 | 45.05184 | 9.33673 | 5° | 16km/h | 28754m | 4.7m/s | -46.6°C | 3.1% | 0hPa | 2.6V | 00:00:00 | 02:12:05 | 00:00:00 | |
| IW2NTF | 2026-09-03 00:45:46 | 45.05151 | 9.33688 | 284° | 11km/h | 28706m | 4.6m/s | -46.6°C | 3.1% | 0hPa | 2.6V | 08:30:00 | 02:11:56 | 00:00:00 | |
| OE3JTB-15 | 2026-09-03 00:45:46 | 45.05158 | 9.33674 | 355° | 11km/h | 28734m | 5.4m/s | 0°C | 0% | 0hPa | 2.5V | 00:00:00 | 00:00:00 | 00:00:00 | |
| NBG1-10 | 2026-09-03 00:45:39 | 45.05148 | 9.33691 | 4° | 13km/h | 28696m | 5.8m/s | -46.5°C | 3.2% | 0hPa | 2.5V | 00:00:00 | 02:11:54 | 08:30:00 | |
| IW2NTF | 2026-09-03 00:45:36 | 45.05109 | 9.33680 | 322° | 11km/h | 28655m | 5.7m/s | -46.7°C | 3.2% | 0hPa | 2.5V | 08:30:00 | 02:11:46 | 00:00:00 | |
| IW2NTF | 2026-09-03 00:45:26 | 45.05107 | 9.33661 | 39° | 22km/h | 28598m | 5.2m/s | -46.7°C | 3.2% | 0hPa | 2.5V | 08:30:00 | 02:11:36 | 00:00:00 | |
| DB0UT-7 | 2026-09-03 00:45:20 | 45.05103 | 9.33656 | 40° | 13km/h | 28594m | 4.5m/s | -46.6°C | 3.2% | 0hPa | 2.5V | 00:00:00 | 00:00:00 | 08:30:00 | |
| IW2NTF | 2026-09-03 00:45:18 | 45.05119 | 9.33653 | 143° | 22km/h | 28546m | 4.6m/s | -46.5°C | 3.1% | 0hPa | 2.5V | 08:30:00 | 02:11:26 | 00:00:00 | |
| IW2NTF | 2026-09-03 00:45:05 | 45.05119 | 9.33635 | 247° | 13km/h | 28494m | 6.7m/s | -46.3°C | 3.1% | 0hPa | 2.6V | 08:30:00 | 02:11:16 | 00:00:00 | |
| NBG1-10 | 2026-09-03 00:45:00 | 45.05121 | 9.33640 | 241° | 11km/h | 28488m | 5.8m/s | -46.3°C | 3.1% | 0hPa | 2.5V | 00:00:00 | 02:11:15 | 00:00:00 | |
| IW2NTF | 2026-09-03 00:44:56 | 45.05132 | 9.33625 | 28° | 11km/h | 28440m | 4.7m/s | -46.2°C | 3.1% | 0hPa | 2.5V | 08:30:00 | 02:11:06 | 00:00:00 | |
| DB0UT-7 | 2026-09-03 00:44:50 | 45.05130 | 9.33624 | 4° | 9km/h | 28436m | 4.8m/s | -46.2°C | 3.1% | 0hPa | 2.5V | 00:00:00 | 02:11:05 | 00:00:00 | |
| IW2NTF | 2026-09-03 00:44:45 | 45.05135 | 9.33651 | 192° | 13km/h | 28388m | 6.1m/s | -46.3°C | 3.1% | 0hPa | 2.5V | 08:30:00 | 02:10:56 | 00:00:00 | |
| IW2NTF | 2026-09-03 00:44:36 | 45.05140 | 9.33653 | 236° | 11km/h | 28334m | 5.2m/s | -46.3°C | 3.1% | 0hPa | 2.6V | 08:30:00 | 02:10:46 | 00:00:00 | |
| OE5DRO-10 | 2026-09-03 00:44:35 | 45.05141 | 9.33641 | 319° | 9km/h | 28356m | 5.0m/s | -46.3°C | 3.1% | 0hPa | 2.6V | 00:00:00 | 00:00:00 | 00:00:00 | |
| NBG1-10 | 2026-09-03 00:44:27 | 45.05146 | 9.33666 | 254° | 5km/h | 28313m | 5.3m/s | -46.3°C | 3.1% | 0hPa | 2.6V | 00:00:00 | 02:10:42 | 00:00:00 | |
| IW2NTF | 2026-09-03 00:44:25 | 45.05146 | 9.33671 | 326° | 4km/h | 28281m | 5.1m/s | -46.4°C | 3.1% | 0hPa | 2.6V | 08:30:00 | 02:10:36 | 00:00:00 | |
| DB0UT-7 | 2026-09-03 00:44:20 | 45.05145 | 9.33672 | 306° | 7km/h | 28276m | 6.2m/s | -46.4°C | 3.1% | 0hPa | 2.6V | 00:00:00 | 00:00:00 | 00:00:00 | |
| OE5DRO-10 | 2026-09-03 00:44:15 | 45.05143 | 9.33692 | 244° | 11km/h | 28248m | 4.7m/s | -46.6°C | 3.1% | 0hPa | 2.6V | 00:00:00 | 00:00:00 | 00:00:00 | |
| IW2NTF | 2026-09-03 00:44:10 | 45.05141 | 9.33701 | 12° | 5km/h | 28216m | 5.2m/s | -46.9°C | 3.2% | 0hPa | 2.6V | 08:30:00 | 02:10:24 | 00:00:00 | |
| IW2NTF | 2026-09-03 00:44:00 | 45.05138 | 9.33717 | 267° | 9km/h | 28161m | 5.1m/s | -46.9°C | 3.2% | 0hPa | 2.6V | 08:30:00 | 02:10:14 | 00:00:00 | |
| IW2NTF | 2026-09-03 00:43:50 | 45.05140 | 9.33714 | 159° | 7km/h | 28110m | 3.9m/s | -46.9°C | 3.2% | 0hPa | 2.5V | 08:30:00 | 02:10:04 | 00:00:00 | |
| DB0UT-7 | 2026-09-03 00:43:50 | 45.05138 | 9.33716 | 141° | 11km/h | 28115m | 4.3m/s | -46.9°C | 3.2% | 0hPa | 2.5V | 00:00:00 | 02:10:05 | 00:00:00 | |
| IW2NTF | 2026-09-03 00:43:41 | 45.05130 | 9.33736 | 87° | 7km/h | 28059m | 5.5m/s | -47.2°C | 3.2% | 0hPa | 2.5V | 08:30:00 | 02:09:54 | 00:00:00 | |
| NBG1-10 | 2026-09-03 00:43:33 | 45.05123 | 9.33732 | 281° | 11km/h | 28028m | 5.6m/s | -47.1°C | 3.2% | 0hPa | 2.6V | 00:00:00 | 02:09:48 | 00:00:00 | |
| IW2NTF | 2026-09-03 00:43:31 | 45.05123 | 9.33749 | 279° | 16km/h | 28007m | 6.2m/s | -47.2°C | 3.2% | 0hPa | 2.5V | 08:30:00 | 02:09:44 | 00:00:00 | |
| OE5DRO-10 | 2026-09-03 00:43:30 | 45.05123 | 9.33743 | 271° | 13km/h | 28013m | 4.9m/s | -47.2°C | 3.2% | 0hPa | 2.5V | 00:00:00 | 00:00:00 | 00:00:00 | |
| IW2NTF | 2026-09-03 00:43:20 | 45.05128 | 9.33777 | 106° | 4km/h | 27954m | 4.6m/s | -47.2°C | 3.2% | 0hPa | 2.5V | 08:30:00 | 02:09:34 | 00:00:00 | |
| DB0UT-7 | 2026-09-03 00:43:20 | 45.05127 | 9.33779 | 112° | 13km/h | 27959m | 5.1m/s | -47.2°C | 3.2% | 0hPa | 2.5V | 00:00:00 | 00:00:00 | 00:00:00 | |
| IW2NTF | 2026-09-03 00:43:11 | 45.05135 | 9.33797 | 183° | 13km/h | 27901m | 6.3m/s | -47.2°C | 3.2% | 0hPa | 2.5V | 08:30:00 | 02:09:24 | 00:00:00 | |
| IW2NTF | 2026-09-03 00:42:59 | 45.05162 | 9.33802 | 196° | 15km/h | 27849m | 5.5m/s | -47.2°C | 3.2% | 0hPa | 2.6V | 08:30:00 | 02:09:14 | 00:00:00 | |
| IW2NTF | 2026-09-03 00:42:54 | 45.05215 | 9.33791 | 162° | 13km/h | 27785m | 5.9m/s | -47.5°C | 3.3% | 0hPa | 2.6V | 08:30:00 | 02:09:02 | 00:00:00 | |
| DB0UT-7 | 2026-09-03 00:42:50 | 45.05204 | 9.33795 | 164° | 11km/h | 27802m | 5.1m/s | -47.5°C | 3.3% | 0hPa | 2.5V | 00:00:00 | 02:09:05 | 00:00:00 | |
| OE5DRO-10 | 2026-09-03 00:42:44 | 45.05226 | 9.33785 | 158° | 15km/h | 27769m | 6.2m/s | -47.5°C | 3.3% | 0hPa | 2.5V | 00:00:00 | 00:00:00 | 00:00:00 | |
| IW2NTF | 2026-09-03 00:42:39 | 45.05260 | 9.33763 | 160° | 11km/h | 27731m | 6m/s | -47.6°C | 3.3% | 0hPa | 2.5V | 08:30:00 | 02:08:52 | 00:00:00 | |
| IW2NTF | 2026-09-03 00:42:29 | 45.05283 | 9.33757 | 159° | 20km/h | 27676m | 4.7m/s | -47.5°C | 3.3% | 0hPa | 2.5V | 08:30:00 | 02:08:42 | 00:00:00 | |
| NBG1-10 | 2026-09-03 00:42:27 | 45.05282 | 9.33757 | 160° | 13km/h | 27676m | 4.6m/s | -47.5°C | 3.3% | 0hPa | 2.6V | 00:00:00 | 02:08:42 | 00:00:00 | |
| OE5DRO-10 | 2026-09-03 00:42:25 | 45.05291 | 9.33754 | 174° | 11km/h | 27666m | 5.7m/s | -47.4°C | 3.3% | 0hPa | 2.6V | 00:00:00 | 00:00:00 | 00:00:00 | |
| IW2NTF | 2026-09-03 00:42:20 | 45.05315 | 9.33761 | 149° | 16km/h | 27624m | 5m/s | -47.4°C | 3.3% | 0hPa | 2.6V | 08:30:00 | 02:08:32 | 00:00:00 | |
| IW2NTF | 2026-09-03 00:42:08 | 45.05334 | 9.33740 | 201° | 5km/h | 27569m | 5.7m/s | -47.4°C | 3.3% | 0hPa | 2.5V | 08:30:00 | 02:08:22 | 00:00:00 | |
| OE5DRO-10 | 2026-09-03 00:42:06 | 45.05336 | 9.33740 | 205° | 11km/h | 27564m | 4.4m/s | -47.4°C | 3.3% | 0hPa | 2.6V | 00:00:00 | 00:00:00 | 00:00:00 | |
| IW2NTF | 2026-09-03 00:41:58 | 45.05362 | 9.33727 | 155° | 5km/h | 27517m | 4.6m/s | -47.3°C | 3.3% | 0hPa | 2.6V | 08:30:00 | 02:08:12 | 00:00:00 | |
| NBG1-10 | 2026-09-03 00:41:54 | 45.05367 | 9.33723 | 145° | 11km/h | 27501m | 5.3m/s | -47.2°C | 3.3% | 0hPa | 2.5V | 00:00:00 | 02:08:09 | 00:00:00 | |
| IW2NTF | 2026-09-03 00:41:52 | 45.05385 | 9.33714 | 159° | 13km/h | 27463m | 6.2m/s | -47.3°C | 3.3% | 0hPa | 2.6V | 08:30:00 | 02:08:02 | 00:00:00 | |
| OE5DRO-10 | 2026-09-03 00:41:48 | 45.05385 | 9.33714 | 160° | 13km/h | 27463m | 6.1m/s | -47.3°C | 3.3% | 0hPa | 2.6V | 00:00:00 | 00:00:00 | 08:30:00 | |
| IW2NTF | 2026-09-03 00:41:38 | 45.05411 | 9.33694 | 170° | 13km/h | 27409m | 5.5m/s | -47.2°C | 3.2% | 0hPa | 2.5V | 08:30:00 | 02:07:52 | 00:00:00 | |
| DB0UT-7 | 2026-09-03 00:41:38 | 45.05408 | 9.33695 | 162° | 11km/h | 27414m | 4.7m/s | -47.1°C | 3.2% | 0hPa | 2.5V | 00:00:00 | 00:00:00 | 00:00:00 | |
| IW2NTF | 2026-09-03 00:41:33 | 45.05432 | 9.33670 | 95° | 5km/h | 27355m | 4.8m/s | -47.5°C | 3.2% | 0hPa | 2.6V | 08:30:00 | 02:07:42 | 00:00:00 | |
| OE5DRO-10 | 2026-09-03 00:41:28 | 45.05431 | 9.33673 | 101° | 7km/h | 27360m | 5.4m/s | -47.4°C | 3.3% | 0hPa | 2.5V | 00:00:00 | 00:00:00 | 00:00:00 | |
| NBG1-10 | 2026-09-03 00:41:21 | 45.05443 | 9.33665 | 147° | 11km/h | 27324m | 5.4m/s | -47.5°C | 3.2% | 0hPa | 2.5V | 00:00:00 | 02:07:36 | 00:00:00 | |
| IW2NTF | 2026-09-03 00:41:18 | 45.05444 | 9.33647 | 86° | 20km/h | 27300m | 6m/s | -47.6°C | 3.2% | 0hPa | 2.5V | 08:30:00 | 02:07:32 | 00:00:00 | |
| DO3MHA-11 | 2026-09-03 00:41:09 | 45.05450 | 9.33622 | 206° | 11km/h | 27256m | 6.4m/s | -47.7°C | 3.2% | 0hPa | 2.5V | 00:00:00 | 02:07:24 | 00:00:00 | |
| IW2NTF | 2026-09-03 00:41:08 | 45.05458 | 9.33626 | 198° | 15km/h | 27245m | 4.6m/s | -47.8°C | 3.3% | 0hPa | 2.5V | 08:30:00 | 02:07:22 | 00:00:00 | |
| DB0UT-7 | 2026-09-03 00:41:08 | 45.05454 | 9.33624 | 202° | 9km/h | 27250m | 5.0m/s | -47.8°C | 3.3% | 0hPa | 2.5V | 00:00:00 | 02:07:23 | 00:00:00 | |
| IW2NTF | 2026-09-03 00:40:59 | 45.05458 | 9.33605 | 39° | 7km/h | 27189m | 6.2m/s | -48°C | 3.3% | 0hPa | 2.5V | 08:30:00 | 02:07:12 | 00:00:00 | |
| DO3MHA-11 | 2026-09-03 00:40:58 | 45.05459 | 9.33607 | 63° | 7km/h | 27196m | 5.9m/s | -47.8°C | 3.3% | 0hPa | 2.5V | 00:00:00 | 02:07:13 | 08:30:00 | |
| IW2NTF | 2026-09-03 00:40:48 | 45.05462 | 9.33589 | 50° | 5km/h | 27134m | 5.2m/s | -48.2°C | 3.4% | 0hPa | 2.5V | 08:30:00 | 02:07:02 | 00:00:00 | |
| NBG1-10 | 2026-09-03 00:40:48 | 45.05462 | 9.33590 | 64° | 5km/h | 27140m | 4.9m/s | -48.1°C | 3.3% | 0hPa | 2.6V | 00:00:00 | 02:07:03 | 00:00:00 | |
| DO3MHA-11 | 2026-09-03 00:40:47 | 45.05461 | 9.33589 | 51° | 5km/h | 27135m | 5.1m/s | -48.1°C | 3.4% | 0hPa | 2.6V | 00:00:00 | 02:07:02 | 00:00:00 | |
| OE5DRO-10 | 2026-09-03 00:40:43 | 45.05457 | 9.33589 | 328° | 5km/h | 27112m | 6.4m/s | -48.2°C | 3.3% | 0hPa | 2.6V | 00:00:00 | 00:00:00 | 00:00:00 | |
| IW2NTF | 2026-09-03 00:40:39 | 45.05450 | 9.33593 | 129° | 7km/h | 27079m | 5m/s | -48.4°C | 3.3% | 0hPa | 2.6V | 08:30:00 | 02:06:52 | 00:00:00 | |
| DO3MHA-11 | 2026-09-03 00:40:37 | 45.05451 | 9.33592 | 130° | 4km/h | 27079m | 5.0m/s | -48.3°C | 3.3% | 0hPa | 2.5V | 00:00:00 | 02:06:52 | 00:00:00 | |
| IW2NTF | 2026-09-03 00:40:32 | 45.05446 | 9.33589 | 6° | 5km/h | 27025m | 6.2m/s | -48.4°C | 3.3% | 0hPa | 2.5V | 08:30:00 | 02:06:42 | 00:00:00 | |
| DO3MHA-11 | 2026-09-03 00:40:27 | 45.05446 | 9.33589 | 7° | 7km/h | 27025m | 6.1m/s | -48.4°C | 3.3% | 0hPa | 2.5V | 00:00:00 | 02:06:42 | 00:00:00 | |
| OE5DRO-10 | 2026-09-03 00:40:24 | 45.05442 | 9.33587 | 83° | 9km/h | 27009m | 6.1m/s | -48.5°C | 3.4% | 0hPa | 2.6V | 00:00:00 | 00:00:00 | 00:00:00 | |
| IW2NTF | 2026-09-03 00:40:18 | 45.05451 | 9.33603 | 253° | 11km/h | 26970m | 5.5m/s | -48.9°C | 3.5% | 0hPa | 2.6V | 08:30:00 | 02:06:32 | 00:00:00 | |
| DO3MHA-11 | 2026-09-03 00:40:17 | 45.05451 | 9.33603 | 254° | 7km/h | 26971m | 5.5m/s | -48.8°C | 3.5% | 0hPa | 2.5V | 00:00:00 | 02:06:32 | 00:00:00 | |
| NBG1-10 | 2026-09-03 00:40:15 | 45.05453 | 9.33609 | 222° | 9km/h | 26959m | 5.4m/s | -48.8°C | 3.5% | 0hPa | 2.5V | 00:00:00 | 02:06:30 | 08:30:00 | |
| IW2NTF | 2026-09-03 00:40:09 | 45.05467 | 9.33621 | 189° | 18km/h | 26914m | 5.7m/s | -48.8°C | 3.4% | 0hPa | 2.5V | 08:30:00 | 02:06:22 | 00:00:00 | |
| DO3MHA-11 | 2026-09-03 00:40:07 | 45.05467 | 9.33621 | 190° | 18km/h | 26915m | 5.7m/s | -48.7°C | 3.4% | 0hPa | 2.5V | 00:00:00 | 02:06:22 | 00:00:00 | |
| OE5DRO-10 | 2026-09-03 00:40:05 | 45.05476 | 9.33623 | 192° | 9km/h | 26905m | 4.6m/s | -48.7°C | 3.4% | 0hPa | 2.5V | 00:00:00 | 00:00:00 | 00:00:00 | |
| IW2NTF | 2026-09-03 00:39:57 | 45.05485 | 9.33633 | 183° | 7km/h | 26861m | 4.9m/s | -48.6°C | 3.3% | 0hPa | 2.5V | 08:30:00 | 02:06:12 | 00:00:00 | |
| DB0UT-7 | 2026-09-03 00:39:55 | 45.05489 | 9.33634 | 198° | 13km/h | 26851m | 6.3m/s | -48.6°C | 3.4% | 0hPa | 2.5V | 00:00:00 | 00:00:00 | 00:00:00 | |
| IW2NTF | 2026-09-03 00:39:47 | 45.05511 | 9.33629 | 43° | 7km/h | 26807m | 6.2m/s | -49.1°C | 3.5% | 0hPa | 2.5V | 08:30:00 | 02:06:02 | 00:00:00 | |
| OE5DRO-10 | 2026-09-03 00:39:46 | 45.05509 | 9.33628 | 31° | 13km/h | 26802m | 4.9m/s | -49.2°C | 3.5% | 0hPa | 2.5V | 00:00:00 | 00:00:00 | 00:00:00 | |
| NBG1-10 | 2026-09-03 00:39:42 | 45.05507 | 9.33616 | 135° | 11km/h | 26781m | 4.5m/s | -49.2°C | 3.5% | 0hPa | 2.5V | 00:00:00 | 02:05:57 | 00:00:00 | |
| IW2NTF | 2026-09-03 00:39:37 | 45.05524 | 9.33599 | 134° | 16km/h | 26754m | 5.3m/s | -49.3°C | 3.5% | 0hPa | 2.5V | 08:30:00 | 02:05:52 | 00:00:00 | |
| DO3MHA-11 | 2026-09-03 00:39:33 | 45.05533 | 9.33575 | 98° | 13km/h | 26734m | 4.6m/s | -49.2°C | 3.5% | 0hPa | 2.6V | 00:00:00 | 02:05:48 | 00:00:00 | |
| IW2NTF | 2026-09-03 00:39:27 | 45.05533 | 9.33571 | 181° | 11km/h | 26703m | 5.1m/s | -49.1°C | 3.5% | 0hPa | 2.6V | 08:30:00 | 02:05:42 | 00:00:00 | |
| OE5DRO-10 | 2026-09-03 00:39:27 | 45.05533 | 9.33571 | 182° | 9km/h | 26703m | 5.1m/s | -49.1°C | 3.5% | 0hPa | 2.6V | 00:00:00 | 00:00:00 | 00:00:00 | |
| DB0UT-7 | 2026-09-03 00:39:25 | 45.05539 | 9.33568 | 144° | 9km/h | 26693m | 5.2m/s | -49.0°C | 3.4% | 0hPa | 2.6V | 00:00:00 | 02:05:40 | 08:30:00 | |
| DO3MHA-11 | 2026-09-03 00:39:21 | 45.05545 | 9.33552 | 88° | 5km/h | 26672m | 4.8m/s | -49.1°C | 3.4% | 0hPa | 2.5V | 00:00:00 | 02:05:36 | 00:00:00 | |
| IW2NTF | 2026-09-03 00:39:19 | 45.05546 | 9.33545 | 162° | 4km/h | 26650m | 5m/s | -49.2°C | 3.5% | 0hPa | 2.5V | 08:30:00 | 02:05:32 | 00:00:00 | |
| IW2NTF | 2026-09-03 00:39:12 | 45.05561 | 9.33551 | 207° | 5km/h | 26598m | 6m/s | -49.6°C | 3.5% | 0hPa | 2.6V | 08:30:00 | 02:05:22 | 00:00:00 | |
| DO3MHA-11 | 2026-09-03 00:39:10 | 45.05553 | 9.33549 | 184° | 7km/h | 26614m | 4.8m/s | -49.5°C | 3.5% | 0hPa | 2.5V | 00:00:00 | 02:05:25 | 00:00:00 | |
| NBG1-10 | 2026-09-03 00:39:09 | 45.05557 | 9.33550 | 184° | 5km/h | 26609m | 4.0m/s | -49.5°C | 3.5% | 0hPa | 2.5V | 00:00:00 | 02:05:24 | 00:00:00 | |
| IW2NTF | 2026-09-03 00:39:00 | 45.05565 | 9.33562 | 261° | 4km/h | 26545m | 5.2m/s | -49.9°C | 3.6% | 0hPa | 2.5V | 08:30:00 | 02:05:12 | 00:00:00 | |
| IW2NTF | 2026-09-03 00:38:53 | 45.05573 | 9.33574 | 192° | 7km/h | 26490m | 4.9m/s | -49.9°C | 3.6% | 0hPa | 2.5V | 08:30:00 | 02:05:02 | 00:00:00 | |
| DO3MHA-11 | 2026-09-03 00:38:50 | 45.05570 | 9.33572 | 265° | 5km/h | 26507m | 4.6m/s | -49.8°C | 3.5% | 0hPa | 2.6V | 00:00:00 | 02:05:05 | 00:00:00 | |
| DO3MHA-11 | 2026-09-03 00:38:40 | 45.05579 | 9.33570 | 134° | 15km/h | 26454m | 5.1m/s | -49.9°C | 3.6% | 0hPa | 2.6V | 00:00:00 | 02:04:55 | 00:00:00 | |
| IW2NTF | 2026-09-03 00:38:37 | 45.05577 | 9.33564 | 14° | 2km/h | 26422m | 5.4m/s | -50.1°C | 3.6% | 0hPa | 2.6V | 08:30:00 | 02:04:49 | 00:00:00 | |
| NBG1-10 | 2026-09-03 00:38:36 | 45.05579 | 9.33564 | 17° | 11km/h | 26432m | 4.9m/s | -50.0°C | 3.6% | 0hPa | 2.5V | 00:00:00 | 02:04:51 | 00:00:00 | |
| OE5DRO-10 | 2026-09-03 00:38:27 | 45.05583 | 9.33551 | 89° | 13km/h | 26386m | 4.5m/s | -50.3°C | 3.7% | 0hPa | 2.6V | 00:00:00 | 00:00:00 | 00:00:00 | |
| IW2NTF | 2026-09-03 00:38:24 | 45.05585 | 9.33526 | 95° | 16km/h | 26364m | 4.8m/s | -50.4°C | 3.7% | 0hPa | 2.6V | 08:30:00 | 02:04:38 | 00:00:00 | |
| DB0UT-7 | 2026-09-03 00:38:22 | 45.05585 | 9.33521 | 84° | 11km/h | 26359m | 6.1m/s | -50.4°C | 3.7% | 0hPa | 2.6V | 00:00:00 | 00:00:00 | 00:00:00 | |
| DO3MHA-11 | 2026-09-03 00:38:17 | 45.05579 | 9.33505 | 78° | 13km/h | 26332m | 4.8m/s | -50.3°C | 3.7% | 0hPa | 2.6V | 00:00:00 | 02:04:32 | 00:00:00 | |
| IW2NTF | 2026-09-03 00:38:10 | 45.05561 | 9.33467 | 65° | 15km/h | 26282m | 4.6m/s | -50.3°C | 3.7% | 0hPa | 2.6V | 08:30:00 | 02:04:22 | 00:00:00 | |
| DO3MHA-11 | 2026-09-03 00:38:07 | 45.05561 | 9.33467 | 66° | 11km/h | 26283m | 4.6m/s | -50.3°C | 3.7% | 0hPa | 2.6V | 00:00:00 | 02:04:22 | 00:00:00 | |
| IW2NTF | 2026-09-03 00:38:03 | 45.05548 | 9.33441 | 347° | 5km/h | 26230m | 6.2m/s | -50.2°C | 3.6% | 0hPa | 2.6V | 08:30:00 | 02:04:12 | 00:00:00 | |
| DO3MHA-11 | 2026-09-03 00:37:57 | 45.05548 | 9.33441 | 348° | 11km/h | 26231m | 6.1m/s | -50.2°C | 3.6% | 0hPa | 2.5V | 00:00:00 | 02:04:12 | 00:00:00 | |
| DB0UT-7 | 2026-09-03 00:37:52 | 45.05536 | 9.33439 | 40° | 11km/h | 26205m | 4.5m/s | -50.3°C | 3.6% | 0hPa | 2.5V | 00:00:00 | 02:04:07 | 00:00:00 | |
| IW2NTF | 2026-09-03 00:37:50 | 45.05524 | 9.33427 | 45° | 9km/h | 26179m | 6m/s | -50.5°C | 3.6% | 0hPa | 2.5V | 08:30:00 | 02:04:02 | 00:00:00 | |
| OE5DRO-10 | 2026-09-03 00:37:48 | 45.05527 | 9.33429 | 38° | 13km/h | 26184m | 4.4m/s | 0°C | 0% | 0hPa | 2.5V | 00:00:00 | 00:00:00 | 08:30:00 | |
| DO3MHA-11 | 2026-09-03 00:37:47 | 45.05525 | 9.33427 | 46° | 9km/h | 26179m | 5.9m/s | -50.4°C | 3.6% | 0hPa | 2.5V | 00:00:00 | 02:04:02 | 00:00:00 | |
| IW2NTF | 2026-09-03 00:37:40 | 45.05508 | 9.33434 | 33° | 11km/h | 26128m | 4.5m/s | -50.8°C | 3.8% | 0hPa | 2.5V | 08:30:00 | 02:03:52 | 00:00:00 | |
| DO3MHA-11 | 2026-09-03 00:37:37 | 45.05508 | 9.33434 | 34° | 15km/h | 26128m | 4.4m/s | -50.8°C | 3.8% | 0hPa | 2.5V | 00:00:00 | 02:03:52 | 00:00:00 | |
| NBG1-10 | 2026-09-03 00:37:30 | 45.05484 | 9.33436 | 333° | 9km/h | 26092m | 5.2m/s | -50.7°C | 3.8% | 0hPa | 2.5V | 00:00:00 | 02:03:45 | 00:00:00 | |
| IW2NTF | 2026-09-03 00:37:29 | 45.05476 | 9.33446 | 306° | 15km/h | 26077m | 6.2m/s | -50.8°C | 3.8% | 0hPa | 2.5V | 08:30:00 | 02:03:42 | 00:00:00 | |
| OE5DRO-10 | 2026-09-03 00:37:29 | 45.05481 | 9.33438 | 322° | 13km/h | 26088m | 4.6m/s | 0°C | 0% | 0hPa | 2.6V | 00:00:00 | 00:00:00 | 00:00:00 | |
| DO3MHA-11 | 2026-09-03 00:37:26 | 45.05474 | 9.33450 | 304° | 9km/h | 26071m | 4.9m/s | -50.7°C | 3.8% | 0hPa | 2.6V | 00:00:00 | 02:03:41 | 00:00:00 | |
| IW2NTF | 2026-09-03 00:37:22 | 45.05456 | 9.33462 | 323° | 13km/h | 26025m | 4.3m/s | -50.8°C | 3.9% | 0hPa | 2.6V | 08:30:00 | 02:03:32 | 00:00:00 | |
| DB0UT-7 | 2026-09-03 00:37:22 | 45.05468 | 9.33459 | 15° | 7km/h | 26051m | 4.4m/s | -50.8°C | 3.8% | 0hPa | 2.5V | 00:00:00 | 00:00:00 | 00:00:00 | |
| DO3MHA-11 | 2026-09-03 00:37:16 | 45.05454 | 9.33464 | 317° | 7km/h | 26021m | 5.9m/s | -50.8°C | 3.9% | 0hPa | 2.6V | 00:00:00 | 02:03:31 | 08:30:00 | |
| OE5DRO-10 | 2026-09-03 00:37:10 | 45.05452 | 9.33487 | 269° | 5km/h | 25990m | 4.8m/s | 0°C | 0% | 0hPa | 2.5V | 00:00:00 | 00:00:00 | 00:00:00 | |
| IW2NTF | 2026-09-03 00:37:09 | 45.05452 | 9.33490 | 26° | 4km/h | 25974m | 4.4m/s | -50.4°C | 3.8% | 0hPa | 2.5V | 08:30:00 | 02:03:22 | 00:00:00 | |
| DO3MHA-11 | 2026-09-03 00:37:06 | 45.05451 | 9.33490 | 360° | 7km/h | 25969m | 5.7m/s | -50.3°C | 3.8% | 0hPa | 2.6V | 00:00:00 | 02:03:21 | 00:00:00 | |
| IW2NTF | 2026-09-03 00:36:58 | 45.05440 | 9.33505 | 299° | 5km/h | 25921m | 4.4m/s | -50°C | 3.7% | 0hPa | 2.6V | 08:30:00 | 02:03:12 | 00:00:00 | |
| NBG1-10 | 2026-09-03 00:36:57 | 45.05440 | 9.33505 | 300° | 9km/h | 25921m | 4.4m/s | -49.9°C | 3.7% | 0hPa | 2.6V | 00:00:00 | 02:03:12 | 00:00:00 | |
| DO3MHA-11 | 2026-09-03 00:36:56 | 45.05440 | 9.33506 | 313° | 9km/h | 25917m | 4.7m/s | -49.9°C | 3.7% | 0hPa | 2.5V | 00:00:00 | 02:03:11 | 00:00:00 | |
| IW2NTF | 2026-09-03 00:36:53 | 45.05423 | 9.33512 | 298° | 7km/h | 25870m | 5.8m/s | -50°C | 3.7% | 0hPa | 2.5V | 08:30:00 | 02:03:02 | 00:00:00 | |
| DB0UT-7 | 2026-09-03 00:36:51 | 45.05434 | 9.33503 | 359° | 9km/h | 25890m | 6.1m/s | -49.9°C | 3.7% | 0hPa | 2.5V | 00:00:00 | 02:03:06 | 00:00:00 | |
| OE5DRO-10 | 2026-09-03 00:36:50 | 45.05431 | 9.33504 | 340° | 13km/h | 25885m | 5.1m/s | 0°C | 0% | 0hPa | 2.5V | 00:00:00 | 00:00:00 | 00:00:00 | |
| DO3MHA-11 | 2026-09-03 00:36:46 | 45.05423 | 9.33514 | 250° | 9km/h | 25864m | 5.8m/s | -50.0°C | 3.7% | 0hPa | 2.5V | 00:00:00 | 02:03:01 | 00:00:00 | |
| IW2NTF | 2026-09-03 00:36:40 | 45.05419 | 9.33510 | 31° | 16km/h | 25817m | 4.1m/s | -49.8°C | 3.7% | 0hPa | 2.5V | 08:30:00 | 02:02:52 | 00:00:00 | |
| DO3MHA-11 | 2026-09-03 00:36:36 | 45.05415 | 9.33508 | 19° | 9km/h | 25813m | 5.2m/s | -49.7°C | 3.7% | 0hPa | 2.5V | 00:00:00 | 02:02:51 | 00:00:00 | |
| IW2NTF | 2026-09-03 00:36:33 | 45.05397 | 9.33513 | 333° | 9km/h | 25766m | 5.5m/s | -49.4°C | 3.5% | 0hPa | 2.5V | 08:30:00 | 02:02:42 | 00:00:00 | |
| DO3MHA-11 | 2026-09-03 00:36:26 | 45.05395 | 9.33515 | 340° | 13km/h | 25761m | 5.0m/s | -49.4°C | 3.6% | 0hPa | 2.6V | 00:00:00 | 02:02:41 | 00:00:00 | |
| NBG1-10 | 2026-09-03 00:36:24 | 45.05389 | 9.33516 | 4° | 15km/h | 25751m | 5.8m/s | -49.3°C | 3.5% | 0hPa | 2.6V | 00:00:00 | 02:02:39 | 00:00:00 | |
| OE5DRO-10 | 2026-09-03 00:36:23 | 45.05386 | 9.33515 | 22° | 11km/h | 25746m | 5.3m/s | 0°C | 0% | 0hPa | 2.6V | 00:00:00 | 00:00:00 | 00:00:00 | |
| IW2NTF | 2026-09-03 00:36:22 | 45.05365 | 9.33509 | 342° | 9km/h | 25714m | 5.6m/s | -49.3°C | 3.5% | 0hPa | 2.6V | 08:30:00 | 02:02:32 | 00:00:00 | |
| DB0UT-7 | 2026-09-03 00:36:21 | 45.05380 | 9.33511 | 23° | 11km/h | 25735m | 5.2m/s | -49.3°C | 3.5% | 0hPa | 2.6V | 00:00:00 | 00:00:00 | 00:00:00 | |
| DO3MHA-11 | 2026-09-03 00:36:16 | 45.05363 | 9.33510 | 311° | 11km/h | 25709m | 6.1m/s | -49.3°C | 3.5% | 0hPa | 2.6V | 00:00:00 | 02:02:31 | 00:00:00 | |
| IW2NTF | 2026-09-03 00:36:13 | 45.05351 | 9.33525 | 12° | 9km/h | 25662m | 4.8m/s | -49.8°C | 3.6% | 0hPa | 2.6V | 08:30:00 | 02:02:22 | 00:00:00 | |
| DO3MHA-11 | 2026-09-03 00:36:03 | 45.05339 | 9.33523 | 3° | 9km/h | 25642m | 4.5m/s | -49.8°C | 3.6% | 0hPa | 2.5V | 00:00:00 | 02:02:18 | 00:00:00 | |
| IW2NTF | 2026-09-03 00:36:02 | 45.05330 | 9.33519 | 6° | 7km/h | 25608m | 5.2m/s | -50°C | 3.6% | 0hPa | 2.5V | 08:30:00 | 02:02:12 | 00:00:00 | |
| OE5DRO-10 | 2026-09-03 00:36:02 | 45.05336 | 9.33523 | 8° | 13km/h | 25636m | 5.8m/s | 0°C | 0% | 0hPa | 2.5V | 00:00:00 | 00:00:00 | 00:00:00 | |
| DO3MHA-11 | 2026-09-03 00:35:53 | 45.05319 | 9.33513 | 40° | 20km/h | 25588m | 4.7m/s | -49.9°C | 3.6% | 0hPa | 2.5V | 00:00:00 | 02:02:08 | 00:00:00 | |
| DB0UT-7 | 2026-09-03 00:35:51 | 45.05312 | 9.33506 | 24° | 16km/h | 25579m | 4.8m/s | -49.9°C | 3.7% | 0hPa | 2.5V | 00:00:00 | 02:02:06 | 00:00:00 | |
| IW2NTF | 2026-09-03 00:35:47 | 45.05283 | 9.33503 | 11° | 11km/h | 25545m | 5.2m/s | -50°C | 3.7% | 0hPa | 2.5V | 08:30:00 | 02:02:00 | 00:00:00 | |
| DO3MHA-11 | 2026-09-03 00:35:43 | 45.05279 | 9.33502 | 5° | 16km/h | 25535m | 5.5m/s | -50.0°C | 3.7% | 0hPa | 2.5V | 00:00:00 | 02:01:58 | 08:30:00 | |
| IW2NTF | 2026-09-03 00:35:41 | 45.05253 | 9.33496 | 3° | 18km/h | 25493m | 5.8m/s | -50°C | 3.7% | 0hPa | 2.6V | 08:30:00 | 02:01:50 | 00:00:00 | |
| IW2NTF | 2026-09-03 00:35:31 | 45.05212 | 9.33522 | 324° | 18km/h | 25442m | 5.5m/s | -50.1°C | 3.7% | 0hPa | 2.6V | 08:30:00 | 02:01:40 | 00:00:00 | |
| DO3MHA-11 | 2026-09-03 00:35:30 | 45.05230 | 9.33509 | 335° | 16km/h | 25468m | 5.5m/s | -50.0°C | 3.7% | 0hPa | 2.6V | 00:00:00 | 02:01:45 | 00:00:00 | |
| NBG1-10 | 2026-09-03 00:35:27 | 45.05219 | 9.33516 | 332° | 16km/h | 25453m | 5.0m/s | -50.0°C | 3.7% | 0hPa | 2.6V | 00:00:00 | 02:01:42 | 00:00:00 | |
| OE5DRO-10 | 2026-09-03 00:35:23 | 45.05204 | 9.33529 | 335° | 16km/h | 25432m | 5.5m/s | 0°C | 0% | 0hPa | 2.6V | 00:00:00 | 00:00:00 | 00:00:00 | |
| DB0UT-7 | 2026-09-03 00:35:21 | 45.05196 | 9.33533 | 341° | 16km/h | 25422m | 3.8m/s | -50.1°C | 3.7% | 0hPa | 2.6V | 00:00:00 | 00:00:00 | 00:00:00 | |
| IW2NTF | 2026-09-03 00:35:20 | 45.05179 | 9.33563 | 302° | 20km/h | 25390m | 5.6m/s | -50°C | 3.7% | 0hPa | 2.6V | 08:30:00 | 02:01:30 | 00:00:00 | |
| DO3MHA-11 | 2026-09-03 00:35:20 | 45.05193 | 9.33535 | 331° | 18km/h | 25418m | 4.0m/s | -50.0°C | 3.7% | 0hPa | 2.5V | 00:00:00 | 02:01:35 | 00:00:00 | |
| IW2NTF | 2026-09-03 00:35:10 | 45.05151 | 9.33601 | 293° | 11km/h | 25338m | 4.6m/s | -50°C | 3.6% | 0hPa | 2.5V | 08:30:00 | 02:01:20 | 00:00:00 | |
| DO3MHA-11 | 2026-09-03 00:35:08 | 45.05157 | 9.33591 | 314° | 15km/h | 25354m | 5.2m/s | -49.9°C | 3.6% | 0hPa | 2.6V | 00:00:00 | 02:01:23 | 00:00:00 | |
| OE5DRO-10 | 2026-09-03 00:35:04 | 45.05150 | 9.33606 | 283° | 15km/h | 25333m | 5.8m/s | 0°C | 0% | 0hPa | 2.5V | 00:00:00 | 00:00:00 | 00:00:00 | |
| DO3MHA-11 | 2026-09-03 00:34:58 | 45.05143 | 9.33640 | 308° | 13km/h | 25302m | 4.2m/s | -49.9°C | 3.6% | 0hPa | 2.5V | 00:00:00 | 02:01:13 | 00:00:00 | |
| IW2NTF | 2026-09-03 00:34:57 | 45.05139 | 9.33652 | 279° | 16km/h | 25287m | 5.4m/s | -49.9°C | 3.6% | 0hPa | 2.5V | 08:30:00 | 02:01:10 | 00:00:00 | |
| NBG1-10 | 2026-09-03 00:34:54 | 45.05139 | 9.33658 | 272° | 15km/h | 25282m | 4.9m/s | -49.9°C | 3.6% | 0hPa | 2.5V | 00:00:00 | 02:01:09 | 08:30:00 | |
| DB0UT-7 | 2026-09-03 00:34:51 | 45.05139 | 9.33673 | 265° | 15km/h | 25266m | 4.7m/s | -49.9°C | 3.6% | 0hPa | 2.6V | 00:00:00 | 02:01:06 | 00:00:00 | |
| DO3MHA-11 | 2026-09-03 00:34:47 | 45.05142 | 9.33693 | 253° | 13km/h | 25245m | 4.3m/s | -49.9°C | 3.6% | 0hPa | 2.6V | 00:00:00 | 02:01:02 | 00:00:00 | |
| OE5DRO-10 | 2026-09-03 00:34:45 | 45.05144 | 9.33703 | 248° | 13km/h | 25234m | 5.9m/s | 0°C | 0% | 0hPa | 2.6V | 00:00:00 | 00:00:00 | 00:00:00 | |
| IW2NTF | 2026-09-03 00:34:44 | 45.05147 | 9.33710 | 247° | 11km/h | 25223m | 5.1m/s | -49.9°C | 3.6% | 0hPa | 2.6V | 08:30:00 | 02:00:58 | 00:00:00 | |
| DO3MHA-11 | 2026-09-03 00:34:37 | 45.05153 | 9.33735 | 243° | 16km/h | 25193m | 4.5m/s | -49.8°C | 3.6% | 0hPa | 2.6V | 00:00:00 | 02:00:52 | 00:00:00 | |
| IW2NTF | 2026-09-03 00:34:36 | 45.05159 | 9.33749 | 237° | 16km/h | 25172m | 5m/s | -49.7°C | 3.6% | 0hPa | 2.5V | 08:30:00 | 02:00:48 | 00:00:00 | |
| IW2NTF | 2026-09-03 00:34:27 | 45.05202 | 9.33777 | 221° | 9km/h | 25120m | 6m/s | -49.7°C | 3.5% | 0hPa | 2.5V | 08:30:00 | 02:00:38 | 00:00:00 | |
| DB0UT-7 | 2026-09-03 00:34:21 | 45.05204 | 9.33781 | 258° | 13km/h | 25110m | 4.9m/s | -49.7°C | 3.5% | 0hPa | 2.6V | 00:00:00 | 00:00:00 | 08:30:00 | |
| IW2NTF | 2026-09-03 00:34:18 | 45.05227 | 9.33803 | 185° | 22km/h | 25069m | 5.7m/s | -50.1°C | 3.6% | 0hPa | 2.5V | 08:30:00 | 02:00:28 | 00:00:00 | |
| DO3MHA-11 | 2026-09-03 00:34:17 | 45.05208 | 9.33797 | 224° | 15km/h | 25089m | 5.2m/s | -49.9°C | 3.6% | 0hPa | 2.5V | 00:00:00 | 02:00:32 | 00:00:00 | |
| IW2NTF | 2026-09-03 00:34:09 | 45.05251 | 9.33798 | 152° | 11km/h | 25015m | 4.4m/s | -50.3°C | 3.6% | 0hPa | 2.5V | 08:30:00 | 02:00:18 | 00:00:00 | |
| DO3MHA-11 | 2026-09-03 00:34:08 | 45.05243 | 9.33806 | 140° | 13km/h | 25036m | 5.3m/s | -50.1°C | 3.6% | 0hPa | 2.5V | 00:00:00 | 02:00:22 | 08:30:00 | |
| IW2NTF | 2026-09-03 00:33:58 | 45.05268 | 9.33768 | 93° | 11km/h | 24962m | 4.8m/s | -50.6°C | 3.6% | 0hPa | 2.5V | 08:30:00 | 02:00:08 | 00:00:00 | |
| DO3MHA-11 | 2026-09-03 00:33:57 | 45.05268 | 9.33781 | 119° | 7km/h | 24983m | 4.9m/s | -50.4°C | 3.6% | 0hPa | 2.6V | 00:00:00 | 02:00:12 | 00:00:00 | |
| DB0UT-7 | 2026-09-03 00:33:51 | 45.05269 | 9.33761 | 105° | 18km/h | 24952m | 5.4m/s | -50.7°C | 3.6% | 0hPa | 2.6V | 00:00:00 | 02:00:06 | 00:00:00 | |
| IW2NTF | 2026-09-03 00:33:48 | 45.05269 | 9.33732 | 56° | 24km/h | 24912m | 6.1m/s | -51.2°C | 3.8% | 0hPa | 2.6V | 08:30:00 | 01:59:58 | 00:00:00 | |
| NBG1-10 | 2026-09-03 00:33:48 | 45.05271 | 9.33757 | 127° | 18km/h | 24937m | 4.3m/s | -51.0°C | 3.7% | 0hPa | 2.6V | 00:00:00 | 02:00:03 | 00:00:00 | |
| IW2NTF | 2026-09-03 00:33:38 | 45.05234 | 9.33688 | 37° | 9km/h | 24857m | 4.8m/s | -51.5°C | 3.8% | 0hPa | 2.6V | 08:30:00 | 01:59:48 | 00:00:00 | |
| DO3MHA-11 | 2026-09-03 00:33:37 | 45.05241 | 9.33699 | 50° | 16km/h | 24879m | 4.9m/s | -51.3°C | 3.8% | 0hPa | 2.5V | 00:00:00 | 01:59:52 | 00:00:00 | |
| DO3MHA-11 | 2026-09-03 00:33:27 | 45.05207 | 9.33667 | 15° | 20km/h | 24826m | 4.8m/s | -51.7°C | 3.9% | 0hPa | 2.6V | 00:00:00 | 01:59:42 | 00:00:00 | |
| IW2NTF | 2026-09-03 00:33:26 | 45.05179 | 9.33655 | 17° | 24km/h | 24806m | 4.2m/s | -51.7°C | 3.9% | 0hPa | 2.6V | 08:30:00 | 01:59:38 | 00:00:00 | |
| DB0UT-7 | 2026-09-03 00:33:21 | 45.05169 | 9.33653 | 360° | 15km/h | 24797m | 6.1m/s | -51.6°C | 3.9% | 0hPa | 2.5V | 00:00:00 | 00:00:00 | 00:00:00 | |
| DO3MHA-11 | 2026-09-03 00:33:17 | 45.05161 | 9.33658 | 355° | 18km/h | 24776m | 5.3m/s | -51.6°C | 3.8% | 0hPa | 2.5V | 00:00:00 | 01:59:32 | 00:00:00 | |
| IW2NTF | 2026-09-03 00:33:13 | 45.05146 | 9.33657 | 355° | 24km/h | 24756m | 5.8m/s | -51.6°C | 3.8% | 0hPa | 2.5V | 08:30:00 | 01:59:28 | 00:00:00 | |
| IW2NTF | 2026-09-03 00:33:08 | 45.05095 | 9.33659 | 346° | 11km/h | 24705m | 5.9m/s | -52°C | 3.9% | 0hPa | 2.5V | 08:30:00 | 01:59:18 | 00:00:00 | |
| DO3MHA-11 | 2026-09-03 00:33:07 | 45.05111 | 9.33659 | 12° | 16km/h | 24726m | 4.8m/s | -51.7°C | 3.8% | 0hPa | 2.6V | 00:00:00 | 01:59:22 | 00:00:00 | |
| IW2NTF | 2026-09-03 00:32:59 | 45.05065 | 9.33696 | 335° | 11km/h | 24655m | 4m/s | -52.4°C | 4% | 0hPa | 2.5V | 08:30:00 | 01:59:08 | 00:00:00 | |
| DO3MHA-11 | 2026-09-03 00:32:57 | 45.05078 | 9.33682 | 316° | 16km/h | 24674m | 4.2m/s | -52.3°C | 4.0% | 0hPa | 2.6V | 00:00:00 | 01:59:12 | 00:00:00 | |
| DB0UT-7 | 2026-09-03 00:32:51 | 45.05059 | 9.33699 | 339° | 11km/h | 24646m | 5.5m/s | -52.4°C | 4.0% | 0hPa | 2.6V | 00:00:00 | 01:59:06 | 00:00:00 | |
| IW2NTF | 2026-09-03 00:32:49 | 45.05034 | 9.33720 | 304° | 13km/h | 24605m | 5.8m/s | -52.6°C | 4% | 0hPa | 2.5V | 08:30:00 | 01:58:58 | 00:00:00 | |
| DO3MHA-11 | 2026-09-03 00:32:47 | 45.05043 | 9.33710 | 334° | 13km/h | 24625m | 6.0m/s | -52.4°C | 4.0% | 0hPa | 2.5V | 00:00:00 | 01:59:02 | 00:00:00 | |
| IW2NTF | 2026-09-03 00:32:39 | 45.05020 | 9.33743 | 350° | 13km/h | 24553m | 5.1m/s | -52.7°C | 4.1% | 0hPa | 2.5V | 08:30:00 | 01:58:48 | 00:00:00 | |
| DO3MHA-11 | 2026-09-03 00:32:37 | 45.05027 | 9.33741 | 335° | 11km/h | 24575m | 4.9m/s | -52.6°C | 4.1% | 0hPa | 2.5V | 00:00:00 | 01:58:52 | 08:30:00 | |
| NBG1-10 | 2026-09-03 00:32:34 | 45.05023 | 9.33742 | 350° | 11km/h | 24558m | 4.8m/s | -52.7°C | 4.0% | 0hPa | 2.6V | 00:00:00 | 01:58:49 | 00:00:00 | |
| DO3MHA-11 | 2026-09-03 00:32:27 | 45.05003 | 9.33760 | 302° | 11km/h | 24522m | 4.4m/s | -52.6°C | 4.0% | 0hPa | 2.6V | 00:00:00 | 01:58:42 | 00:00:00 | |
| IW2NTF | 2026-09-03 00:32:25 | 45.04993 | 9.33768 | 11° | 7km/h | 24493m | 5.6m/s | -52.8°C | 4% | 0hPa | 2.6V | 08:30:00 | 01:58:36 | 00:00:00 | |
| DB0UT-7 | 2026-09-03 00:32:21 | 45.04993 | 9.33768 | 12° | 13km/h | 24493m | 5.6m/s | -52.7°C | 4.0% | 0hPa | 2.5V | 00:00:00 | 00:00:00 | 00:00:00 | |
| DO3MHA-11 | 2026-09-03 00:32:17 | 45.04985 | 9.33776 | 303° | 15km/h | 24473m | 5.6m/s | -52.8°C | 4.1% | 0hPa | 2.5V | 00:00:00 | 01:58:32 | 00:00:00 | |
| IW2NTF | 2026-09-03 00:32:13 | 45.04977 | 9.33818 | 274° | 11km/h | 24431m | 5.7m/s | -52.9°C | 4.1% | 0hPa | 2.5V | 08:30:00 | 01:58:24 | 00:00:00 | |
| DO3MHA-11 | 2026-09-03 00:32:07 | 45.04977 | 9.33824 | 261° | 13km/h | 24421m | 4.5m/s | -52.8°C | 4.0% | 0hPa | 2.6V | 00:00:00 | 01:58:22 | 00:00:00 | |
| IW2NTF | 2026-09-03 00:32:04 | 45.04981 | 9.33861 | 264° | 11km/h | 24380m | 4.9m/s | -53°C | 4.1% | 0hPa | 2.6V | 08:30:00 | 01:58:14 | 00:00:00 | |
| DO3MHA-11 | 2026-09-03 00:31:57 | 45.04980 | 9.33870 | 283° | 9km/h | 24370m | 4.5m/s | -53.0°C | 4.1% | 0hPa | 2.6V | 00:00:00 | 01:58:12 | 00:00:00 | |
| IW2NTF | 2026-09-03 00:31:55 | 45.04988 | 9.33892 | 233° | 9km/h | 24329m | 4.5m/s | -53°C | 4.1% | 0hPa | 2.6V | 08:30:00 | 01:58:04 | 00:00:00 | |
| DB0UT-7 | 2026-09-03 00:31:51 | 45.04985 | 9.33887 | 219° | 5km/h | 24340m | 5.9m/s | -53.0°C | 4.1% | 0hPa | 2.6V | 00:00:00 | 01:58:06 | 00:00:00 | |
| NBG1-10 | 2026-09-03 00:31:48 | 45.04989 | 9.33895 | 228° | 5km/h | 24324m | 5.7m/s | -53.0°C | 4.1% | 0hPa | 2.6V | 00:00:00 | 01:58:03 | 00:00:00 | |
| DO3MHA-11 | 2026-09-03 00:31:47 | 45.04991 | 9.33897 | 217° | 5km/h | 24318m | 5.5m/s | -53.0°C | 4.1% | 0hPa | 2.6V | 00:00:00 | 01:58:02 | 00:00:00 | |
| IW2NTF | 2026-09-03 00:31:45 | 45.04993 | 9.33913 | 104° | 2km/h | 24279m | 5.1m/s | -53.1°C | 4.1% | 0hPa | 2.6V | 08:30:00 | 01:57:54 | 00:00:00 | |
| DO3MHA-11 | 2026-09-03 00:31:37 | 45.04993 | 9.33911 | 160° | 4km/h | 24269m | 4.9m/s | -53.1°C | 4.1% | 0hPa | 2.5V | 00:00:00 | 01:57:52 | 00:00:00 | |
| IW2NTF | 2026-09-03 00:31:29 | 45.04999 | 9.33918 | 305° | 4km/h | 24218m | 4.7m/s | -53.4°C | 4.2% | 0hPa | 2.6V | 08:30:00 | 01:57:42 | 00:00:00 | |
| DO3MHA-11 | 2026-09-03 00:31:27 | 45.04999 | 9.33918 | 306° | 9km/h | 24218m | 4.7m/s | -53.4°C | 4.2% | 0hPa | 2.5V | 00:00:00 | 01:57:42 | 00:00:00 | |
| DB0UT-7 | 2026-09-03 00:31:21 | 45.04989 | 9.33923 | 313° | 7km/h | 24187m | 5.1m/s | -53.5°C | 4.2% | 0hPa | 2.5V | 00:00:00 | 00:00:00 | 00:00:00 | |
| IW2NTF | 2026-09-03 00:31:18 | 45.04985 | 9.33935 | 237° | 4km/h | 24167m | 5.3m/s | -53.5°C | 4.2% | 0hPa | 2.6V | 08:30:00 | 01:57:32 | 00:00:00 | |
| DO3MHA-11 | 2026-09-03 00:31:17 | 45.04985 | 9.33934 | 238° | 7km/h | 24168m | 5.3m/s | -53.5°C | 4.2% | 0hPa | 2.5V | 00:00:00 | 01:57:32 | 00:00:00 | |
| NBG1-10 | 2026-09-03 00:31:15 | 45.04987 | 9.33935 | 188° | 7km/h | 24158m | 4.3m/s | -53.5°C | 4.2% | 0hPa | 2.5V | 00:00:00 | 01:57:30 | 00:00:00 | |
| IW2NTF | 2026-09-03 00:31:13 | 45.04982 | 9.33957 | 304° | 11km/h | 24117m | 5.6m/s | -53.5°C | 4.2% | 0hPa | 2.5V | 08:30:00 | 01:57:22 | 00:00:00 | |
| DO3MHA-11 | 2026-09-03 00:31:08 | 45.04982 | 9.33957 | 305° | 7km/h | 24117m | 5.6m/s | -53.4°C | 4.2% | 0hPa | 2.5V | 00:00:00 | 01:57:22 | 08:30:00 | |
| IW2NTF | 2026-09-03 00:31:02 | 45.04995 | 9.33964 | 161° | 2km/h | 24065m | 5.6m/s | -53.4°C | 4.2% | 0hPa | 2.5V | 08:30:00 | 01:57:12 | 00:00:00 | |
| DO3MHA-11 | 2026-09-03 00:30:57 | 45.04995 | 9.33964 | 162° | 5km/h | 24065m | 5.6m/s | -53.3°C | 4.2% | 0hPa | 2.6V | 00:00:00 | 01:57:12 | 00:00:00 | |
| IW2NTF | 2026-09-03 00:30:52 | 45.04982 | 9.33966 | 71° | 4km/h | 24016m | 5.5m/s | -53.5°C | 4.2% | 0hPa | 2.6V | 08:30:00 | 01:57:02 | 00:00:00 | |
| DB0UT-7 | 2026-09-03 00:30:51 | 45.04988 | 9.33969 | 342° | 7km/h | 24036m | 5.3m/s | -53.4°C | 4.2% | 0hPa | 2.5V | 00:00:00 | 01:57:06 | 00:00:00 | |
| DO3MHA-11 | 2026-09-03 00:30:47 | 45.04982 | 9.33966 | 72° | 5km/h | 24016m | 5.5m/s | -53.4°C | 4.2% | 0hPa | 2.5V | 00:00:00 | 01:57:02 | 00:00:00 | |
| IW2NTF | 2026-09-03 00:30:43 | 45.04979 | 9.33953 | 20° | 9km/h | 23964m | 4.9m/s | -53.5°C | 4.2% | 0hPa | 2.5V | 08:30:00 | 01:56:52 | 00:00:00 | |
| NBG1-10 | 2026-09-03 00:30:42 | 45.04987 | 9.33962 | 90° | 7km/h | 23990m | 5.0m/s | -53.5°C | 4.2% | 0hPa | 2.5V | 00:00:00 | 01:56:57 | 00:00:00 | |
| DO3MHA-11 | 2026-09-03 00:30:37 | 45.04979 | 9.33953 | 21° | 5km/h | 23964m | 4.8m/s | -53.4°C | 4.2% | 0hPa | 2.5V | 00:00:00 | 01:56:52 | 00:00:00 | |
| IW2NTF | 2026-09-03 00:30:31 | 45.04967 | 9.33945 | 10° | 11km/h | 23913m | 4.6m/s | -53.5°C | 4.2% | 0hPa | 2.5V | 08:30:00 | 01:56:42 | 00:00:00 | |
| DO3MHA-11 | 2026-09-03 00:30:27 | 45.04967 | 9.33945 | 11° | 7km/h | 23914m | 4.6m/s | -53.4°C | 4.2% | 0hPa | 2.5V | 00:00:00 | 01:56:42 | 00:00:00 | |
| IW2NTF | 2026-09-03 00:30:21 | 45.04955 | 9.33956 | 289° | 4km/h | 23862m | 5.6m/s | -53.6°C | 4.2% | 0hPa | 2.5V | 08:30:00 | 01:56:32 | 00:00:00 | |
| DO3MHA-11 | 2026-09-03 00:30:17 | 45.04954 | 9.33956 | 290° | 11km/h | 23862m | 5.6m/s | -53.5°C | 4.2% | 0hPa | 2.6V | 00:00:00 | 01:56:32 | 00:00:00 | |
| IW2NTF | 2026-09-03 00:30:10 | 45.04932 | 9.33980 | 314° | 11km/h | 23813m | 5.4m/s | -53.5°C | 4.3% | 0hPa | 2.6V | 08:30:00 | 01:56:22 | 00:00:00 | |
| NBG1-10 | 2026-09-03 00:30:09 | 45.04936 | 9.33973 | 309° | 16km/h | 23822m | 4.0m/s | -53.5°C | 4.3% | 0hPa | 2.6V | 00:00:00 | 01:56:24 | 00:00:00 | |
| DO3MHA-11 | 2026-09-03 00:30:07 | 45.04932 | 9.33980 | 315° | 13km/h | 23813m | 5.4m/s | -53.5°C | 4.3% | 0hPa | 2.6V | 00:00:00 | 01:56:22 | 00:00:00 | |
| IW2NTF | 2026-09-03 00:30:00 | 45.04907 | 9.34006 | 336° | 18km/h | 23764m | 4.8m/s | -53.2°C | 4.2% | 0hPa | 2.6V | 08:30:00 | 01:56:12 | 00:00:00 | |
| DO3MHA-11 | 2026-09-03 00:29:57 | 45.04907 | 9.34006 | 337° | 20km/h | 23764m | 4.8m/s | -53.2°C | 4.2% | 0hPa | 2.5V | 00:00:00 | 01:56:12 | 00:00:00 | |
| IW2NTF | 2026-09-03 00:29:52 | 45.04870 | 9.34052 | 311° | 24km/h | 23715m | 5.5m/s | -53.1°C | 4.1% | 0hPa | 2.5V | 08:30:00 | 01:56:02 | 00:00:00 | |
| DB0UT-7 | 2026-09-03 00:29:51 | 45.04886 | 9.34031 | 313° | 18km/h | 23736m | 5.5m/s | -53.1°C | 4.1% | 0hPa | 2.6V | 00:00:00 | 01:56:06 | 08:30:00 | |
| DO3MHA-11 | 2026-09-03 00:29:47 | 45.04870 | 9.34052 | 312° | 18km/h | 23716m | 5.4m/s | -53.1°C | 4.1% | 0hPa | 2.5V | 00:00:00 | 01:56:02 | 00:00:00 | |
| IW2NTF | 2026-09-03 00:29:42 | 45.04836 | 9.34095 | 299° | 15km/h | 23666m | 5.2m/s | -53.4°C | 4.2% | 0hPa | 2.5V | 08:30:00 | 01:55:52 | 00:00:00 | |
| DO3MHA-11 | 2026-09-03 00:29:37 | 45.04836 | 9.34095 | 300° | 16km/h | 23666m | 5.1m/s | -53.3°C | 4.2% | 0hPa | 2.5V | 00:00:00 | 01:55:52 | 08:30:00 | |
| NBG1-10 | 2026-09-03 00:29:36 | 45.04834 | 9.34099 | 304° | 11km/h | 23661m | 5.3m/s | -53.4°C | 4.2% | 0hPa | 2.6V | 00:00:00 | 01:55:51 | 08:30:00 | |
| IW2NTF | 2026-09-03 00:29:32 | 45.04812 | 9.34141 | 317° | 13km/h | 23616m | 4.5m/s | -53.3°C | 4.3% | 0hPa | 2.5V | 08:30:00 | 01:55:42 | 00:00:00 | |
| DO3MHA-11 | 2026-09-03 00:29:27 | 45.04812 | 9.34141 | 318° | 15km/h | 23617m | 4.4m/s | -53.3°C | 4.3% | 0hPa | 2.5V | 00:00:00 | 01:55:42 | 00:00:00 | |
| IW2NTF | 2026-09-03 00:29:22 | 45.04787 | 9.34185 | 301° | 18km/h | 23567m | 5.1m/s | -53.2°C | 4.2% | 0hPa | 2.5V | 08:30:00 | 01:55:32 | 00:00:00 | |
| DB0UT-7 | 2026-09-03 00:29:21 | 45.04796 | 9.34168 | 313° | 15km/h | 23587m | 5.1m/s | -53.2°C | 4.2% | 0hPa | 2.5V | 00:00:00 | 00:00:00 | 00:00:00 | |
| DO3MHA-11 | 2026-09-03 00:29:17 | 45.04787 | 9.34185 | 302° | 15km/h | 23567m | 5.0m/s | -53.1°C | 4.2% | 0hPa | 2.5V | 00:00:00 | 01:55:32 | 00:00:00 | |
| IW2NTF | 2026-09-03 00:29:07 | 45.04782 | 9.34235 | 273° | 11km/h | 23517m | 5.2m/s | -53.2°C | 4.2% | 0hPa | 2.5V | 08:30:00 | 01:55:22 | 00:00:00 | |
| DO3MHA-11 | 2026-09-03 00:29:06 | 45.04782 | 9.34239 | 272° | 16km/h | 23513m | 4.4m/s | -53.2°C | 4.2% | 0hPa | 2.5V | 00:00:00 | 01:55:21 | 00:00:00 | |
| IW2NTF | 2026-09-03 00:29:00 | 45.04785 | 9.34292 | 262° | 20km/h | 23467m | 4.7m/s | -53.1°C | 4.2% | 0hPa | 2.5V | 08:30:00 | 01:55:12 | 00:00:00 | |
| DO3MHA-11 | 2026-09-03 00:28:56 | 45.04786 | 9.34299 | 258° | 20km/h | 23463m | 4.2m/s | -53.1°C | 4.2% | 0hPa | 2.6V | 00:00:00 | 01:55:11 | 00:00:00 | |
| DB0UT-7 | 2026-09-03 00:28:51 | 45.04793 | 9.34322 | 251° | 22km/h | 23438m | 5.4m/s | -53.1°C | 4.2% | 0hPa | 2.6V | 00:00:00 | 01:55:06 | 00:00:00 | |
| IW2NTF | 2026-09-03 00:28:49 | 45.04802 | 9.34352 | 241° | 27km/h | 23417m | 5.2m/s | -53.1°C | 4.2% | 0hPa | 2.6V | 08:30:00 | 01:55:02 | 00:00:00 | |
| DO3MHA-11 | 2026-09-03 00:28:45 | 45.04808 | 9.34369 | 242° | 24km/h | 23408m | 4.1m/s | -53.0°C | 4.2% | 0hPa | 2.5V | 00:00:00 | 01:55:00 | 00:00:00 | |
| IW2NTF | 2026-09-03 00:28:38 | 45.04834 | 9.34436 | 238° | 16km/h | 23364m | 5.5m/s | -52.9°C | 4.1% | 0hPa | 2.5V | 08:30:00 | 01:54:51 | 00:00:00 | |
| DO3MHA-11 | 2026-09-03 00:28:34 | 45.04837 | 9.34447 | 250° | 20km/h | 23354m | 4.6m/s | -52.8°C | 4.1% | 0hPa | 2.5V | 00:00:00 | 01:54:49 | 00:00:00 | |
| IW2NTF | 2026-09-03 00:28:26 | 45.04854 | 9.34500 | 222° | 20km/h | 23313m | 4.7m/s | -52.7°C | 4.1% | 0hPa | 2.5V | 08:30:00 | 01:54:41 | 00:00:00 | |
| DO3MHA-11 | 2026-09-03 00:28:23 | 45.04864 | 9.34510 | 217° | 11km/h | 23299m | 5.4m/s | -52.6°C | 4.1% | 0hPa | 2.6V | 00:00:00 | 01:54:38 | 00:00:00 | |
| DB0UT-7 | 2026-09-03 00:28:21 | 45.04867 | 9.34514 | 245° | 11km/h | 23289m | 4.3m/s | -52.6°C | 4.1% | 0hPa | 2.6V | 00:00:00 | 00:00:00 | 00:00:00 | |
| IW2NTF | 2026-09-03 00:28:19 | 45.04873 | 9.34530 | 248° | 13km/h | 23265m | 5.5m/s | -52.6°C | 4% | 0hPa | 2.5V | 08:30:00 | 01:54:31 | 00:00:00 | |
| DO3MHA-11 | 2026-09-03 00:28:13 | 45.04876 | 9.34545 | 249° | 13km/h | 23250m | 5.2m/s | -52.5°C | 4.0% | 0hPa | 2.6V | 00:00:00 | 01:54:28 | 00:00:00 | |
| IW2NTF | 2026-09-03 00:28:07 | 45.04892 | 9.34570 | 212° | 9km/h | 23216m | 4.8m/s | -52.6°C | 4% | 0hPa | 2.6V | 08:30:00 | 01:54:21 | 00:00:00 | |
| DO3MHA-11 | 2026-09-03 00:28:01 | 45.04905 | 9.34584 | 230° | 5km/h | 23192m | 5.5m/s | -52.5°C | 4.0% | 0hPa | 2.5V | 00:00:00 | 01:54:16 | 08:30:00 | |
| IW2NTF | 2026-09-03 00:27:58 | 45.04914 | 9.34591 | 184° | 5km/h | 23167m | 4.8m/s | -52.6°C | 4% | 0hPa | 2.5V | 08:30:00 | 01:54:11 | 00:00:00 | |
| DB0UT-7 | 2026-09-03 00:27:51 | 45.04914 | 9.34594 | 275° | 5km/h | 23141m | 5.0m/s | -52.5°C | 4.0% | 0hPa | 2.5V | 00:00:00 | 01:54:06 | 00:00:00 | |
| DO3MHA-11 | 2026-09-03 00:27:50 | 45.04914 | 9.34596 | 273° | 5km/h | 23136m | 4.0m/s | -52.6°C | 4.1% | 0hPa | 2.5V | 00:00:00 | 01:54:05 | 00:00:00 | |
| IW2NTF | 2026-09-03 00:27:47 | 45.04912 | 9.34604 | 269° | 4km/h | 23117m | 4.7m/s | -52.7°C | 4% | 0hPa | 2.5V | 08:30:00 | 01:54:01 | 00:00:00 | |
| IW2NTF | 2026-09-03 00:27:42 | 45.04917 | 9.34607 | 216° | 9km/h | 23070m | 4.2m/s | -52.8°C | 4.1% | 0hPa | 2.5V | 08:30:00 | 01:53:51 | 00:00:00 | |
| DO3MHA-11 | 2026-09-03 00:27:40 | 45.04914 | 9.34605 | 39° | 5km/h | 23089m | 4.3m/s | -52.7°C | 4.1% | 0hPa | 2.5V | 00:00:00 | 01:53:55 | 00:00:00 | |
| DO3MHA-11 | 2026-09-03 00:27:30 | 45.04923 | 9.34622 | 204° | 5km/h | 23043m | 5.1m/s | -52.7°C | 4.1% | 0hPa | 2.5V | 00:00:00 | 01:53:45 | 00:00:00 | |
| IW2NTF | 2026-09-03 00:27:27 | 45.04929 | 9.34621 | 89° | 4km/h | 23023m | 5m/s | -52.8°C | 4.1% | 0hPa | 2.6V | 08:30:00 | 01:53:41 | 00:00:00 | |
| DB0UT-7 | 2026-09-03 00:27:21 | 45.04931 | 9.34619 | 221° | 7km/h | 23001m | 4.2m/s | -52.8°C | 4.1% | 0hPa | 2.5V | 00:00:00 | 00:00:00 | 00:00:00 | |
| DO3MHA-11 | 2026-09-03 00:27:20 | 45.04932 | 9.34621 | 241° | 9km/h | 22996m | 5.5m/s | -52.8°C | 4.1% | 0hPa | 2.5V | 00:00:00 | 01:53:35 | 00:00:00 | |
| IW2NTF | 2026-09-03 00:27:17 | 45.04934 | 9.34633 | 240° | 7km/h | 22975m | 5.7m/s | -52.7°C | 4.1% | 0hPa | 2.5V | 08:30:00 | 01:53:31 | 00:00:00 | |
| IW2NTF | 2026-09-03 00:27:11 | 45.04941 | 9.34617 | 92° | 2km/h | 22927m | 5.5m/s | -52.6°C | 4% | 0hPa | 2.5V | 08:30:00 | 01:53:21 | 00:00:00 | |
| DO3MHA-11 | 2026-09-03 00:27:10 | 45.04938 | 9.34627 | 105° | 7km/h | 22946m | 5.6m/s | -52.5°C | 4.0% | 0hPa | 2.5V | 00:00:00 | 01:53:25 | 00:00:00 | |
| DO3MHA-11 | 2026-09-03 00:27:00 | 45.04947 | 9.34620 | 160° | 11km/h | 22900m | 4.1m/s | -52.6°C | 4.0% | 0hPa | 2.5V | 00:00:00 | 01:53:15 | 00:00:00 | |
| IW2NTF | 2026-09-03 00:26:57 | 45.04956 | 9.34609 | 128° | 11km/h | 22880m | 4.5m/s | -52.7°C | 4% | 0hPa | 2.5V | 08:30:00 | 01:53:11 | 00:00:00 | |
| DB0UT-7 | 2026-09-03 00:26:51 | 45.04967 | 9.34608 | 216° | 9km/h | 22855m | 5.0m/s | -52.9°C | 4.1% | 0hPa | 2.5V | 00:00:00 | 01:53:06 | 00:00:00 | |
| DO3MHA-11 | 2026-09-03 00:26:50 | 45.04969 | 9.34610 | 220° | 7km/h | 22850m | 3.7m/s | -52.9°C | 4.1% | 0hPa | 2.6V | 00:00:00 | 01:53:05 | 00:00:00 | |
| IW2NTF | 2026-09-03 00:26:46 | 45.04978 | 9.34616 | 169° | 7km/h | 22832m | 4.3m/s | -53°C | 4% | 0hPa | 2.6V | 08:30:00 | 01:53:01 | 00:00:00 | |
| IW2NTF | 2026-09-03 00:26:41 | 45.04988 | 9.34607 | 207° | 7km/h | 22783m | 4.5m/s | -53.3°C | 4.1% | 0hPa | 2.5V | 08:30:00 | 01:52:51 | 00:00:00 | |
| DO3MHA-11 | 2026-09-03 00:26:40 | 45.04982 | 9.34603 | 177° | 9km/h | 22803m | 4.1m/s | -53.2°C | 4.1% | 0hPa | 2.6V | 00:00:00 | 01:52:55 | 00:00:00 | |
| DO3MHA-11 | 2026-09-03 00:26:30 | 45.05002 | 9.34605 | 130° | 11km/h | 22755m | 5.4m/s | -53.5°C | 4.1% | 0hPa | 2.6V | 00:00:00 | 01:52:45 | 08:30:00 | |
| IW2NTF | 2026-09-03 00:26:28 | 45.05008 | 9.34592 | 150° | 13km/h | 22736m | 4.7m/s | -53.6°C | 4.2% | 0hPa | 2.5V | 08:30:00 | 01:52:41 | 00:00:00 | |
| IW2NTF | 2026-09-03 00:26:22 | 45.05033 | 9.34602 | 173° | 13km/h | 22689m | 5.2m/s | -53.8°C | 4.2% | 0hPa | 2.5V | 08:30:00 | 01:52:31 | 00:00:00 | |
| DB0UT-7 | 2026-09-03 00:26:21 | 45.05020 | 9.34593 | 226° | 9km/h | 22713m | 4.1m/s | -53.7°C | 4.2% | 0hPa | 2.6V | 00:00:00 | 00:00:00 | 00:00:00 | |
| DO3MHA-11 | 2026-09-03 00:26:20 | 45.05021 | 9.34595 | 223° | 13km/h | 22708m | 4.7m/s | -53.8°C | 4.2% | 0hPa | 2.6V | 00:00:00 | 01:52:35 | 00:00:00 | |
| DO3MHA-11 | 2026-09-03 00:26:09 | 45.05049 | 9.34587 | 174° | 5km/h | 22655m | 4.2m/s | -53.9°C | 4.2% | 0hPa | 2.6V | 00:00:00 | 01:52:24 | 00:00:00 | |
| IW2NTF | 2026-09-03 00:26:08 | 45.05053 | 9.34588 | 211° | 4km/h | 22640m | 4.2m/s | -54.1°C | 4.3% | 0hPa | 2.6V | 08:30:00 | 01:52:21 | 00:00:00 | |
| IW2NTF | 2026-09-03 00:26:02 | 45.05069 | 9.34577 | 136° | 13km/h | 22591m | 3.8m/s | -54.4°C | 4.3% | 0hPa | 2.5V | 08:30:00 | 01:52:11 | 00:00:00 | |
| DO3MHA-11 | 2026-09-03 00:25:59 | 45.05063 | 9.34586 | 125° | 11km/h | 22606m | 4.4m/s | -54.3°C | 4.3% | 0hPa | 2.6V | 00:00:00 | 01:52:14 | 00:00:00 | |
| NBG1-10 | 2026-09-03 00:25:58 | 45.05064 | 9.34583 | 135° | 7km/h | 22601m | 5.4m/s | -54.3°C | 4.3% | 0hPa | 2.5V | 00:00:00 | 01:52:13 | 00:00:00 | |
| DB0UT-7 | 2026-09-03 00:25:51 | 45.05075 | 9.34560 | 130° | 5km/h | 22568m | 5.6m/s | -54.8°C | 4.4% | 0hPa | 2.5V | 00:00:00 | 01:52:06 | 00:00:00 | |
| DO3MHA-11 | 2026-09-03 00:25:49 | 45.05078 | 9.34557 | 164° | 5km/h | 22558m | 4.4m/s | -55.0°C | 4.5% | 0hPa | 2.5V | 00:00:00 | 01:52:04 | 00:00:00 | |
| IW2NTF | 2026-09-03 00:25:48 | 45.05081 | 9.34556 | 162° | 4km/h | 22542m | 4.2m/s | -55.1°C | 4.5% | 0hPa | 2.5V | 08:30:00 | 01:52:01 | 00:00:00 | |
| IW2NTF | 2026-09-03 00:25:42 | 45.05083 | 9.34534 | 269° | 2km/h | 22495m | 3.8m/s | -55°C | 4.6% | 0hPa | 2.5V | 08:30:00 | 01:51:51 | 00:00:00 | |
| DO3MHA-11 | 2026-09-03 00:25:39 | 45.05084 | 9.34540 | 77° | 7km/h | 22509m | 4.3m/s | -55.0°C | 4.5% | 0hPa | 2.5V | 00:00:00 | 01:51:54 | 00:00:00 | |
| DO3MHA-11 | 2026-09-03 00:25:29 | 45.05078 | 9.34545 | 203° | 7km/h | 22461m | 4.4m/s | -54.8°C | 4.6% | 0hPa | 2.5V | 00:00:00 | 01:51:44 | 00:00:00 | |
| IW2NTF | 2026-09-03 00:25:27 | 45.05080 | 9.34545 | 338° | 0km/h | 22446m | 5m/s | -54.7°C | 4.5% | 0hPa | 2.6V | 08:30:00 | 01:51:41 | 00:00:00 | |
| NBG1-10 | 2026-09-03 00:25:25 | 45.05079 | 9.34546 | 325° | 11km/h | 22442m | 3.7m/s | -54.7°C | 4.6% | 0hPa | 2.5V | 00:00:00 | 01:51:40 | 00:00:00 | |
| IW2NTF | 2026-09-03 00:25:21 | 45.05066 | 9.34576 | 281° | 7km/h | 22398m | 4.5m/s | -54.5°C | 4.4% | 0hPa | 2.5V | 08:30:00 | 01:51:31 | 00:00:00 | |
| DB0UT-7 | 2026-09-03 00:25:21 | 45.05076 | 9.34555 | 297° | 15km/h | 22423m | 4.3m/s | -54.5°C | 4.5% | 0hPa | 2.5V | 00:00:00 | 00:00:00 | 08:30:00 | |
| DO3MHA-11 | 2026-09-03 00:25:19 | 45.05072 | 9.34564 | 312° | 7km/h | 22413m | 4.6m/s | -54.5°C | 4.4% | 0hPa | 2.5V | 00:00:00 | 01:51:34 | 00:00:00 | |
| DO3MHA-11 | 2026-09-03 00:25:10 | 45.05071 | 9.34579 | 214° | 11km/h | 22366m | 4.7m/s | -54.3°C | 4.4% | 0hPa | 2.5V | 00:00:00 | 01:51:24 | 00:00:00 | |
| IW2NTF | 2026-09-03 00:25:07 | 45.05074 | 9.34588 | 282° | 11km/h | 22352m | 5.3m/s | -54.3°C | 4.4% | 0hPa | 2.5V | 08:30:00 | 01:51:21 | 00:00:00 | |
| IW2NTF | 2026-09-03 00:25:01 | 45.05067 | 9.34628 | 243° | 16km/h | 22303m | 5.1m/s | -54°C | 4.2% | 0hPa | 2.5V | 08:30:00 | 01:51:11 | 00:00:00 | |
| DO3MHA-11 | 2026-09-03 00:24:59 | 45.05066 | 9.34614 | 289° | 13km/h | 22318m | 4.6m/s | -54.0°C | 4.3% | 0hPa | 2.5V | 00:00:00 | 01:51:14 | 08:30:00 | |
| NBG1-10 | 2026-09-03 00:24:52 | 45.05072 | 9.34647 | 282° | 13km/h | 22286m | 4.0m/s | -54.1°C | 4.3% | 0hPa | 2.5V | 00:00:00 | 01:51:07 | 00:00:00 | |
| IW2NTF | 2026-09-03 00:24:50 | 45.05066 | 9.34673 | 293° | 9km/h | 22258m | 5.3m/s | -54.6°C | 4.4% | 0hPa | 2.6V | 08:30:00 | 01:51:01 | 00:00:00 | |
| DB0UT-7 | 2026-09-03 00:24:39 | 45.05072 | 9.34708 | 251° | 16km/h | 22226m | 4.9m/s | -54.5°C | 4.5% | 0hPa | 2.5V | 00:00:00 | 01:50:54 | 00:00:00 | |
| IW2NTF | 2026-09-03 00:24:38 | 45.05074 | 9.34722 | 260° | 15km/h | 22212m | 5.6m/s | -54.5°C | 4.5% | 0hPa | 2.5V | 08:30:00 | 01:50:51 | 00:00:00 | |
| IW2NTF | 2026-09-03 00:24:30 | 45.05083 | 9.34777 | 240° | 13km/h | 22160m | 5.1m/s | -54°C | 4.4% | 0hPa | 2.5V | 08:30:00 | 01:50:40 | 00:00:00 | |
| NBG1-10 | 2026-09-03 00:24:19 | 45.05095 | 9.34790 | 226° | 16km/h | 22131m | 4.8m/s | -53.7°C | 4.2% | 0hPa | 2.6V | 00:00:00 | 01:50:34 | 00:00:00 | |
| IW2NTF | 2026-09-03 00:24:17 | 45.05111 | 9.34806 | 209° | 20km/h | 22111m | 4m/s | -53.6°C | 4.1% | 0hPa | 2.6V | 08:30:00 | 01:50:30 | 00:00:00 | |
| IW2NTF | 2026-09-03 00:24:10 | 45.05135 | 9.34836 | 232° | 13km/h | 22062m | 4.1m/s | -54.2°C | 4.3% | 0hPa | 2.6V | 08:30:00 | 01:50:20 | 00:00:00 | |
| DB0UT-7 | 2026-09-03 00:24:08 | 45.05131 | 9.34829 | 212° | 18km/h | 22077m | 4.1m/s | -54.1°C | 4.2% | 0hPa | 2.5V | 00:00:00 | 00:00:00 | 00:00:00 | |
| IW2NTF | 2026-09-03 00:23:58 | 45.05183 | 9.34848 | 161° | 16km/h | 22013m | 4.6m/s | -54.3°C | 4.2% | 0hPa | 2.5V | 08:30:00 | 01:50:10 | 00:00:00 | |
| IW2NTF | 2026-09-03 00:23:51 | 45.05225 | 9.34837 | 191° | 27km/h | 21967m | 3.9m/s | -54.5°C | 4.3% | 0hPa | 2.5V | 08:30:00 | 01:50:00 | 00:00:00 | |
| NBG1-10 | 2026-09-03 00:23:46 | 45.05219 | 9.34836 | 188° | 20km/h | 21972m | 5.4m/s | -54.4°C | 4.3% | 0hPa | 2.7V | 00:00:00 | 01:50:01 | 00:00:00 | |
| IW2NTF | 2026-09-03 00:23:38 | 45.05287 | 9.34836 | 167° | 26km/h | 21923m | 4.5m/s | -55°C | 4.4% | 0hPa | 2.7V | 08:30:00 | 01:49:50 | 00:00:00 | |
| DB0UT-7 | 2026-09-03 00:23:38 | 45.05270 | 9.34839 | 180° | 20km/h | 21936m | 3.8m/s | -54.6°C | 4.3% | 0hPa | 2.5V | 00:00:00 | 01:49:53 | 00:00:00 | |
| IW2NTF | 2026-09-03 00:23:27 | 45.05336 | 9.34838 | 172° | 15km/h | 21879m | 5.2m/s | -55.2°C | 4.5% | 0hPa | 2.6V | 08:30:00 | 01:49:40 | 00:00:00 | |
| DO3MHA-11 | 2026-09-03 00:23:18 | 45.05359 | 9.34822 | 161° | 22km/h | 21847m | 4.8m/s | -55.2°C | 4.5% | 0hPa | 2.5V | 00:00:00 | 01:49:33 | 00:00:00 | |
| IW2NTF | 2026-09-03 00:23:17 | 45.05372 | 9.34816 | 155° | 20km/h | 21833m | 5.5m/s | -55.2°C | 4.5% | 0hPa | 2.5V | 08:30:00 | 01:49:30 | 00:00:00 | |
| NBG1-10 | 2026-09-03 00:23:13 | 45.05381 | 9.34809 | 144° | 24km/h | 21824m | 3.9m/s | -55.2°C | 4.5% | 0hPa | 2.5V | 00:00:00 | 01:49:28 | 00:00:00 | |
| IW2NTF | 2026-09-03 00:23:08 | 45.05418 | 9.34768 | 151° | 22km/h | 21786m | 5.2m/s | -55.4°C | 4.6% | 0hPa | 2.5V | 08:30:00 | 01:49:20 | 00:00:00 | |
| DB0UT-7 | 2026-09-03 00:23:08 | 45.05405 | 9.34784 | 137° | 27km/h | 21800m | 4.9m/s | -55.3°C | 4.5% | 0hPa | 2.7V | 00:00:00 | 00:00:00 | 00:00:00 | |
| DO3MHA-11 | 2026-09-03 00:23:06 | 45.05414 | 9.34773 | 142° | 22km/h | 21791m | 4.9m/s | -55.3°C | 4.6% | 0hPa | 2.7V | 00:00:00 | 01:49:21 | 00:00:00 | |
| IW2NTF | 2026-09-03 00:23:00 | 45.05473 | 9.34722 | 133° | 35km/h | 21738m | 5.5m/s | -55.3°C | 4.6% | 0hPa | 2.7V | 08:30:00 | 01:49:10 | 00:00:00 | |
| DO3MHA-11 | 2026-09-03 00:22:56 | 45.05467 | 9.34730 | 140° | 26km/h | 21744m | 5.2m/s | -55.2°C | 4.6% | 0hPa | 2.5V | 00:00:00 | 01:49:11 | 00:00:00 | |
| IW2NTF | 2026-09-03 00:22:47 | 45.05524 | 9.34654 | 147° | 24km/h | 21691m | 5m/s | -55.2°C | 4.6% | 0hPa | 2.6V | 08:30:00 | 01:49:00 | 00:00:00 | |
| DO3MHA-11 | 2026-09-03 00:22:44 | 45.05529 | 9.34649 | 149° | 27km/h | 21687m | 3.8m/s | -55.2°C | 4.5% | 0hPa | 2.5V | 00:00:00 | 01:48:59 | 00:00:00 | |
| NBG1-10 | 2026-09-03 00:22:40 | 45.05554 | 9.34620 | 134° | 20km/h | 21669m | 4.2m/s | -55.2°C | 4.5% | 0hPa | 2.5V | 00:00:00 | 01:48:55 | 00:00:00 | |
| DB0UT-7 | 2026-09-03 00:22:38 | 45.05564 | 9.34604 | 132° | 20km/h | 21659m | 4.4m/s | -55.1°C | 4.6% | 0hPa | 2.5V | 00:00:00 | 01:48:53 | 00:00:00 | |
| IW2NTF | 2026-09-03 00:22:36 | 45.05574 | 9.34586 | 120° | 18km/h | 21645m | 5.1m/s | -55.1°C | 4.6% | 0hPa | 2.5V | 08:30:00 | 01:48:50 | 00:00:00 | |
| DO3MHA-11 | 2026-09-03 00:22:34 | 45.05577 | 9.34580 | 121° | 22km/h | 21640m | 4.4m/s | -55.0°C | 4.5% | 0hPa | 2.5V | 00:00:00 | 01:48:49 | 00:00:00 | |
| IW2NTF | 2026-09-03 00:22:27 | 45.05613 | 9.34533 | 125° | 26km/h | 21598m | 4.6m/s | -55°C | 4.5% | 0hPa | 2.5V | 08:30:00 | 01:48:40 | 00:00:00 | |
| DO3MHA-11 | 2026-09-03 00:22:23 | 45.05619 | 9.34519 | 128° | 18km/h | 21589m | 4.5m/s | -54.9°C | 4.5% | 0hPa | 2.7V | 00:00:00 | 01:48:38 | 00:00:00 | |
| IW2NTF | 2026-09-03 00:22:16 | 45.05640 | 9.34481 | 132° | 18km/h | 21551m | 4.7m/s | -54.9°C | 4.4% | 0hPa | 2.7V | 08:30:00 | 01:48:30 | 00:00:00 | |
| DO3MHA-11 | 2026-09-03 00:22:10 | 45.05654 | 9.34453 | 127° | 11km/h | 21527m | 4.5m/s | -54.9°C | 4.4% | 0hPa | 2.6V | 00:00:00 | 01:48:25 | 00:00:00 | |
| IW2NTF | 2026-09-03 00:22:09 | 45.05664 | 9.34430 | 117° | 15km/h | 21504m | 4m/s | -55.2°C | 4.5% | 0hPa | 2.6V | 08:30:00 | 01:48:20 | 00:00:00 | |
| DB0UT-7 | 2026-09-03 00:22:08 | 45.05658 | 9.34444 | 124° | 11km/h | 21518m | 4.3m/s | -54.9°C | 4.4% | 0hPa | 2.5V | 00:00:00 | 00:00:00 | 00:00:00 | |
| NBG1-10 | 2026-09-03 00:22:07 | 45.05660 | 9.34440 | 120° | 11km/h | 21513m | 5.4m/s | -55.0°C | 4.4% | 0hPa | 2.5V | 00:00:00 | 01:48:22 | 00:00:00 | |
| IW2NTF | 2026-09-03 00:21:57 | 45.05680 | 9.34402 | 106° | 13km/h | 21457m | 4.9m/s | -55.4°C | 4.6% | 0hPa | 2.5V | 08:30:00 | 01:48:10 | 00:00:00 | |
| DO3MHA-11 | 2026-09-03 00:21:47 | 45.05684 | 9.34377 | 153° | 15km/h | 21420m | 4.9m/s | -55.3°C | 4.5% | 0hPa | 2.5V | 00:00:00 | 01:48:02 | 08:30:00 | |
| IW2NTF | 2026-09-03 00:21:46 | 45.05689 | 9.34374 | 159° | 11km/h | 21410m | 4.6m/s | -55.4°C | 4.5% | 0hPa | 2.5V | 08:30:00 | 01:48:00 | 00:00:00 | |
| DB0UT-7 | 2026-09-03 00:21:38 | 45.05706 | 9.34359 | 158° | 20km/h | 21377m | 5.4m/s | -55.3°C | 4.5% | 0hPa | 2.7V | 00:00:00 | 01:47:53 | 00:00:00 | |
| IW2NTF | 2026-09-03 00:21:36 | 45.05715 | 9.34361 | 189° | 16km/h | 21364m | 4.1m/s | -55.5°C | 4.5% | 0hPa | 2.7V | 08:30:00 | 01:47:50 | 00:00:00 | |
| NBG1-10 | 2026-09-03 00:21:34 | 45.05719 | 9.34361 | 180° | 22km/h | 21359m | 5.0m/s | -55.4°C | 4.6% | 0hPa | 2.7V | 00:00:00 | 01:47:49 | 08:30:00 | |
| DO3MHA-11 | 2026-09-03 00:21:32 | 45.05730 | 9.34358 | 160° | 20km/h | 21351m | 3.8m/s | -55.4°C | 4.6% | 0hPa | 2.6V | 00:00:00 | 01:47:47 | 00:00:00 | |
| IW2NTF | 2026-09-03 00:21:27 | 45.05759 | 9.34345 | 165° | 24km/h | 21318m | 4.9m/s | -55.5°C | 4.5% | 0hPa | 2.6V | 08:30:00 | 01:47:40 | 00:00:00 | |
| DO3MHA-11 | 2026-09-03 00:21:22 | 45.05778 | 9.34339 | 169° | 22km/h | 21303m | 4.8m/s | -55.5°C | 4.6% | 0hPa | 2.5V | 00:00:00 | 01:47:37 | 00:00:00 | |
| IW2NTF | 2026-09-03 00:21:17 | 45.05819 | 9.34328 | 184° | 16km/h | 21271m | 4.2m/s | -55.5°C | 4.5% | 0hPa | 2.5V | 08:30:00 | 01:47:30 | 00:00:00 | |
| DO3MHA-11 | 2026-09-03 00:21:12 | 45.05833 | 9.34330 | 186° | 22km/h | 21257m | 4.5m/s | -55.3°C | 4.5% | 0hPa | 2.5V | 00:00:00 | 01:47:27 | 00:00:00 | |
| DB0UT-7 | 2026-09-03 00:21:08 | 45.05855 | 9.34332 | 174° | 18km/h | 21238m | 5.4m/s | -55.3°C | 4.5% | 0hPa | 2.5V | 00:00:00 | 00:00:00 | 00:00:00 | |
| IW2NTF | 2026-09-03 00:21:06 | 45.05873 | 9.34326 | 164° | 24km/h | 21224m | 4.9m/s | -55.5°C | 4.6% | 0hPa | 2.5V | 08:30:00 | 01:47:20 | 00:00:00 | |
| DO3MHA-11 | 2026-09-03 00:21:01 | 45.05892 | 9.34323 | 178° | 18km/h | 21206m | 4.3m/s | -55.6°C | 4.6% | 0hPa | 2.7V | 00:00:00 | 01:47:16 | 00:00:00 | |
| IW2NTF | 2026-09-03 00:20:56 | 45.05920 | 9.34316 | 169° | 18km/h | 21177m | 4.7m/s | -55.9°C | 4.7% | 0hPa | 2.7V | 08:30:00 | 01:47:10 | 00:00:00 | |
| DO3MHA-11 | 2026-09-03 00:20:51 | 45.05937 | 9.34307 | 153° | 15km/h | 21159m | 5.4m/s | -55.8°C | 4.6% | 0hPa | 2.6V | 00:00:00 | 01:47:06 | 00:00:00 | |
| IW2NTF | 2026-09-03 00:20:47 | 45.05955 | 9.34291 | 143° | 15km/h | 21129m | 5.4m/s | -55.9°C | 4.6% | 0hPa | 2.6V | 08:30:00 | 01:47:00 | 00:00:00 | |
| DO3MHA-11 | 2026-09-03 00:20:41 | 45.05966 | 9.34278 | 140° | 15km/h | 21111m | 4.7m/s | -55.9°C | 4.6% | 0hPa | 2.5V | 00:00:00 | 01:46:56 | 00:00:00 | |
| DB0UT-7 | 2026-09-03 00:20:38 | 45.05974 | 9.34268 | 142° | 20km/h | 21096m | 3.9m/s | -56.0°C | 4.6% | 0hPa | 2.7V | 00:00:00 | 01:46:53 | 08:30:00 | |
| IW2NTF | 2026-09-03 00:20:37 | 45.05984 | 9.34259 | 150° | 16km/h | 21082m | 4.8m/s | -56.2°C | 4.7% | 0hPa | 2.5V | 08:30:00 | 01:46:50 | 00:00:00 | |
| DO3MHA-11 | 2026-09-03 00:20:31 | 45.05999 | 9.34252 | 167° | 24km/h | 21064m | 4.6m/s | -56.3°C | 4.8% | 0hPa | 2.5V | 00:00:00 | 01:46:46 | 00:00:00 | |
| IW2NTF | 2026-09-03 00:20:26 | 45.06031 | 9.34241 | 166° | 27km/h | 21034m | 5.2m/s | -56.3°C | 4.8% | 0hPa | 2.5V | 08:30:00 | 01:46:40 | 00:00:00 | |
| DO3MHA-11 | 2026-09-03 00:20:21 | 45.06057 | 9.34228 | 154° | 20km/h | 21016m | 5.2m/s | -56.2°C | 4.7% | 0hPa | 2.7V | 00:00:00 | 01:46:36 | 00:00:00 | |
| IW2NTF | 2026-09-03 00:20:20 | 45.06084 | 9.34210 | 166° | 18km/h | 20987m | 5.3m/s | -56.3°C | 4.7% | 0hPa | 2.7V | 08:30:00 | 01:46:30 | 00:00:00 | |
| DO3MHA-11 | 2026-09-03 00:20:11 | 45.06105 | 9.34206 | 171° | 20km/h | 20969m | 3.5m/s | -56.4°C | 4.8% | 0hPa | 2.5V | 00:00:00 | 01:46:26 | 08:30:00 | |
| DB0UT-7 | 2026-09-03 00:20:08 | 45.06121 | 9.34201 | 163° | 18km/h | 20956m | 4.6m/s | -56.3°C | 4.8% | 0hPa | 2.6V | 00:00:00 | 00:00:00 | 00:00:00 | |
| IW2NTF | 2026-09-03 00:20:06 | 45.06134 | 9.34193 | 149° | 20km/h | 20942m | 5.3m/s | -56.3°C | 4.8% | 0hPa | 2.6V | 08:30:00 | 01:46:20 | 00:00:00 | |
| DO3MHA-11 | 2026-09-03 00:20:01 | 45.06150 | 9.34175 | 134° | 18km/h | 20924m | 4.4m/s | -56.2°C | 4.8% | 0hPa | 2.5V | 00:00:00 | 01:46:16 | 00:00:00 | |
| IW2NTF | 2026-09-03 00:20:00 | 45.06175 | 9.34151 | 155° | 16km/h | 20896m | 5.1m/s | -56.1°C | 4.7% | 0hPa | 2.5V | 08:30:00 | 01:46:10 | 00:00:00 | |
| NBG1-10 | 2026-09-03 00:19:55 | 45.06175 | 9.34151 | 156° | 15km/h | 20896m | 5.1m/s | -56.1°C | 4.7% | 0hPa | 2.5V | 00:00:00 | 01:46:10 | 00:00:00 | |
| DO3MHA-11 | 2026-09-03 00:19:51 | 45.06188 | 9.34138 | 134° | 18km/h | 20878m | 4.3m/s | -56.0°C | 4.7% | 0hPa | 2.5V | 00:00:00 | 01:46:06 | 00:00:00 | |
| IW2NTF | 2026-09-03 00:19:47 | 45.06207 | 9.34108 | 135° | 20km/h | 20850m | 4.4m/s | -55.9°C | 4.6% | 0hPa | 2.5V | 08:30:00 | 01:46:00 | 00:00:00 | |
| DO3MHA-11 | 2026-09-03 00:19:41 | 45.06217 | 9.34091 | 112° | 16km/h | 20832m | 3.8m/s | -55.8°C | 4.6% | 0hPa | 2.6V | 00:00:00 | 01:45:56 | 00:00:00 | |
| IW2NTF | 2026-09-03 00:19:40 | 45.06226 | 9.34060 | 110° | 16km/h | 20803m | 5m/s | -56.1°C | 4.8% | 0hPa | 2.7V | 08:30:00 | 01:45:50 | 00:00:00 | |
| DB0UT-7 | 2026-09-03 00:19:38 | 45.06221 | 9.34077 | 117° | 13km/h | 20818m | 4.4m/s | -55.9°C | 4.7% | 0hPa | 2.7V | 00:00:00 | 01:45:53 | 00:00:00 | |
| IW2NTF | 2026-09-03 00:19:26 | 45.06242 | 9.34015 | 101° | 9km/h | 20756m | 4.1m/s | -56.1°C | 4.7% | 0hPa | 2.7V | 08:30:00 | 01:45:40 | 00:00:00 | |
| IW2NTF | 2026-09-03 00:19:21 | 45.06240 | 9.33962 | 86° | 11km/h | 20711m | 4.1m/s | -55.9°C | 4.6% | 0hPa | 2.5V | 08:30:00 | 01:45:30 | 00:00:00 | |
| DO3MHA-11 | 2026-09-03 00:19:11 | 45.06241 | 9.33950 | 104° | 9km/h | 20693m | 4.0m/s | -55.7°C | 4.6% | 0hPa | 2.7V | 00:00:00 | 01:45:26 | 00:00:00 | |
| DB0UT-7 | 2026-09-03 00:19:08 | 45.06241 | 9.33947 | 85° | 11km/h | 20679m | 4.4m/s | -55.6°C | 4.6% | 0hPa | 2.5V | 00:00:00 | 00:00:00 | 00:00:00 | |
| IW2NTF | 2026-09-03 00:19:07 | 45.06244 | 9.33938 | 120° | 13km/h | 20665m | 3.6m/s | -55.6°C | 4.5% | 0hPa | 2.5V | 08:30:00 | 01:45:20 | 00:00:00 | |
| DO3MHA-11 | 2026-09-03 00:19:01 | 45.06249 | 9.33922 | 103° | 7km/h | 20646m | 4.2m/s | -55.6°C | 4.6% | 0hPa | 2.5V | 00:00:00 | 01:45:16 | 00:00:00 | |
| IW2NTF | 2026-09-03 00:19:00 | 45.06249 | 9.33904 | 40° | 4km/h | 20619m | 4.5m/s | -55.9°C | 4.8% | 0hPa | 2.5V | 08:30:00 | 01:45:10 | 00:00:00 | |
| DO3MHA-11 | 2026-09-03 00:18:51 | 45.06254 | 9.33899 | 152° | 16km/h | 20600m | 4.1m/s | -55.8°C | 4.7% | 0hPa | 2.5V | 00:00:00 | 01:45:06 | 00:00:00 | |
| IW2NTF | 2026-09-03 00:18:50 | 45.06275 | 9.33878 | 125° | 18km/h | 20571m | 4.6m/s | -55.6°C | 4.6% | 0hPa | 2.5V | 08:30:00 | 01:45:00 | 00:00:00 | |
| NBG1-10 | 2026-09-03 00:18:48 | 45.06265 | 9.33891 | 150° | 18km/h | 20586m | 4.1m/s | -55.7°C | 4.7% | 0hPa | 2.5V | 00:00:00 | 01:45:03 | 00:00:00 | |
| DO3MHA-11 | 2026-09-03 00:18:41 | 45.06281 | 9.33862 | 119° | 18km/h | 20553m | 4.3m/s | -55.6°C | 4.6% | 0hPa | 2.5V | 00:00:00 | 01:44:56 | 08:30:00 | |
| DB0UT-7 | 2026-09-03 00:18:38 | 45.06287 | 9.33853 | 144° | 22km/h | 20538m | 4.0m/s | -55.5°C | 4.6% | 0hPa | 2.5V | 00:00:00 | 01:44:53 | 00:00:00 | |
| IW2NTF | 2026-09-03 00:18:37 | 45.06300 | 9.33845 | 163° | 20km/h | 20524m | 4.7m/s | -55.4°C | 4.5% | 0hPa | 2.5V | 08:30:00 | 01:44:50 | 00:00:00 | |
| DO3MHA-11 | 2026-09-03 00:18:31 | 45.06319 | 9.33833 | 151° | 18km/h | 20505m | 4.9m/s | -55.3°C | 4.5% | 0hPa | 2.5V | 00:00:00 | 01:44:46 | 00:00:00 | |
| IW2NTF | 2026-09-03 00:18:30 | 45.06340 | 9.33809 | 128° | 18km/h | 20476m | 4.2m/s | -55.4°C | 4.5% | 0hPa | 2.5V | 08:30:00 | 01:44:40 | 00:00:00 | |
| DO3MHA-11 | 2026-09-03 00:18:21 | 45.06353 | 9.33790 | 135° | 24km/h | 20457m | 5.6m/s | -55.5°C | 4.6% | 0hPa | 2.7V | 00:00:00 | 01:44:36 | 00:00:00 | |
| IW2NTF | 2026-09-03 00:18:20 | 45.06378 | 9.33759 | 137° | 26km/h | 20428m | 5.1m/s | -55.6°C | 4.6% | 0hPa | 2.7V | 08:30:00 | 01:44:30 | 00:00:00 | |
| NBG1-10 | 2026-09-03 00:18:15 | 45.06378 | 9.33759 | 138° | 26km/h | 20428m | 5.1m/s | -55.5°C | 4.6% | 0hPa | 2.6V | 00:00:00 | 01:44:30 | 00:00:00 | |
| IW2NTF | 2026-09-03 00:18:11 | 45.06424 | 9.33689 | 129° | 27km/h | 20380m | 5.1m/s | -55.3°C | 4.5% | 0hPa | 2.6V | 08:30:00 | 01:44:20 | 00:00:00 | |
| DB0UT-7 | 2026-09-03 00:18:08 | 45.06411 | 9.33714 | 126° | 24km/h | 20395m | 4.6m/s | -55.4°C | 4.5% | 0hPa | 2.5V | 00:00:00 | 00:00:00 | 00:00:00 | |
| DO3MHA-11 | 2026-09-03 00:18:01 | 45.06441 | 9.33660 | 128° | 24km/h | 20361m | 3.9m/s | -55.3°C | 4.5% | 0hPa | 2.5V | 00:00:00 | 01:44:16 | 00:00:00 | |
| IW2NTF | 2026-09-03 00:18:00 | 45.06462 | 9.33624 | 117° | 26km/h | 20333m | 4.2m/s | -55.4°C | 4.6% | 0hPa | 2.5V | 08:30:00 | 01:44:10 | 00:00:00 | |
| DO3MHA-11 | 2026-09-03 00:17:51 | 45.06474 | 9.33593 | 118° | 24km/h | 20315m | 4.1m/s | -55.3°C | 4.6% | 0hPa | 2.5V | 00:00:00 | 01:44:06 | 00:00:00 | |
| IW2NTF | 2026-09-03 00:17:50 | 45.06490 | 9.33550 | 135° | 22km/h | 20286m | 4.7m/s | -55.2°C | 4.5% | 0hPa | 2.5V | 08:30:00 | 01:44:00 | 00:00:00 | |
| NBG1-10 | 2026-09-03 00:17:42 | 45.06503 | 9.33532 | 131° | 18km/h | 20271m | 4.6m/s | -55.0°C | 4.5% | 0hPa | 2.7V | 00:00:00 | 01:43:57 | 00:00:00 | |
| DO3MHA-11 | 2026-09-03 00:17:41 | 45.06507 | 9.33525 | 130° | 20km/h | 20267m | 3.8m/s | -55.0°C | 4.4% | 0hPa | 2.7V | 00:00:00 | 01:43:56 | 00:00:00 | |
| IW2NTF | 2026-09-03 00:17:38 | 45.06522 | 9.33485 | 99° | 18km/h | 20238m | 5.1m/s | -54.9°C | 4.3% | 0hPa | 2.7V | 08:30:00 | 01:43:50 | 00:00:00 | |
| DB0UT-7 | 2026-09-03 00:17:38 | 45.06517 | 9.33506 | 121° | 18km/h | 20253m | 4.0m/s | -54.9°C | 4.4% | 0hPa | 2.5V | 00:00:00 | 01:43:53 | 00:00:00 | |
| IW2NTF | 2026-09-03 00:17:31 | 45.06541 | 9.33433 | 125° | 22km/h | 20193m | 5.3m/s | -55.2°C | 4.4% | 0hPa | 2.7V | 08:30:00 | 01:43:40 | 00:00:00 | |
| DO3MHA-11 | 2026-09-03 00:17:21 | 45.06551 | 9.33402 | 105° | 16km/h | 20174m | 4.3m/s | -55.3°C | 4.5% | 0hPa | 2.5V | 00:00:00 | 01:43:36 | 00:00:00 | |
| IW2NTF | 2026-09-03 00:17:18 | 45.06555 | 9.33364 | 104° | 11km/h | 20147m | 4.9m/s | -55.5°C | 4.6% | 0hPa | 2.5V | 08:30:00 | 01:43:30 | 00:00:00 | |
| DO3MHA-11 | 2026-09-03 00:17:11 | 45.06562 | 9.33347 | 123° | 22km/h | 20129m | 3.6m/s | -55.4°C | 4.6% | 0hPa | 2.7V | 00:00:00 | 01:43:26 | 08:30:00 | |
| IW2NTF | 2026-09-03 00:17:10 | 45.06575 | 9.33307 | 100° | 26km/h | 20102m | 3.8m/s | -55.4°C | 4.6% | 0hPa | 2.5V | 08:30:00 | 01:43:20 | 00:00:00 | |
| DB0UT-7 | 2026-09-03 00:17:08 | 45.06569 | 9.33330 | 119° | 22km/h | 20116m | 4.0m/s | -55.4°C | 4.6% | 0hPa | 2.7V | 00:00:00 | 00:00:00 | 00:00:00 | |
| IW2NTF | 2026-09-03 00:16:57 | 45.06590 | 9.33252 | 131° | 24km/h | 20059m | 5.3m/s | -55°C | 4.4% | 0hPa | 2.7V | 08:30:00 | 01:43:10 | 00:00:00 | |
| IW2NTF | 2026-09-03 00:16:46 | 45.06617 | 9.33185 | 127° | 22km/h | 20013m | 4.2m/s | -55.4°C | 4.5% | 0hPa | 2.7V | 08:30:00 | 01:43:00 | 00:00:00 | |
| DB0UT-7 | 2026-09-03 00:16:38 | 45.06650 | 9.33140 | 125° | 26km/h | 19983m | 3.6m/s | -55.3°C | 4.5% | 0hPa | 2.5V | 00:00:00 | 01:42:53 | 00:00:00 | |
| IW2NTF | 2026-09-03 00:16:36 | 45.06661 | 9.33115 | 125° | 24km/h | 19970m | 4.1m/s | -55.3°C | 4.4% | 0hPa | 2.5V | 08:30:00 | 01:42:50 | 00:00:00 | |
| NBG1-10 | 2026-09-03 00:16:35 | 45.06661 | 9.33115 | 126° | 27km/h | 19970m | 4.1m/s | -55.3°C | 4.4% | 0hPa | 2.5V | 00:00:00 | 01:42:50 | 00:00:00 | |
| IW2NTF | 2026-09-03 00:16:30 | 45.06692 | 9.33061 | 133° | 22km/h | 19926m | 4.6m/s | -55.4°C | 4.4% | 0hPa | 2.5V | 08:30:00 | 01:42:40 | 00:00:00 | |
| IW2NTF | 2026-09-03 00:16:19 | 45.06747 | 9.32995 | 133° | 26km/h | 19881m | 3.7m/s | -56°C | 4.6% | 0hPa | 2.7V | 08:30:00 | 01:42:30 | 00:00:00 | |
| IW2NTF | 2026-09-03 00:16:09 | 45.06805 | 9.32918 | 140° | 35km/h | 19837m | 4.7m/s | -56.1°C | 4.6% | 0hPa | 2.7V | 08:30:00 | 01:42:20 | 00:00:00 | |
| DB0UT-7 | 2026-09-03 00:16:08 | 45.06784 | 9.32943 | 141° | 26km/h | 19850m | 5.4m/s | -56.1°C | 4.6% | 0hPa | 2.6V | 00:00:00 | 00:00:00 | 08:30:00 | |
| DO3MHA-11 | 2026-09-03 00:16:07 | 45.06791 | 9.32935 | 140° | 31km/h | 19845m | 3.9m/s | -56.1°C | 4.6% | 0hPa | 2.5V | 00:00:00 | 01:42:22 | 00:00:00 | |
| NBG1-10 | 2026-09-03 00:16:02 | 45.06822 | 9.32897 | 136° | 22km/h | 19824m | 4.4m/s | -56.0°C | 4.6% | 0hPa | 2.5V | 00:00:00 | 01:42:17 | 08:30:00 | |
| IW2NTF | 2026-09-03 00:16:01 | 45.06849 | 9.32851 | 128° | 27km/h | 19793m | 5.4m/s | -56.3°C | 4.6% | 0hPa | 2.5V | 08:30:00 | 01:42:10 | 00:00:00 | |
| DO3MHA-11 | 2026-09-03 00:15:57 | 45.06841 | 9.32864 | 128° | 31km/h | 19802m | 4.3m/s | -56.1°C | 4.6% | 0hPa | 2.5V | 00:00:00 | 01:42:12 | 00:00:00 | |
| IW2NTF | 2026-09-03 00:15:47 | 45.06889 | 9.32790 | 131° | 15km/h | 19747m | 4.8m/s | -56.9°C | 5% | 0hPa | 2.5V | 08:30:00 | 01:42:00 | 00:00:00 | |
| IW2NTF | 2026-09-03 00:15:40 | 45.06921 | 9.32720 | 107° | 24km/h | 19706m | 4m/s | -56.5°C | 4.8% | 0hPa | 2.5V | 08:30:00 | 01:41:50 | 00:00:00 | |
| DB0UT-7 | 2026-09-03 00:15:38 | 45.06914 | 9.32749 | 114° | 37km/h | 19718m | 4.7m/s | -56.6°C | 4.9% | 0hPa | 2.5V | 00:00:00 | 01:41:53 | 00:00:00 | |
| IW2NTF | 2026-09-03 00:15:31 | 45.06959 | 9.32674 | 138° | 29km/h | 19661m | 4.1m/s | -56.2°C | 4.7% | 0hPa | 2.5V | 08:30:00 | 01:41:40 | 00:00:00 | |
| NBG1-10 | 2026-09-03 00:15:29 | 45.06939 | 9.32692 | 149° | 31km/h | 19678m | 4.0m/s | -56.3°C | 4.8% | 0hPa | 2.5V | 00:00:00 | 01:41:44 | 00:00:00 | |
| IW2NTF | 2026-09-03 00:15:21 | 45.07008 | 9.32607 | 149° | 26km/h | 19614m | 3.8m/s | -56.2°C | 4.7% | 0hPa | 2.5V | 08:30:00 | 01:41:30 | 00:00:00 | |
| IW2NTF | 2026-09-03 00:15:08 | 45.07069 | 9.32532 | 128° | 40km/h | 19567m | 3.8m/s | -56.2°C | 4.8% | 0hPa | 2.6V | 08:30:00 | 01:41:20 | 00:00:00 | |
| IW2NTF | 2026-09-03 00:15:00 | 45.07139 | 9.32442 | 143° | 38km/h | 19522m | 4.3m/s | -55.9°C | 4.7% | 0hPa | 2.7V | 08:30:00 | 01:41:10 | 00:00:00 | |
| NBG1-10 | 2026-09-03 00:14:56 | 45.07131 | 9.32450 | 143° | 37km/h | 19526m | 5.0m/s | -55.9°C | 4.8% | 0hPa | 2.7V | 00:00:00 | 01:41:11 | 00:00:00 | |
| DO3MHA-11 | 2026-09-03 00:14:53 | 45.07155 | 9.32425 | 143° | 38km/h | 19512m | 5.5m/s | -55.7°C | 4.7% | 0hPa | 2.7V | 00:00:00 | 01:41:08 | 00:00:00 | |
| IW2NTF | 2026-09-03 00:14:49 | 45.07220 | 9.32328 | 134° | 35km/h | 19464m | 4.3m/s | -55.3°C | 4.6% | 0hPa | 2.7V | 08:30:00 | 01:40:58 | 00:00:00 | |
| DO3MHA-11 | 2026-09-03 00:14:44 | 45.07220 | 9.32328 | 135° | 38km/h | 19465m | 4.3m/s | -55.3°C | 4.6% | 0hPa | 2.5V | 00:00:00 | 01:40:58 | 00:00:00 | |
| DB0UT-7 | 2026-09-03 00:14:38 | 45.07259 | 9.32287 | 149° | 37km/h | 19442m | 5.1m/s | -55.1°C | 4.5% | 0hPa | 2.5V | 00:00:00 | 00:00:00 | 00:00:00 | |
| IW2NTF | 2026-09-03 00:14:35 | 45.07294 | 9.32242 | 126° | 37km/h | 19419m | 4.9m/s | -55.1°C | 4.5% | 0hPa | 2.5V | 08:30:00 | 01:40:48 | 00:00:00 | |
| DO3MHA-11 | 2026-09-03 00:14:33 | 45.07294 | 9.32242 | 127° | 38km/h | 19419m | 4.8m/s | -55.1°C | 4.5% | 0hPa | 2.5V | 00:00:00 | 01:40:48 | 00:00:00 | |
| IW2NTF | 2026-09-03 00:14:27 | 45.07352 | 9.32146 | 142° | 38km/h | 19373m | 4.4m/s | -55.3°C | 4.4% | 0hPa | 2.5V | 08:30:00 | 01:40:38 | 00:00:00 | |
| NBG1-10 | 2026-09-03 00:14:23 | 45.07352 | 9.32146 | 143° | 38km/h | 19373m | 4.4m/s | -55.3°C | 4.4% | 0hPa | 2.5V | 00:00:00 | 01:40:38 | 00:00:00 | |
| DO3MHA-11 | 2026-09-03 00:14:21 | 45.07367 | 9.32128 | 138° | 37km/h | 19363m | 4.4m/s | -55.2°C | 4.5% | 0hPa | 2.7V | 00:00:00 | 01:40:36 | 00:00:00 | |
| IW2NTF | 2026-09-03 00:14:14 | 45.07410 | 9.32046 | 122° | 37km/h | 19325m | 5.4m/s | -55.8°C | 4.6% | 0hPa | 2.7V | 08:30:00 | 01:40:28 | 00:00:00 | |
| DO3MHA-11 | 2026-09-03 00:14:11 | 45.07421 | 9.32024 | 128° | 42km/h | 19316m | 4.4m/s | -55.9°C | 4.6% | 0hPa | 2.6V | 00:00:00 | 01:40:26 | 00:00:00 | |
| DB0UT-7 | 2026-09-03 00:14:08 | 45.07440 | 9.31987 | 125° | 38km/h | 19301m | 3.9m/s | -55.9°C | 4.6% | 0hPa | 2.6V | 00:00:00 | 01:40:23 | 00:00:00 | |
| IW2NTF | 2026-09-03 00:14:04 | 45.07463 | 9.31923 | 107° | 40km/h | 19279m | 5.4m/s | -55.9°C | 4.5% | 0hPa | 2.5V | 08:30:00 | 01:40:18 | 00:00:00 | |
| DO3MHA-11 | 2026-09-03 00:14:01 | 45.07469 | 9.31895 | 107° | 42km/h | 19269m | 4.0m/s | -55.9°C | 4.5% | 0hPa | 2.6V | 00:00:00 | 01:40:16 | 08:30:00 | |
| IW2NTF | 2026-09-03 00:13:54 | 45.07493 | 9.31781 | 109° | 38km/h | 19232m | 5m/s | -56.6°C | 4.9% | 0hPa | 2.6V | 08:30:00 | 01:40:08 | 00:00:00 | |
| DO3MHA-11 | 2026-09-03 00:13:51 | 45.07500 | 9.31756 | 114° | 37km/h | 19224m | 4.3m/s | -56.6°C | 4.9% | 0hPa | 2.6V | 00:00:00 | 01:40:06 | 00:00:00 | |
| IW2NTF | 2026-09-03 00:13:44 | 45.07529 | 9.31662 | 109° | 40km/h | 19185m | 5m/s | -56.7°C | 4.8% | 0hPa | 2.6V | 08:30:00 | 01:39:58 | 00:00:00 | |
| NBG1-10 | 2026-09-03 00:13:43 | 45.07529 | 9.31662 | 110° | 35km/h | 19186m | 4.9m/s | -56.7°C | 4.8% | 0hPa | 2.5V | 00:00:00 | 01:39:58 | 00:00:00 | |
| DO3MHA-11 | 2026-09-03 00:13:41 | 45.07534 | 9.31634 | 106° | 35km/h | 19176m | 4.8m/s | -56.6°C | 4.8% | 0hPa | 2.5V | 00:00:00 | 01:39:56 | 00:00:00 | |
| DB0UT-7 | 2026-09-03 00:13:38 | 45.07540 | 9.31595 | 96° | 35km/h | 19163m | 4.9m/s | -56.5°C | 4.8% | 0hPa | 2.5V | 00:00:00 | 00:00:00 | 00:00:00 | |
| IW2NTF | 2026-09-03 00:13:35 | 45.07541 | 9.31534 | 95° | 31km/h | 19140m | 3.8m/s | -56.4°C | 4.9% | 0hPa | 2.5V | 08:30:00 | 01:39:48 | 00:00:00 | |
| DO3MHA-11 | 2026-09-03 00:13:31 | 45.07543 | 9.31510 | 99° | 37km/h | 19131m | 4.9m/s | -56.3°C | 4.7% | 0hPa | 2.7V | 00:00:00 | 01:39:46 | 00:00:00 | |
| IW2NTF | 2026-09-03 00:13:24 | 45.07549 | 9.31384 | 94° | 26km/h | 19086m | 3.8m/s | -56.6°C | 4.7% | 0hPa | 2.6V | 08:30:00 | 01:39:36 | 00:00:00 | |
| DO3MHA-11 | 2026-09-03 00:13:21 | 45.07549 | 9.31384 | 95° | 33km/h | 19086m | 3.7m/s | -56.5°C | 4.7% | 0hPa | 2.6V | 00:00:00 | 01:39:36 | 00:00:00 | |
| IW2NTF | 2026-09-03 00:13:17 | 45.07577 | 9.31268 | 108° | 42km/h | 19042m | 4.4m/s | -56.5°C | 4.8% | 0hPa | 2.6V | 08:30:00 | 01:39:26 | 00:00:00 | |
| DO3MHA-11 | 2026-09-03 00:13:11 | 45.07577 | 9.31268 | 109° | 40km/h | 19042m | 4.4m/s | -56.5°C | 4.8% | 0hPa | 2.7V | 00:00:00 | 01:39:26 | 00:00:00 | |
| NBG1-10 | 2026-09-03 00:13:10 | 45.07580 | 9.31254 | 109° | 40km/h | 19038m | 3.5m/s | -56.5°C | 4.8% | 0hPa | 2.7V | 00:00:00 | 01:39:25 | 00:00:00 | |
| DB0UT-7 | 2026-09-03 00:13:08 | 45.07586 | 9.31226 | 106° | 33km/h | 19030m | 4.6m/s | -56.4°C | 4.8% | 0hPa | 2.7V | 00:00:00 | 01:39:23 | 00:00:00 | |
| IW2NTF | 2026-09-03 00:13:05 | 45.07595 | 9.31131 | 97° | 33km/h | 18997m | 4.2m/s | -56.3°C | 4.8% | 0hPa | 2.7V | 08:30:00 | 01:39:16 | 00:00:00 | |
| DO3MHA-11 | 2026-09-03 00:13:01 | 45.07595 | 9.31131 | 98° | 35km/h | 18998m | 4.1m/s | -56.3°C | 4.8% | 0hPa | 2.7V | 00:00:00 | 01:39:16 | 00:00:00 | |
| IW2NTF | 2026-09-03 00:12:53 | 45.07613 | 9.31009 | 97° | 37km/h | 18954m | 3.9m/s | -56.6°C | 4.9% | 0hPa | 2.5V | 08:30:00 | 01:39:06 | 00:00:00 | |
| DO3MHA-11 | 2026-09-03 00:12:51 | 45.07613 | 9.31009 | 98° | 31km/h | 18954m | 3.8m/s | -56.6°C | 4.9% | 0hPa | 2.5V | 00:00:00 | 01:39:06 | 00:00:00 | |
| IW2NTF | 2026-09-03 00:12:41 | 45.07624 | 9.30904 | 106° | 29km/h | 18911m | 4.2m/s | -56.4°C | 4.8% | 0hPa | 2.5V | 08:30:00 | 01:38:56 | 00:00:00 | |
| DO3MHA-11 | 2026-09-03 00:12:41 | 45.07623 | 9.30904 | 107° | 31km/h | 18911m | 4.1m/s | -56.4°C | 4.8% | 0hPa | 2.6V | 00:00:00 | 01:38:56 | 00:00:00 | |
| DB0UT-7 | 2026-09-03 00:12:38 | 45.07630 | 9.30873 | 107° | 37km/h | 18898m | 4.1m/s | -56.3°C | 4.7% | 0hPa | 2.6V | 00:00:00 | 00:00:00 | 00:00:00 | |
| IW2NTF | 2026-09-03 00:12:36 | 45.07642 | 9.30798 | 107° | 35km/h | 18867m | 4.2m/s | -56.3°C | 4.6% | 0hPa | 2.7V | 08:30:00 | 01:38:46 | 00:00:00 | |
| DO3MHA-11 | 2026-09-03 00:12:31 | 45.07642 | 9.30798 | 108° | 31km/h | 18867m | 4.1m/s | -56.3°C | 4.6% | 0hPa | 2.7V | 00:00:00 | 01:38:46 | 08:30:00 | |
| IW2NTF | 2026-09-03 00:12:22 | 45.07679 | 9.30698 | 118° | 35km/h | 18824m | 5.1m/s | -56.7°C | 4.8% | 0hPa | 2.7V | 08:30:00 | 01:38:36 | 00:00:00 | |
| DO3MHA-11 | 2026-09-03 00:12:21 | 45.07680 | 9.30697 | 119° | 42km/h | 18824m | 5.0m/s | -56.6°C | 4.8% | 0hPa | 2.7V | 00:00:00 | 01:38:36 | 00:00:00 | |
| IW2NTF | 2026-09-03 00:12:11 | 45.07724 | 9.30561 | 122° | 40km/h | 18781m | 4.6m/s | -56.8°C | 4.9% | 0hPa | 2.7V | 08:30:00 | 01:38:26 | 00:00:00 | |
| DO3MHA-11 | 2026-09-03 00:12:09 | 45.07735 | 9.30537 | 127° | 40km/h | 18773m | 4.3m/s | -56.8°C | 4.9% | 0hPa | 2.6V | 00:00:00 | 01:38:24 | 00:00:00 | |
| DB0UT-7 | 2026-09-03 00:12:08 | 45.07741 | 9.30525 | 126° | 40km/h | 18769m | 4.3m/s | -56.7°C | 4.9% | 0hPa | 2.6V | 00:00:00 | 01:38:23 | 00:00:00 | |
| IW2NTF | 2026-09-03 00:12:02 | 45.07772 | 9.30436 | 112° | 40km/h | 18740m | 3.9m/s | -56.8°C | 4.8% | 0hPa | 2.6V | 08:30:00 | 01:38:16 | 00:00:00 | |
| DO3MHA-11 | 2026-09-03 00:11:59 | 45.07780 | 9.30410 | 118° | 40km/h | 18731m | 4.5m/s | -56.8°C | 4.8% | 0hPa | 2.7V | 00:00:00 | 01:38:14 | 00:00:00 | |
| IW2NTF | 2026-09-03 00:11:52 | 45.07822 | 9.30307 | 113° | 37km/h | 18698m | 3.8m/s | -57°C | 4.9% | 0hPa | 2.6V | 08:30:00 | 01:38:06 | 00:00:00 | |
| DO3MHA-11 | 2026-09-03 00:11:49 | 45.07829 | 9.30283 | 106° | 38km/h | 18689m | 4.2m/s | -57.0°C | 4.9% | 0hPa | 2.6V | 00:00:00 | 01:38:04 | 00:00:00 | |
| IW2NTF | 2026-09-03 00:11:42 | 45.07850 | 9.30179 | 113° | 44km/h | 18655m | 4.5m/s | -57.2°C | 4.9% | 0hPa | 2.6V | 08:30:00 | 01:37:56 | 00:00:00 | |
| DO3MHA-11 | 2026-09-03 00:11:39 | 45.07858 | 9.30150 | 114° | 40km/h | 18648m | 3.5m/s | -57.1°C | 4.9% | 0hPa | 2.6V | 00:00:00 | 01:37:54 | 00:00:00 | |
| DB0UT-7 | 2026-09-03 00:11:38 | 45.07862 | 9.30136 | 111° | 42km/h | 18644m | 4.7m/s | -57.1°C | 4.9% | 0hPa | 2.6V | 00:00:00 | 00:00:00 | 00:00:00 | |
| IW2NTF | 2026-09-03 00:11:35 | 45.07884 | 9.30040 | 102° | 40km/h | 18613m | 4.5m/s | -57.4°C | 5% | 0hPa | 2.6V | 08:30:00 | 01:37:46 | 00:00:00 | |
| DO3MHA-11 | 2026-09-03 00:11:29 | 45.07888 | 9.30010 | 102° | 46km/h | 18604m | 4.9m/s | -57.3°C | 4.9% | 0hPa | 2.6V | 00:00:00 | 01:37:44 | 00:00:00 | |
| IW2NTF | 2026-09-03 00:11:22 | 45.07902 | 9.29881 | 97° | 44km/h | 18569m | 4m/s | -57.6°C | 5% | 0hPa | 2.5V | 08:30:00 | 01:37:36 | 00:00:00 | |
| DO3MHA-11 | 2026-09-03 00:11:19 | 45.07904 | 9.29850 | 94° | 42km/h | 18560m | 3.9m/s | -57.6°C | 5.0% | 0hPa | 2.7V | 00:00:00 | 01:37:34 | 00:00:00 | |
| IW2NTF | 2026-09-03 00:11:15 | 45.07917 | 9.29734 | 102° | 42km/h | 18524m | 4.9m/s | -57.9°C | 5.1% | 0hPa | 2.7V | 08:30:00 | 01:37:26 | 00:00:00 | |
| DO3MHA-11 | 2026-09-03 00:11:09 | 45.07921 | 9.29706 | 100° | 40km/h | 18516m | 4.5m/s | -57.8°C | 5.2% | 0hPa | 2.6V | 00:00:00 | 01:37:24 | 00:00:00 | |
| DB0UT-7 | 2026-09-03 00:11:08 | 45.07922 | 9.29693 | 95° | 38km/h | 18511m | 5.3m/s | -57.8°C | 5.1% | 0hPa | 2.6V | 00:00:00 | 01:37:23 | 08:30:00 | |
| IW2NTF | 2026-09-03 00:11:03 | 45.07924 | 9.29594 | 93° | 44km/h | 18478m | 3.8m/s | -57.8°C | 5.1% | 0hPa | 2.7V | 08:30:00 | 01:37:16 | 00:00:00 | |
| DO3MHA-11 | 2026-09-03 00:10:59 | 45.07926 | 9.29563 | 99° | 38km/h | 18470m | 5.2m/s | -57.7°C | 5.0% | 0hPa | 2.5V | 00:00:00 | 01:37:14 | 08:30:00 | |
| NBG1-10 | 2026-09-03 00:10:57 | 45.07930 | 9.29534 | 97° | 35km/h | 18461m | 4.2m/s | -57.7°C | 5.1% | 0hPa | 2.6V | 00:00:00 | 01:37:12 | 00:00:00 | |
| IW2NTF | 2026-09-03 00:10:52 | 45.07925 | 9.29454 | 85° | 35km/h | 18434m | 3.5m/s | -57.7°C | 5% | 0hPa | 2.5V | 08:30:00 | 01:37:06 | 00:00:00 | |
| DO3MHA-11 | 2026-09-03 00:10:49 | 45.07923 | 9.29429 | 84° | 37km/h | 18426m | 5.0m/s | -57.7°C | 5.0% | 0hPa | 2.6V | 00:00:00 | 01:37:04 | 00:00:00 | |
| IW2NTF | 2026-09-03 00:10:44 | 45.07923 | 9.29321 | 87° | 33km/h | 18389m | 4m/s | -58.3°C | 5.2% | 0hPa | 2.6V | 08:30:00 | 01:36:56 | 00:00:00 | |
| DO3MHA-11 | 2026-09-03 00:10:39 | 45.07923 | 9.29298 | 93° | 33km/h | 18381m | 4.9m/s | -58.3°C | 5.2% | 0hPa | 2.6V | 00:00:00 | 01:36:54 | 00:00:00 | |
| DB0UT-7 | 2026-09-03 00:10:38 | 45.07923 | 9.29287 | 95° | 22km/h | 18376m | 4.3m/s | -58.3°C | 5.3% | 0hPa | 2.6V | 00:00:00 | 00:00:00 | 00:00:00 | |
| IW2NTF | 2026-09-03 00:10:33 | 45.07921 | 9.29181 | 86° | 29km/h | 18334m | 4.3m/s | -58.2°C | 5.2% | 0hPa | 2.6V | 08:30:00 | 01:36:44 | 00:00:00 | |
| DO3MHA-11 | 2026-09-03 00:10:29 | 45.07921 | 9.29181 | 87° | 27km/h | 18335m | 4.2m/s | -58.1°C | 5.2% | 0hPa | 2.6V | 00:00:00 | 01:36:44 | 00:00:00 | |
| IW2NTF | 2026-09-03 00:10:24 | 45.07925 | 9.29084 | 90° | 33km/h | 18290m | 4.2m/s | -58.1°C | 5.1% | 0hPa | 2.7V | 08:30:00 | 01:36:34 | 00:00:00 | |
| NBG1-10 | 2026-09-03 00:10:24 | 45.07924 | 9.29133 | 100° | 31km/h | 18313m | 4.3m/s | 0°C | 0% | 0hPa | 2.5V | 00:00:00 | 01:36:39 | 00:00:00 | |
| DO3MHA-11 | 2026-09-03 00:10:19 | 45.07925 | 9.29084 | 91° | 35km/h | 18290m | 4.2m/s | -58.0°C | 5.1% | 0hPa | 2.5V | 00:00:00 | 01:36:34 | 00:00:00 | |
| IW2NTF | 2026-09-03 00:10:14 | 45.07924 | 9.28960 | 85° | 33km/h | 18244m | 5m/s | -58.6°C | 5.4% | 0hPa | 2.5V | 08:30:00 | 01:36:24 | 00:00:00 | |
| DO3MHA-11 | 2026-09-03 00:10:09 | 45.07924 | 9.28960 | 86° | 31km/h | 18244m | 5.0m/s | -58.5°C | 5.4% | 0hPa | 2.6V | 00:00:00 | 01:36:24 | 00:00:00 | |
| IW2NTF | 2026-09-03 00:10:04 | 45.07908 | 9.28850 | 77° | 31km/h | 18197m | 4.3m/s | -58.3°C | 5.3% | 0hPa | 2.6V | 08:30:00 | 01:36:14 | 00:00:00 | |
| DO3MHA-11 | 2026-09-03 00:09:59 | 45.07908 | 9.28850 | 78° | 29km/h | 18198m | 4.3m/s | -58.2°C | 5.3% | 0hPa | 2.6V | 00:00:00 | 01:36:14 | 00:00:00 | |
| NBG1-10 | 2026-09-03 00:09:51 | 45.07899 | 9.28766 | 78° | 24km/h | 18162m | 5.2m/s | 0°C | 0% | 0hPa | 2.7V | 00:00:00 | 01:36:06 | 00:00:00 | |
| DO3MHA-11 | 2026-09-03 00:09:50 | 45.07897 | 9.28749 | 78° | 26km/h | 18152m | 4.7m/s | -57.9°C | 5.2% | 0hPa | 2.7V | 00:00:00 | 01:36:04 | 00:00:00 | |
| IW2NTF | 2026-09-03 00:09:44 | 45.07889 | 9.28693 | 83° | 27km/h | 18124m | 5m/s | -57.7°C | 5.2% | 0hPa | 2.7V | 08:30:00 | 01:35:58 | 00:00:00 | |
| IW2NTF | 2026-09-03 00:09:34 | 45.07875 | 9.28613 | 77° | 24km/h | 18080m | 5.5m/s | -57.3°C | 5.1% | 0hPa | 2.6V | 08:30:00 | 01:35:48 | 00:00:00 | |
| IW2NTF | 2026-09-03 00:09:24 | 45.07867 | 9.28529 | 90° | 16km/h | 18036m | 3.7m/s | -57°C | 5% | 0hPa | 2.7V | 08:30:00 | 01:35:38 | 00:00:00 | |
| NBG1-10 | 2026-09-03 00:09:19 | 45.07858 | 9.28497 | 67° | 20km/h | 18014m | 4.9m/s | 0°C | 0% | 0hPa | 2.6V | 00:00:00 | 01:35:33 | 00:00:00 | |
| IW2NTF | 2026-09-03 00:09:14 | 45.07851 | 9.28465 | 71° | 16km/h | 17991m | 4.4m/s | -56.6°C | 5% | 0hPa | 2.6V | 08:30:00 | 01:35:28 | 00:00:00 | |
| DB0UT-7 | 2026-09-03 00:09:11 | 45.07848 | 9.28452 | 79° | 16km/h | 17981m | 4.2m/s | -56.5°C | 4.9% | 0hPa | 2.6V | 00:00:00 | 01:35:26 | 00:00:00 | |
| IW2NTF | 2026-09-03 00:09:04 | 45.07835 | 9.28399 | 67° | 18km/h | 17947m | 4.9m/s | -56.3°C | 4.9% | 0hPa | 2.6V | 08:30:00 | 01:35:18 | 00:00:00 | |
| DO3MHA-11 | 2026-09-03 00:09:00 | 45.07831 | 9.28385 | 79° | 15km/h | 17935m | 4.2m/s | -56.2°C | 4.9% | 0hPa | 2.6V | 00:00:00 | 01:35:15 | 00:00:00 | |
| IW2NTF | 2026-09-03 00:08:55 | 45.07827 | 9.28350 | 78° | 15km/h | 17902m | 5.5m/s | -56°C | 4.8% | 0hPa | 2.6V | 08:30:00 | 01:35:08 | 00:00:00 | |
| DO3MHA-11 | 2026-09-03 00:08:49 | 45.07827 | 9.28328 | 99° | 13km/h | 17884m | 5.6m/s | -55.8°C | 4.7% | 0hPa | 2.7V | 00:00:00 | 01:35:04 | 08:30:00 | |
| IW2NTF | 2026-09-03 00:08:45 | 45.07834 | 9.28304 | 117° | 16km/h | 17855m | 4.4m/s | -55.8°C | 4.6% | 0hPa | 2.6V | 08:30:00 | 01:34:58 | 00:00:00 | |
| DB0UT-7 | 2026-09-03 00:08:41 | 45.07838 | 9.28295 | 130° | 22km/h | 17846m | 4.7m/s | -55.7°C | 4.6% | 0hPa | 2.7V | 00:00:00 | 00:00:00 | 00:00:00 | |
| DO3MHA-11 | 2026-09-03 00:08:39 | 45.07842 | 9.28286 | 115° | 16km/h | 17837m | 4.9m/s | -55.7°C | 4.5% | 0hPa | 2.6V | 00:00:00 | 01:34:54 | 00:00:00 | |
| IW2NTF | 2026-09-03 00:08:35 | 45.07859 | 9.28247 | 134° | 22km/h | 17801m | 4.2m/s | -55.9°C | 4.6% | 0hPa | 2.6V | 08:30:00 | 01:34:46 | 00:00:00 | |
| DO3MHA-11 | 2026-09-03 00:08:29 | 45.07867 | 9.28237 | 137° | 20km/h | 17792m | 4.6m/s | -56.2°C | 4.6% | 0hPa | 2.7V | 00:00:00 | 01:34:44 | 00:00:00 | |
| IW2NTF | 2026-09-03 00:08:24 | 45.07904 | 9.28186 | 136° | 31km/h | 17750m | 3.8m/s | -57°C | 5% | 0hPa | 2.7V | 08:30:00 | 01:34:34 | 00:00:00 | |
| DO3MHA-11 | 2026-09-03 00:08:19 | 45.07904 | 9.28186 | 137° | 33km/h | 17750m | 3.7m/s | -56.9°C | 5.0% | 0hPa | 2.7V | 00:00:00 | 01:34:34 | 00:00:00 | |
| IW2NTF | 2026-09-03 00:08:15 | 45.07964 | 9.28110 | 146° | 26km/h | 17708m | 3.6m/s | -57.1°C | 4.9% | 0hPa | 2.6V | 08:30:00 | 01:34:24 | 00:00:00 | |
| DB0UT-7 | 2026-09-03 00:08:11 | 45.07953 | 9.28122 | 139° | 27km/h | 17717m | 4.3m/s | -57.1°C | 4.9% | 0hPa | 2.7V | 00:00:00 | 01:34:26 | 00:00:00 | |
| DO3MHA-11 | 2026-09-03 00:08:09 | 45.07964 | 9.28110 | 147° | 29km/h | 17708m | 3.5m/s | -57.1°C | 4.9% | 0hPa | 2.7V | 00:00:00 | 01:34:24 | 00:00:00 | |
| IW2NTF | 2026-09-03 00:08:04 | 45.08010 | 9.28031 | 123° | 31km/h | 17668m | 2.5m/s | -57.4°C | 5.2% | 0hPa | 2.7V | 08:30:00 | 01:34:14 | 00:00:00 | |
| DO3MHA-11 | 2026-09-03 00:07:59 | 45.08010 | 9.28031 | 124° | 20km/h | 17668m | 2.5m/s | -57.4°C | 5.2% | 0hPa | 2.6V | 00:00:00 | 01:34:14 | 00:00:00 | |
| IW2NTF | 2026-09-03 00:07:55 | 45.08041 | 9.27986 | 96° | 24km/h | 17625m | 4.2m/s | -57.3°C | 5.2% | 0hPa | 2.6V | 08:30:00 | 01:34:04 | 00:00:00 | |
| DO3MHA-11 | 2026-09-03 00:07:49 | 45.08041 | 9.27986 | 97° | 33km/h | 17625m | 4.1m/s | -57.3°C | 5.2% | 0hPa | 2.6V | 00:00:00 | 01:34:04 | 00:00:00 | |
| IW2NTF | 2026-09-03 00:07:44 | 45.08103 | 9.27915 | 123° | 26km/h | 17575m | 6.2m/s | -57.1°C | 5% | 0hPa | 2.6V | 08:30:00 | 01:33:54 | 00:00:00 | |
| DB0UT-7 | 2026-09-03 00:07:41 | 45.08092 | 9.27927 | 156° | 42km/h | 17586m | 4.2m/s | -57.1°C | 5.1% | 0hPa | 2.6V | 00:00:00 | 00:00:00 | 00:00:00 | |
| DO3MHA-11 | 2026-09-03 00:07:39 | 45.08103 | 9.27915 | 124° | 35km/h | 17575m | 6.1m/s | -57.0°C | 5.0% | 0hPa | 2.6V | 00:00:00 | 01:33:54 | 00:00:00 | |
| IW2NTF | 2026-09-03 00:07:33 | 45.08145 | 9.27809 | 135° | 38km/h | 17519m | 6.5m/s | -57.2°C | 5% | 0hPa | 2.6V | 08:30:00 | 01:33:44 | 00:00:00 | |
| DO3MHA-11 | 2026-09-03 00:07:29 | 45.08145 | 9.27809 | 136° | 46km/h | 17520m | 6.4m/s | -57.2°C | 5.0% | 0hPa | 2.6V | 00:00:00 | 01:33:44 | 00:00:00 | |
| IW2NTF | 2026-09-03 00:07:23 | 45.08231 | 9.27699 | 135° | 47km/h | 17468m | 5.3m/s | -57.6°C | 5.2% | 0hPa | 2.6V | 08:30:00 | 01:33:34 | 00:00:00 | |
| DO3MHA-11 | 2026-09-03 00:07:19 | 45.08232 | 9.27699 | 136° | 49km/h | 17468m | 5.3m/s | -57.6°C | 5.2% | 0hPa | 2.6V | 00:00:00 | 01:33:34 | 08:30:00 | |
| IW2NTF | 2026-09-03 00:07:13 | 45.08311 | 9.27561 | 126° | 53km/h | 17420m | 4.4m/s | -58°C | 5.4% | 0hPa | 2.7V | 08:30:00 | 01:33:24 | 00:00:00 | |
| DB0UT-7 | 2026-09-03 00:07:11 | 45.08295 | 9.27591 | 124° | 53km/h | 17429m | 5.3m/s | -57.9°C | 5.4% | 0hPa | 2.6V | 00:00:00 | 01:33:26 | 00:00:00 | |
| DO3MHA-11 | 2026-09-03 00:07:09 | 45.08310 | 9.27561 | 127° | 53km/h | 17420m | 4.3m/s | -58.0°C | 5.4% | 0hPa | 2.6V | 00:00:00 | 01:33:24 | 00:00:00 | |
| IW2NTF | 2026-09-03 00:07:02 | 45.08390 | 9.27405 | 119° | 53km/h | 17371m | 4m/s | -58°C | 5.4% | 0hPa | 2.6V | 08:30:00 | 01:33:14 | 00:00:00 | |
| DO3MHA-11 | 2026-09-03 00:06:59 | 45.08390 | 9.27405 | 120° | 51km/h | 17371m | 4.0m/s | -57.9°C | 5.4% | 0hPa | 2.7V | 00:00:00 | 01:33:14 | 00:00:00 | |
| IW2NTF | 2026-09-03 00:06:50 | 45.08461 | 9.27250 | 120° | 51km/h | 17325m | 4.8m/s | -58.2°C | 5.5% | 0hPa | 2.7V | 08:30:00 | 01:33:04 | 00:00:00 | |
| DO3MHA-11 | 2026-09-03 00:06:49 | 45.08461 | 9.27250 | 121° | 51km/h | 17325m | 4.8m/s | -58.1°C | 5.5% | 0hPa | 2.7V | 00:00:00 | 01:33:04 | 00:00:00 | |
| DB0UT-7 | 2026-09-03 00:06:41 | 45.08503 | 9.27116 | 107° | 53km/h | 17288m | 4.5m/s | -58.2°C | 5.5% | 0hPa | 2.6V | 00:00:00 | 00:00:00 | 00:00:00 | |
| DO3MHA-11 | 2026-09-03 00:06:39 | 45.08511 | 9.27083 | 111° | 47km/h | 17279m | 4.0m/s | -58.2°C | 5.5% | 0hPa | 2.6V | 00:00:00 | 01:32:54 | 00:00:00 | |
| DO3MHA-11 | 2026-09-03 00:06:29 | 45.08558 | 9.26928 | 115° | 53km/h | 17235m | 4.0m/s | -57.9°C | 5.3% | 0hPa | 2.6V | 00:00:00 | 01:32:44 | 00:00:00 | |
| IW2NTF | 2026-09-03 00:06:23 | 45.08625 | 9.26739 | 117° | 57km/h | 17184m | 4.2m/s | -58°C | 5.3% | 0hPa | 2.6V | 08:30:00 | 01:32:33 | 00:00:00 | |
| DO3MHA-11 | 2026-09-03 00:06:19 | 45.08618 | 9.26756 | 118° | 57km/h | 17189m | 4.9m/s | -57.9°C | 5.3% | 0hPa | 2.6V | 00:00:00 | 01:32:34 | 00:00:00 | |
| DB0UT-7 | 2026-09-03 00:06:11 | 45.08672 | 9.26608 | 117° | 64km/h | 17153m | 4.9m/s | -58.0°C | 5.2% | 0hPa | 2.6V | 00:00:00 | 01:32:26 | 00:00:00 | |
| IW2NTF | 2026-09-03 00:06:09 | 45.08694 | 9.26548 | 118° | 64km/h | 17140m | 5.1m/s | -58.1°C | 5.3% | 0hPa | 2.6V | 08:30:00 | 01:32:23 | 00:00:00 | |
| DO3MHA-11 | 2026-09-03 00:06:09 | 45.08686 | 9.26568 | 118° | 64km/h | 17145m | 3.8m/s | -58.0°C | 5.2% | 0hPa | 2.6V | 00:00:00 | 01:32:24 | 00:00:00 | |
| IW2NTF | 2026-09-03 00:06:02 | 45.08772 | 9.26346 | 111° | 64km/h | 17096m | 4.1m/s | -58.3°C | 5.4% | 0hPa | 2.6V | 08:30:00 | 01:32:13 | 00:00:00 | |
| DO3MHA-11 | 2026-09-03 00:05:59 | 45.08765 | 9.26367 | 114° | 66km/h | 17101m | 4.9m/s | -58.3°C | 5.4% | 0hPa | 2.6V | 00:00:00 | 01:32:14 | 00:00:00 | |
| IW2NTF | 2026-09-03 00:05:49 | 45.08834 | 9.26126 | 114° | 62km/h | 17053m | 4.2m/s | -58.3°C | 5.4% | 0hPa | 2.6V | 08:30:00 | 01:32:03 | 00:00:00 | |
| DO3MHA-11 | 2026-09-03 00:05:49 | 45.08827 | 9.26147 | 115° | 58km/h | 17058m | 3.9m/s | -58.3°C | 5.4% | 0hPa | 2.7V | 00:00:00 | 01:32:04 | 08:30:00 | |
| DB0UT-7 | 2026-09-03 00:05:41 | 45.08872 | 9.25992 | 110° | 57km/h | 17023m | 4.8m/s | -58.4°C | 5.5% | 0hPa | 2.6V | 00:00:00 | 00:00:00 | 08:30:00 | |
| IW2NTF | 2026-09-03 00:05:40 | 45.08886 | 9.25930 | 108° | 62km/h | 17010m | 4.9m/s | -58.5°C | 5.5% | 0hPa | 2.7V | 08:30:00 | 01:31:53 | 00:00:00 | |
| DO3MHA-11 | 2026-09-03 00:05:39 | 45.08882 | 9.25951 | 109° | 60km/h | 17015m | 3.6m/s | -58.5°C | 5.5% | 0hPa | 2.6V | 00:00:00 | 01:31:54 | 00:00:00 | |
| IW2NTF | 2026-09-03 00:05:31 | 45.08939 | 9.25729 | 107° | 58km/h | 16969m | 5m/s | -58.6°C | 5.4% | 0hPa | 2.6V | 08:30:00 | 01:31:43 | 00:00:00 | |
| DO3MHA-11 | 2026-09-03 00:05:29 | 45.08934 | 9.25749 | 110° | 57km/h | 16973m | 3.9m/s | -58.5°C | 5.4% | 0hPa | 2.7V | 00:00:00 | 01:31:44 | 00:00:00 | |
| IW2NTF | 2026-09-03 00:05:20 | 45.08989 | 9.25543 | 118° | 51km/h | 16926m | 4.6m/s | -58.6°C | 5.5% | 0hPa | 2.7V | 08:30:00 | 01:31:33 | 00:00:00 | |
| DO3MHA-11 | 2026-09-03 00:05:19 | 45.08983 | 9.25559 | 119° | 49km/h | 16930m | 3.9m/s | -58.6°C | 5.5% | 0hPa | 2.6V | 00:00:00 | 01:31:34 | 00:00:00 | |
| IW2NTF | 2026-09-03 00:05:14 | 45.09040 | 9.25383 | 114° | 47km/h | 16883m | 3.8m/s | -58.8°C | 5.5% | 0hPa | 2.6V | 08:30:00 | 01:31:23 | 00:00:00 | |
| DB0UT-7 | 2026-09-03 00:05:11 | 45.09026 | 9.25431 | 112° | 44km/h | 16896m | 3.9m/s | -58.4°C | 5.3% | 0hPa | 2.6V | 00:00:00 | 01:31:26 | 00:00:00 | |
| DO3MHA-11 | 2026-09-03 00:05:09 | 45.09035 | 9.25399 | 114° | 46km/h | 16887m | 4.1m/s | -58.5°C | 5.3% | 0hPa | 2.6V | 00:00:00 | 01:31:24 | 00:00:00 | |
| IW2NTF | 2026-09-03 00:05:01 | 45.09088 | 9.25235 | 109° | 42km/h | 16840m | 3.5m/s | -59°C | 5.7% | 0hPa | 2.6V | 08:30:00 | 01:31:13 | 00:00:00 | |
| DO3MHA-11 | 2026-09-03 00:04:59 | 45.09084 | 9.25249 | 110° | 44km/h | 16844m | 4.1m/s | -59.0°C | 5.6% | 0hPa | 2.6V | 00:00:00 | 01:31:14 | 00:00:00 | |
| IW2NTF | 2026-09-03 00:04:51 | 45.09130 | 9.25091 | 115° | 42km/h | 16799m | 4.7m/s | -58.9°C | 5.5% | 0hPa | 2.6V | 08:30:00 | 01:31:03 | 00:00:00 | |
| DO3MHA-11 | 2026-09-03 00:04:49 | 45.09125 | 9.25105 | 117° | 42km/h | 16803m | 3.1m/s | -58.9°C | 5.6% | 0hPa | 2.6V | 00:00:00 | 01:31:04 | 00:00:00 | |
| IW2NTF | 2026-09-03 00:04:43 | 45.09168 | 9.24953 | 110° | 46km/h | 16757m | 3.9m/s | -59.1°C | 5.5% | 0hPa | 2.6V | 08:30:00 | 01:30:53 | 00:00:00 | |
| DB0UT-7 | 2026-09-03 00:04:42 | 45.09157 | 9.24996 | 108° | 44km/h | 16769m | 3.8m/s | -59.0°C | 5.6% | 0hPa | 2.7V | 00:00:00 | 00:00:00 | 00:00:00 | |
| DO3MHA-11 | 2026-09-03 00:04:40 | 45.09164 | 9.24968 | 110° | 44km/h | 16761m | 4.5m/s | -59.0°C | 5.6% | 0hPa | 2.7V | 00:00:00 | 01:30:54 | 00:00:00 | |
| IW2NTF | 2026-09-03 00:04:30 | 45.09221 | 9.24814 | 116° | 46km/h | 16712m | 4.9m/s | -59.3°C | 5.8% | 0hPa | 2.7V | 08:30:00 | 01:30:43 | 00:00:00 | |
| DO3MHA-11 | 2026-09-03 00:04:30 | 45.09216 | 9.24829 | 120° | 46km/h | 16717m | 3.9m/s | -59.3°C | 5.8% | 0hPa | 2.7V | 00:00:00 | 01:30:44 | 00:00:00 | |
| IW2NTF | 2026-09-03 00:04:22 | 45.09272 | 9.24664 | 120° | 44km/h | 16669m | 3.9m/s | -59.2°C | 5.8% | 0hPa | 2.7V | 08:30:00 | 01:30:33 | 00:00:00 | |
| DO3MHA-11 | 2026-09-03 00:04:19 | 45.09266 | 9.24678 | 121° | 44km/h | 16674m | 4.8m/s | -59.2°C | 5.8% | 0hPa | 2.6V | 00:00:00 | 01:30:34 | 08:30:00 | |
| IW2NTF | 2026-09-03 00:04:12 | 45.09307 | 9.24520 | 110° | 40km/h | 16629m | 4.2m/s | -59°C | 5.8% | 0hPa | 2.6V | 08:30:00 | 01:30:23 | 00:00:00 | |
| DB0UT-7 | 2026-09-03 00:04:12 | 45.09300 | 9.24564 | 99° | 40km/h | 16640m | 3.8m/s | -59.0°C | 5.7% | 0hPa | 2.7V | 00:00:00 | 01:30:26 | 00:00:00 | |
| DO3MHA-11 | 2026-09-03 00:04:11 | 45.09304 | 9.24534 | 106° | 38km/h | 16632m | 3.1m/s | -59.0°C | 5.7% | 0hPa | 2.7V | 00:00:00 | 01:30:24 | 00:00:00 | |
| IW2NTF | 2026-09-03 00:04:01 | 45.09361 | 9.24408 | 119° | 38km/h | 16583m | 5.5m/s | -58.8°C | 5.6% | 0hPa | 2.7V | 08:30:00 | 01:30:13 | 00:00:00 | |
| DO3MHA-11 | 2026-09-03 00:03:57 | 45.09366 | 9.24395 | 119° | 42km/h | 16578m | 4.4m/s | -58.7°C | 5.6% | 0hPa | 2.7V | 00:00:00 | 01:30:12 | 00:00:00 | |
| IW2NTF | 2026-09-03 00:03:52 | 45.09417 | 9.24287 | 120° | 40km/h | 16535m | 4m/s | -58.5°C | 5.6% | 0hPa | 2.7V | 08:30:00 | 01:30:03 | 00:00:00 | |
| DO3MHA-11 | 2026-09-03 00:03:47 | 45.09423 | 9.24274 | 121° | 40km/h | 16531m | 4.9m/s | -58.4°C | 5.6% | 0hPa | 2.7V | 00:00:00 | 01:30:02 | 00:00:00 | |
| DB0UT-7 | 2026-09-03 00:03:41 | 45.09461 | 9.24208 | 136° | 47km/h | 16504m | 5.0m/s | -58.3°C | 5.6% | 0hPa | 2.6V | 00:00:00 | 00:00:00 | 00:00:00 | |
| IW2NTF | 2026-09-03 00:03:40 | 45.09484 | 9.24178 | 137° | 38km/h | 16492m | 4.8m/s | -58.4°C | 5.6% | 0hPa | 2.6V | 08:30:00 | 01:29:53 | 00:00:00 | |
| DO3MHA-11 | 2026-09-03 00:03:39 | 45.09491 | 9.24168 | 134° | 44km/h | 16488m | 4.2m/s | -58.3°C | 5.6% | 0hPa | 2.6V | 00:00:00 | 01:29:52 | 00:00:00 | |
| IW2NTF | 2026-09-03 00:03:31 | 45.09556 | 9.24061 | 138° | 49km/h | 16449m | 4.3m/s | -58.3°C | 5.5% | 0hPa | 2.6V | 08:30:00 | 01:29:43 | 00:00:00 | |
| DO3MHA-11 | 2026-09-03 00:03:27 | 45.09565 | 9.24050 | 141° | 46km/h | 16445m | 4.1m/s | -58.3°C | 5.5% | 0hPa | 2.6V | 00:00:00 | 01:29:42 | 00:00:00 | |
| IW2NTF | 2026-09-03 00:03:22 | 45.09641 | 9.23949 | 131° | 49km/h | 16406m | 4.9m/s | -58.7°C | 5.7% | 0hPa | 2.6V | 08:30:00 | 01:29:33 | 00:00:00 | |
| DO3MHA-11 | 2026-09-03 00:03:17 | 45.09650 | 9.23936 | 133° | 53km/h | 16402m | 4.3m/s | -58.7°C | 5.7% | 0hPa | 2.7V | 00:00:00 | 01:29:32 | 00:00:00 | |
| DB0UT-7 | 2026-09-03 00:03:11 | 45.09707 | 9.23857 | 139° | 58km/h | 16377m | 4.9m/s | -58.8°C | 5.7% | 0hPa | 2.6V | 00:00:00 | 01:29:26 | 00:00:00 | |
| IW2NTF | 2026-09-03 00:03:10 | 45.09739 | 9.23819 | 139° | 55km/h | 16363m | 5.5m/s | -58.9°C | 5.7% | 0hPa | 2.6V | 08:30:00 | 01:29:23 | 00:00:00 | |
| DO3MHA-11 | 2026-09-03 00:03:07 | 45.09749 | 9.23806 | 138° | 58km/h | 16358m | 4.3m/s | -58.8°C | 5.7% | 0hPa | 2.6V | 00:00:00 | 01:29:22 | 00:00:00 | |
| IW2NTF | 2026-09-03 00:03:01 | 45.09840 | 9.23663 | 130° | 60km/h | 16320m | 3.7m/s | -59.2°C | 5.9% | 0hPa | 2.6V | 08:30:00 | 01:29:13 | 00:00:00 | |
| DO3MHA-11 | 2026-09-03 00:02:55 | 45.10107 | 9.23134 | 122° | 58km/h | 16185m | 4.1m/s | -59.2°C | 6.0% | 0hPa | 2.7V | 00:00:00 | 01:28:42 | 00:00:00 | |
| IW2NTF | 2026-09-03 00:02:51 | 45.09932 | 9.23514 | 129° | 58km/h | 16277m | 5m/s | -59.4°C | 6% | 0hPa | 2.7V | 08:30:00 | 01:29:03 | 00:00:00 | |
| IW2NTF | 2026-09-03 00:02:41 | 45.10024 | 9.23339 | 122° | 60km/h | 16233m | 4.3m/s | -59.3°C | 6% | 0hPa | 2.7V | 08:30:00 | 01:28:53 | 00:00:00 | |
| DO3MHA-11 | 2026-09-03 00:02:39 | 45.10171 | 9.22947 | 114° | 58km/h | 16141m | 4.7m/s | -59.2°C | 5.9% | 0hPa | 2.6V | 00:00:00 | 01:28:32 | 00:00:00 | |
| DB0UT-7 | 2026-09-03 00:02:30 | 45.10216 | 9.22795 | 110° | 60km/h | 16105m | 4.6m/s | -59.3°C | 6.1% | 0hPa | 2.6V | 00:00:00 | 01:28:24 | 00:00:00 | |
| IW2NTF | 2026-09-03 00:02:29 | 45.10099 | 9.23152 | 121° | 58km/h | 16189m | 5.3m/s | -59.2°C | 6% | 0hPa | 2.6V | 08:30:00 | 01:28:43 | 00:00:00 | |
| IW2NTF | 2026-09-03 00:02:19 | 45.10165 | 9.22967 | 113° | 60km/h | 16145m | 4.1m/s | -59.2°C | 5.9% | 0hPa | 2.6V | 08:30:00 | 01:28:33 | 00:00:00 | |
| IW2NTF | 2026-09-03 00:02:11 | 45.10221 | 9.22774 | 108° | 62km/h | 16100m | 4.4m/s | -59.3°C | 6.1% | 0hPa | 2.6V | 08:30:00 | 01:28:23 | 00:00:00 | |
| DO3MHA-11 | 2026-09-03 00:02:09 | 45.10279 | 9.22465 | 98° | 60km/h | 16035m | 4.3m/s | -59.3°C | 6.0% | 0hPa | 2.7V | 00:00:00 | 01:28:08 | 00:00:00 | |
| IW2NTF | 2026-09-03 00:02:04 | 45.10265 | 9.22563 | 103° | 55km/h | 16056m | 3.5m/s | -59.3°C | 6% | 0hPa | 2.7V | 08:30:00 | 01:28:13 | 00:00:00 | |
| DO3MHA-11 | 2026-09-03 00:01:53 | 45.10305 | 9.22184 | 83° | 62km/h | 15980m | 4.2m/s | -59.6°C | 6.4% | 0hPa | 2.7V | 00:00:00 | 01:27:55 | 00:00:00 | |
| IW2NTF | 2026-09-03 00:01:52 | 45.10291 | 9.22356 | 98° | 64km/h | 16014m | 4.9m/s | -59.6°C | 6.1% | 0hPa | 2.7V | 08:30:00 | 01:28:03 | 00:00:00 | |
| DB0UT-7 | 2026-09-03 00:01:52 | 45.10303 | 9.22162 | 82° | 55km/h | 15975m | 5.0m/s | -59.6°C | 6.4% | 0hPa | 2.6V | 00:00:00 | 00:00:00 | 00:00:00 | |
| DO3MHA-11 | 2026-09-03 00:01:43 | 45.10303 | 9.21967 | 98° | 51km/h | 15937m | 4.6m/s | -59.4°C | 6.2% | 0hPa | 2.6V | 00:00:00 | 01:27:45 | 00:00:00 | |
| IW2NTF | 2026-09-03 00:01:41 | 45.10300 | 9.22140 | 82° | 64km/h | 15971m | 3.8m/s | -59.7°C | 6.4% | 0hPa | 2.7V | 08:30:00 | 01:27:53 | 00:00:00 | |
| IW2NTF | 2026-09-03 00:01:33 | 45.10304 | 9.21931 | 85° | 49km/h | 15928m | 4.2m/s | -59.4°C | 6.2% | 0hPa | 2.7V | 08:30:00 | 01:27:43 | 00:00:00 | |
| DO3MHA-11 | 2026-09-03 00:01:29 | 45.10288 | 9.21787 | 92° | 51km/h | 15893m | 5.0m/s | -59.1°C | 6.4% | 0hPa | 2.6V | 00:00:00 | 01:27:35 | 00:00:00 | |
| IW2NTF | 2026-09-03 00:01:23 | 45.10290 | 9.21733 | 93° | 47km/h | 15879m | 4.9m/s | -59°C | 6.4% | 0hPa | 2.6V | 08:30:00 | 01:27:32 | 00:00:00 | |
| DB0UT-7 | 2026-09-03 00:01:17 | 45.10283 | 9.21592 | 91° | 42km/h | 15841m | 4.5m/s | -58.6°C | 6.2% | 0hPa | 2.7V | 00:00:00 | 01:27:24 | 08:30:00 | |
| IW2NTF | 2026-09-03 00:01:10 | 45.10288 | 9.21546 | 104° | 46km/h | 15827m | 4.2m/s | -58.5°C | 6.2% | 0hPa | 2.6V | 08:30:00 | 01:27:21 | 00:00:00 | |
| DO3MHA-11 | 2026-09-03 00:01:05 | 45.10298 | 9.21447 | 95° | 42km/h | 15799m | 3.1m/s | -58.2°C | 6.1% | 0hPa | 2.7V | 00:00:00 | 01:27:15 | 08:30:00 | |
| IW2NTF | 2026-09-03 00:01:02 | 45.10299 | 9.21382 | 93° | 38km/h | 15780m | 3.6m/s | -58.2°C | 6.1% | 0hPa | 2.6V | 08:30:00 | 01:27:11 | 00:00:00 | |
| IW2NTF | 2026-09-03 00:00:50 | 45.10312 | 9.21243 | 91° | 42km/h | 15734m | 5.5m/s | -57.9°C | 6.1% | 0hPa | 2.6V | 08:30:00 | 01:27:01 | 00:00:00 | |
| DB0UT-7 | 2026-09-03 00:00:45 | 45.10319 | 9.21147 | 94° | 38km/h | 15705m | 5.1m/s | -57.8°C | 5.8% | 0hPa | 2.6V | 00:00:00 | 00:00:00 | 00:00:00 | |
| IW2NTF | 2026-09-03 00:00:38 | 45.10320 | 9.21107 | 90° | 38km/h | 15690m | 4.8m/s | -58°C | 5.9% | 0hPa | 2.6V | 08:30:00 | 01:26:51 | 00:00:00 | |
| DO3MHA-11 | 2026-09-03 00:00:34 | 45.10339 | 9.21014 | 119° | 37km/h | 15658m | 6.3m/s | -58.6°C | 6.1% | 0hPa | 2.7V | 00:00:00 | 01:26:44 | 00:00:00 | |
| IW2NTF | 2026-09-03 00:00:31 | 45.10359 | 9.20957 | 114° | 37km/h | 15632m | 3.9m/s | -59.4°C | 6.7% | 0hPa | 2.7V | 08:30:00 | 01:26:39 | 00:00:00 | |
| DO3MHA-11 | 2026-09-03 00:00:21 | 45.10380 | 9.20899 | 122° | 44km/h | 15611m | 3.9m/s | -59.7°C | 7.0% | 0hPa | 2.7V | 00:00:00 | 01:26:34 | 00:00:00 | |
| IW2NTF | 2026-09-03 00:00:18 | 45.10403 | 9.20846 | 121° | 42km/h | 15594m | 3.6m/s | -59.8°C | 6.9% | 0hPa | 2.7V | 08:30:00 | 01:26:30 | 00:00:00 | |
| DO3MHA-11 | 2026-09-03 00:00:10 | 45.10436 | 9.20769 | 121° | 42km/h | 15567m | 3.4m/s | -59.8°C | 7.0% | 0hPa | 2.7V | 00:00:00 | 01:26:24 | 00:00:00 | |
| IW2NTF | 2026-09-03 00:00:06 | 45.10463 | 9.20728 | 144° | 44km/h | 15548m | 4.6m/s | -59.7°C | 7% | 0hPa | 2.7V | 08:30:00 | 01:26:20 | 00:00:00 | |
| DO3MHA-11 | 2026-09-02 23:59:59 | 45.10516 | 9.20666 | 135° | 47km/h | 15519m | 5.7m/s | -59.4°C | 6.8% | 0hPa | 2.7V | 00:00:00 | 01:26:14 | 00:00:00 | |
| IW2NTF | 2026-09-02 23:59:55 | 45.10547 | 9.20616 | 127° | 40km/h | 15497m | 4.2m/s | -59.3°C | 6.8% | 0hPa | 2.7V | 08:30:00 | 01:26:10 | 00:00:00 | |
| DO3MHA-11 | 2026-09-02 23:59:49 | 45.10601 | 9.20551 | 148° | 53km/h | 15468m | 5.1m/s | -59.2°C | 6.8% | 0hPa | 2.7V | 00:00:00 | 01:26:04 | 00:00:00 | |
| DB0UT-7 | 2026-09-02 23:59:39 | 45.10712 | 9.20447 | 136° | 68km/h | 15418m | 4.4m/s | -59.2°C | 6.7% | 0hPa | 2.7V | 00:00:00 | 00:00:00 | 00:00:00 | |
| DO3MHA-11 | 2026-09-02 23:59:29 | 45.10827 | 9.20315 | 145° | 68km/h | 15371m | 5.2m/s | -59.6°C | 6.9% | 0hPa | 2.7V | 00:00:00 | 01:25:44 | 08:30:00 | |
| DO3MHA-11 | 2026-09-02 23:59:19 | 45.10963 | 9.20169 | 141° | 75km/h | 15324m | 5.5m/s | -60.1°C | 7.1% | 0hPa | 2.7V | 00:00:00 | 01:25:34 | 00:00:00 | |
| IW2NTF | 2026-09-02 23:59:15 | 45.11035 | 9.20086 | 137° | 77km/h | 15303m | 3.6m/s | -60.1°C | 7.3% | 0hPa | 2.7V | 08:30:00 | 01:25:29 | 00:00:00 | |
| DB0UT-7 | 2026-09-02 23:59:09 | 45.11102 | 9.19989 | 133° | 73km/h | 15281m | 4.0m/s | -59.9°C | 7.3% | 0hPa | 2.7V | 00:00:00 | 01:25:24 | 00:00:00 | |
| IW2NTF | 2026-09-02 23:59:06 | 45.11166 | 9.19885 | 128° | 73km/h | 15262m | 3.5m/s | -59.8°C | 7.2% | 0hPa | 2.7V | 08:30:00 | 01:25:19 | 00:00:00 | |
| DO3MHA-11 | 2026-09-02 23:58:59 | 45.11228 | 9.19781 | 133° | 73km/h | 15243m | 4.8m/s | -59.7°C | 7.1% | 0hPa | 2.7V | 00:00:00 | 01:25:14 | 00:00:00 | |
| IW2NTF | 2026-09-02 23:58:55 | 45.11292 | 9.19686 | 133° | 73km/h | 15222m | 3.7m/s | -59.8°C | 7.1% | 0hPa | 2.7V | 08:30:00 | 01:25:09 | 00:00:00 | |
| DO3MHA-11 | 2026-09-02 23:58:49 | 45.11353 | 9.19593 | 134° | 69km/h | 15200m | 3.7m/s | -59.8°C | 7.3% | 0hPa | 2.7V | 00:00:00 | 01:25:04 | 00:00:00 | |
| IW2NTF | 2026-09-02 23:58:45 | 45.11415 | 9.19501 | 134° | 71km/h | 15180m | 4.6m/s | -59.8°C | 7.4% | 0hPa | 2.7V | 08:30:00 | 01:24:59 | 00:00:00 | |
| DB0UT-7 | 2026-09-02 23:58:39 | 45.11473 | 9.19414 | 131° | 62km/h | 15161m | 3.8m/s | -59.9°C | 7.5% | 0hPa | 2.7V | 00:00:00 | 00:00:00 | 00:00:00 | |
| IW2NTF | 2026-09-02 23:58:35 | 45.11533 | 9.19321 | 134° | 69km/h | 15141m | 3.9m/s | -59.9°C | 7.4% | 0hPa | 2.7V | 08:30:00 | 01:24:49 | 00:00:00 | |
| DO3MHA-11 | 2026-09-02 23:58:29 | 45.11584 | 9.19234 | 128° | 62km/h | 15121m | 4.7m/s | -59.8°C | 7.4% | 0hPa | 2.7V | 00:00:00 | 01:24:44 | 00:00:00 | |
| IW2NTF | 2026-09-02 23:58:25 | 45.11644 | 9.19131 | 131° | 66km/h | 15096m | 4.1m/s | -59.9°C | 7.6% | 0hPa | 2.7V | 08:30:00 | 01:24:38 | 00:00:00 | |
| DO3MHA-11 | 2026-09-02 23:58:19 | 45.11689 | 9.19069 | 136° | 60km/h | 15079m | 4.9m/s | -59.7°C | 7.5% | 0hPa | 2.7V | 00:00:00 | 01:24:34 | 00:00:00 | |
| IW2NTF | 2026-09-02 23:58:18 | 45.11751 | 9.18981 | 132° | 62km/h | 15051m | 3.8m/s | -59.8°C | 7.5% | 0hPa | 2.7V | 08:30:00 | 01:24:28 | 00:00:00 | |
| DB0UT-7 | 2026-09-02 23:58:09 | 45.11795 | 9.18919 | 141° | 58km/h | 15035m | 4.0m/s | -59.8°C | 7.6% | 0hPa | 2.6V | 00:00:00 | 01:24:24 | 00:00:00 | |
| IW2NTF | 2026-09-02 23:58:06 | 45.11862 | 9.18847 | 143° | 47km/h | 15006m | 4.6m/s | -60°C | 7.6% | 0hPa | 2.7V | 08:30:00 | 01:24:18 | 00:00:00 | |
| DO3MHA-11 | 2026-09-02 23:57:59 | 45.11900 | 9.18802 | 139° | 58km/h | 14989m | 3.8m/s | -60.1°C | 7.8% | 0hPa | 2.6V | 00:00:00 | 01:24:14 | 08:30:00 | |
| IW2NTF | 2026-09-02 23:57:58 | 45.11967 | 9.18725 | 140° | 62km/h | 14962m | 4.1m/s | -60°C | 7.9% | 0hPa | 2.6V | 08:30:00 | 01:24:08 | 00:00:00 | |
| DO3MHA-11 | 2026-09-02 23:57:49 | 45.12017 | 9.18674 | 145° | 64km/h | 14946m | 4.1m/s | -60.0°C | 7.9% | 0hPa | 2.6V | 00:00:00 | 01:24:04 | 00:00:00 | |
| IW2NTF | 2026-09-02 23:57:46 | 45.12089 | 9.18589 | 137° | 64km/h | 14918m | 5m/s | -60°C | 7.9% | 0hPa | 2.6V | 08:30:00 | 01:23:58 | 00:00:00 | |
| DB0UT-7 | 2026-09-02 23:57:39 | 45.12138 | 9.18523 | 137° | 71km/h | 14900m | 5.1m/s | -60.0°C | 8.0% | 0hPa | 2.6V | 00:00:00 | 00:00:00 | 00:00:00 | |
| IW2NTF | 2026-09-02 23:57:34 | 45.12211 | 9.18426 | 137° | 68km/h | 14873m | 4.9m/s | -60.2°C | 8.1% | 0hPa | 2.6V | 08:30:00 | 01:23:48 | 00:00:00 | |
| DO3MHA-11 | 2026-09-02 23:57:29 | 45.12263 | 9.18353 | 132° | 71km/h | 14856m | 4.2m/s | -60.1°C | 8.2% | 0hPa | 2.6V | 00:00:00 | 01:23:44 | 00:00:00 | |
| IW2NTF | 2026-09-02 23:57:24 | 45.12334 | 9.18233 | 130° | 69km/h | 14829m | 4.2m/s | -60.2°C | 8.2% | 0hPa | 2.7V | 08:30:00 | 01:23:38 | 00:00:00 | |
| DO3MHA-11 | 2026-09-02 23:57:19 | 45.12380 | 9.18162 | 133° | 73km/h | 14812m | 4.5m/s | -60.2°C | 8.3% | 0hPa | 2.7V | 00:00:00 | 01:23:34 | 00:00:00 | |
| IW2NTF | 2026-09-02 23:57:14 | 45.12455 | 9.18048 | 131° | 73km/h | 14787m | 4.6m/s | -60.1°C | 8.4% | 0hPa | 2.7V | 08:30:00 | 01:23:28 | 00:00:00 | |
| DO3MHA-11 | 2026-09-02 23:57:09 | 45.12504 | 9.17969 | 135° | 68km/h | 14771m | 4.5m/s | -59.9°C | 8.5% | 0hPa | 2.6V | 00:00:00 | 01:23:24 | 00:00:00 | |
| IW2NTF | 2026-09-02 23:57:04 | 45.12581 | 9.17867 | 135° | 68km/h | 14745m | 4.2m/s | -59.8°C | 8.6% | 0hPa | 2.6V | 08:30:00 | 01:23:18 | 00:00:00 | |
| DB0UT-7 | 2026-09-02 23:57:02 | 45.12593 | 9.17850 | 136° | 64km/h | 14741m | 4.7m/s | -59.8°C | 8.6% | 0hPa | 2.6V | 00:00:00 | 01:23:17 | 00:00:00 | |
| DO3MHA-11 | 2026-09-02 23:56:59 | 45.12627 | 9.17799 | 131° | 68km/h | 14728m | 4.4m/s | -59.8°C | 8.7% | 0hPa | 2.6V | 00:00:00 | 01:23:14 | 00:00:00 | |
| IW2NTF | 2026-09-02 23:56:54 | 45.12698 | 9.17692 | 135° | 68km/h | 14703m | 4.8m/s | -60°C | 9.1% | 0hPa | 2.6V | 08:30:00 | 01:23:08 | 00:00:00 | |
| DO3MHA-11 | 2026-09-02 23:56:49 | 45.12748 | 9.17626 | 140° | 64km/h | 14687m | 4.2m/s | -60.0°C | 9.2% | 0hPa | 2.6V | 00:00:00 | 01:23:04 | 00:00:00 | |
| IW2NTF | 2026-09-02 23:56:42 | 45.12843 | 9.17501 | 135° | 60km/h | 14653m | 4.9m/s | -60.3°C | 9.4% | 0hPa | 2.6V | 08:30:00 | 01:22:56 | 00:00:00 | |
| DO3MHA-11 | 2026-09-02 23:56:39 | 45.12865 | 9.17471 | 136° | 60km/h | 14644m | 3.9m/s | -60.2°C | 9.3% | 0hPa | 2.6V | 00:00:00 | 01:22:54 | 00:00:00 | |
| IW2NTF | 2026-09-02 23:56:34 | 45.12953 | 9.17349 | 139° | 62km/h | 14610m | 4m/s | -60.2°C | 9.6% | 0hPa | 2.6V | 08:30:00 | 01:22:46 | 00:00:00 | |
| DB0UT-7 | 2026-09-02 23:56:32 | 45.12942 | 9.17363 | 138° | 66km/h | 14615m | 4.4m/s | -60.2°C | 9.6% | 0hPa | 2.7V | 00:00:00 | 00:00:00 | 08:30:00 | |
| DO3MHA-11 | 2026-09-02 23:56:29 | 45.12977 | 9.17319 | 138° | 69km/h | 14602m | 4.1m/s | -60.2°C | 9.7% | 0hPa | 2.6V | 00:00:00 | 01:22:44 | 08:30:00 | |
| IW2NTF | 2026-09-02 23:56:24 | 45.13076 | 9.17194 | 138° | 75km/h | 14569m | 4.4m/s | -60.3°C | 9.5% | 0hPa | 2.7V | 08:30:00 | 01:22:36 | 00:00:00 | |
| DO3MHA-11 | 2026-09-02 23:56:17 | 45.13132 | 9.17125 | 138° | 66km/h | 14552m | 3.9m/s | -60.2°C | 9.5% | 0hPa | 2.6V | 00:00:00 | 01:22:32 | 00:00:00 | |
| IW2NTF | 2026-09-02 23:56:14 | 45.13209 | 9.17036 | 143° | 62km/h | 14527m | 3.6m/s | -60.2°C | 9.5% | 0hPa | 2.6V | 08:30:00 | 01:22:26 | 00:00:00 | |
| DO3MHA-11 | 2026-09-02 23:56:07 | 45.13262 | 9.16983 | 146° | 69km/h | 14512m | 3.1m/s | -60.0°C | 9.5% | 0hPa | 2.7V | 00:00:00 | 01:22:22 | 00:00:00 | |
| IW2NTF | 2026-09-02 23:56:04 | 45.13347 | 9.16895 | 143° | 71km/h | 14487m | 3.5m/s | -60°C | 9.6% | 0hPa | 2.7V | 08:30:00 | 01:22:16 | 00:00:00 | |
| DB0UT-7 | 2026-09-02 23:56:02 | 45.13332 | 9.16910 | 143° | 77km/h | 14491m | 4.1m/s | -59.9°C | 9.6% | 0hPa | 2.7V | 00:00:00 | 01:22:17 | 00:00:00 | |
| DO3MHA-11 | 2026-09-02 23:55:57 | 45.13401 | 9.16837 | 144° | 69km/h | 14472m | 3.6m/s | -60.0°C | 9.8% | 0hPa | 2.7V | 00:00:00 | 01:22:12 | 00:00:00 | |
| IW2NTF | 2026-09-02 23:55:54 | 45.13488 | 9.16747 | 142° | 69km/h | 14448m | 4.1m/s | -60.2°C | 10% | 0hPa | 2.7V | 08:30:00 | 01:22:06 | 00:00:00 | |
| IW2NTF | 2026-09-02 23:55:44 | 45.13633 | 9.16590 | 140° | 80km/h | 14407m | 4.3m/s | -59.9°C | 10.2% | 0hPa | 2.6V | 08:30:00 | 01:21:56 | 00:00:00 | |
| DO3MHA-11 | 2026-09-02 23:55:37 | 45.13695 | 9.16516 | 141° | 77km/h | 14390m | 4.3m/s | -59.7°C | 10.3% | 0hPa | 2.7V | 00:00:00 | 01:21:52 | 00:00:00 | |
| IW2NTF | 2026-09-02 23:55:35 | 45.13788 | 9.16415 | 144° | 73km/h | 14365m | 4.2m/s | -59.6°C | 10.6% | 0hPa | 2.7V | 08:30:00 | 01:21:46 | 00:00:00 | |
| DO3MHA-11 | 2026-09-02 23:55:27 | 45.13847 | 9.16348 | 142° | 80km/h | 14350m | 4.4m/s | -59.4°C | 10.9% | 0hPa | 2.6V | 00:00:00 | 01:21:42 | 00:00:00 | |
| IW2NTF | 2026-09-02 23:55:24 | 45.13944 | 9.16237 | 141° | 82km/h | 14326m | 4.5m/s | -59.3°C | 11% | 0hPa | 2.6V | 08:30:00 | 01:21:36 | 00:00:00 | |
| DB0UT-7 | 2026-09-02 23:55:19 | 45.13976 | 9.16200 | 141° | 84km/h | 14318m | 4.8m/s | -59.2°C | 11.1% | 0hPa | 2.7V | 00:00:00 | 00:00:00 | 00:00:00 | |
| DO3MHA-11 | 2026-09-02 23:55:17 | 45.14006 | 9.16164 | 141° | 82km/h | 14309m | 4.4m/s | -59.2°C | 11.3% | 0hPa | 2.7V | 00:00:00 | 01:21:32 | 00:00:00 | |
| IW2NTF | 2026-09-02 23:55:15 | 45.14101 | 9.16056 | 142° | 84km/h | 14284m | 3.5m/s | -59.2°C | 11.9% | 0hPa | 2.7V | 08:30:00 | 01:21:26 | 00:00:00 | |
| DO3MHA-11 | 2026-09-02 23:55:07 | 45.14167 | 9.15981 | 141° | 84km/h | 14268m | 3.9m/s | -59.1°C | 12.2% | 0hPa | 2.6V | 00:00:00 | 01:21:22 | 00:00:00 | |
| IW2NTF | 2026-09-02 23:55:04 | 45.14264 | 9.15867 | 139° | 84km/h | 14242m | 4.7m/s | -59.4°C | 13% | 0hPa | 2.6V | 08:30:00 | 01:21:16 | 00:00:00 | |
| DO3MHA-11 | 2026-09-02 23:54:57 | 45.14331 | 9.15787 | 139° | 88km/h | 14227m | 4.4m/s | -59.8°C | 13.7% | 0hPa | 2.7V | 00:00:00 | 01:21:12 | 08:30:00 | |
| IW2NTF | 2026-09-02 23:54:54 | 45.14428 | 9.15662 | 136° | 86km/h | 14201m | 3.4m/s | -60.3°C | 15% | 0hPa | 2.6V | 08:30:00 | 01:21:06 | 00:00:00 | |
| DB0UT-7 | 2026-09-02 23:54:49 | 45.14460 | 9.15620 | 140° | 95km/h | 14193m | 3.8m/s | -60.5°C | 15.8% | 0hPa | 2.7V | 00:00:00 | 01:21:04 | 00:00:00 | |
| DO3MHA-11 | 2026-09-02 23:54:47 | 45.14495 | 9.15578 | 139° | 91km/h | 14185m | 4.5m/s | -60.7°C | 16.3% | 0hPa | 2.7V | 00:00:00 | 01:21:02 | 00:00:00 | |
| IW2NTF | 2026-09-02 23:54:44 | 45.14597 | 9.15442 | 134° | 93km/h | 14161m | 4m/s | -61.3°C | 17.3% | 0hPa | 2.7V | 08:30:00 | 01:20:56 | 00:00:00 | |
| DO3MHA-11 | 2026-09-02 23:54:37 | 45.14664 | 9.15352 | 140° | 95km/h | 14145m | 3.1m/s | -61.4°C | 17.0% | 0hPa | 2.6V | 00:00:00 | 01:20:52 | 00:00:00 | |
| IW2NTF | 2026-09-02 23:54:34 | 45.14767 | 9.15220 | 136° | 99km/h | 14121m | 3.2m/s | -61.6°C | 17.5% | 0hPa | 2.6V | 08:30:00 | 01:20:46 | 00:00:00 | |
| DO3MHA-11 | 2026-09-02 23:54:27 | 45.14839 | 9.15117 | 134° | 99km/h | 14105m | 4.2m/s | -61.6°C | 17.5% | 0hPa | 2.7V | 00:00:00 | 01:20:42 | 00:00:00 | |
| IW2NTF | 2026-09-02 23:54:24 | 45.14941 | 9.14965 | 131° | 95km/h | 14080m | 4.2m/s | -61.7°C | 17.9% | 0hPa | 2.7V | 08:30:00 | 01:20:36 | 00:00:00 | |
| DB0UT-7 | 2026-09-02 23:54:19 | 45.14974 | 9.14914 | 133° | 97km/h | 14072m | 3.6m/s | -61.6°C | 18.0% | 0hPa | 2.6V | 00:00:00 | 00:00:00 | 00:00:00 | |
| DO3MHA-11 | 2026-09-02 23:54:17 | 45.15007 | 9.14862 | 131° | 100km/h | 14063m | 3.9m/s | -61.6°C | 17.9% | 0hPa | 2.6V | 00:00:00 | 01:20:32 | 00:00:00 | |
| IW2NTF | 2026-09-02 23:54:14 | 45.15107 | 9.14696 | 128° | 100km/h | 14041m | 3.5m/s | -61.5°C | 17.9% | 0hPa | 2.6V | 08:30:00 | 01:20:26 | 00:00:00 | |
| DO3MHA-11 | 2026-09-02 23:54:07 | 45.15169 | 9.14587 | 130° | 97km/h | 14024m | 4.5m/s | -61.4°C | 17.8% | 0hPa | 2.7V | 00:00:00 | 01:20:22 | 00:00:00 | |
| IW2NTF | 2026-09-02 23:54:04 | 45.15264 | 9.14426 | 129° | 99km/h | 13999m | 5.1m/s | -61.4°C | 18.3% | 0hPa | 2.7V | 08:30:00 | 01:20:16 | 00:00:00 | |
| DO3MHA-11 | 2026-09-02 23:53:57 | 45.15323 | 9.14319 | 129° | 93km/h | 13982m | 3.9m/s | -61.3°C | 18.3% | 0hPa | 2.6V | 00:00:00 | 01:20:12 | 00:00:00 | |
| IW2NTF | 2026-09-02 23:53:56 | 45.15412 | 9.14164 | 128° | 95km/h | 13956m | 3.9m/s | -61.2°C | 17.6% | 0hPa | 2.6V | 08:30:00 | 01:20:06 | 00:00:00 | |
| DB0UT-7 | 2026-09-02 23:53:49 | 45.15440 | 9.14110 | 127° | 88km/h | 13948m | 3.6m/s | -61.1°C | 17.3% | 0hPa | 2.6V | 00:00:00 | 01:20:04 | 00:00:00 | |
| DO3MHA-11 | 2026-09-02 23:53:47 | 45.15469 | 9.14054 | 127° | 89km/h | 13939m | 4.1m/s | -61.0°C | 17.4% | 0hPa | 2.6V | 00:00:00 | 01:20:02 | 00:00:00 | |
| IW2NTF | 2026-09-02 23:53:44 | 45.15550 | 9.13897 | 128° | 88km/h | 13915m | 4.3m/s | -60.9°C | 17.9% | 0hPa | 2.6V | 08:30:00 | 01:19:56 | 00:00:00 | |
| DO3MHA-11 | 2026-09-02 23:53:37 | 45.15606 | 9.13797 | 127° | 86km/h | 13899m | 3.7m/s | -60.7°C | 17.8% | 0hPa | 2.8V | 00:00:00 | 01:19:52 | 00:00:00 | |
| IW2NTF | 2026-09-02 23:53:35 | 45.15685 | 9.13650 | 126° | 84km/h | 13874m | 3.1m/s | -60.7°C | 18% | 0hPa | 2.8V | 08:30:00 | 01:19:46 | 00:00:00 | |
| DO3MHA-11 | 2026-09-02 23:53:27 | 45.15736 | 9.13558 | 129° | 86km/h | 13857m | 3.9m/s | -60.5°C | 17.9% | 0hPa | 2.6V | 00:00:00 | 01:19:42 | 08:30:00 | |
| IW2NTF | 2026-09-02 23:53:24 | 45.15815 | 9.13405 | 125° | 88km/h | 13832m | 4.2m/s | -60.5°C | 18.2% | 0hPa | 2.6V | 08:30:00 | 01:19:36 | 00:00:00 | |
| DB0UT-7 | 2026-09-02 23:53:19 | 45.15840 | 9.13355 | 126° | 78km/h | 13825m | 4.1m/s | 0°C | 0% | 0hPa | 2.7V | 00:00:00 | 00:00:00 | 00:00:00 | |
| DO3MHA-11 | 2026-09-02 23:53:17 | 45.15866 | 9.13308 | 129° | 80km/h | 13817m | 4.4m/s | 0°C | 0% | 0hPa | 2.7V | 00:00:00 | 01:19:32 | 00:00:00 | |
| IW2NTF | 2026-09-02 23:53:14 | 45.15943 | 9.13174 | 129° | 80km/h | 13791m | 3.8m/s | -60.2°C | 18.5% | 0hPa | 2.7V | 08:30:00 | 01:19:26 | 00:00:00 | |
| DO3MHA-11 | 2026-09-02 23:53:07 | 45.15995 | 9.13086 | 132° | 80km/h | 13774m | 4.8m/s | 0°C | 0% | 0hPa | 2.8V | 00:00:00 | 01:19:22 | 00:00:00 | |
| IW2NTF | 2026-09-02 23:53:03 | 45.16102 | 9.12913 | 129° | 75km/h | 13739m | 4.5m/s | -59.9°C | 17.7% | 0hPa | 2.8V | 08:30:00 | 01:19:14 | 00:00:00 | |
| DO3MHA-11 | 2026-09-02 23:52:57 | 45.16126 | 9.12872 | 129° | 78km/h | 13732m | 4.2m/s | 0°C | 0% | 0hPa | 2.6V | 00:00:00 | 01:19:12 | 00:00:00 | |
| IW2NTF | 2026-09-02 23:52:53 | 45.16231 | 9.12708 | 132° | 80km/h | 13699m | 3.3m/s | -59.7°C | 18.5% | 0hPa | 2.6V | 08:30:00 | 01:19:04 | 00:00:00 | |
| DB0UT-7 | 2026-09-02 23:52:49 | 45.16231 | 9.12708 | 133° | 80km/h | 13699m | 3.2m/s | 0°C | 0% | 0hPa | 2.7V | 00:00:00 | 01:19:04 | 00:00:00 | |
| DO3MHA-11 | 2026-09-02 23:52:47 | 45.16258 | 9.12667 | 135° | 78km/h | 13690m | 4.5m/s | 0°C | 0% | 0hPa | 2.7V | 00:00:00 | 01:19:02 | 00:00:00 | |
| IW2NTF | 2026-09-02 23:52:44 | 45.16370 | 9.12509 | 134° | 80km/h | 13656m | 4.2m/s | -59.8°C | 19% | 0hPa | 2.7V | 08:30:00 | 01:18:54 | 00:00:00 | |
| DO3MHA-11 | 2026-09-02 23:52:37 | 45.16398 | 9.12468 | 136° | 80km/h | 13647m | 4.9m/s | 0°C | 0% | 0hPa | 2.8V | 00:00:00 | 01:18:52 | 00:00:00 | |
| IW2NTF | 2026-09-02 23:52:33 | 45.16515 | 9.12313 | 136° | 82km/h | 13615m | 4.3m/s | -59.7°C | 19% | 0hPa | 2.8V | 08:30:00 | 01:18:44 | 00:00:00 | |
| IW2NTF | 2026-09-02 23:52:24 | 45.16663 | 9.12109 | 136° | 84km/h | 13574m | 3.9m/s | -59.7°C | 19.6% | 0hPa | 2.6V | 08:30:00 | 01:18:34 | 00:00:00 | |
| DB0UT-7 | 2026-09-02 23:52:19 | 45.16663 | 9.12109 | 137° | 89km/h | 13575m | 3.9m/s | 0°C | 0% | 0hPa | 2.6V | 00:00:00 | 00:00:00 | 00:00:00 | |
| DO3MHA-11 | 2026-09-02 23:52:17 | 45.16694 | 9.12066 | 135° | 88km/h | 13566m | 4.7m/s | 0°C | 0% | 0hPa | 2.6V | 00:00:00 | 01:18:32 | 00:00:00 | |
| IW2NTF | 2026-09-02 23:52:10 | 45.16818 | 9.11887 | 135° | 86km/h | 13534m | 4.9m/s | -60.3°C | 21.6% | 0hPa | 2.6V | 08:30:00 | 01:18:24 | 00:00:00 | |
| DO3MHA-11 | 2026-09-02 23:52:07 | 45.16849 | 9.11844 | 136° | 91km/h | 13526m | 4.3m/s | 0°C | 0% | 0hPa | 2.8V | 00:00:00 | 01:18:22 | 00:00:00 | |
| IW2NTF | 2026-09-02 23:52:00 | 45.16981 | 9.11655 | 134° | 95km/h | 13494m | 3.5m/s | -60.2°C | 23.3% | 0hPa | 2.8V | 08:30:00 | 01:18:14 | 00:00:00 | |
| DO3MHA-11 | 2026-09-02 23:51:57 | 45.17015 | 9.11609 | 138° | 88km/h | 13486m | 3.8m/s | 0°C | 0% | 0hPa | 2.6V | 00:00:00 | 01:18:12 | 08:30:00 | |
| IW2NTF | 2026-09-02 23:51:49 | 45.17146 | 9.11444 | 136° | 88km/h | 13456m | 4.1m/s | -60.5°C | 25.6% | 0hPa | 2.6V | 08:30:00 | 01:18:04 | 00:00:00 | |
| DB0UT-7 | 2026-09-02 23:51:49 | 45.17146 | 9.11443 | 137° | 89km/h | 13456m | 4.1m/s | 0°C | 0% | 0hPa | 2.6V | 00:00:00 | 01:18:04 | 00:00:00 | |
| IW2NTF | 2026-09-02 23:51:44 | 45.17313 | 9.11239 | 142° | 80km/h | 13418m | 3m/s | -61°C | 29.2% | 0hPa | 2.6V | 08:30:00 | 01:17:54 | 00:00:00 | |
| IW2NTF | 2026-09-02 23:51:34 | 45.17478 | 9.11041 | 138° | 84km/h | 13380m | 3.5m/s | -61.3°C | 31.2% | 0hPa | 2.6V | 08:30:00 | 01:17:44 | 00:00:00 | |
| IW2NTF | 2026-09-02 23:51:23 | 45.17655 | 9.10827 | 139° | 99km/h | 13343m | 4.1m/s | -61.1°C | 32.9% | 0hPa | 2.8V | 08:30:00 | 01:17:34 | 00:00:00 | |
| IW2NTF | 2026-09-02 23:51:13 | 45.17835 | 9.10611 | 138° | 89km/h | 13306m | 3m/s | -61.5°C | 37.3% | 0hPa | 2.8V | 08:30:00 | 01:17:24 | 00:00:00 | |
| IW2NTF | 2026-09-02 23:51:03 | 45.18015 | 9.10394 | 143° | 97km/h | 13270m | 4.5m/s | -61.6°C | 38.9% | 0hPa | 2.8V | 08:30:00 | 01:17:14 | 00:00:00 | |
| IW2NTF | 2026-09-02 23:50:53 | 45.18185 | 9.10185 | 139° | 91km/h | 13233m | 3m/s | -61.4°C | 40.2% | 0hPa | 2.8V | 08:30:00 | 01:17:04 | 00:00:00 | |
| IW2NTF | 2026-09-02 23:50:44 | 45.18364 | 9.09975 | 140° | 93km/h | 13195m | 4.4m/s | -61.2°C | 41.1% | 0hPa | 2.6V | 08:30:00 | 01:16:54 | 00:00:00 | |
| IW2NTF | 2026-09-02 23:50:34 | 45.18545 | 9.09756 | 138° | 97km/h | 13157m | 4.4m/s | -61.3°C | 43.4% | 0hPa | 2.6V | 08:30:00 | 01:16:44 | 00:00:00 | |
| IW2NTF | 2026-09-02 23:50:23 | 45.18724 | 9.09543 | 139° | 91km/h | 13119m | 3.4m/s | -61.2°C | 44.7% | 0hPa | 2.8V | 08:30:00 | 01:16:34 | 00:00:00 | |
| IW2NTF | 2026-09-02 23:50:12 | 45.18928 | 9.09302 | 139° | 88km/h | 13072m | 3.3m/s | -61.6°C | 48.6% | 0hPa | 2.8V | 08:30:00 | 01:16:22 | 00:00:00 | |
| IW2NTF | 2026-09-02 23:50:02 | 45.19100 | 9.09102 | 142° | 88km/h | 13034m | 4.2m/s | -61.7°C | 50.7% | 0hPa | 2.8V | 08:30:00 | 01:16:12 | 00:00:00 | |
| IW2NTF | 2026-09-02 23:49:53 | 45.19280 | 9.08908 | 143° | 91km/h | 12995m | 4.5m/s | -61.7°C | 52.8% | 0hPa | 2.8V | 08:30:00 | 01:16:02 | 00:00:00 | |
| IW2NTF | 2026-09-02 23:49:40 | 45.19482 | 9.08675 | 141° | 88km/h | 12952m | 4.4m/s | -62°C | 54.2% | 0hPa | 2.8V | 08:30:00 | 01:15:51 | 00:00:00 | |
| IW2NTF | 2026-09-02 23:49:30 | 45.19648 | 9.08481 | 138° | 84km/h | 12911m | 4.7m/s | -61.8°C | 52.8% | 0hPa | 2.8V | 08:30:00 | 01:15:41 | 00:00:00 | |
| IW2NTF | 2026-09-02 23:49:19 | 45.19804 | 9.08288 | 138° | 78km/h | 12872m | 4.8m/s | -61.5°C | 51.2% | 0hPa | 2.6V | 08:30:00 | 01:15:31 | 00:00:00 | |
| IW2NTF | 2026-09-02 23:49:10 | 45.19967 | 9.08064 | 135° | 80km/h | 12827m | 4.2m/s | -61.2°C | 49.8% | 0hPa | 2.6V | 08:30:00 | 01:15:20 | 00:00:00 | |
| IW2NTF | 2026-09-02 23:48:56 | 45.20140 | 9.07838 | 136° | 77km/h | 12775m | 5.2m/s | -60.8°C | 48.5% | 0hPa | 2.6V | 08:30:00 | 01:15:08 | 00:00:00 | |
| IW2NTF | 2026-09-02 23:48:44 | 45.20282 | 9.07661 | 139° | 73km/h | 12733m | 3.6m/s | -60.7°C | 47.9% | 0hPa | 2.6V | 08:30:00 | 01:14:58 | 00:00:00 | |
| IW2NTF | 2026-09-02 23:48:38 | 45.20414 | 9.07479 | 137° | 73km/h | 12692m | 3.9m/s | -60.7°C | 48.7% | 0hPa | 2.8V | 08:30:00 | 01:14:48 | 00:00:00 | |
| IW2NTF | 2026-09-02 23:48:24 | 45.20545 | 9.07302 | 132° | 71km/h | 12650m | 4.1m/s | -60.5°C | 47.2% | 0hPa | 2.6V | 08:30:00 | 01:14:38 | 00:00:00 | |
| IW2NTF | 2026-09-02 23:48:18 | 45.20682 | 9.07129 | 136° | 73km/h | 12608m | 4.2m/s | -60.2°C | 46.7% | 0hPa | 2.6V | 08:30:00 | 01:14:28 | 00:00:00 | |
| IW2NTF | 2026-09-02 23:48:07 | 45.20818 | 9.06954 | 139° | 75km/h | 12567m | 5.4m/s | -59.9°C | 44.8% | 0hPa | 2.8V | 08:30:00 | 01:14:18 | 00:00:00 | |
| IW2NTF | 2026-09-02 23:47:56 | 45.20961 | 9.06777 | 139° | 73km/h | 12525m | 4.6m/s | -59.6°C | 43.3% | 0hPa | 2.6V | 08:30:00 | 01:14:08 | 00:00:00 | |
| IW2NTF | 2026-09-02 23:47:48 | 45.21107 | 9.06606 | 140° | 75km/h | 12482m | 3.2m/s | -59.2°C | 41.4% | 0hPa | 2.8V | 08:30:00 | 01:13:58 | 00:00:00 | |
| IW2NTF | 2026-09-02 23:47:34 | 45.21257 | 9.06438 | 143° | 75km/h | 12440m | 3.7m/s | -58.9°C | 39.8% | 0hPa | 2.6V | 08:30:00 | 01:13:48 | 00:00:00 | |
| IW2NTF | 2026-09-02 23:47:24 | 45.21413 | 9.06271 | 144° | 77km/h | 12400m | 4m/s | -58.6°C | 37.6% | 0hPa | 2.6V | 08:30:00 | 01:13:38 | 00:00:00 | |
| IW2NTF | 2026-09-02 23:47:18 | 45.21566 | 9.06109 | 143° | 77km/h | 12359m | 4.1m/s | -58.2°C | 35.5% | 0hPa | 2.8V | 08:30:00 | 01:13:28 | 00:00:00 | |
| IW2NTF | 2026-09-02 23:47:04 | 45.21719 | 9.05949 | 142° | 75km/h | 12317m | 4.8m/s | -57.8°C | 34.7% | 0hPa | 2.8V | 08:30:00 | 01:13:18 | 00:00:00 | |
| IW2NTF | 2026-09-02 23:46:58 | 45.21871 | 9.05784 | 142° | 71km/h | 12276m | 3.3m/s | -57.5°C | 36.2% | 0hPa | 2.6V | 08:30:00 | 01:13:08 | 00:00:00 | |
| IW2NTF | 2026-09-02 23:46:44 | 45.22024 | 9.05625 | 142° | 77km/h | 12236m | 3.1m/s | -57.4°C | 36.9% | 0hPa | 2.6V | 08:30:00 | 01:12:58 | 00:00:00 | |
| IW2NTF | 2026-09-02 23:46:38 | 45.22169 | 9.05468 | 143° | 75km/h | 12197m | 4.8m/s | -57.1°C | 35.3% | 0hPa | 2.6V | 08:30:00 | 01:12:48 | 00:00:00 | |
| IW2NTF | 2026-09-02 23:46:24 | 45.22320 | 9.05319 | 148° | 69km/h | 12156m | 3.8m/s | -56.8°C | 35.5% | 0hPa | 2.6V | 08:30:00 | 01:12:38 | 00:00:00 | |
| IW2NTF | 2026-09-02 23:46:18 | 45.22470 | 9.05168 | 145° | 71km/h | 12117m | 4.1m/s | -56.5°C | 36.2% | 0hPa | 2.8V | 08:30:00 | 01:12:28 | 00:00:00 | |
| IW2NTF | 2026-09-02 23:46:04 | 45.22625 | 9.05027 | 147° | 75km/h | 12075m | 4.7m/s | -56.3°C | 38.4% | 0hPa | 2.8V | 08:30:00 | 01:12:18 | 00:00:00 | |
| IW2NTF | 2026-09-02 23:45:58 | 45.22783 | 9.04884 | 149° | 73km/h | 12034m | 4.8m/s | -56°C | 42.4% | 0hPa | 2.6V | 08:30:00 | 01:12:08 | 00:00:00 | |
| IW2NTF | 2026-09-02 23:45:44 | 45.22948 | 9.04745 | 148° | 78km/h | 11994m | 4.2m/s | -55.8°C | 49.2% | 0hPa | 2.6V | 08:30:00 | 01:11:58 | 00:00:00 | |
| IW2NTF | 2026-09-02 23:45:38 | 45.23124 | 9.04607 | 149° | 78km/h | 11952m | 4.8m/s | -55.8°C | 53.9% | 0hPa | 2.8V | 08:30:00 | 01:11:48 | 00:00:00 | |
| IW2NTF | 2026-09-02 23:45:27 | 45.23296 | 9.04463 | 152° | 77km/h | 11912m | 3.3m/s | -55.5°C | 53.6% | 0hPa | 2.6V | 08:30:00 | 01:11:38 | 00:00:00 | |
| IW2NTF | 2026-09-02 23:45:17 | 45.23462 | 9.04316 | 147° | 77km/h | 11872m | 4.7m/s | -55.2°C | 52.1% | 0hPa | 2.6V | 08:30:00 | 01:11:28 | 00:00:00 | |
| IW2NTF | 2026-09-02 23:45:07 | 45.23642 | 9.04155 | 147° | 73km/h | 11826m | 4.7m/s | -54.8°C | 50.8% | 0hPa | 2.8V | 08:30:00 | 01:11:17 | 00:00:00 | |
| IW2NTF | 2026-09-02 23:44:57 | 45.23800 | 9.04003 | 146° | 77km/h | 11785m | 4.6m/s | -54.5°C | 50.2% | 0hPa | 2.6V | 08:30:00 | 01:11:07 | 00:00:00 | |
| IW2NTF | 2026-09-02 23:44:47 | 45.23956 | 9.03851 | 142° | 78km/h | 11743m | 3.6m/s | -54.2°C | 49.4% | 0hPa | 2.6V | 08:30:00 | 01:10:57 | 00:00:00 | |
| IW2NTF | 2026-09-02 23:44:32 | 45.24108 | 9.03693 | 142° | 75km/h | 11702m | 4m/s | -53.8°C | 48.3% | 0hPa | 2.8V | 08:30:00 | 01:10:47 | 00:00:00 | |
| IW2NTF | 2026-09-02 23:44:26 | 45.24260 | 9.03526 | 142° | 77km/h | 11660m | 3.4m/s | -53.5°C | 48.2% | 0hPa | 2.8V | 08:30:00 | 01:10:37 | 00:00:00 | |
| IW2NTF | 2026-09-02 23:44:12 | 45.24408 | 9.03368 | 145° | 75km/h | 11621m | 4.4m/s | -53.2°C | 47.3% | 0hPa | 2.7V | 08:30:00 | 01:10:27 | 00:00:00 | |
| IW2NTF | 2026-09-02 23:44:07 | 45.24560 | 9.03213 | 143° | 75km/h | 11581m | 4.8m/s | -52.9°C | 47.3% | 0hPa | 2.8V | 08:30:00 | 01:10:17 | 00:00:00 | |
| IW2NTF | 2026-09-02 23:43:52 | 45.24719 | 9.03038 | 142° | 69km/h | 11539m | 3.5m/s | -52.5°C | 48.2% | 0hPa | 2.8V | 08:30:00 | 01:10:06 | 00:00:00 | |
| IW2NTF | 2026-09-02 23:43:36 | 45.24945 | 9.02783 | 142° | 68km/h | 11479m | 3.4m/s | -52°C | 48.3% | 0hPa | 2.6V | 08:30:00 | 01:09:50 | 00:00:00 | |
| IW2NTF | 2026-09-02 23:43:24 | 45.25094 | 9.02610 | 139° | 66km/h | 11438m | 2.8m/s | -51.8°C | 48.4% | 0hPa | 2.7V | 08:30:00 | 01:09:39 | 00:00:00 | |
| IW2NTF | 2026-09-02 23:43:16 | 45.25224 | 9.02451 | 141° | 69km/h | 11400m | 3.1m/s | -51.4°C | 48.2% | 0hPa | 2.8V | 08:30:00 | 01:09:29 | 00:00:00 | |
| IW2NTF | 2026-09-02 23:43:04 | 45.25358 | 9.02299 | 139° | 69km/h | 11362m | 4.8m/s | -51.1°C | 48% | 0hPa | 2.6V | 08:30:00 | 01:09:19 | 00:00:00 | |
| IW2NTF | 2026-09-02 23:42:56 | 45.25497 | 9.02146 | 144° | 64km/h | 11325m | 3.8m/s | -50.8°C | 47.9% | 0hPa | 2.8V | 08:30:00 | 01:09:09 | 00:00:00 | |
| IW2NTF | 2026-09-02 23:42:45 | 45.25638 | 9.01995 | 142° | 68km/h | 11286m | 3.6m/s | -50.5°C | 47.8% | 0hPa | 2.8V | 08:30:00 | 01:08:59 | 00:00:00 | |
| IW2NTF | 2026-09-02 23:42:34 | 45.25808 | 9.01816 | 139° | 69km/h | 11241m | 3.3m/s | -50.2°C | 47.7% | 0hPa | 2.8V | 08:30:00 | 01:08:47 | 00:00:00 | |
| IW2NTF | 2026-09-02 23:42:24 | 45.25949 | 9.01665 | 140° | 73km/h | 11205m | 4.6m/s | -50°C | 46.5% | 0hPa | 2.7V | 08:30:00 | 01:08:37 | 00:00:00 | |
| IW2NTF | 2026-09-02 23:42:14 | 45.26093 | 9.01499 | 139° | 73km/h | 11168m | 4.2m/s | -49.6°C | 45.9% | 0hPa | 2.8V | 08:30:00 | 01:08:27 | 00:00:00 | |
| IW2NTF | 2026-09-02 23:42:04 | 45.26232 | 9.01322 | 139° | 71km/h | 11131m | 3.7m/s | -49.4°C | 46.7% | 0hPa | 2.8V | 08:30:00 | 01:08:17 | 00:00:00 | |
| IW2NTF | 2026-09-02 23:41:54 | 45.26373 | 9.01148 | 138° | 75km/h | 11094m | 3.2m/s | -49°C | 45.6% | 0hPa | 2.7V | 08:30:00 | 01:08:07 | 00:00:00 | |
| IW2NTF | 2026-09-02 23:41:44 | 45.26522 | 9.00981 | 138° | 75km/h | 11059m | 3.4m/s | -48.7°C | 44.6% | 0hPa | 2.8V | 08:30:00 | 01:07:57 | 00:00:00 | |
| IW2NTF | 2026-09-02 23:41:35 | 45.26664 | 9.00802 | 139° | 77km/h | 11023m | 3.5m/s | -48.4°C | 44.4% | 0hPa | 2.8V | 08:30:00 | 01:07:47 | 00:00:00 | |
| IW2NTF | 2026-09-02 23:41:24 | 45.26804 | 9.00632 | 141° | 71km/h | 10987m | 2.9m/s | -48.1°C | 43.7% | 0hPa | 2.8V | 08:30:00 | 01:07:37 | 00:00:00 | |
| IW2NTF | 2026-09-02 23:41:14 | 45.26988 | 9.00405 | 140° | 71km/h | 10939m | 3.5m/s | -47.7°C | 42.4% | 0hPa | 2.7V | 08:30:00 | 01:07:24 | 00:00:00 | |
| IW2NTF | 2026-09-02 23:41:04 | 45.27131 | 9.00233 | 139° | 75km/h | 10904m | 3.6m/s | -47.3°C | 40.8% | 0hPa | 2.7V | 08:30:00 | 01:07:14 | 00:00:00 | |
| IW2NTF | 2026-09-02 23:40:52 | 45.27272 | 9.00060 | 139° | 78km/h | 10867m | 3.7m/s | -47°C | 40.8% | 0hPa | 2.7V | 08:30:00 | 01:07:04 | 00:00:00 | |
| IW2NTF | 2026-09-02 23:40:42 | 45.27421 | 8.99878 | 139° | 75km/h | 10833m | 3.3m/s | -46.7°C | 40.6% | 0hPa | 2.7V | 08:30:00 | 01:06:54 | 00:00:00 | |
| IW2NTF | 2026-09-02 23:40:33 | 45.27565 | 8.99699 | 140° | 77km/h | 10798m | 4m/s | -46.5°C | 40.5% | 0hPa | 2.7V | 08:30:00 | 01:06:44 | 00:00:00 | |
| IW2NTF | 2026-09-02 23:40:22 | 45.27709 | 8.99526 | 138° | 80km/h | 10764m | 3.1m/s | -46.2°C | 43% | 0hPa | 2.7V | 08:30:00 | 01:06:34 | 00:00:00 | |
| IW2NTF | 2026-09-02 23:40:14 | 45.27855 | 8.99345 | 138° | 77km/h | 10731m | 2.9m/s | -46°C | 44.2% | 0hPa | 2.8V | 08:30:00 | 01:06:24 | 00:00:00 | |
| IW2NTF | 2026-09-02 23:40:00 | 45.28000 | 8.99162 | 139° | 77km/h | 10696m | 3.1m/s | -45.7°C | 45.9% | 0hPa | 2.8V | 08:30:00 | 01:06:14 | 00:00:00 | |
| IW2NTF | 2026-09-02 23:39:50 | 45.28144 | 8.98982 | 135° | 78km/h | 10660m | 3m/s | -45.5°C | 47.2% | 0hPa | 2.7V | 08:30:00 | 01:06:04 | 00:00:00 | |
| IW2NTF | 2026-09-02 23:39:40 | 45.28311 | 8.98775 | 133° | 77km/h | 10621m | 2.8m/s | -45.3°C | 48.2% | 0hPa | 2.7V | 08:30:00 | 01:05:53 | 00:00:00 | |
| IW2NTF | 2026-09-02 23:39:30 | 45.28461 | 8.98586 | 136° | 75km/h | 10586m | 3.8m/s | -45°C | 46.4% | 0hPa | 2.7V | 08:30:00 | 01:05:43 | 00:00:00 | |
| IW2NTF | 2026-09-02 23:39:20 | 45.28608 | 8.98395 | 135° | 84km/h | 10551m | 4m/s | -44.6°C | 45.1% | 0hPa | 2.7V | 08:30:00 | 01:05:33 | 00:00:00 | |
| IW2NTF | 2026-09-02 23:39:10 | 45.28753 | 8.98202 | 136° | 73km/h | 10517m | 4.5m/s | -44.4°C | 44.8% | 0hPa | 2.8V | 08:30:00 | 01:05:23 | 00:00:00 | |
| IW2NTF | 2026-09-02 23:39:00 | 45.28902 | 8.98009 | 131° | 84km/h | 10481m | 3.3m/s | -44°C | 46.1% | 0hPa | 2.8V | 08:30:00 | 01:05:13 | 00:00:00 | |
| IW2NTF | 2026-09-02 23:38:53 | 45.29048 | 8.97804 | 134° | 82km/h | 10441m | 3m/s | -43.9°C | 46.9% | 0hPa | 2.8V | 08:30:00 | 01:05:03 | 00:00:00 | |
| IW2NTF | 2026-09-02 23:38:42 | 45.29184 | 8.97582 | 130° | 86km/h | 10404m | 3.1m/s | -43.8°C | 46% | 0hPa | 2.8V | 08:30:00 | 01:04:53 | 00:00:00 | |
| IW2NTF | 2026-09-02 23:38:32 | 45.29326 | 8.97345 | 128° | 84km/h | 10371m | 3.3m/s | -43.6°C | 45.4% | 0hPa | 2.7V | 08:30:00 | 01:04:43 | 00:00:00 | |
| IW2NTF | 2026-09-02 23:38:22 | 45.29462 | 8.97111 | 129° | 84km/h | 10336m | 3m/s | -43.3°C | 40.5% | 0hPa | 2.7V | 08:30:00 | 01:04:33 | 00:00:00 | |
| IW2NTF | 2026-09-02 23:38:12 | 45.29601 | 8.96884 | 129° | 80km/h | 10303m | 3.7m/s | -43.3°C | 39.3% | 0hPa | 2.8V | 08:30:00 | 01:04:23 | 00:00:00 | |
| IW2NTF | 2026-09-02 23:38:03 | 45.29748 | 8.96646 | 131° | 93km/h | 10270m | 3.6m/s | -43.1°C | 40% | 0hPa | 2.8V | 08:30:00 | 01:04:13 | 00:00:00 | |
| IW2NTF | 2026-09-02 23:37:50 | 45.29893 | 8.96404 | 131° | 89km/h | 10237m | 3.3m/s | -42.8°C | 45.4% | 0hPa | 2.8V | 08:30:00 | 01:04:03 | 00:00:00 | |
| IW2NTF | 2026-09-02 23:37:43 | 45.30039 | 8.96154 | 127° | 88km/h | 10202m | 3.1m/s | -42.7°C | 57.7% | 0hPa | 2.7V | 08:30:00 | 01:03:53 | 00:00:00 | |
| IW2NTF | 2026-09-02 23:37:34 | 45.30182 | 8.95903 | 129° | 89km/h | 10169m | 3.6m/s | -42.4°C | 60.9% | 0hPa | 2.7V | 08:30:00 | 01:03:43 | 00:00:00 | |
| IW2NTF | 2026-09-02 23:37:23 | 45.30322 | 8.95644 | 128° | 91km/h | 10136m | 2.5m/s | -42.2°C | 66.2% | 0hPa | 2.8V | 08:30:00 | 01:03:33 | 00:00:00 | |
| IW2NTF | 2026-09-02 23:37:13 | 45.30465 | 8.95393 | 130° | 95km/h | 10101m | 3.6m/s | -41.9°C | 63.3% | 0hPa | 2.8V | 08:30:00 | 01:03:23 | 00:00:00 | |
| IW2NTF | 2026-09-02 23:37:00 | 45.30610 | 8.95136 | 129° | 91km/h | 10068m | 3.7m/s | -41.6°C | 57% | 0hPa | 2.7V | 08:30:00 | 01:03:13 | 00:00:00 | |
| IW2NTF | 2026-09-02 23:36:54 | 45.30757 | 8.94884 | 127° | 89km/h | 10033m | 3.2m/s | -41.3°C | 54.9% | 0hPa | 2.8V | 08:30:00 | 01:03:03 | 00:00:00 | |
| IW2NTF | 2026-09-02 23:36:43 | 45.30902 | 8.94628 | 129° | 93km/h | 9997m | 3.3m/s | -40.9°C | 50.5% | 0hPa | 2.8V | 08:30:00 | 01:02:53 | 00:00:00 | |
| IW2NTF | 2026-09-02 23:36:33 | 45.31046 | 8.94379 | 131° | 91km/h | 9963m | 3.2m/s | -40.6°C | 44.7% | 0hPa | 2.7V | 08:30:00 | 01:02:43 | 00:00:00 | |
| IW2NTF | 2026-09-02 23:36:20 | 45.31192 | 8.94123 | 129° | 89km/h | 9929m | 3.9m/s | -40.3°C | 43.1% | 0hPa | 2.8V | 08:30:00 | 01:02:33 | 00:00:00 | |
| IW2NTF | 2026-09-02 23:36:10 | 45.31339 | 8.93873 | 130° | 93km/h | 9893m | 3.4m/s | -40°C | 41.7% | 0hPa | 2.8V | 08:30:00 | 01:02:23 | 00:00:00 | |
| IW2NTF | 2026-09-02 23:36:03 | 45.31480 | 8.93624 | 130° | 89km/h | 9859m | 3.4m/s | -39.6°C | 40.5% | 0hPa | 2.7V | 08:30:00 | 01:02:13 | 00:00:00 | |
| IW2NTF | 2026-09-02 23:35:53 | 45.31629 | 8.93373 | 130° | 84km/h | 9823m | 3.2m/s | -39.3°C | 39.6% | 0hPa | 2.8V | 08:30:00 | 01:02:03 | 00:00:00 | |
| IW2NTF | 2026-09-02 23:35:41 | 45.31776 | 8.93123 | 129° | 95km/h | 9785m | 4.1m/s | -39°C | 39.9% | 0hPa | 2.8V | 08:30:00 | 01:01:53 | 00:00:00 | |
| IW2NTF | 2026-09-02 23:35:31 | 45.31926 | 8.92877 | 130° | 95km/h | 9750m | 3.6m/s | -38.6°C | 39.9% | 0hPa | 2.7V | 08:30:00 | 01:01:43 | 00:00:00 | |
| IW2NTF | 2026-09-02 23:35:21 | 45.32076 | 8.92618 | 130° | 91km/h | 9715m | 3.6m/s | -38.3°C | 38.7% | 0hPa | 2.8V | 08:30:00 | 01:01:33 | 00:00:00 | |
| IW2NTF | 2026-09-02 23:35:12 | 45.32233 | 8.92368 | 129° | 91km/h | 9678m | 4.4m/s | -37.9°C | 38% | 0hPa | 2.7V | 08:30:00 | 01:01:23 | 00:00:00 | |
| IW2NTF | 2026-09-02 23:34:59 | 45.32382 | 8.92117 | 131° | 88km/h | 9639m | 4.8m/s | -37.6°C | 38.1% | 0hPa | 2.9V | 08:30:00 | 01:01:13 | 00:00:00 | |
| IW2NTF | 2026-09-02 23:34:49 | 45.32534 | 8.91867 | 131° | 95km/h | 9602m | 3m/s | -37.2°C | 37.7% | 0hPa | 2.7V | 08:30:00 | 01:01:03 | 00:00:00 | |
| IW2NTF | 2026-09-02 23:34:39 | 45.32691 | 8.91611 | 129° | 95km/h | 9564m | 3.7m/s | -36.9°C | 36.6% | 0hPa | 2.8V | 08:30:00 | 01:00:53 | 00:00:00 | |
| IW2NTF | 2026-09-02 23:34:28 | 45.32839 | 8.91353 | 134° | 93km/h | 9528m | 3.4m/s | -36.5°C | 35% | 0hPa | 2.9V | 08:30:00 | 01:00:43 | 00:00:00 | |
| IW2NTF | 2026-09-02 23:34:18 | 45.32996 | 8.91104 | 129° | 91km/h | 9490m | 4.1m/s | -36.1°C | 33.7% | 0hPa | 2.8V | 08:30:00 | 01:00:33 | 00:00:00 | |
| IW2NTF | 2026-09-02 23:34:13 | 45.33153 | 8.90855 | 130° | 95km/h | 9455m | 3m/s | -35.8°C | 33.5% | 0hPa | 2.9V | 08:30:00 | 01:00:23 | 00:00:00 | |
| IW2NTF | 2026-09-02 23:34:03 | 45.33311 | 8.90603 | 130° | 91km/h | 9416m | 4.5m/s | -35.5°C | 32.7% | 0hPa | 2.9V | 08:30:00 | 01:00:13 | 00:00:00 | |
| IW2NTF | 2026-09-02 23:33:51 | 45.33464 | 8.90351 | 132° | 93km/h | 9378m | 4.8m/s | -35.1°C | 36% | 0hPa | 2.9V | 08:30:00 | 01:00:03 | 00:00:00 | |
| IW2NTF | 2026-09-02 23:33:43 | 45.33618 | 8.90098 | 132° | 91km/h | 9341m | 3.5m/s | -34.8°C | 35.7% | 0hPa | 2.9V | 08:30:00 | 00:59:53 | 00:00:00 | |
| IW2NTF | 2026-09-02 23:33:33 | 45.33776 | 8.89846 | 129° | 95km/h | 9305m | 3.3m/s | -34.5°C | 34.7% | 0hPa | 2.7V | 08:30:00 | 00:59:43 | 00:00:00 | |
| IW2NTF | 2026-09-02 23:33:23 | 45.33927 | 8.89598 | 130° | 93km/h | 9268m | 3.8m/s | -34.1°C | 33.6% | 0hPa | 2.9V | 08:30:00 | 00:59:33 | 00:00:00 | |
| IW2NTF | 2026-09-02 23:33:13 | 45.34086 | 8.89343 | 132° | 93km/h | 9232m | 4.3m/s | -33.8°C | 32.9% | 0hPa | 2.7V | 08:30:00 | 00:59:23 | 00:00:00 | |
| IW2NTF | 2026-09-02 23:33:03 | 45.34235 | 8.89090 | 130° | 95km/h | 9194m | 4.2m/s | -33.4°C | 33.2% | 0hPa | 2.9V | 08:30:00 | 00:59:13 | 00:00:00 | |
| IW2NTF | 2026-09-02 23:32:52 | 45.34391 | 8.88837 | 132° | 91km/h | 9158m | 4.5m/s | -33.1°C | 33.6% | 0hPa | 2.9V | 08:30:00 | 00:59:03 | 00:00:00 | |
| IW2NTF | 2026-09-02 23:32:42 | 45.34546 | 8.88585 | 131° | 89km/h | 9122m | 4.1m/s | -32.8°C | 34.1% | 0hPa | 2.9V | 08:30:00 | 00:58:53 | 00:00:00 | |
| IW2NTF | 2026-09-02 23:32:30 | 45.34703 | 8.88329 | 130° | 91km/h | 9085m | 3.2m/s | -32.5°C | 34.7% | 0hPa | 2.9V | 08:30:00 | 00:58:43 | 00:00:00 | |
| IW2NTF | 2026-09-02 23:32:23 | 45.34866 | 8.88076 | 133° | 93km/h | 9045m | 2.6m/s | -32.2°C | 34.9% | 0hPa | 2.7V | 08:30:00 | 00:58:33 | 00:00:00 | |
| IW2NTF | 2026-09-02 23:32:12 | 45.35044 | 8.87809 | 131° | 95km/h | 8993m | 6.9m/s | -31.8°C | 32.4% | 0hPa | 2.9V | 08:30:00 | 00:58:22 | 00:00:00 | |
| IW2NTF | 2026-09-02 23:32:02 | 45.35217 | 8.87575 | 136° | 95km/h | 8947m | 5.5m/s | -31.4°C | 29.4% | 0hPa | 2.9V | 08:30:00 | 00:58:12 | 00:00:00 | |
| IW2NTF | 2026-09-02 23:31:50 | 45.35421 | 8.87278 | 138° | 93km/h | 8893m | 3m/s | -31°C | 32.6% | 0hPa | 2.9V | 08:30:00 | 00:58:00 | 00:00:00 | |
| IW2NTF | 2026-09-02 23:31:40 | 45.35593 | 8.87038 | 132° | 99km/h | 8850m | 3.5m/s | -30.6°C | 31.7% | 0hPa | 2.9V | 08:30:00 | 00:57:50 | 00:00:00 | |
| IW2NTF | 2026-09-02 23:31:30 | 45.35770 | 8.86790 | 132° | 97km/h | 8805m | 2.2m/s | -30.4°C | 39.1% | 0hPa | 2.7V | 08:30:00 | 00:57:40 | 00:00:00 | |
| IW2NTF | 2026-09-02 23:31:20 | 45.35944 | 8.86541 | 133° | 99km/h | 8753m | 4.4m/s | -30°C | 39% | 0hPa | 2.9V | 08:30:00 | 00:57:30 | 00:00:00 | |
| IW2NTF | 2026-09-02 23:31:10 | 45.36137 | 8.86264 | 137° | 93km/h | 8705m | 5.1m/s | -29.6°C | 41.4% | 0hPa | 2.9V | 08:30:00 | 00:57:19 | 00:00:00 | |
| IW2NTF | 2026-09-02 23:30:59 | 45.36308 | 8.86020 | 133° | 97km/h | 8660m | 4.7m/s | -29.4°C | 43% | 0hPa | 2.7V | 08:30:00 | 00:57:09 | 00:00:00 | |
| IW2NTF | 2026-09-02 23:30:48 | 45.36504 | 8.85756 | 135° | 97km/h | 8606m | 4.7m/s | -29°C | 26.3% | 0hPa | 2.9V | 08:30:00 | 00:56:58 | 00:00:00 | |
| IW2NTF | 2026-09-02 23:30:38 | 45.36674 | 8.85514 | 136° | 97km/h | 8566m | 3.5m/s | -28.6°C | 20.5% | 0hPa | 2.9V | 08:30:00 | 00:56:48 | 00:00:00 | |
| IW2NTF | 2026-09-02 23:30:22 | 45.36882 | 8.85243 | 136° | 97km/h | 8517m | 3.8m/s | -28.2°C | 20% | 0hPa | 2.7V | 08:30:00 | 00:56:36 | 00:00:00 | |
| IW2NTF | 2026-09-02 23:30:12 | 45.37058 | 8.85016 | 139° | 93km/h | 8482m | 2.9m/s | -28.1°C | 26.9% | 0hPa | 2.9V | 08:30:00 | 00:56:26 | 00:00:00 | |
| IW2NTF | 2026-09-02 23:30:02 | 45.37236 | 8.84799 | 137° | 93km/h | 8444m | 3.3m/s | -27.7°C | 27.4% | 0hPa | 2.9V | 08:30:00 | 00:56:16 | 00:00:00 | |
| IW2NTF | 2026-09-02 23:29:52 | 45.37400 | 8.84583 | 138° | 93km/h | 8409m | 4.3m/s | -27.4°C | 28.2% | 0hPa | 2.9V | 08:30:00 | 00:56:06 | 00:00:00 | |
| IW2NTF | 2026-09-02 23:29:46 | 45.37572 | 8.84364 | 139° | 91km/h | 8372m | 4.6m/s | -27.1°C | 28.9% | 0hPa | 2.7V | 08:30:00 | 00:55:56 | 00:00:00 | |
| IW2NTF | 2026-09-02 23:29:32 | 45.37745 | 8.84135 | 138° | 89km/h | 8331m | 3.6m/s | -26.7°C | 28.7% | 0hPa | 2.7V | 08:30:00 | 00:55:46 | 00:00:00 | |
| IW2NTF | 2026-09-02 23:29:22 | 45.37922 | 8.83909 | 134° | 97km/h | 8294m | 4.9m/s | -26.3°C | 27.7% | 0hPa | 2.9V | 08:30:00 | 00:55:36 | 00:00:00 | |
| IW2NTF | 2026-09-02 23:29:12 | 45.38092 | 8.83678 | 135° | 93km/h | 8254m | 3.7m/s | -26.1°C | 27.7% | 0hPa | 2.9V | 08:30:00 | 00:55:26 | 00:00:00 | |
| IW2NTF | 2026-09-02 23:29:06 | 45.38260 | 8.83437 | 136° | 95km/h | 8219m | 2.8m/s | -25.8°C | 27.7% | 0hPa | 2.7V | 08:30:00 | 00:55:16 | 00:00:00 | |
| IW2NTF | 2026-09-02 23:28:52 | 45.38429 | 8.83199 | 135° | 91km/h | 8182m | 2.3m/s | -25.4°C | 27.3% | 0hPa | 2.7V | 08:30:00 | 00:55:06 | 00:00:00 | |
| IW2NTF | 2026-09-02 23:28:46 | 45.38606 | 8.82955 | 133° | 91km/h | 8143m | 4.2m/s | -25.1°C | 24.4% | 0hPa | 2.9V | 08:30:00 | 00:54:56 | 00:00:00 | |
| IW2NTF | 2026-09-02 23:28:32 | 45.38773 | 8.82720 | 135° | 102km/h | 8102m | 4.4m/s | -25.2°C | 32.5% | 0hPa | 2.9V | 08:30:00 | 00:54:46 | 00:00:00 | |
| IW2NTF | 2026-09-02 23:28:26 | 45.38950 | 8.82463 | 134° | 97km/h | 8054m | 6.3m/s | -24.9°C | 35.2% | 0hPa | 2.9V | 08:30:00 | 00:54:36 | 00:00:00 | |
| IW2NTF | 2026-09-02 23:28:17 | 45.39124 | 8.82213 | 138° | 102km/h | 8009m | 4.4m/s | -24.5°C | 36.2% | 0hPa | 2.7V | 08:30:00 | 00:54:26 | 00:00:00 | |
| IW2NTF | 2026-09-02 23:28:06 | 45.39306 | 8.81982 | 139° | 95km/h | 7961m | 3.7m/s | -24.3°C | 41.9% | 0hPa | 2.7V | 08:30:00 | 00:54:16 | 00:00:00 | |
| IW2NTF | 2026-09-02 23:27:57 | 45.39484 | 8.81744 | 140° | 100km/h | 7910m | 5.9m/s | -23.9°C | 43.5% | 0hPa | 2.9V | 08:30:00 | 00:54:06 | 00:00:00 | |
| IW2NTF | 2026-09-02 23:27:46 | 45.39667 | 8.81518 | 134° | 97km/h | 7857m | 5.5m/s | -23.6°C | 49.7% | 0hPa | 2.9V | 08:30:00 | 00:53:56 | 00:00:00 | |
| IW2NTF | 2026-09-02 23:27:35 | 45.39844 | 8.81302 | 138° | 93km/h | 7808m | 4.6m/s | -23.3°C | 58.3% | 0hPa | 2.9V | 08:30:00 | 00:53:46 | 00:00:00 | |
| IW2NTF | 2026-09-02 23:27:23 | 45.40020 | 8.81065 | 138° | 95km/h | 7759m | 4.8m/s | -23.1°C | 67% | 0hPa | 2.9V | 08:30:00 | 00:53:36 | 00:00:00 | |
| IW2NTF | 2026-09-02 23:27:13 | 45.40194 | 8.80843 | 136° | 89km/h | 7722m | 2.9m/s | -22.9°C | 73.1% | 0hPa | 2.9V | 08:30:00 | 00:53:26 | 00:00:00 | |
| IW2NTF | 2026-09-02 23:27:02 | 45.40370 | 8.80582 | 135° | 86km/h | 7681m | 4.2m/s | -22.6°C | 70.8% | 0hPa | 2.9V | 08:30:00 | 00:53:15 | 00:00:00 | |
| IW2NTF | 2026-09-02 23:26:55 | 45.40534 | 8.80351 | 131° | 95km/h | 7643m | 3.8m/s | -22.2°C | 67.3% | 0hPa | 2.8V | 08:30:00 | 00:53:05 | 00:00:00 | |
| IW2NTF | 2026-09-02 23:26:45 | 45.40696 | 8.80120 | 132° | 95km/h | 7604m | 3.2m/s | -21.8°C | 66.9% | 0hPa | 2.7V | 08:30:00 | 00:52:55 | 00:00:00 | |
| IW2NTF | 2026-09-02 23:26:35 | 45.40852 | 8.79881 | 134° | 86km/h | 7566m | 3.5m/s | -21.5°C | 65.9% | 0hPa | 2.9V | 08:30:00 | 00:52:45 | 00:00:00 | |
| IW2NTF | 2026-09-02 23:26:25 | 45.41010 | 8.79643 | 133° | 89km/h | 7530m | 3.6m/s | -21.1°C | 66.8% | 0hPa | 2.9V | 08:30:00 | 00:52:35 | 00:00:00 | |
| IW2NTF | 2026-09-02 23:26:11 | 45.41174 | 8.79402 | 134° | 97km/h | 7494m | 4.1m/s | -20.8°C | 64.8% | 0hPa | 2.9V | 08:30:00 | 00:52:25 | 00:00:00 | |
| IW2NTF | 2026-09-02 23:26:01 | 45.41336 | 8.79164 | 133° | 93km/h | 7458m | 4m/s | -20.5°C | 62.8% | 0hPa | 2.9V | 08:30:00 | 00:52:15 | 00:00:00 | |
| IW2NTF | 2026-09-02 23:25:55 | 45.41500 | 8.78920 | 137° | 91km/h | 7423m | 3.4m/s | -20.1°C | 61.4% | 0hPa | 2.8V | 08:30:00 | 00:52:05 | 00:00:00 | |
| IW2NTF | 2026-09-02 23:25:45 | 45.41668 | 8.78687 | 133° | 95km/h | 7389m | 3.8m/s | -19.8°C | 60.6% | 0hPa | 2.9V | 08:30:00 | 00:51:55 | 00:00:00 | |
| IW2NTF | 2026-09-02 23:25:35 | 45.41838 | 8.78448 | 134° | 95km/h | 7355m | 4.2m/s | -19.5°C | 59.6% | 0hPa | 2.9V | 08:30:00 | 00:51:45 | 00:00:00 | |
| IW2NTF | 2026-09-02 23:25:23 | 45.42005 | 8.78217 | 137° | 95km/h | 7318m | 2.7m/s | -19.1°C | 58.2% | 0hPa | 2.8V | 08:30:00 | 00:51:35 | 00:00:00 | |
| IW2NTF | 2026-09-02 23:25:15 | 45.42177 | 8.77982 | 137° | 95km/h | 7282m | 4.1m/s | -18.8°C | 56.9% | 0hPa | 2.9V | 08:30:00 | 00:51:25 | 00:00:00 | |
| IW2NTF | 2026-09-02 23:25:05 | 45.42342 | 8.77750 | 135° | 93km/h | 7244m | 4.5m/s | -18.4°C | 55.2% | 0hPa | 2.9V | 08:30:00 | 00:51:15 | 00:00:00 | |
| IW2NTF | 2026-09-02 23:24:55 | 45.42510 | 8.77520 | 136° | 95km/h | 7206m | 3.9m/s | -18.1°C | 53.8% | 0hPa | 2.9V | 08:30:00 | 00:51:05 | 00:00:00 | |
| IW2NTF | 2026-09-02 23:24:45 | 45.42682 | 8.77300 | 137° | 91km/h | 7170m | 3.5m/s | -17.7°C | 52.8% | 0hPa | 2.9V | 08:30:00 | 00:50:55 | 00:00:00 | |
| IW2NTF | 2026-09-02 23:24:35 | 45.42850 | 8.77071 | 135° | 97km/h | 7134m | 3.3m/s | -17.4°C | 51.3% | 0hPa | 2.9V | 08:30:00 | 00:50:45 | 00:00:00 | |
| IW2NTF | 2026-09-02 23:24:25 | 45.43031 | 8.76850 | 137° | 95km/h | 7096m | 3.6m/s | -17°C | 50.3% | 0hPa | 2.9V | 08:30:00 | 00:50:35 | 00:00:00 | |
| IW2NTF | 2026-09-02 23:24:15 | 45.43206 | 8.76623 | 140° | 89km/h | 7060m | 3.8m/s | -16.6°C | 48.8% | 0hPa | 2.8V | 08:30:00 | 00:50:25 | 00:00:00 | |
| IW2NTF | 2026-09-02 23:24:05 | 45.43389 | 8.76395 | 133° | 97km/h | 7009m | 3.2m/s | -16.4°C | 51.6% | 0hPa | 2.9V | 08:30:00 | 00:50:15 | 00:00:00 | |
| IW2NTF | 2026-09-02 23:23:55 | 45.43569 | 8.76166 | 143° | 99km/h | 6954m | 6.8m/s | -16.2°C | 54.9% | 0hPa | 2.9V | 08:30:00 | 00:50:05 | 00:00:00 | |
| IW2NTF | 2026-09-02 23:23:45 | 45.43742 | 8.75954 | 143° | 88km/h | 6895m | 5.6m/s | -16°C | 59% | 0hPa | 2.9V | 08:30:00 | 00:49:55 | 00:00:00 | |
| IW2NTF | 2026-09-02 23:23:35 | 45.43918 | 8.75764 | 146° | 88km/h | 6850m | 4.6m/s | -16.2°C | 73% | 0hPa | 2.9V | 08:30:00 | 00:49:45 | 00:00:00 | |
| IW2NTF | 2026-09-02 23:23:24 | 45.44081 | 8.75582 | 141° | 82km/h | 6802m | 4.5m/s | -15.9°C | 75.6% | 0hPa | 2.9V | 08:30:00 | 00:49:35 | 00:00:00 | |
| IW2NTF | 2026-09-02 23:23:15 | 45.44229 | 8.75369 | 134° | 80km/h | 6760m | 4.8m/s | -15.6°C | 75.8% | 0hPa | 2.9V | 08:30:00 | 00:49:25 | 00:00:00 | |
| IW2NTF | 2026-09-02 23:23:03 | 45.44368 | 8.75176 | 135° | 80km/h | 6695m | 5.7m/s | -15.1°C | 71.6% | 0hPa | 2.9V | 08:30:00 | 00:49:15 | 00:00:00 | |
| IW2NTF | 2026-09-02 23:22:55 | 45.44512 | 8.74984 | 136° | 77km/h | 6657m | 4.1m/s | -14.7°C | 71.7% | 0hPa | 2.9V | 08:30:00 | 00:49:05 | 00:00:00 | |
| IW2NTF | 2026-09-02 23:22:45 | 45.44653 | 8.74795 | 140° | 75km/h | 6624m | 3.4m/s | -14.4°C | 70.2% | 0hPa | 2.8V | 08:30:00 | 00:48:55 | 00:00:00 | |
| IW2NTF | 2026-09-02 23:22:35 | 45.44794 | 8.74609 | 137° | 78km/h | 6590m | 2.7m/s | -14.1°C | 69.2% | 0hPa | 2.9V | 08:30:00 | 00:48:45 | 00:00:00 | |
| IW2NTF | 2026-09-02 23:22:25 | 45.44937 | 8.74427 | 138° | 80km/h | 6560m | 3.3m/s | -13.8°C | 67.8% | 0hPa | 2.9V | 08:30:00 | 00:48:35 | 00:00:00 | |
| IW2NTF | 2026-09-02 23:22:15 | 45.45081 | 8.74241 | 133° | 73km/h | 6515m | 6.7m/s | -13.5°C | 67% | 0hPa | 2.9V | 08:30:00 | 00:48:25 | 00:00:00 | |
| IW2NTF | 2026-09-02 23:22:05 | 45.45232 | 8.74051 | 135° | 84km/h | 6462m | 6.4m/s | -13°C | 66.5% | 0hPa | 2.9V | 08:30:00 | 00:48:15 | 00:00:00 | |
| IW2NTF | 2026-09-02 23:21:55 | 45.45371 | 8.73868 | 141° | 73km/h | 6412m | 6.2m/s | -12.7°C | 67.7% | 0hPa | 2.9V | 08:30:00 | 00:48:05 | 00:00:00 | |
| IW2NTF | 2026-09-02 23:21:45 | 45.45516 | 8.73698 | 139° | 66km/h | 6362m | 5.3m/s | -12.2°C | 64.1% | 0hPa | 2.9V | 08:30:00 | 00:47:55 | 00:00:00 | |
| IW2NTF | 2026-09-02 23:21:35 | 45.45665 | 8.73525 | 142° | 75km/h | 6309m | 5.2m/s | -11.8°C | 61.6% | 0hPa | 2.9V | 08:30:00 | 00:47:45 | 00:00:00 | |
| IW2NTF | 2026-09-02 23:21:25 | 45.45822 | 8.73352 | 142° | 75km/h | 6262m | 5.2m/s | -11.7°C | 67.2% | 0hPa | 2.8V | 08:30:00 | 00:47:35 | 00:00:00 | |
| IW2NTF | 2026-09-02 23:21:15 | 45.45971 | 8.73181 | 141° | 78km/h | 6223m | 3.7m/s | -11.8°C | 75.2% | 0hPa | 2.8V | 08:30:00 | 00:47:25 | 00:00:00 | |
| IW2NTF | 2026-09-02 23:21:05 | 45.46118 | 8.73022 | 137° | 71km/h | 6190m | 3.6m/s | -11.8°C | 83.1% | 0hPa | 2.8V | 08:30:00 | 00:47:15 | 00:00:00 | |
| IW2NTF | 2026-09-02 23:20:55 | 45.46263 | 8.72879 | 150° | 71km/h | 6158m | 4.5m/s | -11.5°C | 83.8% | 0hPa | 2.9V | 08:30:00 | 00:47:05 | 00:00:00 | |
| IW2NTF | 2026-09-02 23:20:45 | 45.46410 | 8.72741 | 139° | 73km/h | 6097m | 6.4m/s | -11°C | 71.8% | 0hPa | 2.9V | 08:30:00 | 00:46:55 | 00:00:00 | |
| IW2NTF | 2026-09-02 23:20:35 | 45.46540 | 8.72583 | 137° | 62km/h | 6047m | 4m/s | -10.6°C | 67.9% | 0hPa | 2.9V | 08:30:00 | 00:46:45 | 00:00:00 | |
| IW2NTF | 2026-09-02 23:20:25 | 45.46680 | 8.72434 | 142° | 64km/h | 5990m | 3.8m/s | -10.1°C | 66.5% | 0hPa | 2.9V | 08:30:00 | 00:46:34 | 00:00:00 | |
| IW2NTF | 2026-09-02 23:20:15 | 45.46799 | 8.72306 | 143° | 66km/h | 5952m | 3.5m/s | -9.8°C | 72.2% | 0hPa | 2.9V | 08:30:00 | 00:46:25 | 00:00:00 | |
| IW2NTF | 2026-09-02 23:20:05 | 45.46922 | 8.72161 | 136° | 62km/h | 5906m | 3.4m/s | -9.5°C | 73.8% | 0hPa | 2.9V | 08:30:00 | 00:46:15 | 00:00:00 | |
| IW2NTF | 2026-09-02 23:19:55 | 45.47045 | 8.72015 | 136° | 68km/h | 5865m | 3.9m/s | -9.2°C | 73.9% | 0hPa | 2.9V | 08:30:00 | 00:46:05 | 00:00:00 | |
| IW2NTF | 2026-09-02 23:19:45 | 45.47176 | 8.71861 | 136° | 62km/h | 5819m | 6.2m/s | -9.1°C | 76% | 0hPa | 2.9V | 08:30:00 | 00:45:55 | 00:00:00 | |
| IW2NTF | 2026-09-02 23:19:35 | 45.47294 | 8.71700 | 140° | 60km/h | 5767m | 4.6m/s | -8.8°C | 74.9% | 0hPa | 2.8V | 08:30:00 | 00:45:45 | 00:00:00 | |
| IW2NTF | 2026-09-02 23:19:25 | 45.47404 | 8.71536 | 125° | 60km/h | 5722m | 3.6m/s | -8.6°C | 71.1% | 0hPa | 2.9V | 08:30:00 | 00:45:35 | 00:00:00 | |
| IW2NTF | 2026-09-02 23:19:15 | 45.47516 | 8.71370 | 138° | 53km/h | 5670m | 6m/s | -8.3°C | 66.8% | 0hPa | 2.9V | 08:30:00 | 00:45:25 | 00:00:00 | |
| IW2NTF | 2026-09-02 23:19:05 | 45.47637 | 8.71243 | 149° | 55km/h | 5614m | 5.9m/s | -8°C | 61.9% | 0hPa | 2.9V | 08:30:00 | 00:45:15 | 00:00:00 | |
| IW2NTF | 2026-09-02 23:18:56 | 45.47756 | 8.71106 | 134° | 57km/h | 5563m | 5m/s | -7.9°C | 67.3% | 0hPa | 2.8V | 08:30:00 | 00:45:05 | 00:00:00 | |
| IW2NTF | 2026-09-02 23:18:45 | 45.47853 | 8.70956 | 134° | 53km/h | 5509m | 5.7m/s | -7.6°C | 65% | 0hPa | 2.9V | 08:30:00 | 00:44:55 | 00:00:00 | |
| IW2NTF | 2026-09-02 23:18:35 | 45.47952 | 8.70840 | 136° | 57km/h | 5451m | 3.6m/s | -7.2°C | 65.5% | 0hPa | 2.9V | 08:30:00 | 00:44:45 | 00:00:00 | |
| IW2NTF | 2026-09-02 23:18:25 | 45.48053 | 8.70715 | 143° | 51km/h | 5400m | 5m/s | -6.8°C | 68.3% | 0hPa | 2.8V | 08:30:00 | 00:44:35 | 00:00:00 | |
| IW2NTF | 2026-09-02 23:18:15 | 45.48151 | 8.70601 | 129° | 55km/h | 5359m | 4m/s | -6.4°C | 67.9% | 0hPa | 2.9V | 08:30:00 | 00:44:25 | 00:00:00 | |
| IW2NTF | 2026-09-02 23:18:05 | 45.48249 | 8.70465 | 145° | 42km/h | 5306m | 5.6m/s | -6°C | 68.6% | 0hPa | 2.9V | 08:30:00 | 00:44:15 | 00:00:00 | |
| IW2NTF | 2026-09-02 23:17:55 | 45.48337 | 8.70366 | 137° | 53km/h | 5246m | 6.3m/s | -5.6°C | 69.9% | 0hPa | 2.9V | 08:30:00 | 00:44:05 | 00:00:00 | |
| IW2NTF | 2026-09-02 23:17:45 | 45.48439 | 8.70266 | 148° | 35km/h | 5199m | 4.4m/s | -5.3°C | 71.8% | 0hPa | 2.9V | 08:30:00 | 00:43:55 | 00:00:00 | |
| IW2NTF | 2026-09-02 23:17:35 | 45.48522 | 8.70158 | 136° | 57km/h | 5143m | 7.1m/s | -5.1°C | 76.8% | 0hPa | 2.9V | 08:30:00 | 00:43:45 | 00:00:00 | |
| IW2NTF | 2026-09-02 23:17:26 | 45.48606 | 8.70044 | 135° | 51km/h | 5089m | 3.7m/s | -4.9°C | 74.8% | 0hPa | 2.9V | 08:30:00 | 00:43:35 | 00:00:00 | |
| IW2NTF | 2026-09-02 23:17:15 | 45.48704 | 8.69908 | 126° | 57km/h | 5048m | 4.2m/s | -4.6°C | 73.5% | 0hPa | 2.9V | 08:30:00 | 00:43:25 | 00:00:00 | |
| IW2NTF | 2026-09-02 23:17:05 | 45.48792 | 8.69762 | 131° | 53km/h | 4993m | 4.4m/s | -4.5°C | 75.6% | 0hPa | 2.9V | 08:30:00 | 00:43:15 | 00:00:00 | |
| IW2NTF | 2026-09-02 23:16:59 | 45.48845 | 8.69687 | 131° | 46km/h | 4971m | 3.6m/s | -4.4°C | 72.1% | 0hPa | 2.9V | 08:30:00 | 00:43:09 | 00:00:00 | |
| IW2NTF | 2026-09-02 23:16:53 | 45.48895 | 8.69625 | 139° | 49km/h | 4946m | 3.4m/s | -4.2°C | 69% | 0hPa | 2.9V | 08:30:00 | 00:43:03 | 00:00:00 | |
| IW2NTF | 2026-09-02 23:16:47 | 45.48950 | 8.69566 | 147° | 46km/h | 4923m | 3m/s | -4°C | 64.1% | 0hPa | 2.9V | 08:30:00 | 00:42:57 | 00:00:00 | |
| IW2NTF | 2026-09-02 23:16:41 | 45.49022 | 8.69498 | 149° | 64km/h | 4902m | 3m/s | -3.8°C | 64.3% | 0hPa | 2.9V | 08:30:00 | 00:42:51 | 00:00:00 | |
| IW2NTF | 2026-09-02 23:16:35 | 45.49095 | 8.69455 | 153° | 42km/h | 4877m | 3.8m/s | -3.5°C | 61.5% | 0hPa | 2.9V | 08:30:00 | 00:42:45 | 00:00:00 | |
| IW2NTF | 2026-09-02 23:16:29 | 45.49152 | 8.69392 | 142° | 57km/h | 4843m | 5m/s | -3.2°C | 61% | 0hPa | 2.9V | 08:30:00 | 00:42:39 | 00:00:00 | |
| IW2NTF | 2026-09-02 23:16:23 | 45.49218 | 8.69331 | 146° | 46km/h | 4813m | 5.5m/s | -2.9°C | 58.5% | 0hPa | 2.9V | 08:30:00 | 00:42:33 | 00:00:00 | |
| IW2NTF | 2026-09-02 23:16:17 | 45.49277 | 8.69267 | 143° | 51km/h | 4790m | 4.3m/s | -2.7°C | 56.6% | 0hPa | 2.9V | 08:30:00 | 00:42:27 | 00:00:00 | |
| IW2NTF | 2026-09-02 23:16:11 | 45.49343 | 8.69210 | 150° | 47km/h | 4770m | 3.3m/s | -2.6°C | 49.5% | 0hPa | 2.9V | 08:30:00 | 00:42:21 | 00:00:00 | |
| IW2NTF | 2026-09-02 23:16:05 | 45.49409 | 8.69150 | 147° | 51km/h | 4748m | 2.9m/s | -2.5°C | 43% | 0hPa | 2.9V | 08:30:00 | 00:42:15 | 00:00:00 | |
| IW2NTF | 2026-09-02 23:15:59 | 45.49474 | 8.69088 | 143° | 49km/h | 4728m | 3.2m/s | -2.4°C | 41.5% | 0hPa | 2.9V | 08:30:00 | 00:42:09 | 00:00:00 | |
| IW2NTF | 2026-09-02 23:15:53 | 45.49535 | 8.69020 | 146° | 49km/h | 4708m | 2.9m/s | -2.7°C | 47.2% | 0hPa | 2.9V | 08:30:00 | 00:42:03 | 00:00:00 | |
| IW2NTF | 2026-09-02 23:15:45 | 45.49598 | 8.68956 | 143° | 53km/h | 4690m | 3.5m/s | -2.6°C | 44.1% | 0hPa | 2.9V | 08:30:00 | 00:41:57 | 00:00:00 | |
| IW2NTF | 2026-09-02 23:15:39 | 45.49657 | 8.68897 | 140° | 44km/h | 4669m | 2.2m/s | -2.6°C | 45% | 0hPa | 2.9V | 08:30:00 | 00:41:51 | 00:00:00 | |
| IW2NTF | 2026-09-02 23:15:33 | 45.49740 | 8.68829 | 154° | 60km/h | 4642m | 4.3m/s | -2.5°C | 40.7% | 0hPa | 2.9V | 08:30:00 | 00:41:43 | 00:00:00 | |
| IW2NTF | 2026-09-02 23:15:22 | 45.49813 | 8.68777 | 151° | 46km/h | 4618m | 5.5m/s | -2.4°C | 44.6% | 0hPa | 2.9V | 08:30:00 | 00:41:37 | 00:00:00 | |
| IW2NTF | 2026-09-02 23:15:22 | 45.49870 | 8.68733 | 150° | 40km/h | 4584m | 5m/s | -2.2°C | 41.1% | 0hPa | 2.9V | 08:30:00 | 00:41:31 | 00:00:00 | |
| IW2NTF | 2026-09-02 23:15:17 | 45.49919 | 8.68675 | 140° | 42km/h | 4563m | 4.6m/s | -2°C | 40.6% | 0hPa | 2.9V | 08:30:00 | 00:41:25 | 00:00:00 | |
| IW2NTF | 2026-09-02 23:15:09 | 45.49972 | 8.68624 | 150° | 49km/h | 4532m | 5.4m/s | -1.7°C | 39.8% | 0hPa | 2.9V | 08:30:00 | 00:41:19 | 00:00:00 | |
| IW2NTF | 2026-09-02 23:15:03 | 45.50037 | 8.68583 | 154° | 42km/h | 4508m | 3.8m/s | -1.6°C | 39.8% | 0hPa | 2.9V | 08:30:00 | 00:41:13 | 00:00:00 | |
| IW2NTF | 2026-09-02 23:14:57 | 45.50089 | 8.68540 | 153° | 38km/h | 4489m | 3.5m/s | -1.5°C | 40% | 0hPa | 2.9V | 08:30:00 | 00:41:07 | 00:00:00 | |
| IW2NTF | 2026-09-02 23:14:52 | 45.50152 | 8.68491 | 152° | 55km/h | 4467m | 3.3m/s | -1.4°C | 41% | 0hPa | 2.9V | 08:30:00 | 00:41:01 | 00:00:00 | |
| IW2NTF | 2026-09-02 23:14:45 | 45.50225 | 8.68435 | 148° | 47km/h | 4449m | 4.5m/s | -1.4°C | 42.2% | 0hPa | 2.9V | 08:30:00 | 00:40:55 | 00:00:00 | |
| IW2NTF | 2026-09-02 23:14:39 | 45.50290 | 8.68393 | 156° | 53km/h | 4418m | 4.8m/s | -1.2°C | 44% | 0hPa | 2.9V | 08:30:00 | 00:40:49 | 00:00:00 | |
| IW2NTF | 2026-09-02 23:14:33 | 45.50347 | 8.68357 | 151° | 35km/h | 4389m | 4.5m/s | -1.1°C | 44.7% | 0hPa | 2.9V | 08:30:00 | 00:40:43 | 00:00:00 | |
| IW2NTF | 2026-09-02 23:14:27 | 45.50398 | 8.68314 | 157° | 37km/h | 4363m | 3.2m/s | -0.9°C | 44.7% | 0hPa | 2.9V | 08:30:00 | 00:40:37 | 00:00:00 | |
| IW2NTF | 2026-09-02 23:14:21 | 45.50453 | 8.68271 | 143° | 42km/h | 4340m | 2.7m/s | -0.7°C | 44.6% | 0hPa | 2.9V | 08:30:00 | 00:40:31 | 00:00:00 | |
| IW2NTF | 2026-09-02 23:14:15 | 45.50506 | 8.68214 | 138° | 40km/h | 4319m | 6.2m/s | -0.7°C | 46.1% | 0hPa | 2.9V | 08:30:00 | 00:40:25 | 00:00:00 | |
| IW2NTF | 2026-09-02 23:14:09 | 45.50548 | 8.68162 | 146° | 31km/h | 4290m | 6m/s | -0.5°C | 44.3% | 0hPa | 2.9V | 08:30:00 | 00:40:19 | 00:00:00 | |
| IW2NTF | 2026-09-02 23:14:03 | 45.50580 | 8.68138 | 158° | 26km/h | 4262m | 4.1m/s | -0.3°C | 38.6% | 0hPa | 2.9V | 08:30:00 | 00:40:13 | 00:00:00 | |
| IW2NTF | 2026-09-02 23:13:57 | 45.50619 | 8.68116 | 163° | 26km/h | 4236m | 4.3m/s | -0.2°C | 26% | 0hPa | 2.9V | 08:30:00 | 00:40:07 | 00:00:00 | |
| IW2NTF | 2026-09-02 23:13:51 | 45.50662 | 8.68088 | 151° | 38km/h | 4213m | 3.6m/s | -0.1°C | 25.3% | 0hPa | 2.9V | 08:30:00 | 00:40:01 | 00:00:00 | |
| IW2NTF | 2026-09-02 23:13:45 | 45.50710 | 8.68054 | 165° | 33km/h | 4195m | 4.9m/s | -0.1°C | 26.9% | 0hPa | 2.9V | 08:30:00 | 00:39:55 | 00:00:00 | |
| IW2NTF | 2026-09-02 23:13:39 | 45.50769 | 8.68031 | 153° | 46km/h | 4174m | 4.1m/s | 0°C | 23% | 0hPa | 2.9V | 08:30:00 | 00:39:49 | 00:00:00 | |
| IW2NTF | 2026-09-02 23:13:33 | 45.50831 | 8.67983 | 158° | 47km/h | 4143m | 4.8m/s | 0.2°C | 21.2% | 0hPa | 2.9V | 08:30:00 | 00:39:43 | 00:00:00 | |
| IW2NTF | 2026-09-02 23:13:27 | 45.50890 | 8.67961 | 163° | 33km/h | 4114m | 4.6m/s | 0.2°C | 23% | 0hPa | 2.9V | 08:30:00 | 00:39:37 | 00:00:00 | |
| IW2NTF | 2026-09-02 23:13:21 | 45.50937 | 8.67909 | 131° | 47km/h | 4082m | 3m/s | 0.4°C | 25.2% | 0hPa | 2.9V | 08:30:00 | 00:39:31 | 00:00:00 | |
| IW2NTF | 2026-09-02 23:13:15 | 45.50977 | 8.67849 | 153° | 31km/h | 4055m | 3.9m/s | 0.5°C | 27.6% | 0hPa | 2.9V | 08:30:00 | 00:39:25 | 00:00:00 | |
| IW2NTF | 2026-09-02 23:13:09 | 45.51027 | 8.67814 | 141° | 46km/h | 4029m | 4.9m/s | 0.5°C | 30.2% | 0hPa | 2.9V | 08:30:00 | 00:39:19 | 00:00:00 | |
| IW2NTF | 2026-09-02 23:13:03 | 45.51081 | 8.67756 | 152° | 35km/h | 4001m | 5.9m/s | 0.5°C | 32.3% | 0hPa | 2.9V | 08:30:00 | 00:39:13 | 00:00:00 | |
| IW2NTF | 2026-09-02 23:12:57 | 45.51123 | 8.67717 | 143° | 38km/h | 3969m | 4.9m/s | 0.5°C | 38.2% | 0hPa | 2.9V | 08:30:00 | 00:39:07 | 00:00:00 | |
| IW2NTF | 2026-09-02 23:12:51 | 45.51172 | 8.67667 | 152° | 40km/h | 3946m | 3.9m/s | 0°C | 58.1% | 0hPa | 2.9V | 08:30:00 | 00:39:01 | 00:00:00 | |
| IW2NTF | 2026-09-02 23:12:45 | 45.51228 | 8.67639 | 153° | 42km/h | 3923m | 3.9m/s | 0°C | 62.6% | 0hPa | 2.9V | 08:30:00 | 00:38:55 | 00:00:00 | |
| IW2NTF | 2026-09-02 23:12:39 | 45.51270 | 8.67582 | 137° | 29km/h | 3893m | 4.9m/s | 0.2°C | 65.1% | 0hPa | 2.9V | 08:30:00 | 00:38:49 | 00:00:00 | |
| IW2NTF | 2026-09-02 23:12:32 | 45.51312 | 8.67564 | 163° | 35km/h | 3859m | 4.4m/s | 0.2°C | 69.3% | 0hPa | 2.9V | 08:30:00 | 00:38:43 | 00:00:00 | |
| IW2NTF | 2026-09-02 23:12:26 | 45.51345 | 8.67538 | 155° | 13km/h | 3830m | 5.1m/s | 0.4°C | 68.2% | 0hPa | 2.9V | 08:30:00 | 00:38:37 | 00:00:00 | |
| IW2NTF | 2026-09-02 23:12:20 | 45.51379 | 8.67518 | 151° | 31km/h | 3808m | 3.6m/s | 0.6°C | 67.4% | 0hPa | 2.9V | 08:30:00 | 00:38:31 | 00:00:00 | |
| IW2NTF | 2026-09-02 23:12:14 | 45.51427 | 8.67497 | 175° | 26km/h | 3783m | 4.9m/s | 0.8°C | 66.2% | 0hPa | 2.9V | 08:30:00 | 00:38:25 | 00:00:00 | |
| IW2NTF | 2026-09-02 23:12:08 | 45.51451 | 8.67471 | 115° | 26km/h | 3748m | 5.7m/s | 1.1°C | 64.9% | 0hPa | 2.9V | 08:30:00 | 00:38:19 | 00:00:00 | |
| IW2NTF | 2026-09-02 23:12:03 | 45.51464 | 8.67438 | 173° | 15km/h | 3718m | 4.2m/s | 1.4°C | 63.5% | 0hPa | 2.9V | 08:30:00 | 00:38:13 | 00:00:00 | |
| IW2NTF | 2026-09-02 23:11:55 | 45.51515 | 8.67414 | 149° | 35km/h | 3683m | 5.5m/s | 1.7°C | 61.5% | 0hPa | 2.9V | 08:30:00 | 00:38:05 | 00:00:00 | |
| IW2NTF | 2026-09-02 23:11:49 | 45.51544 | 8.67368 | 121° | 16km/h | 3655m | 4.2m/s | 2°C | 60.6% | 0hPa | 2.9V | 08:30:00 | 00:37:59 | 00:00:00 | |
| IW2NTF | 2026-09-02 23:11:43 | 45.51573 | 8.67356 | 158° | 29km/h | 3623m | 6.2m/s | 2.2°C | 57.9% | 0hPa | 2.9V | 08:30:00 | 00:37:53 | 00:00:00 | |
| IW2NTF | 2026-09-02 23:11:37 | 45.51605 | 8.67317 | 126° | 18km/h | 3591m | 5.2m/s | 2.5°C | 57% | 0hPa | 2.9V | 08:30:00 | 00:37:47 | 00:00:00 | |
| IW2NTF | 2026-09-02 23:11:31 | 45.51628 | 8.67298 | 132° | 20km/h | 3559m | 6.5m/s | 2.9°C | 55.9% | 0hPa | 2.9V | 08:30:00 | 00:37:41 | 00:00:00 | |
| IW2NTF | 2026-09-02 23:11:25 | 45.51638 | 8.67270 | 157° | 13km/h | 3525m | 4.1m/s | 3.2°C | 54.8% | 0hPa | 2.9V | 08:30:00 | 00:37:35 | 00:00:00 | |
| IW2NTF | 2026-09-02 23:11:19 | 45.51669 | 8.67249 | 134° | 27km/h | 3495m | 4.6m/s | 3.5°C | 54.2% | 0hPa | 2.9V | 08:30:00 | 00:37:29 | 00:00:00 | |
| IW2NTF | 2026-09-02 23:11:13 | 45.51683 | 8.67205 | 86° | 16km/h | 3467m | 4.9m/s | 3.7°C | 53.9% | 0hPa | 2.9V | 08:30:00 | 00:37:23 | 00:00:00 | |
| IW2NTF | 2026-09-02 23:11:07 | 45.51689 | 8.67163 | 120° | 27km/h | 3440m | 4.5m/s | 4°C | 52.7% | 0hPa | 2.9V | 08:30:00 | 00:37:17 | 00:00:00 | |
| IW2NTF | 2026-09-02 23:11:01 | 45.51717 | 8.67138 | 176° | 11km/h | 3414m | 6.2m/s | 4.3°C | 51.9% | 0hPa | 2.9V | 08:30:00 | 00:37:11 | 00:00:00 | |
| IW2NTF | 2026-09-02 23:10:55 | 45.51733 | 8.67123 | 111° | 18km/h | 3383m | 4.8m/s | 4.5°C | 51% | 0hPa | 2.9V | 08:30:00 | 00:37:05 | 00:00:00 | |
| IW2NTF | 2026-09-02 23:10:49 | 45.51742 | 8.67100 | 136° | 16km/h | 3352m | 6.1m/s | 4.8°C | 50.3% | 0hPa | 2.9V | 08:30:00 | 00:36:59 | 00:00:00 | |
| IW2NTF | 2026-09-02 23:10:43 | 45.51753 | 8.67072 | 152° | 11km/h | 3321m | 6m/s | 5.2°C | 48.9% | 0hPa | 2.9V | 08:30:00 | 00:36:53 | 00:00:00 | |
| IW2NTF | 2026-09-02 23:10:37 | 45.51773 | 8.67042 | 110° | 20km/h | 3287m | 2.4m/s | 5.5°C | 48.1% | 0hPa | 2.9V | 08:30:00 | 00:36:47 | 00:00:00 | |
| IW2NTF | 2026-09-02 23:10:31 | 45.51776 | 8.67016 | 198° | 4km/h | 3263m | 4.2m/s | 5.7°C | 47.5% | 0hPa | 2.9V | 08:30:00 | 00:36:41 | 00:00:00 | |
| IW2NTF | 2026-09-02 23:10:25 | 45.51798 | 8.67006 | 143° | 22km/h | 3237m | 4m/s | 6°C | 47.3% | 0hPa | 2.9V | 08:30:00 | 00:36:35 | 00:00:00 | |
| IW2NTF | 2026-09-02 23:10:19 | 45.51818 | 8.66983 | 177° | 9km/h | 3210m | 6.1m/s | 6.2°C | 46.9% | 0hPa | 2.9V | 08:30:00 | 00:36:29 | 00:00:00 | |
| IW2NTF | 2026-09-02 23:10:13 | 45.51830 | 8.66981 | 132° | 18km/h | 3173m | 5m/s | 6.6°C | 45.4% | 0hPa | 2.9V | 08:30:00 | 00:36:23 | 00:00:00 | |
| IW2NTF | 2026-09-02 23:10:07 | 45.51828 | 8.66946 | 51° | 20km/h | 3139m | 6.3m/s | 6.7°C | 49.3% | 0hPa | 2.9V | 08:30:00 | 00:36:17 | 00:00:00 | |
| IW2NTF | 2026-09-02 23:10:01 | 45.51824 | 8.66924 | 167° | 7km/h | 3104m | 5.9m/s | 7°C | 45.9% | 0hPa | 2.9V | 08:30:00 | 00:36:11 | 00:00:00 | |
| IW2NTF | 2026-09-02 23:09:55 | 45.51823 | 8.66923 | 44° | 9km/h | 3075m | 6m/s | 7.3°C | 45.4% | 0hPa | 3V | 08:30:00 | 00:36:05 | 00:00:00 | |
| IW2NTF | 2026-09-02 23:09:49 | 45.51825 | 8.66907 | 137° | 5km/h | 3047m | 2.9m/s | 7.5°C | 47.2% | 0hPa | 2.9V | 08:30:00 | 00:35:59 | 00:00:00 | |
| IW2NTF | 2026-09-02 23:09:43 | 45.51826 | 8.66897 | 74° | 4km/h | 3023m | 4.6m/s | 7.7°C | 47.3% | 0hPa | 3V | 08:30:00 | 00:35:53 | 00:00:00 | |
| IW2NTF | 2026-09-02 23:09:37 | 45.51819 | 8.66889 | 63° | 9km/h | 3003m | 4.2m/s | 7.6°C | 51.9% | 0hPa | 2.9V | 08:30:00 | 00:35:47 | 00:00:00 | |
| IW2NTF | 2026-09-02 23:09:31 | 45.51823 | 8.66864 | 95° | 18km/h | 2979m | 3.9m/s | 7.4°C | 51.7% | 0hPa | 2.9V | 08:30:00 | 00:35:41 | 00:00:00 | |
| IW2NTF | 2026-09-02 23:09:25 | 45.51821 | 8.66825 | 74° | 16km/h | 2959m | 4.5m/s | 7.6°C | 48.9% | 0hPa | 2.9V | 08:30:00 | 00:35:35 | 00:00:00 | |
| IW2NTF | 2026-09-02 23:09:19 | 45.51807 | 8.66810 | 320° | 9km/h | 2927m | 4.6m/s | 7.9°C | 44.7% | 0hPa | 2.9V | 08:30:00 | 00:35:29 | 00:00:00 | |
| IW2NTF | 2026-09-02 23:09:11 | 45.51824 | 8.66837 | 197° | 18km/h | 2886m | 5.7m/s | 8.3°C | 43.5% | 0hPa | 2.9V | 08:30:00 | 00:35:21 | 00:00:00 | |
| IW2NTF | 2026-09-02 23:09:05 | 45.51846 | 8.66823 | 121° | 16km/h | 2857m | 6.6m/s | 8.6°C | 42.9% | 0hPa | 2.9V | 08:30:00 | 00:35:15 | 00:00:00 | |
| IW2NTF | 2026-09-02 23:08:59 | 45.51852 | 8.66808 | 243° | 5km/h | 2826m | 4.9m/s | 8.9°C | 41.9% | 0hPa | 3V | 08:30:00 | 00:35:09 | 00:00:00 | |
| IW2NTF | 2026-09-02 23:08:53 | 45.51870 | 8.66827 | 197° | 18km/h | 2801m | 3.5m/s | 9.1°C | 41.5% | 0hPa | 2.9V | 08:30:00 | 00:35:03 | 00:00:00 | |
| IW2NTF | 2026-09-02 23:08:47 | 45.51883 | 8.66817 | 111° | 2km/h | 2770m | 7.5m/s | 9.4°C | 40.7% | 0hPa | 2.9V | 08:30:00 | 00:34:57 | 00:00:00 | |
| IW2NTF | 2026-09-02 23:08:41 | 45.51900 | 8.66821 | 204° | 18km/h | 2730m | 7m/s | 9.6°C | 41.9% | 0hPa | 2.9V | 08:30:00 | 00:34:51 | 00:00:00 | |
| IW2NTF | 2026-09-02 23:08:35 | 45.51912 | 8.66841 | 201° | 5km/h | 2706m | 3.8m/s | 9.6°C | 49.8% | 0hPa | 2.9V | 08:30:00 | 00:34:45 | 00:00:00 | |
| IW2NTF | 2026-09-02 23:08:29 | 45.51932 | 8.66850 | 228° | 16km/h | 2675m | 3.4m/s | 9.6°C | 57.6% | 0hPa | 2.9V | 08:30:00 | 00:34:39 | 00:00:00 | |
| IW2NTF | 2026-09-02 23:08:23 | 45.51944 | 8.66861 | 173° | 16km/h | 2645m | 7.6m/s | 9.8°C | 58.4% | 0hPa | 2.9V | 08:30:00 | 00:34:33 | 00:00:00 | |
| IW2NTF | 2026-09-02 23:08:17 | 45.51970 | 8.66856 | 160° | 11km/h | 2607m | 5.6m/s | 9.9°C | 65.7% | 0hPa | 2.9V | 08:30:00 | 00:34:27 | 00:00:00 | |
| IW2NTF | 2026-09-02 23:08:11 | 45.51981 | 8.66854 | 214° | 13km/h | 2580m | 4.5m/s | 10.1°C | 64.9% | 0hPa | 3V | 08:30:00 | 00:34:21 | 00:00:00 | |
| IW2NTF | 2026-09-02 23:08:05 | 45.51996 | 8.66864 | 192° | 13km/h | 2550m | 4.3m/s | 10.4°C | 62.8% | 0hPa | 2.9V | 08:30:00 | 00:34:15 | 00:00:00 | |
| IW2NTF | 2026-09-02 23:07:59 | 45.52015 | 8.66885 | 232° | 20km/h | 2526m | 4.5m/s | 10.6°C | 57.1% | 0hPa | 2.9V | 08:30:00 | 00:34:09 | 00:00:00 | |
| IW2NTF | 2026-09-02 23:07:53 | 45.52029 | 8.66921 | 215° | 16km/h | 2505m | 5.2m/s | 10.8°C | 55.9% | 0hPa | 3V | 08:30:00 | 00:34:03 | 00:00:00 | |
| IW2NTF | 2026-09-02 23:07:47 | 45.52047 | 8.66932 | 237° | 13km/h | 2476m | 4.4m/s | 11°C | 53.7% | 0hPa | 2.9V | 08:30:00 | 00:33:57 | 00:00:00 | |
| IW2NTF | 2026-09-02 23:07:41 | 45.52074 | 8.66967 | 211° | 31km/h | 2453m | 3.4m/s | 11.3°C | 53% | 0hPa | 2.9V | 08:30:00 | 00:33:51 | 00:00:00 | |
| IW2NTF | 2026-09-02 23:07:35 | 45.52115 | 8.67004 | 212° | 31km/h | 2428m | 4.5m/s | 11.5°C | 52.8% | 0hPa | 2.9V | 08:30:00 | 00:33:45 | 00:00:00 | |
| IW2NTF | 2026-09-02 23:07:29 | 45.52141 | 8.67026 | 219° | 9km/h | 2398m | 6.7m/s | 11.7°C | 48.7% | 0hPa | 2.9V | 08:30:00 | 00:33:39 | 00:00:00 | |
| IW2NTF | 2026-09-02 23:07:23 | 45.52169 | 8.67056 | 198° | 33km/h | 2363m | 6.1m/s | 12°C | 48.5% | 0hPa | 2.9V | 08:30:00 | 00:33:33 | 00:00:00 | |
| IW2NTF | 2026-09-02 23:07:17 | 45.52200 | 8.67058 | 219° | 11km/h | 2335m | 6.1m/s | 12.3°C | 48.2% | 0hPa | 2.9V | 08:30:00 | 00:33:27 | 00:00:00 | |
| IW2NTF | 2026-09-02 23:07:11 | 45.52226 | 8.67091 | 201° | 29km/h | 2302m | 5.3m/s | 12.5°C | 49.4% | 0hPa | 2.9V | 08:30:00 | 00:33:21 | 00:00:00 | |
| IW2NTF | 2026-09-02 23:07:05 | 45.52259 | 8.67089 | 145° | 13km/h | 2270m | 4.7m/s | 12.8°C | 50.1% | 0hPa | 2.9V | 08:30:00 | 00:33:15 | 00:00:00 | |
| IW2NTF | 2026-09-02 23:06:59 | 45.52271 | 8.67098 | 220° | 18km/h | 2240m | 6.6m/s | 12.9°C | 52.2% | 0hPa | 2.9V | 08:30:00 | 00:33:09 | 00:00:00 | |
| IW2NTF | 2026-09-02 23:06:53 | 45.52307 | 8.67115 | 195° | 16km/h | 2203m | 5.7m/s | 13.3°C | 50.4% | 0hPa | 2.9V | 08:30:00 | 00:33:03 | 00:00:00 | |
| IW2NTF | 2026-09-02 23:06:47 | 45.52316 | 8.67131 | 251° | 13km/h | 2174m | 3.6m/s | 13.6°C | 50.5% | 0hPa | 2.9V | 08:30:00 | 00:32:57 | 00:00:00 | |
| IW2NTF | 2026-09-02 23:06:41 | 45.52327 | 8.67166 | 235° | 24km/h | 2147m | 5.9m/s | 13.7°C | 51.9% | 0hPa | 2.9V | 08:30:00 | 00:32:51 | 00:00:00 | |
| IW2NTF | 2026-09-02 23:06:35 | 45.52351 | 8.67189 | 183° | 9km/h | 2117m | 6.4m/s | 14°C | 52.4% | 0hPa | 2.9V | 08:30:00 | 00:32:45 | 00:00:00 | |
| IW2NTF | 2026-09-02 23:06:29 | 45.52364 | 8.67211 | 224° | 27km/h | 2090m | 4.5m/s | 14.2°C | 51.3% | 0hPa | 2.9V | 08:30:00 | 00:32:39 | 00:00:00 | |
| IW2NTF | 2026-09-02 23:06:23 | 45.52401 | 8.67232 | 172° | 20km/h | 2057m | 5.9m/s | 14.5°C | 51.6% | 0hPa | 2.9V | 08:30:00 | 00:32:33 | 00:00:00 | |
| IW2NTF | 2026-09-02 23:06:17 | 45.52410 | 8.67233 | 267° | 7km/h | 2025m | 4.5m/s | 14.8°C | 51.8% | 0hPa | 2.9V | 08:30:00 | 00:32:27 | 00:00:00 | |
| IW2NTF | 2026-09-02 23:06:11 | 45.52432 | 8.67248 | 185° | 29km/h | 1991m | 7.9m/s | 15.1°C | 52.1% | 0hPa | 2.9V | 08:30:00 | 00:32:21 | 00:00:00 | |
| IW2NTF | 2026-09-02 23:06:03 | 45.52460 | 8.67251 | 187° | 26km/h | 1970m | 5.2m/s | 15.3°C | 51.7% | 0hPa | 2.9V | 08:30:00 | 00:32:17 | 00:00:00 | |
| IW2NTF | 2026-09-02 23:06:03 | 45.52474 | 8.67254 | 195° | 29km/h | 1961m | 5.4m/s | 15.3°C | 51.6% | 0hPa | 2.9V | 08:30:00 | 00:32:15 | 00:00:00 | |
| IW2NTF | 2026-09-02 23:06:03 | 45.52486 | 8.67262 | 207° | 26km/h | 1952m | 4.3m/s | 15.2°C | 54.7% | 0hPa | 2.9V | 08:30:00 | 00:32:13 | 00:00:00 | |
| IW2NTF | 2026-09-02 23:05:57 | 45.52498 | 8.67268 | 192° | 24km/h | 1941m | 8.2m/s | 15.3°C | 55% | 0hPa | 2.9V | 08:30:00 | 00:32:11 | 00:00:00 | |
| IW2NTF | 2026-09-02 23:05:57 | 45.52509 | 8.67268 | 168° | 18km/h | 1926m | 6.9m/s | 15.4°C | 53.7% | 0hPa | 3V | 08:30:00 | 00:32:09 | 00:00:00 | |
| IW2NTF | 2026-09-02 23:05:57 | 45.52516 | 8.67266 | 171° | 9km/h | 1914m | 5.6m/s | 15.6°C | 51.8% | 0hPa | 2.9V | 08:30:00 | 00:32:07 | 00:00:00 | |
| IW2NTF | 2026-09-02 23:05:51 | 45.52520 | 8.67267 | 214° | 9km/h | 1904m | 4m/s | 15.3°C | 62.6% | 0hPa | 2.9V | 08:30:00 | 00:32:05 | 00:00:00 | |
| IW2NTF | 2026-09-02 23:05:51 | 45.52528 | 8.67270 | 134° | 7km/h | 1882m | 7.4m/s | 15.4°C | 65.4% | 0hPa | 2.9V | 08:30:00 | 00:32:01 | 00:00:00 | |
| IW2NTF | 2026-09-02 23:05:45 | 45.52531 | 8.67262 | 108° | 15km/h | 1871m | 6.3m/s | 15.5°C | 64.5% | 0hPa | 2.9V | 08:30:00 | 00:31:59 | 00:00:00 | |
| IW2NTF | 2026-09-02 23:05:45 | 45.52533 | 8.67255 | 117° | 5km/h | 1860m | 5m/s | 15.6°C | 64.1% | 0hPa | 2.9V | 08:30:00 | 00:31:57 | 00:00:00 | |
| IW2NTF | 2026-09-02 23:05:45 | 45.52534 | 8.67255 | 274° | 5km/h | 1850m | 6.3m/s | 15.7°C | 64.2% | 0hPa | 2.9V | 08:30:00 | 00:31:55 | 00:00:00 | |
| IW2NTF | 2026-09-02 23:05:39 | 45.52535 | 8.67263 | 256° | 13km/h | 1838m | 6.2m/s | 15.8°C | 64.7% | 0hPa | 2.9V | 08:30:00 | 00:31:53 | 00:00:00 | |
| IW2NTF | 2026-09-02 23:05:39 | 45.52539 | 8.67272 | 235° | 16km/h | 1828m | 4.7m/s | 15.8°C | 65.5% | 0hPa | 2.9V | 08:30:00 | 00:31:51 | 00:00:00 | |
| IW2NTF | 2026-09-02 23:05:39 | 45.52545 | 8.67280 | 210° | 18km/h | 1818m | 4.5m/s | 15.8°C | 70.4% | 0hPa | 2.9V | 08:30:00 | 00:31:49 | 00:00:00 | |
| IW2NTF | 2026-09-02 23:05:33 | 45.52554 | 8.67286 | 209° | 16km/h | 1811m | 5.1m/s | 15.8°C | 71.3% | 0hPa | 2.9V | 08:30:00 | 00:31:47 | 00:00:00 | |
| IW2NTF | 2026-09-02 23:05:33 | 45.52562 | 8.67290 | 194° | 16km/h | 1801m | 4.9m/s | 15.8°C | 72.1% | 0hPa | 2.9V | 08:30:00 | 00:31:45 | 00:00:00 | |
| IW2NTF | 2026-09-02 23:05:33 | 45.52571 | 8.67291 | 178° | 18km/h | 1792m | 5m/s | 15.9°C | 73.1% | 0hPa | 2.9V | 08:30:00 | 00:31:43 | 00:00:00 | |
| IW2NTF | 2026-09-02 23:05:27 | 45.52581 | 8.67292 | 190° | 18km/h | 1781m | 5.9m/s | 16°C | 73.2% | 0hPa | 2.9V | 08:30:00 | 00:31:41 | 00:00:00 | |
| IW2NTF | 2026-09-02 23:05:27 | 45.52588 | 8.67294 | 213° | 9km/h | 1771m | 5.1m/s | 16.1°C | 73.6% | 0hPa | 2.9V | 08:30:00 | 00:31:39 | 00:00:00 | |
| IW2NTF | 2026-09-02 23:05:27 | 45.52590 | 8.67297 | 305° | 4km/h | 1762m | 5.5m/s | 16.1°C | 73.5% | 0hPa | 2.9V | 08:30:00 | 00:31:37 | 00:00:00 | |
| IW2NTF | 2026-09-02 23:05:21 | 45.52588 | 8.67294 | 81° | 11km/h | 1751m | 4.7m/s | 16.2°C | 74% | 0hPa | 2.9V | 08:30:00 | 00:31:35 | 00:00:00 | |
| IW2NTF | 2026-09-02 23:05:21 | 45.52590 | 8.67284 | 116° | 18km/h | 1741m | 5.5m/s | 16.3°C | 73.1% | 0hPa | 3V | 08:30:00 | 00:31:33 | 00:00:00 | |
| IW2NTF | 2026-09-02 23:05:21 | 45.52595 | 8.67272 | 129° | 24km/h | 1730m | 6m/s | 0°C | 0% | 0hPa | 2.9V | 08:30:00 | 00:31:31 | 00:00:00 | |
| IW2NTF | 2026-09-02 23:05:15 | 45.52604 | 8.67261 | 138° | 22km/h | 1721m | 4.5m/s | 0°C | 0% | 0hPa | 2.9V | 08:30:00 | 00:31:29 | 00:00:00 | |
| IW2NTF | 2026-09-02 23:05:15 | 45.52610 | 8.67251 | 127° | 15km/h | 1711m | 5m/s | 0°C | 0% | 0hPa | 2.9V | 08:30:00 | 00:31:27 | 00:00:00 | |
| IW2NTF | 2026-09-02 23:05:15 | 45.52612 | 8.67243 | 81° | 9km/h | 1701m | 5.6m/s | 0°C | 0% | 0hPa | 2.9V | 08:30:00 | 00:31:25 | 00:00:00 | |
| IW2NTF | 2026-09-02 23:05:09 | 45.52610 | 8.67237 | 49° | 9km/h | 1690m | 4.6m/s | 0°C | 0% | 0hPa | 2.9V | 08:30:00 | 00:31:23 | 00:00:00 | |
| IW2NTF | 2026-09-02 23:05:09 | 45.52609 | 8.67231 | 115° | 13km/h | 1680m | 4.4m/s | 0°C | 0% | 0hPa | 2.9V | 08:30:00 | 00:31:21 | 00:00:00 | |
| IW2NTF | 2026-09-02 23:05:09 | 45.52615 | 8.67223 | 142° | 18km/h | 1671m | 5.1m/s | 0°C | 0% | 0hPa | 2.9V | 08:30:00 | 00:31:19 | 00:00:00 | |
| IW2NTF | 2026-09-02 23:05:03 | 45.52624 | 8.67216 | 155° | 20km/h | 1658m | 6.7m/s | 0°C | 0% | 0hPa | 2.9V | 08:30:00 | 00:31:17 | 00:00:00 | |
| IW2NTF | 2026-09-02 23:05:03 | 45.52632 | 8.67212 | 159° | 15km/h | 1648m | 3.9m/s | 0°C | 0% | 0hPa | 2.9V | 08:30:00 | 00:31:15 | 00:00:00 | |
| IW2NTF | 2026-09-02 23:05:03 | 45.52638 | 8.67209 | 169° | 13km/h | 1638m | 6.8m/s | 0°C | 0% | 0hPa | 2.9V | 08:30:00 | 00:31:13 | 00:00:00 | |
| IW2NTF | 2026-09-02 23:04:57 | 45.52644 | 8.67206 | 158° | 15km/h | 1624m | 5.8m/s | 0°C | 0% | 0hPa | 2.9V | 08:30:00 | 00:31:11 | 00:00:00 | |
| IW2NTF | 2026-09-02 23:04:57 | 45.52650 | 8.67199 | 134° | 18km/h | 1614m | 4.2m/s | 0°C | 0% | 0hPa | 2.9V | 08:30:00 | 00:31:09 | 00:00:00 | |
| IW2NTF | 2026-09-02 23:04:57 | 45.52657 | 8.67187 | 118° | 22km/h | 1605m | 5.8m/s | 0°C | 0% | 0hPa | 2.9V | 08:30:00 | 00:31:07 | 00:00:00 | |
| IW2NTF | 2026-09-02 23:04:51 | 45.52663 | 8.67171 | 125° | 26km/h | 1595m | 4.6m/s | 0°C | 0% | 0hPa | 2.9V | 08:30:00 | 00:31:05 | 00:00:00 | |
| IW2NTF | 2026-09-02 23:04:51 | 45.52671 | 8.67156 | 127° | 26km/h | 1588m | 4.7m/s | 0°C | 0% | 0hPa | 2.9V | 08:30:00 | 00:31:03 | 00:00:00 | |
| IW2NTF | 2026-09-02 23:04:51 | 45.52677 | 8.67139 | 112° | 27km/h | 1580m | 4.7m/s | 0°C | 0% | 0hPa | 2.9V | 08:30:00 | 00:31:01 | 00:00:00 | |
| IW2NTF | 2026-09-02 23:04:44 | 45.52679 | 8.67106 | 75° | 20km/h | 1562m | 4.8m/s | 0°C | 0% | 0hPa | 2.9V | 08:30:00 | 00:30:57 | 00:00:00 | |
| IW2NTF | 2026-09-02 23:04:44 | 45.52675 | 8.67093 | 63° | 20km/h | 1553m | 5.5m/s | 0°C | 0% | 0hPa | 2.9V | 08:30:00 | 00:30:55 | 00:00:00 | |
| IW2NTF | 2026-09-02 23:04:44 | 45.52671 | 8.67081 | 74° | 18km/h | 1544m | 4.1m/s | 0°C | 0% | 0hPa | 2.9V | 08:30:00 | 00:30:53 | 00:00:00 | |
| IW2NTF | 2026-09-02 23:04:37 | 45.52670 | 8.67070 | 86° | 13km/h | 1535m | 4.9m/s | 0°C | 0% | 0hPa | 2.9V | 08:30:00 | 00:30:51 | 00:00:00 | |
| IW2NTF | 2026-09-02 23:04:37 | 45.52669 | 8.67063 | 63° | 7km/h | 1522m | 7m/s | 0°C | 0% | 0hPa | 2.9V | 08:30:00 | 00:30:49 | 00:00:00 | |
| IW2NTF | 2026-09-02 23:04:37 | 45.52666 | 8.67057 | 58° | 15km/h | 1509m | 6.2m/s | 0°C | 0% | 0hPa | 2.9V | 08:30:00 | 00:30:47 | 00:00:00 | |
| IW2NTF | 2026-09-02 23:04:31 | 45.52662 | 8.67047 | 67° | 16km/h | 1499m | 6.5m/s | 0°C | 0% | 0hPa | 2.9V | 08:30:00 | 00:30:45 | 00:00:00 | |
| IW2NTF | 2026-09-02 23:04:31 | 45.52661 | 8.67036 | 98° | 15km/h | 1486m | 6.1m/s | 0°C | 0% | 0hPa | 2.9V | 08:30:00 | 00:30:43 | 00:00:00 | |
| IW2NTF | 2026-09-02 23:04:31 | 45.52663 | 8.67025 | 122° | 16km/h | 1474m | 5.7m/s | 0°C | 0% | 0hPa | 2.9V | 08:30:00 | 00:30:41 | 00:00:00 | |
| IW2NTF | 2026-09-02 23:04:25 | 45.52668 | 8.67018 | 145° | 15km/h | 1464m | 4.4m/s | 0°C | 0% | 0hPa | 2.9V | 08:30:00 | 00:30:39 | 00:00:00 | |
| IW2NTF | 2026-09-02 23:04:25 | 45.52674 | 8.67012 | 140° | 16km/h | 1456m | 4.2m/s | 0°C | 0% | 0hPa | 2.9V | 08:30:00 | 00:30:37 | 00:00:00 | |
| IW2NTF | 2026-09-02 23:04:25 | 45.52681 | 8.67002 | 120° | 22km/h | 1448m | 4.6m/s | 0°C | 0% | 0hPa | 2.9V | 08:30:00 | 00:30:35 | 00:00:00 | |
| IW2NTF | 2026-09-02 23:04:19 | 45.52684 | 8.66987 | 97° | 22km/h | 1439m | 5m/s | 0°C | 0% | 0hPa | 2.9V | 08:30:00 | 00:30:33 | 00:00:00 | |
| IW2NTF | 2026-09-02 23:04:19 | 45.52685 | 8.66971 | 100° | 18km/h | 1430m | 5.8m/s | 0°C | 0% | 0hPa | 2.9V | 08:30:00 | 00:30:31 | 00:00:00 | |
| IW2NTF | 2026-09-02 23:04:19 | 45.52687 | 8.66959 | 108° | 18km/h | 1418m | 5.9m/s | 0°C | 0% | 0hPa | 2.9V | 08:30:00 | 00:30:29 | 00:00:00 | |
| IW2NTF | 2026-09-02 23:04:13 | 45.52692 | 8.66945 | 117° | 24km/h | 1408m | 3.9m/s | 0°C | 0% | 0hPa | 2.9V | 08:30:00 | 00:30:27 | 00:00:00 | |
| IW2NTF | 2026-09-02 23:04:13 | 45.52696 | 8.66929 | 97° | 24km/h | 1400m | 4.1m/s | 0°C | 0% | 0hPa | 2.9V | 08:30:00 | 00:30:25 | 00:00:00 | |
| IW2NTF | 2026-09-02 23:04:13 | 45.52697 | 8.66914 | 92° | 18km/h | 1392m | 5.4m/s | 0°C | 0% | 0hPa | 2.9V | 08:30:00 | 00:30:23 | 00:00:00 | |
| IW2NTF | 2026-09-02 23:04:07 | 45.52698 | 8.66901 | 115° | 16km/h | 1380m | 6.1m/s | 0°C | 0% | 0hPa | 3V | 08:30:00 | 00:30:21 | 00:00:00 | |
| IW2NTF | 2026-09-02 23:04:07 | 45.52702 | 8.66892 | 123° | 16km/h | 1367m | 7.2m/s | 0°C | 0% | 0hPa | 2.9V | 08:30:00 | 00:30:19 | 00:00:00 | |
| IW2NTF | 2026-09-02 23:04:07 | 45.52706 | 8.66882 | 114° | 15km/h | 1356m | 4.5m/s | 0°C | 0% | 0hPa | 2.9V | 08:30:00 | 00:30:17 | 00:00:00 | |
| IW2NTF | 2026-09-02 23:04:01 | 45.52708 | 8.66873 | 107° | 13km/h | 1348m | 4.5m/s | 0°C | 0% | 0hPa | 2.9V | 08:30:00 | 00:30:15 | 00:00:00 | |
| IW2NTF | 2026-09-02 23:04:01 | 45.52710 | 8.66866 | 127° | 7km/h | 1341m | 4.1m/s | 0°C | 0% | 0hPa | 3V | 08:30:00 | 00:30:13 | 00:00:00 | |
| IW2NTF | 2026-09-02 23:04:01 | 45.52713 | 8.66859 | 112° | 15km/h | 1333m | 3.7m/s | 0°C | 0% | 0hPa | 2.9V | 08:30:00 | 00:30:11 | 00:00:00 | |
| IW2NTF | 2026-09-02 23:03:55 | 45.52715 | 8.66848 | 91° | 15km/h | 1325m | 3.4m/s | 0°C | 0% | 0hPa | 2.9V | 08:30:00 | 00:30:09 | 00:00:00 | |
| IW2NTF | 2026-09-02 23:03:55 | 45.52713 | 8.66835 | 75° | 20km/h | 1319m | 3.5m/s | 0°C | 0% | 0hPa | 2.9V | 08:30:00 | 00:30:07 | 00:00:00 | |
| IW2NTF | 2026-09-02 23:03:55 | 45.52710 | 8.66821 | 82° | 18km/h | 1312m | 3.5m/s | 0°C | 0% | 0hPa | 2.9V | 08:30:00 | 00:30:05 | 00:00:00 | |
| IW2NTF | 2026-09-02 23:03:49 | 45.52711 | 8.66808 | 99° | 18km/h | 1303m | 4.4m/s | 0°C | 0% | 0hPa | 2.9V | 08:30:00 | 00:30:03 | 00:00:00 | |
| IW2NTF | 2026-09-02 23:03:49 | 45.52714 | 8.66796 | 111° | 15km/h | 1292m | 6m/s | 0°C | 0% | 0hPa | 2.9V | 08:30:00 | 00:30:01 | 00:00:00 | |
| IW2NTF | 2026-09-02 23:03:49 | 45.52715 | 8.66786 | 83° | 13km/h | 1280m | 5.8m/s | 0°C | 0% | 0hPa | 2.9V | 08:30:00 | 00:29:59 | 00:00:00 | |
| IW2NTF | 2026-09-02 23:03:43 | 45.52712 | 8.66776 | 68° | 15km/h | 1271m | 4.9m/s | 0°C | 0% | 0hPa | 2.9V | 08:30:00 | 00:29:57 | 00:00:00 | |
| IW2NTF | 2026-09-02 23:03:43 | 45.52709 | 8.66767 | 68° | 11km/h | 1263m | 3.9m/s | 0°C | 0% | 0hPa | 2.9V | 08:30:00 | 00:29:55 | 00:00:00 | |
| IW2NTF | 2026-09-02 23:03:43 | 45.52708 | 8.66763 | 123° | 2km/h | 1255m | 4.6m/s | 0°C | 0% | 0hPa | 2.9V | 08:30:00 | 00:29:53 | 00:00:00 | |
| IW2NTF | 2026-09-02 23:03:37 | 45.52715 | 8.66760 | 165° | 9km/h | 1237m | 5.4m/s | 0°C | 0% | 0hPa | 2.9V | 08:30:00 | 00:29:49 | 00:00:00 | |
| IW2NTF | 2026-09-02 23:03:37 | 45.52718 | 8.66756 | 106° | 11km/h | 1227m | 4.1m/s | 0°C | 0% | 0hPa | 2.9V | 08:30:00 | 00:29:47 | 00:00:00 | |
| IW2NTF | 2026-09-02 23:03:31 | 45.52720 | 8.66745 | 114° | 18km/h | 1218m | 5.5m/s | 0°C | 0% | 0hPa | 2.9V | 08:30:00 | 00:29:45 | 00:00:00 | |
| IW2NTF | 2026-09-02 23:03:31 | 45.52726 | 8.66734 | 129° | 18km/h | 1205m | 7.4m/s | 0°C | 0% | 0hPa | 2.9V | 00:00:00 | 00:29:43 | 00:00:00 | |
| IW2NTF | 2026-09-02 23:03:31 | 45.52732 | 8.66727 | 159° | 13km/h | 1192m | 5.3m/s | 0°C | 0% | 0hPa | 2.9V | 00:00:00 | 00:29:41 | 00:00:00 | |
| IW2NTF | 2026-09-02 23:03:25 | 45.52736 | 8.66725 | 135° | 4km/h | 1183m | 4.6m/s | 0°C | 0% | 0hPa | 2.9V | 00:00:00 | 00:29:39 | 00:00:00 | |
| IW2NTF | 2026-09-02 23:03:25 | 45.52737 | 8.66720 | 90° | 11km/h | 1174m | 4.3m/s | 0°C | 0% | 0hPa | 2.9V | 00:00:00 | 00:29:37 | 00:00:00 | |
| IW2NTF | 2026-09-02 23:03:25 | 45.52737 | 8.66711 | 106° | 15km/h | 1164m | 5.2m/s | 0°C | 0% | 0hPa | 2.9V | 00:00:00 | 00:29:35 | 00:00:00 | |
| IW2NTF | 2026-09-02 23:03:19 | 45.52742 | 8.66703 | 151° | 15km/h | 1155m | 4.1m/s | 0°C | 0% | 0hPa | 2.9V | 00:00:00 | 00:29:33 | 00:00:00 | |
| IW2NTF | 2026-09-02 23:03:19 | 45.52748 | 8.66701 | 179° | 9km/h | 1146m | 4.7m/s | 0°C | 0% | 0hPa | 2.9V | 00:00:00 | 00:29:31 | 00:00:00 | |
| IW2NTF | 2026-09-02 23:03:19 | 45.52752 | 8.66700 | 124° | 4km/h | 1138m | 4.5m/s | 0°C | 0% | 0hPa | 2.9V | 00:00:00 | 00:29:29 | 00:00:00 | |
| IW2NTF | 2026-09-02 23:03:13 | 45.52752 | 8.66694 | 101° | 13km/h | 1129m | 6.4m/s | 0°C | 0% | 0hPa | 2.9V | 00:00:00 | 00:29:27 | 00:00:00 | |
| IW2NTF | 2026-09-02 23:03:13 | 45.52755 | 8.66684 | 118° | 18km/h | 1119m | 4.1m/s | 0°C | 0% | 0hPa | 2.9V | 00:00:00 | 00:29:25 | 00:00:00 | |
| IW2NTF | 2026-09-02 23:03:13 | 45.52759 | 8.66674 | 126° | 13km/h | 1109m | 6.3m/s | 0°C | 0% | 0hPa | 2.9V | 00:00:00 | 00:29:23 | 00:00:00 | |
| IW2NTF | 2026-09-02 23:03:08 | 45.52761 | 8.66669 | 101° | 4km/h | 1098m | 4.4m/s | 0°C | 0% | 0hPa | 2.9V | 00:00:00 | 00:29:21 | 00:00:00 | |
| IW2NTF | 2026-09-02 23:03:08 | 45.52761 | 8.66665 | 88° | 9km/h | 1086m | 7.2m/s | 0°C | 0% | 0hPa | 2.9V | 00:00:00 | 00:29:19 | 00:00:00 | |
| IW2NTF | 2026-09-02 23:03:08 | 45.52763 | 8.66657 | 137° | 16km/h | 1075m | 3.4m/s | 0°C | 0% | 0hPa | 2.9V | 00:00:00 | 00:29:17 | 00:00:00 | |
| IW2NTF | 2026-09-02 23:03:01 | 45.52770 | 8.66652 | 170° | 13km/h | 1066m | 5.3m/s | 0°C | 0% | 0hPa | 2.9V | 00:00:00 | 00:29:15 | 00:00:00 | |
| IW2NTF | 2026-09-02 23:03:01 | 45.52775 | 8.66653 | 213° | 5km/h | 1056m | 5.4m/s | 0°C | 0% | 0hPa | 2.9V | 00:00:00 | 00:29:13 | 00:00:00 | |
| IW2NTF | 2026-09-02 23:03:01 | 45.52776 | 8.66654 | 59° | 4km/h | 1047m | 5.1m/s | 0°C | 0% | 0hPa | 2.9V | 00:00:00 | 00:29:11 | 00:00:00 | |
| IW2NTF | 2026-09-02 23:02:55 | 45.52776 | 8.66648 | 97° | 11km/h | 1037m | 4.7m/s | 0°C | 0% | 0hPa | 2.9V | 00:00:00 | 00:29:09 | 00:00:00 | |
| IW2NTF | 2026-09-02 23:02:55 | 45.52780 | 8.66640 | 153° | 16km/h | 1027m | 4.2m/s | 0°C | 0% | 0hPa | 2.9V | 00:00:00 | 00:29:07 | 00:00:00 | |
| IW2NTF | 2026-09-02 23:02:55 | 45.52787 | 8.66638 | 188° | 15km/h | 1020m | 4.8m/s | 0°C | 0% | 0hPa | 2.9V | 00:00:00 | 00:29:05 | 00:00:00 | |
| IW2NTF | 2026-09-02 23:02:49 | 45.52791 | 8.66641 | 265° | 5km/h | 1010m | 5.5m/s | 0°C | 0% | 0hPa | 2.9V | 00:00:00 | 00:29:03 | 00:00:00 | |
| IW2NTF | 2026-09-02 23:02:49 | 45.52789 | 8.66640 | 61° | 11km/h | 1000m | 4.6m/s | 0°C | 0% | 0hPa | 2.9V | 00:00:00 | 00:29:01 | 00:00:00 | |
| IW2NTF | 2026-09-02 23:02:49 | 45.52789 | 8.66630 | 99° | 18km/h | 989m | 4.6m/s | 0°C | 0% | 0hPa | 2.9V | 00:00:00 | 00:28:59 | 00:00:00 | |
| IW2NTF | 2026-09-02 23:02:43 | 45.52793 | 8.66618 | 136° | 18km/h | 980m | 5.3m/s | 0°C | 0% | 0hPa | 2.9V | 00:00:00 | 00:28:57 | 00:00:00 | |
| IW2NTF | 2026-09-02 23:02:43 | 45.52799 | 8.66614 | 174° | 7km/h | 970m | 4.6m/s | 0°C | 0% | 0hPa | 2.9V | 00:00:00 | 00:28:55 | 00:00:00 | |
| IW2NTF | 2026-09-02 23:02:43 | 45.52800 | 8.66614 | 336° | 4km/h | 962m | 4.7m/s | 0°C | 0% | 0hPa | 2.9V | 00:00:00 | 00:28:53 | 00:00:00 | |
| IW2NTF | 2026-09-02 23:02:37 | 45.52798 | 8.66611 | 76° | 11km/h | 951m | 5m/s | 0°C | 0% | 0hPa | 2.9V | 00:00:00 | 00:28:51 | 00:00:00 | |
| IW2NTF | 2026-09-02 23:02:37 | 45.52799 | 8.66601 | 116° | 18km/h | 941m | 5m/s | 0°C | 0% | 0hPa | 2.9V | 00:00:00 | 00:28:49 | 00:00:00 | |
| IW2NTF | 2026-09-02 23:02:37 | 45.52805 | 8.66593 | 159° | 13km/h | 930m | 4.7m/s | 0°C | 0% | 0hPa | 2.9V | 00:00:00 | 00:28:47 | 00:00:00 | |
| IW2NTF | 2026-09-02 23:02:31 | 45.52810 | 8.66595 | 23° | 5km/h | 913m | 4.2m/s | 0°C | 0% | 0hPa | 2.9V | 00:00:00 | 00:28:43 | 00:00:00 | |
| IW2NTF | 2026-09-02 23:02:31 | 45.52807 | 8.66589 | 73° | 15km/h | 904m | 4.9m/s | 0°C | 0% | 0hPa | 2.9V | 00:00:00 | 00:28:41 | 00:00:00 | |
| IW2NTF | 2026-09-02 23:02:26 | 45.52809 | 8.66578 | 118° | 18km/h | 895m | 4.2m/s | 0°C | 0% | 0hPa | 2.9V | 00:00:00 | 00:28:39 | 00:00:00 | |
| IW2NTF | 2026-09-02 23:02:26 | 45.52815 | 8.66571 | 173° | 13km/h | 885m | 4.3m/s | 0°C | 0% | 0hPa | 2.9V | 00:00:00 | 00:28:37 | 00:00:00 | |
| IW2NTF | 2026-09-02 23:02:26 | 45.52819 | 8.66574 | 253° | 5km/h | 874m | 5.7m/s | 0°C | 0% | 0hPa | 2.9V | 00:00:00 | 00:28:35 | 00:00:00 | |
| IW2NTF | 2026-09-02 23:02:19 | 45.52818 | 8.66578 | 313° | 7km/h | 864m | 4.2m/s | 0°C | 0% | 0hPa | 2.9V | 00:00:00 | 00:28:33 | 00:00:00 | |
| IW2NTF | 2026-09-02 23:02:19 | 45.52814 | 8.66579 | 357° | 9km/h | 857m | 4.5m/s | 0°C | 0% | 0hPa | 2.9V | 00:00:00 | 00:28:31 | 00:00:00 | |
| IW2NTF | 2026-09-02 23:02:19 | 45.52809 | 8.66578 | 20° | 11km/h | 849m | 4m/s | 0°C | 0% | 0hPa | 2.9V | 00:00:00 | 00:28:29 | 00:00:00 | |
| IW2NTF | 2026-09-02 23:02:13 | 45.52805 | 8.66571 | 71° | 11km/h | 841m | 3.4m/s | 0°C | 0% | 0hPa | 2.9V | 00:00:00 | 00:28:27 | 00:00:00 | |
| IW2NTF | 2026-09-02 23:02:13 | 45.52807 | 8.66562 | 130° | 16km/h | 833m | 5m/s | 0°C | 0% | 0hPa | 2.9V | 00:00:00 | 00:28:25 | 00:00:00 | |
| IW2NTF | 2026-09-02 23:02:13 | 45.52815 | 8.66556 | 182° | 16km/h | 825m | 4m/s | 0°C | 0% | 0hPa | 2.9V | 00:00:00 | 00:28:23 | 00:00:00 |